<?xml version="1.0" encoding="UTF-8" standalone="no" ?><gpx xmlns="http://www.topografix.com/GPX/1/1" xmlns:gpxx="http://www.garmin.com/xmlschemas/GpxExtensions/v3" xmlns:wptx1="http://www.garmin.com/xmlschemas/WaypointExtension/v1" xmlns:gpxtpx="http://www.garmin.com/xmlschemas/TrackPointExtension/v1" creator="GuideVTT.com" version="1.1" xmlns:xsi="http://www.w3.org/2001/XMLSchema-instance" xsi:schemaLocation="http://www.topografix.com/GPX/1/1 http://www.topografix.com/GPX/1/1/gpx.xsd http://www.garmin.com/xmlschemas/GpxExtensions/v3 http://www8.garmin.com/xmlschemas/GpxExtensionsv3.xsd http://www.garmin.com/xmlschemas/WaypointExtension/v1 http://www8.garmin.com/xmlschemas/WaypointExtensionv1.xsd http://www.garmin.com/xmlschemas/TrackPointExtension/v1 http://www.garmin.com/xmlschemas/TrackPointExtensionv1.xsd">
<metadata><link href="http://www.garmin.com"><text>Garmin International</text></link><time>2013-06-22T15:13:50Z</time></metadata>
<trk><name>11-4-07.gpx</name><extensions><gpxx:TrackExtension><gpxx:DisplayColor>Cyan</gpxx:DisplayColor></gpxx:TrackExtension></extensions><trkseg>
<trkpt lat="46.03557170" lon="6.11222670"><ele>777.5</ele><time>2007-04-09T12:39:04Z</time></trkpt>
<trkpt lat="46.03559500" lon="6.11230330"><ele>778.5</ele><time>2007-04-09T12:39:06Z</time></trkpt>
<trkpt lat="46.03562670" lon="6.11241670"><ele>778.5</ele><time>2007-04-09T12:39:08Z</time></trkpt>
<trkpt lat="46.03565670" lon="6.11253330"><ele>778.599976</ele><time>2007-04-09T12:39:10Z</time></trkpt>
<trkpt lat="46.03567670" lon="6.11265330"><ele>778.599976</ele><time>2007-04-09T12:39:12Z</time></trkpt>
<trkpt lat="46.03568670" lon="6.11277500"><ele>778.799988</ele><time>2007-04-09T12:39:14Z</time></trkpt>
<trkpt lat="46.03571830" lon="6.11288830"><ele>778.299988</ele><time>2007-04-09T12:39:16Z</time></trkpt>
<trkpt lat="46.03575170" lon="6.11299500"><ele>778.599976</ele><time>2007-04-09T12:39:18Z</time></trkpt>
<trkpt lat="46.03578670" lon="6.11309830"><ele>782.099976</ele><time>2007-04-09T12:39:20Z</time></trkpt>
<trkpt lat="46.03581830" lon="6.11322170"><ele>782.799988</ele><time>2007-04-09T12:39:22Z</time></trkpt>
<trkpt lat="46.03584830" lon="6.11335170"><ele>782</ele><time>2007-04-09T12:39:24Z</time></trkpt>
<trkpt lat="46.03587830" lon="6.11348000"><ele>781.700012</ele><time>2007-04-09T12:39:26Z</time></trkpt>
<trkpt lat="46.03591330" lon="6.11361170"><ele>781.200012</ele><time>2007-04-09T12:39:28Z</time></trkpt>
<trkpt lat="46.03594500" lon="6.11374500"><ele>780.599976</ele><time>2007-04-09T12:39:30Z</time></trkpt>
<trkpt lat="46.03597830" lon="6.11387670"><ele>780</ele><time>2007-04-09T12:39:32Z</time></trkpt>
<trkpt lat="46.03600830" lon="6.11400830"><ele>778.700012</ele><time>2007-04-09T12:39:34Z</time></trkpt>
<trkpt lat="46.03604830" lon="6.11412670"><ele>780.900024</ele><time>2007-04-09T12:39:36Z</time></trkpt>
<trkpt lat="46.03608330" lon="6.11425670"><ele>781.099976</ele><time>2007-04-09T12:39:38Z</time></trkpt>
<trkpt lat="46.03610670" lon="6.11440670"><ele>777.599976</ele><time>2007-04-09T12:39:40Z</time></trkpt>
<trkpt lat="46.03614000" lon="6.11454670"><ele>776.900024</ele><time>2007-04-09T12:39:42Z</time></trkpt>
<trkpt lat="46.03617500" lon="6.11469830"><ele>774.599976</ele><time>2007-04-09T12:39:44Z</time></trkpt>
<trkpt lat="46.03621830" lon="6.11483330"><ele>776.400024</ele><time>2007-04-09T12:39:46Z</time></trkpt>
<trkpt lat="46.03625500" lon="6.11498000"><ele>776.900024</ele><time>2007-04-09T12:39:48Z</time></trkpt>
<trkpt lat="46.03629500" lon="6.11513170"><ele>776.799988</ele><time>2007-04-09T12:39:50Z</time></trkpt>
<trkpt lat="46.03633500" lon="6.11529000"><ele>776.700012</ele><time>2007-04-09T12:39:52Z</time></trkpt>
<trkpt lat="46.03637500" lon="6.11545000"><ele>776.299988</ele><time>2007-04-09T12:39:54Z</time></trkpt>
<trkpt lat="46.03641670" lon="6.11561170"><ele>775.799988</ele><time>2007-04-09T12:39:56Z</time></trkpt>
<trkpt lat="46.03645500" lon="6.11576830"><ele>776.900024</ele><time>2007-04-09T12:39:58Z</time></trkpt>
<trkpt lat="46.03649330" lon="6.11592500"><ele>778.400024</ele><time>2007-04-09T12:40:00Z</time></trkpt>
<trkpt lat="46.03653830" lon="6.11608330"><ele>779.099976</ele><time>2007-04-09T12:40:02Z</time></trkpt>
<trkpt lat="46.03658170" lon="6.11625670"><ele>777.900024</ele><time>2007-04-09T12:40:04Z</time></trkpt>
<trkpt lat="46.03663000" lon="6.11643170"><ele>776.200012</ele><time>2007-04-09T12:40:06Z</time></trkpt>
<trkpt lat="46.03667670" lon="6.11660500"><ele>775.200012</ele><time>2007-04-09T12:40:08Z</time></trkpt>
<trkpt lat="46.03672170" lon="6.11677170"><ele>774.599976</ele><time>2007-04-09T12:40:10Z</time></trkpt>
<trkpt lat="46.03676670" lon="6.11693330"><ele>774.099976</ele><time>2007-04-09T12:40:12Z</time></trkpt>
<trkpt lat="46.03681170" lon="6.11709170"><ele>773.599976</ele><time>2007-04-09T12:40:14Z</time></trkpt>
<trkpt lat="46.03686000" lon="6.11724500"><ele>773.299988</ele><time>2007-04-09T12:40:16Z</time></trkpt>
<trkpt lat="46.03690500" lon="6.11740170"><ele>773</ele><time>2007-04-09T12:40:18Z</time></trkpt>
<trkpt lat="46.03695500" lon="6.11755500"><ele>772.299988</ele><time>2007-04-09T12:40:20Z</time></trkpt>
<trkpt lat="46.03701000" lon="6.11770830"><ele>771.700012</ele><time>2007-04-09T12:40:22Z</time></trkpt>
<trkpt lat="46.03706830" lon="6.11785500"><ele>771.400024</ele><time>2007-04-09T12:40:24Z</time></trkpt>
<trkpt lat="46.03712830" lon="6.11800170"><ele>771</ele><time>2007-04-09T12:40:26Z</time></trkpt>
<trkpt lat="46.03718330" lon="6.11813830"><ele>770.700012</ele><time>2007-04-09T12:40:28Z</time></trkpt>
<trkpt lat="46.03723000" lon="6.11824500"><ele>770.5</ele><time>2007-04-09T12:40:30Z</time></trkpt>
<trkpt lat="46.03726500" lon="6.11831830"><ele>770.400024</ele><time>2007-04-09T12:40:32Z</time></trkpt>
<trkpt lat="46.03728830" lon="6.11836000"><ele>770.400024</ele><time>2007-04-09T12:40:34Z</time></trkpt>
<trkpt lat="46.03730500" lon="6.11838830"><ele>770.599976</ele><time>2007-04-09T12:40:36Z</time></trkpt>
<trkpt lat="46.03732830" lon="6.11843330"><ele>770.400024</ele><time>2007-04-09T12:40:38Z</time></trkpt>
<trkpt lat="46.03734330" lon="6.11847670"><ele>770.299988</ele><time>2007-04-09T12:40:40Z</time></trkpt>
<trkpt lat="46.03735830" lon="6.11851830"><ele>770.299988</ele><time>2007-04-09T12:40:42Z</time></trkpt>
<trkpt lat="46.03739170" lon="6.11859170"><ele>770.099976</ele><time>2007-04-09T12:40:44Z</time></trkpt>
<trkpt lat="46.03743170" lon="6.11868670"><ele>770.299988</ele><time>2007-04-09T12:40:46Z</time></trkpt>
<trkpt lat="46.03747170" lon="6.11878830"><ele>771.299988</ele><time>2007-04-09T12:40:48Z</time></trkpt>
<trkpt lat="46.03752170" lon="6.11889500"><ele>772.200012</ele><time>2007-04-09T12:40:50Z</time></trkpt>
<trkpt lat="46.03757170" lon="6.11900830"><ele>773.099976</ele><time>2007-04-09T12:40:52Z</time></trkpt>
<trkpt lat="46.03762670" lon="6.11912830"><ele>773.799988</ele><time>2007-04-09T12:40:54Z</time></trkpt>
<trkpt lat="46.03768830" lon="6.11924670"><ele>774.400024</ele><time>2007-04-09T12:40:56Z</time></trkpt>
<trkpt lat="46.03775000" lon="6.11936170"><ele>774.900024</ele><time>2007-04-09T12:40:58Z</time></trkpt>
<trkpt lat="46.03781330" lon="6.11946830"><ele>775.5</ele><time>2007-04-09T12:41:00Z</time></trkpt>
<trkpt lat="46.03784830" lon="6.11956330"><ele>776</ele><time>2007-04-09T12:41:02Z</time></trkpt>
<trkpt lat="46.03789830" lon="6.11960500"><ele>776.299988</ele><time>2007-04-09T12:41:04Z</time></trkpt>
<trkpt lat="46.03797500" lon="6.11961830"><ele>776.599976</ele><time>2007-04-09T12:41:06Z</time></trkpt>
<trkpt lat="46.03803830" lon="6.11969830"><ele>776.700012</ele><time>2007-04-09T12:41:08Z</time></trkpt>
<trkpt lat="46.03810500" lon="6.11978330"><ele>776.700012</ele><time>2007-04-09T12:41:10Z</time></trkpt>
<trkpt lat="46.03817000" lon="6.11987170"><ele>777</ele><time>2007-04-09T12:41:12Z</time></trkpt>
<trkpt lat="46.03824000" lon="6.11996000"><ele>777.099976</ele><time>2007-04-09T12:41:14Z</time></trkpt>
<trkpt lat="46.03831500" lon="6.12004670"><ele>777.200012</ele><time>2007-04-09T12:41:16Z</time></trkpt>
<trkpt lat="46.03839000" lon="6.12013170"><ele>777.299988</ele><time>2007-04-09T12:41:18Z</time></trkpt>
<trkpt lat="46.03847000" lon="6.12021500"><ele>777.299988</ele><time>2007-04-09T12:41:20Z</time></trkpt>
<trkpt lat="46.03855170" lon="6.12029830"><ele>777.200012</ele><time>2007-04-09T12:41:22Z</time></trkpt>
<trkpt lat="46.03863830" lon="6.12037670"><ele>777.200012</ele><time>2007-04-09T12:41:24Z</time></trkpt>
<trkpt lat="46.03872500" lon="6.12045170"><ele>777.299988</ele><time>2007-04-09T12:41:26Z</time></trkpt>
<trkpt lat="46.03881500" lon="6.12052330"><ele>777.299988</ele><time>2007-04-09T12:41:28Z</time></trkpt>
<trkpt lat="46.03890500" lon="6.12059170"><ele>777.400024</ele><time>2007-04-09T12:41:30Z</time></trkpt>
<trkpt lat="46.03899830" lon="6.12066000"><ele>777.5</ele><time>2007-04-09T12:41:32Z</time></trkpt>
<trkpt lat="46.03909330" lon="6.12072170"><ele>777.700012</ele><time>2007-04-09T12:41:34Z</time></trkpt>
<trkpt lat="46.03918830" lon="6.12078000"><ele>777.799988</ele><time>2007-04-09T12:41:36Z</time></trkpt>
<trkpt lat="46.03928330" lon="6.12083330"><ele>778</ele><time>2007-04-09T12:41:38Z</time></trkpt>
<trkpt lat="46.03937830" lon="6.12088170"><ele>778.099976</ele><time>2007-04-09T12:41:40Z</time></trkpt>
<trkpt lat="46.03947170" lon="6.12092670"><ele>778.200012</ele><time>2007-04-09T12:41:42Z</time></trkpt>
<trkpt lat="46.03956670" lon="6.12096830"><ele>778.200012</ele><time>2007-04-09T12:41:44Z</time></trkpt>
<trkpt lat="46.03965500" lon="6.12100170"><ele>779.700012</ele><time>2007-04-09T12:41:46Z</time></trkpt>
<trkpt lat="46.03974830" lon="6.12103670"><ele>780.599976</ele><time>2007-04-09T12:41:48Z</time></trkpt>
<trkpt lat="46.03984170" lon="6.12107330"><ele>781.299988</ele><time>2007-04-09T12:41:50Z</time></trkpt>
<trkpt lat="46.03994000" lon="6.12111000"><ele>782</ele><time>2007-04-09T12:41:52Z</time></trkpt>
<trkpt lat="46.04003670" lon="6.12114500"><ele>782.5</ele><time>2007-04-09T12:41:54Z</time></trkpt>
<trkpt lat="46.04013330" lon="6.12117830"><ele>782.900024</ele><time>2007-04-09T12:41:56Z</time></trkpt>
<trkpt lat="46.04022830" lon="6.12121500"><ele>783.299988</ele><time>2007-04-09T12:41:58Z</time></trkpt>
<trkpt lat="46.04032170" lon="6.12125000"><ele>783.700012</ele><time>2007-04-09T12:42:00Z</time></trkpt>
<trkpt lat="46.04041330" lon="6.12128500"><ele>784.200012</ele><time>2007-04-09T12:42:02Z</time></trkpt>
<trkpt lat="46.04050500" lon="6.12133170"><ele>784.599976</ele><time>2007-04-09T12:42:04Z</time></trkpt>
<trkpt lat="46.04059000" lon="6.12139830"><ele>784.700012</ele><time>2007-04-09T12:42:06Z</time></trkpt>
<trkpt lat="46.04066670" lon="6.12148830"><ele>784.799988</ele><time>2007-04-09T12:42:08Z</time></trkpt>
<trkpt lat="46.04073330" lon="6.12159670"><ele>785</ele><time>2007-04-09T12:42:10Z</time></trkpt>
<trkpt lat="46.04078670" lon="6.12172170"><ele>785.099976</ele><time>2007-04-09T12:42:12Z</time></trkpt>
<trkpt lat="46.04082170" lon="6.12186170"><ele>785.099976</ele><time>2007-04-09T12:42:14Z</time></trkpt>
<trkpt lat="46.04084670" lon="6.12201500"><ele>784.900024</ele><time>2007-04-09T12:42:16Z</time></trkpt>
<trkpt lat="46.04086170" lon="6.12218330"><ele>784.700012</ele><time>2007-04-09T12:42:18Z</time></trkpt>
<trkpt lat="46.04087670" lon="6.12236000"><ele>784.5</ele><time>2007-04-09T12:42:20Z</time></trkpt>
<trkpt lat="46.04089670" lon="6.12253500"><ele>784.299988</ele><time>2007-04-09T12:42:22Z</time></trkpt>
<trkpt lat="46.04091830" lon="6.12270830"><ele>784.299988</ele><time>2007-04-09T12:42:24Z</time></trkpt>
<trkpt lat="46.04093330" lon="6.12288000"><ele>785.200012</ele><time>2007-04-09T12:42:26Z</time></trkpt>
<trkpt lat="46.04095170" lon="6.12305670"><ele>785.900024</ele><time>2007-04-09T12:42:28Z</time></trkpt>
<trkpt lat="46.04097170" lon="6.12323500"><ele>786.400024</ele><time>2007-04-09T12:42:30Z</time></trkpt>
<trkpt lat="46.04099830" lon="6.12341830"><ele>786.799988</ele><time>2007-04-09T12:42:32Z</time></trkpt>
<trkpt lat="46.04103670" lon="6.12360000"><ele>786.900024</ele><time>2007-04-09T12:42:34Z</time></trkpt>
<trkpt lat="46.04109670" lon="6.12377500"><ele>787</ele><time>2007-04-09T12:42:36Z</time></trkpt>
<trkpt lat="46.04117670" lon="6.12393830"><ele>787.299988</ele><time>2007-04-09T12:42:38Z</time></trkpt>
<trkpt lat="46.04127170" lon="6.12408170"><ele>787.599976</ele><time>2007-04-09T12:42:40Z</time></trkpt>
<trkpt lat="46.04138000" lon="6.12421170"><ele>787.799988</ele><time>2007-04-09T12:42:42Z</time></trkpt>
<trkpt lat="46.04149500" lon="6.12434500"><ele>787.700012</ele><time>2007-04-09T12:42:44Z</time></trkpt>
<trkpt lat="46.04161000" lon="6.12448330"><ele>787.5</ele><time>2007-04-09T12:42:46Z</time></trkpt>
<trkpt lat="46.04172830" lon="6.12462330"><ele>787.599976</ele><time>2007-04-09T12:42:48Z</time></trkpt>
<trkpt lat="46.04184670" lon="6.12476170"><ele>787.599976</ele><time>2007-04-09T12:42:50Z</time></trkpt>
<trkpt lat="46.04196670" lon="6.12490000"><ele>787.5</ele><time>2007-04-09T12:42:52Z</time></trkpt>
<trkpt lat="46.04208500" lon="6.12504000"><ele>787.400024</ele><time>2007-04-09T12:42:54Z</time></trkpt>
<trkpt lat="46.04220500" lon="6.12518170"><ele>787.299988</ele><time>2007-04-09T12:42:56Z</time></trkpt>
<trkpt lat="46.04232670" lon="6.12532000"><ele>787.5</ele><time>2007-04-09T12:42:58Z</time></trkpt>
<trkpt lat="46.04244670" lon="6.12546000"><ele>787.200012</ele><time>2007-04-09T12:43:00Z</time></trkpt>
<trkpt lat="46.04256500" lon="6.12559500"><ele>787</ele><time>2007-04-09T12:43:02Z</time></trkpt>
<trkpt lat="46.04268830" lon="6.12572170"><ele>787</ele><time>2007-04-09T12:43:04Z</time></trkpt>
<trkpt lat="46.04281500" lon="6.12584170"><ele>787.5</ele><time>2007-04-09T12:43:06Z</time></trkpt>
<trkpt lat="46.04294170" lon="6.12596670"><ele>787.5</ele><time>2007-04-09T12:43:08Z</time></trkpt>
<trkpt lat="46.04307170" lon="6.12609170"><ele>787.5</ele><time>2007-04-09T12:43:10Z</time></trkpt>
<trkpt lat="46.04319830" lon="6.12622000"><ele>787.599976</ele><time>2007-04-09T12:43:12Z</time></trkpt>
<trkpt lat="46.04331670" lon="6.12635500"><ele>787.599976</ele><time>2007-04-09T12:43:14Z</time></trkpt>
<trkpt lat="46.04343000" lon="6.12649830"><ele>787.700012</ele><time>2007-04-09T12:43:16Z</time></trkpt>
<trkpt lat="46.04354000" lon="6.12663830"><ele>787.900024</ele><time>2007-04-09T12:43:18Z</time></trkpt>
<trkpt lat="46.04364670" lon="6.12678500"><ele>787.900024</ele><time>2007-04-09T12:43:20Z</time></trkpt>
<trkpt lat="46.04375170" lon="6.12693170"><ele>787.900024</ele><time>2007-04-09T12:43:22Z</time></trkpt>
<trkpt lat="46.04385330" lon="6.12707500"><ele>788.099976</ele><time>2007-04-09T12:43:24Z</time></trkpt>
<trkpt lat="46.04395170" lon="6.12721330"><ele>788.299988</ele><time>2007-04-09T12:43:26Z</time></trkpt>
<trkpt lat="46.04404830" lon="6.12735170"><ele>788.400024</ele><time>2007-04-09T12:43:28Z</time></trkpt>
<trkpt lat="46.04414830" lon="6.12748000"><ele>788.5</ele><time>2007-04-09T12:43:30Z</time></trkpt>
<trkpt lat="46.04425330" lon="6.12760170"><ele>788.5</ele><time>2007-04-09T12:43:32Z</time></trkpt>
<trkpt lat="46.04436330" lon="6.12771670"><ele>788.599976</ele><time>2007-04-09T12:43:34Z</time></trkpt>
<trkpt lat="46.04447670" lon="6.12782170"><ele>788.599976</ele><time>2007-04-09T12:43:36Z</time></trkpt>
<trkpt lat="46.04459330" lon="6.12791670"><ele>788.599976</ele><time>2007-04-09T12:43:38Z</time></trkpt>
<trkpt lat="46.04471330" lon="6.12800670"><ele>788.5</ele><time>2007-04-09T12:43:40Z</time></trkpt>
<trkpt lat="46.04483170" lon="6.12809500"><ele>788.5</ele><time>2007-04-09T12:43:42Z</time></trkpt>
<trkpt lat="46.04495330" lon="6.12818170"><ele>788.400024</ele><time>2007-04-09T12:43:44Z</time></trkpt>
<trkpt lat="46.04507500" lon="6.12827170"><ele>788.299988</ele><time>2007-04-09T12:43:46Z</time></trkpt>
<trkpt lat="46.04519500" lon="6.12836500"><ele>788.299988</ele><time>2007-04-09T12:43:48Z</time></trkpt>
<trkpt lat="46.04531170" lon="6.12846330"><ele>788.299988</ele><time>2007-04-09T12:43:50Z</time></trkpt>
<trkpt lat="46.04542670" lon="6.12856670"><ele>788.400024</ele><time>2007-04-09T12:43:52Z</time></trkpt>
<trkpt lat="46.04553830" lon="6.12867500"><ele>788.5</ele><time>2007-04-09T12:43:54Z</time></trkpt>
<trkpt lat="46.04565000" lon="6.12878830"><ele>788.700012</ele><time>2007-04-09T12:43:56Z</time></trkpt>
<trkpt lat="46.04576500" lon="6.12890500"><ele>789.099976</ele><time>2007-04-09T12:43:58Z</time></trkpt>
<trkpt lat="46.04588170" lon="6.12901670"><ele>789.5</ele><time>2007-04-09T12:44:00Z</time></trkpt>
<trkpt lat="46.04599830" lon="6.12913000"><ele>789.799988</ele><time>2007-04-09T12:44:02Z</time></trkpt>
<trkpt lat="46.04611670" lon="6.12924170"><ele>790.299988</ele><time>2007-04-09T12:44:04Z</time></trkpt>
<trkpt lat="46.04623500" lon="6.12935670"><ele>790.799988</ele><time>2007-04-09T12:44:06Z</time></trkpt>
<trkpt lat="46.04635330" lon="6.12947330"><ele>791</ele><time>2007-04-09T12:44:08Z</time></trkpt>
<trkpt lat="46.04647500" lon="6.12958830"><ele>791.099976</ele><time>2007-04-09T12:44:10Z</time></trkpt>
<trkpt lat="46.04659500" lon="6.12970170"><ele>790.900024</ele><time>2007-04-09T12:44:12Z</time></trkpt>
<trkpt lat="46.04671500" lon="6.12982000"><ele>791</ele><time>2007-04-09T12:44:14Z</time></trkpt>
<trkpt lat="46.04683500" lon="6.12994000"><ele>790.900024</ele><time>2007-04-09T12:44:16Z</time></trkpt>
<trkpt lat="46.04695670" lon="6.13006000"><ele>790.799988</ele><time>2007-04-09T12:44:18Z</time></trkpt>
<trkpt lat="46.04708170" lon="6.13017830"><ele>791</ele><time>2007-04-09T12:44:20Z</time></trkpt>
<trkpt lat="46.04720670" lon="6.13030170"><ele>791.799988</ele><time>2007-04-09T12:44:22Z</time></trkpt>
<trkpt lat="46.04733500" lon="6.13043170"><ele>792.200012</ele><time>2007-04-09T12:44:24Z</time></trkpt>
<trkpt lat="46.04747330" lon="6.13055500"><ele>792</ele><time>2007-04-09T12:44:26Z</time></trkpt>
<trkpt lat="46.04762330" lon="6.13065500"><ele>792.799988</ele><time>2007-04-09T12:44:28Z</time></trkpt>
<trkpt lat="46.04778670" lon="6.13072170"><ele>792.900024</ele><time>2007-04-09T12:44:30Z</time></trkpt>
<trkpt lat="46.04797170" lon="6.13073500"><ele>792.599976</ele><time>2007-04-09T12:44:32Z</time></trkpt>
<trkpt lat="46.04815330" lon="6.13073670"><ele>794</ele><time>2007-04-09T12:44:34Z</time></trkpt>
<trkpt lat="46.04834670" lon="6.13077000"><ele>793.299988</ele><time>2007-04-09T12:44:36Z</time></trkpt>
<trkpt lat="46.04853830" lon="6.13081670"><ele>794.099976</ele><time>2007-04-09T12:44:38Z</time></trkpt>
<trkpt lat="46.04873000" lon="6.13087500"><ele>793.099976</ele><time>2007-04-09T12:44:40Z</time></trkpt>
<trkpt lat="46.04892330" lon="6.13093000"><ele>792.299988</ele><time>2007-04-09T12:44:42Z</time></trkpt>
<trkpt lat="46.04911330" lon="6.13097830"><ele>792.299988</ele><time>2007-04-09T12:44:44Z</time></trkpt>
<trkpt lat="46.04929330" lon="6.13103330"><ele>792.5</ele><time>2007-04-09T12:44:46Z</time></trkpt>
<trkpt lat="46.04947000" lon="6.13106170"><ele>792.799988</ele><time>2007-04-09T12:44:48Z</time></trkpt>
<trkpt lat="46.04965670" lon="6.13105830"><ele>792.200012</ele><time>2007-04-09T12:44:50Z</time></trkpt>
<trkpt lat="46.04983000" lon="6.13098170"><ele>791.700012</ele><time>2007-04-09T12:44:52Z</time></trkpt>
<trkpt lat="46.04994670" lon="6.13079000"><ele>790.900024</ele><time>2007-04-09T12:44:54Z</time></trkpt>
<trkpt lat="46.04996500" lon="6.13053830"><ele>790</ele><time>2007-04-09T12:44:56Z</time></trkpt>
<trkpt lat="46.04992000" lon="6.13027500"><ele>790.5</ele><time>2007-04-09T12:44:58Z</time></trkpt>
<trkpt lat="46.04993000" lon="6.13001830"><ele>789.5</ele><time>2007-04-09T12:45:00Z</time></trkpt>
<trkpt lat="46.05003500" lon="6.12981330"><ele>787.099976</ele><time>2007-04-09T12:45:02Z</time></trkpt>
<trkpt lat="46.05022830" lon="6.12980170"><ele>786.900024</ele><time>2007-04-09T12:45:04Z</time></trkpt>
<trkpt lat="46.05041670" lon="6.12999500"><ele>787.299988</ele><time>2007-04-09T12:45:06Z</time></trkpt>
<trkpt lat="46.05049670" lon="6.13030170"><ele>786.900024</ele><time>2007-04-09T12:45:08Z</time></trkpt>
<trkpt lat="46.05059000" lon="6.13059500"><ele>785.900024</ele><time>2007-04-09T12:45:10Z</time></trkpt>
<trkpt lat="46.05072500" lon="6.13086330"><ele>783.299988</ele><time>2007-04-09T12:45:12Z</time></trkpt>
<trkpt lat="46.05088500" lon="6.13110830"><ele>782</ele><time>2007-04-09T12:45:14Z</time></trkpt>
<trkpt lat="46.05105670" lon="6.13135670"><ele>779.400024</ele><time>2007-04-09T12:45:16Z</time></trkpt>
<trkpt lat="46.05123000" lon="6.13161330"><ele>776.5</ele><time>2007-04-09T12:45:18Z</time></trkpt>
<trkpt lat="46.05143000" lon="6.13182000"><ele>773.099976</ele><time>2007-04-09T12:45:20Z</time></trkpt>
<trkpt lat="46.05165830" lon="6.13195330"><ele>770.5</ele><time>2007-04-09T12:45:22Z</time></trkpt>
<trkpt lat="46.05189170" lon="6.13207000"><ele>767.900024</ele><time>2007-04-09T12:45:24Z</time></trkpt>
<trkpt lat="46.05211170" lon="6.13209670"><ele>768.400024</ele><time>2007-04-09T12:45:26Z</time></trkpt>
<trkpt lat="46.05228830" lon="6.13195000"><ele>769.900024</ele><time>2007-04-09T12:45:28Z</time></trkpt>
<trkpt lat="46.05248830" lon="6.13182330"><ele>769.099976</ele><time>2007-04-09T12:45:30Z</time></trkpt>
<trkpt lat="46.05273500" lon="6.13189330"><ele>766.700012</ele><time>2007-04-09T12:45:32Z</time></trkpt>
<trkpt lat="46.05293170" lon="6.13217500"><ele>762.599976</ele><time>2007-04-09T12:45:34Z</time></trkpt>
<trkpt lat="46.05309670" lon="6.13248330"><ele>759.799988</ele><time>2007-04-09T12:45:36Z</time></trkpt>
<trkpt lat="46.05321830" lon="6.13282330"><ele>756.099976</ele><time>2007-04-09T12:45:38Z</time></trkpt>
<trkpt lat="46.05322500" lon="6.13319000"><ele>755.099976</ele><time>2007-04-09T12:45:40Z</time></trkpt>
<trkpt lat="46.05307500" lon="6.13348000"><ele>756.099976</ele><time>2007-04-09T12:45:42Z</time></trkpt>
<trkpt lat="46.05283670" lon="6.13367500"><ele>755.200012</ele><time>2007-04-09T12:45:44Z</time></trkpt>
<trkpt lat="46.05262000" lon="6.13387000"><ele>754</ele><time>2007-04-09T12:45:46Z</time></trkpt>
<trkpt lat="46.05241670" lon="6.13407500"><ele>753.700012</ele><time>2007-04-09T12:45:48Z</time></trkpt>
<trkpt lat="46.05222170" lon="6.13428330"><ele>752.400024</ele><time>2007-04-09T12:45:50Z</time></trkpt>
<trkpt lat="46.05203170" lon="6.13448670"><ele>751</ele><time>2007-04-09T12:45:52Z</time></trkpt>
<trkpt lat="46.05184830" lon="6.13469330"><ele>749.700012</ele><time>2007-04-09T12:45:54Z</time></trkpt>
<trkpt lat="46.05166830" lon="6.13490170"><ele>748.400024</ele><time>2007-04-09T12:45:56Z</time></trkpt>
<trkpt lat="46.05150330" lon="6.13512500"><ele>747</ele><time>2007-04-09T12:45:58Z</time></trkpt>
<trkpt lat="46.05138670" lon="6.13539500"><ele>745.5</ele><time>2007-04-09T12:46:00Z</time></trkpt>
<trkpt lat="46.05134500" lon="6.13570830"><ele>743.599976</ele><time>2007-04-09T12:46:02Z</time></trkpt>
<trkpt lat="46.05137170" lon="6.13603000"><ele>741.799988</ele><time>2007-04-09T12:46:04Z</time></trkpt>
<trkpt lat="46.05143670" lon="6.13634170"><ele>740.400024</ele><time>2007-04-09T12:46:06Z</time></trkpt>
<trkpt lat="46.05151330" lon="6.13666000"><ele>737.700012</ele><time>2007-04-09T12:46:08Z</time></trkpt>
<trkpt lat="46.05156500" lon="6.13697830"><ele>736.099976</ele><time>2007-04-09T12:46:10Z</time></trkpt>
<trkpt lat="46.05159330" lon="6.13730000"><ele>734.799988</ele><time>2007-04-09T12:46:12Z</time></trkpt>
<trkpt lat="46.05161830" lon="6.13762500"><ele>733.799988</ele><time>2007-04-09T12:46:14Z</time></trkpt>
<trkpt lat="46.05164330" lon="6.13794830"><ele>732.799988</ele><time>2007-04-09T12:46:16Z</time></trkpt>
<trkpt lat="46.05166670" lon="6.13827670"><ele>731.900024</ele><time>2007-04-09T12:46:18Z</time></trkpt>
<trkpt lat="46.05168830" lon="6.13860670"><ele>731</ele><time>2007-04-09T12:46:20Z</time></trkpt>
<trkpt lat="46.05170670" lon="6.13894170"><ele>729.700012</ele><time>2007-04-09T12:46:22Z</time></trkpt>
<trkpt lat="46.05166830" lon="6.13926170"><ele>728.400024</ele><time>2007-04-09T12:46:24Z</time></trkpt>
<trkpt lat="46.05150170" lon="6.13946170"><ele>727</ele><time>2007-04-09T12:46:26Z</time></trkpt>
<trkpt lat="46.05127670" lon="6.13946170"><ele>725.299988</ele><time>2007-04-09T12:46:28Z</time></trkpt>
<trkpt lat="46.05107830" lon="6.13924830"><ele>725.099976</ele><time>2007-04-09T12:46:30Z</time></trkpt>
<trkpt lat="46.05094000" lon="6.13899830"><ele>725</ele><time>2007-04-09T12:46:32Z</time></trkpt>
<trkpt lat="46.05079330" lon="6.13882670"><ele>725</ele><time>2007-04-09T12:46:34Z</time></trkpt>
<trkpt lat="46.05064170" lon="6.13865830"><ele>724.700012</ele><time>2007-04-09T12:46:36Z</time></trkpt>
<trkpt lat="46.05048500" lon="6.13849170"><ele>724.599976</ele><time>2007-04-09T12:46:38Z</time></trkpt>
<trkpt lat="46.05031330" lon="6.13837500"><ele>723.5</ele><time>2007-04-09T12:46:40Z</time></trkpt>
<trkpt lat="46.05012330" lon="6.13831330"><ele>722</ele><time>2007-04-09T12:46:42Z</time></trkpt>
<trkpt lat="46.04991830" lon="6.13832170"><ele>721.200012</ele><time>2007-04-09T12:46:44Z</time></trkpt>
<trkpt lat="46.04972330" lon="6.13841500"><ele>720.099976</ele><time>2007-04-09T12:46:46Z</time></trkpt>
<trkpt lat="46.04953330" lon="6.13852830"><ele>719.400024</ele><time>2007-04-09T12:46:48Z</time></trkpt>
<trkpt lat="46.04935000" lon="6.13865500"><ele>718.900024</ele><time>2007-04-09T12:46:50Z</time></trkpt>
<trkpt lat="46.04916670" lon="6.13882830"><ele>717.299988</ele><time>2007-04-09T12:46:52Z</time></trkpt>
<trkpt lat="46.04900670" lon="6.13903500"><ele>716.200012</ele><time>2007-04-09T12:46:54Z</time></trkpt>
<trkpt lat="46.04885170" lon="6.13924670"><ele>715.700012</ele><time>2007-04-09T12:46:56Z</time></trkpt>
<trkpt lat="46.04872830" lon="6.13949170"><ele>715</ele><time>2007-04-09T12:46:58Z</time></trkpt>
<trkpt lat="46.04869000" lon="6.13978170"><ele>714.5</ele><time>2007-04-09T12:47:00Z</time></trkpt>
<trkpt lat="46.04872170" lon="6.14006500"><ele>714.200012</ele><time>2007-04-09T12:47:02Z</time></trkpt>
<trkpt lat="46.04877330" lon="6.14033670"><ele>714.099976</ele><time>2007-04-09T12:47:04Z</time></trkpt>
<trkpt lat="46.04882170" lon="6.14059830"><ele>713.700012</ele><time>2007-04-09T12:47:06Z</time></trkpt>
<trkpt lat="46.04886000" lon="6.14085830"><ele>713.200012</ele><time>2007-04-09T12:47:08Z</time></trkpt>
<trkpt lat="46.04888000" lon="6.14112000"><ele>712.799988</ele><time>2007-04-09T12:47:10Z</time></trkpt>
<trkpt lat="46.04885000" lon="6.14137500"><ele>712.599976</ele><time>2007-04-09T12:47:12Z</time></trkpt>
<trkpt lat="46.04877170" lon="6.14160670"><ele>712.299988</ele><time>2007-04-09T12:47:14Z</time></trkpt>
<trkpt lat="46.04867500" lon="6.14182670"><ele>712.400024</ele><time>2007-04-09T12:47:16Z</time></trkpt>
<trkpt lat="46.04857670" lon="6.14204830"><ele>712.200012</ele><time>2007-04-09T12:47:18Z</time></trkpt>
<trkpt lat="46.04850170" lon="6.14229170"><ele>711.900024</ele><time>2007-04-09T12:47:20Z</time></trkpt>
<trkpt lat="46.04845170" lon="6.14256000"><ele>711.200012</ele><time>2007-04-09T12:47:22Z</time></trkpt>
<trkpt lat="46.04841000" lon="6.14283170"><ele>710.900024</ele><time>2007-04-09T12:47:24Z</time></trkpt>
<trkpt lat="46.04837000" lon="6.14310500"><ele>710.299988</ele><time>2007-04-09T12:47:26Z</time></trkpt>
<trkpt lat="46.04833330" lon="6.14337330"><ele>709.700012</ele><time>2007-04-09T12:47:28Z</time></trkpt>
<trkpt lat="46.04829500" lon="6.14364330"><ele>709.5</ele><time>2007-04-09T12:47:30Z</time></trkpt>
<trkpt lat="46.04825330" lon="6.14391500"><ele>709</ele><time>2007-04-09T12:47:32Z</time></trkpt>
<trkpt lat="46.04823170" lon="6.14420000"><ele>706.700012</ele><time>2007-04-09T12:47:34Z</time></trkpt>
<trkpt lat="46.04822500" lon="6.14448500"><ele>704.900024</ele><time>2007-04-09T12:47:36Z</time></trkpt>
<trkpt lat="46.04823330" lon="6.14477000"><ele>703.799988</ele><time>2007-04-09T12:47:38Z</time></trkpt>
<trkpt lat="46.04821500" lon="6.14504830"><ele>703.299988</ele><time>2007-04-09T12:47:40Z</time></trkpt>
<trkpt lat="46.04813330" lon="6.14531330"><ele>702.900024</ele><time>2007-04-09T12:47:42Z</time></trkpt>
<trkpt lat="46.04801500" lon="6.14554330"><ele>703.099976</ele><time>2007-04-09T12:47:44Z</time></trkpt>
<trkpt lat="46.04790670" lon="6.14577830"><ele>702.799988</ele><time>2007-04-09T12:47:46Z</time></trkpt>
<trkpt lat="46.04788000" lon="6.14605500"><ele>702.200012</ele><time>2007-04-09T12:47:48Z</time></trkpt>
<trkpt lat="46.04795330" lon="6.14632170"><ele>701.799988</ele><time>2007-04-09T12:47:50Z</time></trkpt>
<trkpt lat="46.04807000" lon="6.14656000"><ele>701.900024</ele><time>2007-04-09T12:47:52Z</time></trkpt>
<trkpt lat="46.04819670" lon="6.14679330"><ele>701.700012</ele><time>2007-04-09T12:47:54Z</time></trkpt>
<trkpt lat="46.04832170" lon="6.14702000"><ele>701.700012</ele><time>2007-04-09T12:47:56Z</time></trkpt>
<trkpt lat="46.04844330" lon="6.14724670"><ele>701.200012</ele><time>2007-04-09T12:47:58Z</time></trkpt>
<trkpt lat="46.04857170" lon="6.14747170"><ele>700.599976</ele><time>2007-04-09T12:48:00Z</time></trkpt>
<trkpt lat="46.04872000" lon="6.14768330"><ele>700</ele><time>2007-04-09T12:48:02Z</time></trkpt>
<trkpt lat="46.04888500" lon="6.14787330"><ele>699.299988</ele><time>2007-04-09T12:48:04Z</time></trkpt>
<trkpt lat="46.04905330" lon="6.14804830"><ele>698.5</ele><time>2007-04-09T12:48:06Z</time></trkpt>
<trkpt lat="46.04922170" lon="6.14822170"><ele>697.599976</ele><time>2007-04-09T12:48:08Z</time></trkpt>
<trkpt lat="46.04938670" lon="6.14841000"><ele>696.5</ele><time>2007-04-09T12:48:10Z</time></trkpt>
<trkpt lat="46.04952330" lon="6.14863670"><ele>695.299988</ele><time>2007-04-09T12:48:12Z</time></trkpt>
<trkpt lat="46.04962830" lon="6.14890330"><ele>694.400024</ele><time>2007-04-09T12:48:14Z</time></trkpt>
<trkpt lat="46.04971830" lon="6.14918830"><ele>693.599976</ele><time>2007-04-09T12:48:16Z</time></trkpt>
<trkpt lat="46.04980330" lon="6.14947170"><ele>692.700012</ele><time>2007-04-09T12:48:18Z</time></trkpt>
<trkpt lat="46.04989170" lon="6.14974670"><ele>692</ele><time>2007-04-09T12:48:20Z</time></trkpt>
<trkpt lat="46.04999170" lon="6.15000170"><ele>691.400024</ele><time>2007-04-09T12:48:22Z</time></trkpt>
<trkpt lat="46.05013000" lon="6.15021500"><ele>690.599976</ele><time>2007-04-09T12:48:24Z</time></trkpt>
<trkpt lat="46.05031330" lon="6.15033500"><ele>689.400024</ele><time>2007-04-09T12:48:26Z</time></trkpt>
<trkpt lat="46.05051830" lon="6.15038670"><ele>688.200012</ele><time>2007-04-09T12:48:28Z</time></trkpt>
<trkpt lat="46.05073000" lon="6.15044000"><ele>686.799988</ele><time>2007-04-09T12:48:30Z</time></trkpt>
<trkpt lat="46.05094000" lon="6.15051170"><ele>686</ele><time>2007-04-09T12:48:32Z</time></trkpt>
<trkpt lat="46.05113170" lon="6.15064670"><ele>684.900024</ele><time>2007-04-09T12:48:34Z</time></trkpt>
<trkpt lat="46.05131170" lon="6.15081500"><ele>683.700012</ele><time>2007-04-09T12:48:36Z</time></trkpt>
<trkpt lat="46.05148330" lon="6.15100330"><ele>682.700012</ele><time>2007-04-09T12:48:38Z</time></trkpt>
<trkpt lat="46.05163500" lon="6.15122330"><ele>681.5</ele><time>2007-04-09T12:48:40Z</time></trkpt>
<trkpt lat="46.05177000" lon="6.15146500"><ele>680.5</ele><time>2007-04-09T12:48:42Z</time></trkpt>
<trkpt lat="46.05189170" lon="6.15172330"><ele>680.099976</ele><time>2007-04-09T12:48:44Z</time></trkpt>
<trkpt lat="46.05201000" lon="6.15198830"><ele>679.5</ele><time>2007-04-09T12:48:46Z</time></trkpt>
<trkpt lat="46.05212330" lon="6.15225670"><ele>678.599976</ele><time>2007-04-09T12:48:48Z</time></trkpt>
<trkpt lat="46.05224500" lon="6.15252670"><ele>678.900024</ele><time>2007-04-09T12:48:50Z</time></trkpt>
<trkpt lat="46.05236170" lon="6.15280330"><ele>678.200012</ele><time>2007-04-09T12:48:52Z</time></trkpt>
<trkpt lat="46.05248000" lon="6.15308170"><ele>677.400024</ele><time>2007-04-09T12:48:54Z</time></trkpt>
<trkpt lat="46.05258670" lon="6.15337500"><ele>676.799988</ele><time>2007-04-09T12:48:56Z</time></trkpt>
<trkpt lat="46.05261830" lon="6.15370670"><ele>675.299988</ele><time>2007-04-09T12:48:58Z</time></trkpt>
<trkpt lat="46.05253000" lon="6.15401000"><ele>673.900024</ele><time>2007-04-09T12:49:00Z</time></trkpt>
<trkpt lat="46.05236170" lon="6.15420670"><ele>674.5</ele><time>2007-04-09T12:49:02Z</time></trkpt>
<trkpt lat="46.05215670" lon="6.15426670"><ele>674.900024</ele><time>2007-04-09T12:49:04Z</time></trkpt>
<trkpt lat="46.05196500" lon="6.15429000"><ele>676.099976</ele><time>2007-04-09T12:49:06Z</time></trkpt>
<trkpt lat="46.05178830" lon="6.15433670"><ele>677</ele><time>2007-04-09T12:49:08Z</time></trkpt>
<trkpt lat="46.05165170" lon="6.15445170"><ele>679.099976</ele><time>2007-04-09T12:49:10Z</time></trkpt>
<trkpt lat="46.05154830" lon="6.15461500"><ele>680.700012</ele><time>2007-04-09T12:49:12Z</time></trkpt>
<trkpt lat="46.05149830" lon="6.15477830"><ele>685.700012</ele><time>2007-04-09T12:49:14Z</time></trkpt>
<trkpt lat="46.05152500" lon="6.15494500"><ele>690.700012</ele><time>2007-04-09T12:49:16Z</time></trkpt>
<trkpt lat="46.05159330" lon="6.15512500"><ele>694.799988</ele><time>2007-04-09T12:49:18Z</time></trkpt>
<trkpt lat="46.05165330" lon="6.15531830"><ele>696.099976</ele><time>2007-04-09T12:49:20Z</time></trkpt>
<trkpt lat="46.05171170" lon="6.15545170"><ele>699.599976</ele><time>2007-04-09T12:49:22Z</time></trkpt>
<trkpt lat="46.05175830" lon="6.15555000"><ele>706.099976</ele><time>2007-04-09T12:49:24Z</time></trkpt>
<trkpt lat="46.05179670" lon="6.15564000"><ele>711.599976</ele><time>2007-04-09T12:49:26Z</time></trkpt>
<trkpt lat="46.05184830" lon="6.15573830"><ele>717.599976</ele><time>2007-04-09T12:49:28Z</time></trkpt>
<trkpt lat="46.05188170" lon="6.15584500"><ele>720.700012</ele><time>2007-04-09T12:49:30Z</time></trkpt>
<trkpt lat="46.05189000" lon="6.15596830"><ele>721</ele><time>2007-04-09T12:49:32Z</time></trkpt>
<trkpt lat="46.05190330" lon="6.15608170"><ele>721.299988</ele><time>2007-04-09T12:49:34Z</time></trkpt>
<trkpt lat="46.05191330" lon="6.15620170"><ele>721.099976</ele><time>2007-04-09T12:49:36Z</time></trkpt>
<trkpt lat="46.05191670" lon="6.15633170"><ele>720</ele><time>2007-04-09T12:49:38Z</time></trkpt>
<trkpt lat="46.05192830" lon="6.15649000"><ele>714</ele><time>2007-04-09T12:49:40Z</time></trkpt>
<trkpt lat="46.05192500" lon="6.15663170"><ele>710.200012</ele><time>2007-04-09T12:49:42Z</time></trkpt>
<trkpt lat="46.05192170" lon="6.15676670"><ele>707.5</ele><time>2007-04-09T12:49:44Z</time></trkpt>
<trkpt lat="46.05192000" lon="6.15689330"><ele>705.599976</ele><time>2007-04-09T12:49:46Z</time></trkpt>
<trkpt lat="46.05191830" lon="6.15701500"><ele>704.099976</ele><time>2007-04-09T12:49:48Z</time></trkpt>
<trkpt lat="46.05191500" lon="6.15712500"><ele>703.099976</ele><time>2007-04-09T12:49:50Z</time></trkpt>
<trkpt lat="46.05190500" lon="6.15722000"><ele>705.099976</ele><time>2007-04-09T12:49:52Z</time></trkpt>
<trkpt lat="46.05190000" lon="6.15733670"><ele>702.200012</ele><time>2007-04-09T12:49:54Z</time></trkpt>
<trkpt lat="46.05188500" lon="6.15743500"><ele>703.299988</ele><time>2007-04-09T12:49:56Z</time></trkpt>
<trkpt lat="46.05187170" lon="6.15750670"><ele>708.599976</ele><time>2007-04-09T12:49:58Z</time></trkpt>
<trkpt lat="46.05184500" lon="6.15756170"><ele>713.799988</ele><time>2007-04-09T12:50:00Z</time></trkpt>
<trkpt lat="46.05181000" lon="6.15761170"><ele>716.900024</ele><time>2007-04-09T12:50:02Z</time></trkpt>
<trkpt lat="46.05175830" lon="6.15764500"><ele>720.400024</ele><time>2007-04-09T12:50:04Z</time></trkpt>
<trkpt lat="46.05170500" lon="6.15766830"><ele>720.099976</ele><time>2007-04-09T12:50:06Z</time></trkpt>
<trkpt lat="46.05165830" lon="6.15769830"><ele>723.099976</ele><time>2007-04-09T12:50:08Z</time></trkpt>
<trkpt lat="46.05157670" lon="6.15773000"><ele>717.799988</ele><time>2007-04-09T12:50:10Z</time></trkpt>
<trkpt lat="46.05149000" lon="6.15775830"><ele>714.799988</ele><time>2007-04-09T12:50:12Z</time></trkpt>
<trkpt lat="46.05140670" lon="6.15778830"><ele>712.599976</ele><time>2007-04-09T12:50:14Z</time></trkpt>
<trkpt lat="46.05133000" lon="6.15783000"><ele>709.299988</ele><time>2007-04-09T12:50:16Z</time></trkpt>
<trkpt lat="46.05126500" lon="6.15785500"><ele>706.599976</ele><time>2007-04-09T12:50:18Z</time></trkpt>
<trkpt lat="46.05120170" lon="6.15786500"><ele>705.299988</ele><time>2007-04-09T12:50:20Z</time></trkpt>
<trkpt lat="46.05113670" lon="6.15787500"><ele>703.299988</ele><time>2007-04-09T12:50:22Z</time></trkpt>
<trkpt lat="46.05106830" lon="6.15787830"><ele>701.799988</ele><time>2007-04-09T12:50:24Z</time></trkpt>
<trkpt lat="46.05100330" lon="6.15788000"><ele>701.099976</ele><time>2007-04-09T12:50:26Z</time></trkpt>
<trkpt lat="46.05093500" lon="6.15787670"><ele>700.900024</ele><time>2007-04-09T12:50:28Z</time></trkpt>
<trkpt lat="46.05086670" lon="6.15787330"><ele>700.799988</ele><time>2007-04-09T12:50:30Z</time></trkpt>
<trkpt lat="46.05080000" lon="6.15787000"><ele>700.599976</ele><time>2007-04-09T12:50:32Z</time></trkpt>
<trkpt lat="46.05073330" lon="6.15786500"><ele>700.599976</ele><time>2007-04-09T12:50:34Z</time></trkpt>
<trkpt lat="46.05066670" lon="6.15786330"><ele>700.599976</ele><time>2007-04-09T12:50:36Z</time></trkpt>
<trkpt lat="46.05060000" lon="6.15786000"><ele>700.599976</ele><time>2007-04-09T12:50:38Z</time></trkpt>
<trkpt lat="46.05053000" lon="6.15786000"><ele>700.299988</ele><time>2007-04-09T12:50:40Z</time></trkpt>
<trkpt lat="46.05046000" lon="6.15786330"><ele>699.799988</ele><time>2007-04-09T12:50:42Z</time></trkpt>
<trkpt lat="46.05039000" lon="6.15786330"><ele>699.5</ele><time>2007-04-09T12:50:44Z</time></trkpt>
<trkpt lat="46.05032000" lon="6.15787000"><ele>699.5</ele><time>2007-04-09T12:50:46Z</time></trkpt>
<trkpt lat="46.05025170" lon="6.15787670"><ele>699.799988</ele><time>2007-04-09T12:50:48Z</time></trkpt>
<trkpt lat="46.05018500" lon="6.15787500"><ele>699.900024</ele><time>2007-04-09T12:50:50Z</time></trkpt>
<trkpt lat="46.05011670" lon="6.15787170"><ele>700.200012</ele><time>2007-04-09T12:50:52Z</time></trkpt>
<trkpt lat="46.05005000" lon="6.15786500"><ele>700.700012</ele><time>2007-04-09T12:50:54Z</time></trkpt>
<trkpt lat="46.04998330" lon="6.15786170"><ele>701.099976</ele><time>2007-04-09T12:50:56Z</time></trkpt>
<trkpt lat="46.04991670" lon="6.15785670"><ele>701.5</ele><time>2007-04-09T12:50:58Z</time></trkpt>
<trkpt lat="46.04985170" lon="6.15785170"><ele>701.900024</ele><time>2007-04-09T12:51:00Z</time></trkpt>
<trkpt lat="46.04978500" lon="6.15784830"><ele>702.200012</ele><time>2007-04-09T12:51:02Z</time></trkpt>
<trkpt lat="46.04972000" lon="6.15783830"><ele>702.599976</ele><time>2007-04-09T12:51:04Z</time></trkpt>
<trkpt lat="46.04965500" lon="6.15782670"><ele>703</ele><time>2007-04-09T12:51:06Z</time></trkpt>
<trkpt lat="46.04959000" lon="6.15781000"><ele>703.400024</ele><time>2007-04-09T12:51:08Z</time></trkpt>
<trkpt lat="46.04952670" lon="6.15779000"><ele>703.900024</ele><time>2007-04-09T12:51:10Z</time></trkpt>
<trkpt lat="46.04946170" lon="6.15776830"><ele>704.400024</ele><time>2007-04-09T12:51:12Z</time></trkpt>
<trkpt lat="46.04939830" lon="6.15774830"><ele>704.799988</ele><time>2007-04-09T12:51:14Z</time></trkpt>
<trkpt lat="46.04933500" lon="6.15773170"><ele>705.200012</ele><time>2007-04-09T12:51:16Z</time></trkpt>
<trkpt lat="46.04927000" lon="6.15771170"><ele>705.599976</ele><time>2007-04-09T12:51:18Z</time></trkpt>
<trkpt lat="46.04920500" lon="6.15769330"><ele>706.099976</ele><time>2007-04-09T12:51:20Z</time></trkpt>
<trkpt lat="46.04914000" lon="6.15768170"><ele>706.5</ele><time>2007-04-09T12:51:22Z</time></trkpt>
<trkpt lat="46.04907500" lon="6.15767830"><ele>706.799988</ele><time>2007-04-09T12:51:24Z</time></trkpt>
<trkpt lat="46.04900670" lon="6.15768330"><ele>707.099976</ele><time>2007-04-09T12:51:26Z</time></trkpt>
<trkpt lat="46.04894000" lon="6.15769170"><ele>707.400024</ele><time>2007-04-09T12:51:28Z</time></trkpt>
<trkpt lat="46.04887670" lon="6.15771170"><ele>707.900024</ele><time>2007-04-09T12:51:30Z</time></trkpt>
<trkpt lat="46.04881670" lon="6.15774670"><ele>708.299988</ele><time>2007-04-09T12:51:32Z</time></trkpt>
<trkpt lat="46.04876170" lon="6.15779170"><ele>708.900024</ele><time>2007-04-09T12:51:34Z</time></trkpt>
<trkpt lat="46.04871500" lon="6.15785330"><ele>709.400024</ele><time>2007-04-09T12:51:36Z</time></trkpt>
<trkpt lat="46.04868170" lon="6.15793330"><ele>709.700012</ele><time>2007-04-09T12:51:38Z</time></trkpt>
<trkpt lat="46.04866170" lon="6.15802000"><ele>710.099976</ele><time>2007-04-09T12:51:40Z</time></trkpt>
<trkpt lat="46.04865330" lon="6.15811170"><ele>710.5</ele><time>2007-04-09T12:51:42Z</time></trkpt>
<trkpt lat="46.04865330" lon="6.15820170"><ele>710.5</ele><time>2007-04-09T12:51:44Z</time></trkpt>
<trkpt lat="46.04867170" lon="6.15829000"><ele>710.700012</ele><time>2007-04-09T12:51:46Z</time></trkpt>
<trkpt lat="46.04870330" lon="6.15837170"><ele>710.799988</ele><time>2007-04-09T12:51:48Z</time></trkpt>
<trkpt lat="46.04874170" lon="6.15844330"><ele>711.200012</ele><time>2007-04-09T12:51:50Z</time></trkpt>
<trkpt lat="46.04878170" lon="6.15851000"><ele>711.599976</ele><time>2007-04-09T12:51:52Z</time></trkpt>
<trkpt lat="46.04882830" lon="6.15857330"><ele>712.599976</ele><time>2007-04-09T12:51:54Z</time></trkpt>
<trkpt lat="46.04887500" lon="6.15863670"><ele>713</ele><time>2007-04-09T12:51:56Z</time></trkpt>
<trkpt lat="46.04892330" lon="6.15870330"><ele>713.200012</ele><time>2007-04-09T12:51:58Z</time></trkpt>
<trkpt lat="46.04897170" lon="6.15876670"><ele>713.400024</ele><time>2007-04-09T12:52:00Z</time></trkpt>
<trkpt lat="46.04902170" lon="6.15883000"><ele>713.5</ele><time>2007-04-09T12:52:02Z</time></trkpt>
<trkpt lat="46.04907170" lon="6.15889170"><ele>713.599976</ele><time>2007-04-09T12:52:04Z</time></trkpt>
<trkpt lat="46.04911830" lon="6.15894830"><ele>713.799988</ele><time>2007-04-09T12:52:06Z</time></trkpt>
<trkpt lat="46.04916500" lon="6.15900330"><ele>714</ele><time>2007-04-09T12:52:08Z</time></trkpt>
<trkpt lat="46.04921330" lon="6.15905670"><ele>714.900024</ele><time>2007-04-09T12:52:10Z</time></trkpt>
<trkpt lat="46.04926330" lon="6.15911000"><ele>715.5</ele><time>2007-04-09T12:52:12Z</time></trkpt>
<trkpt lat="46.04931170" lon="6.15916500"><ele>716</ele><time>2007-04-09T12:52:14Z</time></trkpt>
<trkpt lat="46.04936330" lon="6.15922170"><ele>717</ele><time>2007-04-09T12:52:16Z</time></trkpt>
<trkpt lat="46.04941170" lon="6.15927330"><ele>717.299988</ele><time>2007-04-09T12:52:18Z</time></trkpt>
<trkpt lat="46.04946170" lon="6.15933000"><ele>717.5</ele><time>2007-04-09T12:52:20Z</time></trkpt>
<trkpt lat="46.04951000" lon="6.15938500"><ele>717.799988</ele><time>2007-04-09T12:52:22Z</time></trkpt>
<trkpt lat="46.04955670" lon="6.15944500"><ele>718.400024</ele><time>2007-04-09T12:52:24Z</time></trkpt>
<trkpt lat="46.04960000" lon="6.15951170"><ele>719.200012</ele><time>2007-04-09T12:52:26Z</time></trkpt>
<trkpt lat="46.04963670" lon="6.15958500"><ele>719.5</ele><time>2007-04-09T12:52:28Z</time></trkpt>
<trkpt lat="46.04966830" lon="6.15966330"><ele>720.099976</ele><time>2007-04-09T12:52:30Z</time></trkpt>
<trkpt lat="46.04969330" lon="6.15974670"><ele>720.599976</ele><time>2007-04-09T12:52:32Z</time></trkpt>
<trkpt lat="46.04971170" lon="6.15983330"><ele>721.400024</ele><time>2007-04-09T12:52:34Z</time></trkpt>
<trkpt lat="46.04972000" lon="6.15992670"><ele>721.900024</ele><time>2007-04-09T12:52:36Z</time></trkpt>
<trkpt lat="46.04972000" lon="6.16002330"><ele>722.299988</ele><time>2007-04-09T12:52:38Z</time></trkpt>
<trkpt lat="46.04971170" lon="6.16011830"><ele>722.700012</ele><time>2007-04-09T12:52:40Z</time></trkpt>
<trkpt lat="46.04969670" lon="6.16020830"><ele>723</ele><time>2007-04-09T12:52:42Z</time></trkpt>
<trkpt lat="46.04968000" lon="6.16029670"><ele>723.299988</ele><time>2007-04-09T12:52:44Z</time></trkpt>
<trkpt lat="46.04966330" lon="6.16038170"><ele>724.200012</ele><time>2007-04-09T12:52:46Z</time></trkpt>
<trkpt lat="46.04964170" lon="6.16046000"><ele>725.700012</ele><time>2007-04-09T12:52:48Z</time></trkpt>
<trkpt lat="46.04962670" lon="6.16054670"><ele>726.400024</ele><time>2007-04-09T12:52:50Z</time></trkpt>
<trkpt lat="46.04961330" lon="6.16063670"><ele>727.099976</ele><time>2007-04-09T12:52:52Z</time></trkpt>
<trkpt lat="46.04960170" lon="6.16071330"><ele>729.5</ele><time>2007-04-09T12:52:54Z</time></trkpt>
<trkpt lat="46.04958500" lon="6.16078170"><ele>732.799988</ele><time>2007-04-09T12:52:56Z</time></trkpt>
<trkpt lat="46.04958000" lon="6.16087670"><ele>733.200012</ele><time>2007-04-09T12:52:58Z</time></trkpt>
<trkpt lat="46.04957330" lon="6.16097000"><ele>733.599976</ele><time>2007-04-09T12:53:00Z</time></trkpt>
<trkpt lat="46.04956670" lon="6.16106000"><ele>733.799988</ele><time>2007-04-09T12:53:02Z</time></trkpt>
<trkpt lat="46.04957330" lon="6.16115170"><ele>734.400024</ele><time>2007-04-09T12:53:04Z</time></trkpt>
<trkpt lat="46.04959170" lon="6.16124000"><ele>735</ele><time>2007-04-09T12:53:06Z</time></trkpt>
<trkpt lat="46.04961830" lon="6.16132330"><ele>735</ele><time>2007-04-09T12:53:08Z</time></trkpt>
<trkpt lat="46.04965670" lon="6.16139330"><ele>735.700012</ele><time>2007-04-09T12:53:10Z</time></trkpt>
<trkpt lat="46.04970830" lon="6.16144830"><ele>736.299988</ele><time>2007-04-09T12:53:12Z</time></trkpt>
<trkpt lat="46.04976330" lon="6.16149670"><ele>736.700012</ele><time>2007-04-09T12:53:14Z</time></trkpt>
<trkpt lat="46.04982000" lon="6.16154170"><ele>736.700012</ele><time>2007-04-09T12:53:16Z</time></trkpt>
<trkpt lat="46.04987500" lon="6.16158500"><ele>736.799988</ele><time>2007-04-09T12:53:18Z</time></trkpt>
<trkpt lat="46.04992830" lon="6.16162170"><ele>737.200012</ele><time>2007-04-09T12:53:20Z</time></trkpt>
<trkpt lat="46.04998170" lon="6.16166330"><ele>737.200012</ele><time>2007-04-09T12:53:22Z</time></trkpt>
<trkpt lat="46.05003330" lon="6.16170330"><ele>737.599976</ele><time>2007-04-09T12:53:24Z</time></trkpt>
<trkpt lat="46.05008830" lon="6.16174330"><ele>737.799988</ele><time>2007-04-09T12:53:26Z</time></trkpt>
<trkpt lat="46.05014170" lon="6.16178500"><ele>737.900024</ele><time>2007-04-09T12:53:28Z</time></trkpt>
<trkpt lat="46.05019670" lon="6.16182830"><ele>738.099976</ele><time>2007-04-09T12:53:30Z</time></trkpt>
<trkpt lat="46.05025000" lon="6.16186500"><ele>738.5</ele><time>2007-04-09T12:53:32Z</time></trkpt>
<trkpt lat="46.05030670" lon="6.16190500"><ele>738.599976</ele><time>2007-04-09T12:53:34Z</time></trkpt>
<trkpt lat="46.05036170" lon="6.16194330"><ele>739.200012</ele><time>2007-04-09T12:53:36Z</time></trkpt>
<trkpt lat="46.05041500" lon="6.16198330"><ele>739.599976</ele><time>2007-04-09T12:53:38Z</time></trkpt>
<trkpt lat="46.05047000" lon="6.16202500"><ele>739.799988</ele><time>2007-04-09T12:53:40Z</time></trkpt>
<trkpt lat="46.05052670" lon="6.16206500"><ele>740</ele><time>2007-04-09T12:53:42Z</time></trkpt>
<trkpt lat="46.05058170" lon="6.16210830"><ele>740.200012</ele><time>2007-04-09T12:53:44Z</time></trkpt>
<trkpt lat="46.05063170" lon="6.16215670"><ele>740.400024</ele><time>2007-04-09T12:53:46Z</time></trkpt>
<trkpt lat="46.05068170" lon="6.16220830"><ele>740.700012</ele><time>2007-04-09T12:53:48Z</time></trkpt>
<trkpt lat="46.05073000" lon="6.16226170"><ele>741.099976</ele><time>2007-04-09T12:53:50Z</time></trkpt>
<trkpt lat="46.05077670" lon="6.16231830"><ele>741.400024</ele><time>2007-04-09T12:53:52Z</time></trkpt>
<trkpt lat="46.05081670" lon="6.16238170"><ele>741.900024</ele><time>2007-04-09T12:53:54Z</time></trkpt>
<trkpt lat="46.05085330" lon="6.16244830"><ele>742.299988</ele><time>2007-04-09T12:53:56Z</time></trkpt>
<trkpt lat="46.05089000" lon="6.16251500"><ele>742.700012</ele><time>2007-04-09T12:53:58Z</time></trkpt>
<trkpt lat="46.05092670" lon="6.16258330"><ele>742.900024</ele><time>2007-04-09T12:54:00Z</time></trkpt>
<trkpt lat="46.05096170" lon="6.16265670"><ele>743</ele><time>2007-04-09T12:54:02Z</time></trkpt>
<trkpt lat="46.05099670" lon="6.16273170"><ele>743</ele><time>2007-04-09T12:54:04Z</time></trkpt>
<trkpt lat="46.05103330" lon="6.16280170"><ele>743.200012</ele><time>2007-04-09T12:54:06Z</time></trkpt>
<trkpt lat="46.05106670" lon="6.16287000"><ele>743.5</ele><time>2007-04-09T12:54:08Z</time></trkpt>
<trkpt lat="46.05109830" lon="6.16293830"><ele>743.900024</ele><time>2007-04-09T12:54:10Z</time></trkpt>
<trkpt lat="46.05113000" lon="6.16300670"><ele>744.200012</ele><time>2007-04-09T12:54:12Z</time></trkpt>
<trkpt lat="46.05116500" lon="6.16307500"><ele>744.700012</ele><time>2007-04-09T12:54:14Z</time></trkpt>
<trkpt lat="46.05119830" lon="6.16314000"><ele>745.200012</ele><time>2007-04-09T12:54:16Z</time></trkpt>
<trkpt lat="46.05123000" lon="6.16320670"><ele>745.700012</ele><time>2007-04-09T12:54:18Z</time></trkpt>
<trkpt lat="46.05126330" lon="6.16327330"><ele>746.200012</ele><time>2007-04-09T12:54:20Z</time></trkpt>
<trkpt lat="46.05129670" lon="6.16334000"><ele>746.599976</ele><time>2007-04-09T12:54:22Z</time></trkpt>
<trkpt lat="46.05133170" lon="6.16340830"><ele>747</ele><time>2007-04-09T12:54:24Z</time></trkpt>
<trkpt lat="46.05137170" lon="6.16347500"><ele>748.5</ele><time>2007-04-09T12:54:26Z</time></trkpt>
<trkpt lat="46.05140670" lon="6.16354170"><ele>749.299988</ele><time>2007-04-09T12:54:28Z</time></trkpt>
<trkpt lat="46.05144330" lon="6.16360830"><ele>749.900024</ele><time>2007-04-09T12:54:30Z</time></trkpt>
<trkpt lat="46.05147830" lon="6.16367670"><ele>750.599976</ele><time>2007-04-09T12:54:32Z</time></trkpt>
<trkpt lat="46.05151500" lon="6.16374670"><ele>751.200012</ele><time>2007-04-09T12:54:34Z</time></trkpt>
<trkpt lat="46.05155170" lon="6.16381500"><ele>751.700012</ele><time>2007-04-09T12:54:36Z</time></trkpt>
<trkpt lat="46.05158830" lon="6.16388500"><ele>752.200012</ele><time>2007-04-09T12:54:38Z</time></trkpt>
<trkpt lat="46.05162330" lon="6.16396000"><ele>752.5</ele><time>2007-04-09T12:54:40Z</time></trkpt>
<trkpt lat="46.05166000" lon="6.16403670"><ele>752.799988</ele><time>2007-04-09T12:54:42Z</time></trkpt>
<trkpt lat="46.05169500" lon="6.16411670"><ele>753.099976</ele><time>2007-04-09T12:54:44Z</time></trkpt>
<trkpt lat="46.05173170" lon="6.16419670"><ele>753.400024</ele><time>2007-04-09T12:54:46Z</time></trkpt>
<trkpt lat="46.05176670" lon="6.16427500"><ele>753.599976</ele><time>2007-04-09T12:54:48Z</time></trkpt>
<trkpt lat="46.05180000" lon="6.16435500"><ele>753.799988</ele><time>2007-04-09T12:54:50Z</time></trkpt>
<trkpt lat="46.05182830" lon="6.16443830"><ele>754</ele><time>2007-04-09T12:54:52Z</time></trkpt>
<trkpt lat="46.05185670" lon="6.16452670"><ele>754.200012</ele><time>2007-04-09T12:54:54Z</time></trkpt>
<trkpt lat="46.05188830" lon="6.16461330"><ele>754.200012</ele><time>2007-04-09T12:54:56Z</time></trkpt>
<trkpt lat="46.05191830" lon="6.16470000"><ele>754.299988</ele><time>2007-04-09T12:54:58Z</time></trkpt>
<trkpt lat="46.05194500" lon="6.16478500"><ele>754.400024</ele><time>2007-04-09T12:55:00Z</time></trkpt>
<trkpt lat="46.05197170" lon="6.16486670"><ele>754.700012</ele><time>2007-04-09T12:55:02Z</time></trkpt>
<trkpt lat="46.05200000" lon="6.16495000"><ele>754.799988</ele><time>2007-04-09T12:55:04Z</time></trkpt>
<trkpt lat="46.05202830" lon="6.16503170"><ele>754.900024</ele><time>2007-04-09T12:55:06Z</time></trkpt>
<trkpt lat="46.05205670" lon="6.16511330"><ele>755.099976</ele><time>2007-04-09T12:55:08Z</time></trkpt>
<trkpt lat="46.05208330" lon="6.16519330"><ele>755.299988</ele><time>2007-04-09T12:55:10Z</time></trkpt>
<trkpt lat="46.05210330" lon="6.16527830"><ele>755.400024</ele><time>2007-04-09T12:55:12Z</time></trkpt>
<trkpt lat="46.05212670" lon="6.16536330"><ele>755.5</ele><time>2007-04-09T12:55:14Z</time></trkpt>
<trkpt lat="46.05214830" lon="6.16545000"><ele>755.5</ele><time>2007-04-09T12:55:16Z</time></trkpt>
<trkpt lat="46.05216330" lon="6.16554170"><ele>755.5</ele><time>2007-04-09T12:55:18Z</time></trkpt>
<trkpt lat="46.05216830" lon="6.16563500"><ele>755.5</ele><time>2007-04-09T12:55:20Z</time></trkpt>
<trkpt lat="46.05216500" lon="6.16573000"><ele>755</ele><time>2007-04-09T12:55:22Z</time></trkpt>
<trkpt lat="46.05215330" lon="6.16581830"><ele>754.799988</ele><time>2007-04-09T12:55:24Z</time></trkpt>
<trkpt lat="46.05213000" lon="6.16590500"><ele>754.799988</ele><time>2007-04-09T12:55:26Z</time></trkpt>
<trkpt lat="46.05210330" lon="6.16598830"><ele>754.799988</ele><time>2007-04-09T12:55:28Z</time></trkpt>
<trkpt lat="46.05207670" lon="6.16606830"><ele>754.799988</ele><time>2007-04-09T12:55:30Z</time></trkpt>
<trkpt lat="46.05204670" lon="6.16615000"><ele>754.599976</ele><time>2007-04-09T12:55:32Z</time></trkpt>
<trkpt lat="46.05201830" lon="6.16623000"><ele>754.299988</ele><time>2007-04-09T12:55:34Z</time></trkpt>
<trkpt lat="46.05198830" lon="6.16631000"><ele>754.200012</ele><time>2007-04-09T12:55:36Z</time></trkpt>
<trkpt lat="46.05196000" lon="6.16639000"><ele>754.099976</ele><time>2007-04-09T12:55:38Z</time></trkpt>
<trkpt lat="46.05192830" lon="6.16647000"><ele>754</ele><time>2007-04-09T12:55:40Z</time></trkpt>
<trkpt lat="46.05190000" lon="6.16655000"><ele>754.099976</ele><time>2007-04-09T12:55:42Z</time></trkpt>
<trkpt lat="46.05187330" lon="6.16663000"><ele>754.099976</ele><time>2007-04-09T12:55:44Z</time></trkpt>
<trkpt lat="46.05184330" lon="6.16671000"><ele>754.099976</ele><time>2007-04-09T12:55:46Z</time></trkpt>
<trkpt lat="46.05181830" lon="6.16678670"><ele>754.400024</ele><time>2007-04-09T12:55:48Z</time></trkpt>
<trkpt lat="46.05179000" lon="6.16686500"><ele>754.599976</ele><time>2007-04-09T12:55:50Z</time></trkpt>
<trkpt lat="46.05176000" lon="6.16694170"><ele>754.900024</ele><time>2007-04-09T12:55:52Z</time></trkpt>
<trkpt lat="46.05173330" lon="6.16701670"><ele>755.299988</ele><time>2007-04-09T12:55:54Z</time></trkpt>
<trkpt lat="46.05170670" lon="6.16709500"><ele>755.5</ele><time>2007-04-09T12:55:56Z</time></trkpt>
<trkpt lat="46.05167500" lon="6.16717000"><ele>755.799988</ele><time>2007-04-09T12:55:58Z</time></trkpt>
<trkpt lat="46.05164170" lon="6.16723670"><ele>756.299988</ele><time>2007-04-09T12:56:00Z</time></trkpt>
<trkpt lat="46.05160500" lon="6.16730170"><ele>756.799988</ele><time>2007-04-09T12:56:02Z</time></trkpt>
<trkpt lat="46.05156330" lon="6.16736330"><ele>757.299988</ele><time>2007-04-09T12:56:04Z</time></trkpt>
<trkpt lat="46.05151830" lon="6.16742170"><ele>757.900024</ele><time>2007-04-09T12:56:06Z</time></trkpt>
<trkpt lat="46.05147000" lon="6.16747670"><ele>758.599976</ele><time>2007-04-09T12:56:08Z</time></trkpt>
<trkpt lat="46.05141830" lon="6.16753000"><ele>759.5</ele><time>2007-04-09T12:56:10Z</time></trkpt>
<trkpt lat="46.05136670" lon="6.16757670"><ele>760.200012</ele><time>2007-04-09T12:56:12Z</time></trkpt>
<trkpt lat="46.05131330" lon="6.16761670"><ele>760.599976</ele><time>2007-04-09T12:56:14Z</time></trkpt>
<trkpt lat="46.05125670" lon="6.16765670"><ele>761</ele><time>2007-04-09T12:56:16Z</time></trkpt>
<trkpt lat="46.05120170" lon="6.16769830"><ele>761.299988</ele><time>2007-04-09T12:56:18Z</time></trkpt>
<trkpt lat="46.05114670" lon="6.16773830"><ele>761.700012</ele><time>2007-04-09T12:56:20Z</time></trkpt>
<trkpt lat="46.05109170" lon="6.16778170"><ele>762.099976</ele><time>2007-04-09T12:56:22Z</time></trkpt>
<trkpt lat="46.05103830" lon="6.16781830"><ele>762.5</ele><time>2007-04-09T12:56:24Z</time></trkpt>
<trkpt lat="46.05098330" lon="6.16785500"><ele>762.799988</ele><time>2007-04-09T12:56:26Z</time></trkpt>
<trkpt lat="46.05093000" lon="6.16789330"><ele>763.299988</ele><time>2007-04-09T12:56:28Z</time></trkpt>
<trkpt lat="46.05087670" lon="6.16793000"><ele>764</ele><time>2007-04-09T12:56:30Z</time></trkpt>
<trkpt lat="46.05082000" lon="6.16797330"><ele>764.5</ele><time>2007-04-09T12:56:32Z</time></trkpt>
<trkpt lat="46.05077330" lon="6.16801670"><ele>765.799988</ele><time>2007-04-09T12:56:34Z</time></trkpt>
<trkpt lat="46.05073170" lon="6.16807170"><ele>766.5</ele><time>2007-04-09T12:56:36Z</time></trkpt>
<trkpt lat="46.05069500" lon="6.16813830"><ele>767.099976</ele><time>2007-04-09T12:56:38Z</time></trkpt>
<trkpt lat="46.05067330" lon="6.16821000"><ele>768.900024</ele><time>2007-04-09T12:56:40Z</time></trkpt>
<trkpt lat="46.05066500" lon="6.16829500"><ele>769.200012</ele><time>2007-04-09T12:56:42Z</time></trkpt>
<trkpt lat="46.05066500" lon="6.16837830"><ele>769.799988</ele><time>2007-04-09T12:56:44Z</time></trkpt>
<trkpt lat="46.05066670" lon="6.16846830"><ele>769.299988</ele><time>2007-04-09T12:56:46Z</time></trkpt>
<trkpt lat="46.05067670" lon="6.16855170"><ele>769.400024</ele><time>2007-04-09T12:56:48Z</time></trkpt>
<trkpt lat="46.05069330" lon="6.16862830"><ele>770</ele><time>2007-04-09T12:56:50Z</time></trkpt>
<trkpt lat="46.05071330" lon="6.16870670"><ele>770.5</ele><time>2007-04-09T12:56:52Z</time></trkpt>
<trkpt lat="46.05073330" lon="6.16878170"><ele>771.200012</ele><time>2007-04-09T12:56:54Z</time></trkpt>
<trkpt lat="46.05075330" lon="6.16885670"><ele>771.700012</ele><time>2007-04-09T12:56:56Z</time></trkpt>
<trkpt lat="46.05077670" lon="6.16893330"><ele>772</ele><time>2007-04-09T12:56:58Z</time></trkpt>
<trkpt lat="46.05080000" lon="6.16901170"><ele>772.299988</ele><time>2007-04-09T12:57:00Z</time></trkpt>
<trkpt lat="46.05082330" lon="6.16908670"><ele>772.599976</ele><time>2007-04-09T12:57:02Z</time></trkpt>
<trkpt lat="46.05084500" lon="6.16916670"><ele>772.799988</ele><time>2007-04-09T12:57:04Z</time></trkpt>
<trkpt lat="46.05087000" lon="6.16924670"><ele>772.900024</ele><time>2007-04-09T12:57:06Z</time></trkpt>
<trkpt lat="46.05089330" lon="6.16932170"><ele>773.099976</ele><time>2007-04-09T12:57:08Z</time></trkpt>
<trkpt lat="46.05091500" lon="6.16940000"><ele>773.200012</ele><time>2007-04-09T12:57:10Z</time></trkpt>
<trkpt lat="46.05094000" lon="6.16947500"><ele>774.299988</ele><time>2007-04-09T12:57:12Z</time></trkpt>
<trkpt lat="46.05096330" lon="6.16955170"><ele>774.599976</ele><time>2007-04-09T12:57:14Z</time></trkpt>
<trkpt lat="46.05098670" lon="6.16962830"><ele>775</ele><time>2007-04-09T12:57:16Z</time></trkpt>
<trkpt lat="46.05101670" lon="6.16970000"><ele>775.900024</ele><time>2007-04-09T12:57:18Z</time></trkpt>
<trkpt lat="46.05105330" lon="6.16976670"><ele>776.900024</ele><time>2007-04-09T12:57:20Z</time></trkpt>
<trkpt lat="46.05109000" lon="6.16982670"><ele>777.900024</ele><time>2007-04-09T12:57:22Z</time></trkpt>
<trkpt lat="46.05113830" lon="6.16987500"><ele>777.799988</ele><time>2007-04-09T12:57:24Z</time></trkpt>
<trkpt lat="46.05119500" lon="6.16991670"><ele>777.799988</ele><time>2007-04-09T12:57:26Z</time></trkpt>
<trkpt lat="46.05125170" lon="6.16995500"><ele>777.900024</ele><time>2007-04-09T12:57:28Z</time></trkpt>
<trkpt lat="46.05130830" lon="6.16999170"><ele>778.099976</ele><time>2007-04-09T12:57:30Z</time></trkpt>
<trkpt lat="46.05136500" lon="6.17002500"><ele>778.200012</ele><time>2007-04-09T12:57:32Z</time></trkpt>
<trkpt lat="46.05142000" lon="6.17006000"><ele>778.400024</ele><time>2007-04-09T12:57:34Z</time></trkpt>
<trkpt lat="46.05147500" lon="6.17009830"><ele>778.700012</ele><time>2007-04-09T12:57:36Z</time></trkpt>
<trkpt lat="46.05153170" lon="6.17013170"><ele>778.799988</ele><time>2007-04-09T12:57:38Z</time></trkpt>
<trkpt lat="46.05158670" lon="6.17016170"><ele>778.900024</ele><time>2007-04-09T12:57:40Z</time></trkpt>
<trkpt lat="46.05164000" lon="6.17019500"><ele>779.200012</ele><time>2007-04-09T12:57:42Z</time></trkpt>
<trkpt lat="46.05169500" lon="6.17023500"><ele>779.200012</ele><time>2007-04-09T12:57:44Z</time></trkpt>
<trkpt lat="46.05175000" lon="6.17026830"><ele>779.5</ele><time>2007-04-09T12:57:46Z</time></trkpt>
<trkpt lat="46.05180500" lon="6.17030670"><ele>779.599976</ele><time>2007-04-09T12:57:48Z</time></trkpt>
<trkpt lat="46.05186500" lon="6.17034170"><ele>779.799988</ele><time>2007-04-09T12:57:50Z</time></trkpt>
<trkpt lat="46.05192330" lon="6.17037330"><ele>780.599976</ele><time>2007-04-09T12:57:52Z</time></trkpt>
<trkpt lat="46.05198000" lon="6.17041170"><ele>780.799988</ele><time>2007-04-09T12:57:54Z</time></trkpt>
<trkpt lat="46.05203670" lon="6.17045000"><ele>780.900024</ele><time>2007-04-09T12:57:56Z</time></trkpt>
<trkpt lat="46.05209000" lon="6.17048830"><ele>781</ele><time>2007-04-09T12:57:58Z</time></trkpt>
<trkpt lat="46.05214670" lon="6.17052670"><ele>781</ele><time>2007-04-09T12:58:00Z</time></trkpt>
<trkpt lat="46.05220170" lon="6.17056500"><ele>781</ele><time>2007-04-09T12:58:02Z</time></trkpt>
<trkpt lat="46.05226000" lon="6.17060330"><ele>781.599976</ele><time>2007-04-09T12:58:04Z</time></trkpt>
<trkpt lat="46.05231670" lon="6.17064000"><ele>781.5</ele><time>2007-04-09T12:58:06Z</time></trkpt>
<trkpt lat="46.05237500" lon="6.17067000"><ele>781.700012</ele><time>2007-04-09T12:58:08Z</time></trkpt>
<trkpt lat="46.05242670" lon="6.17071670"><ele>780.700012</ele><time>2007-04-09T12:58:10Z</time></trkpt>
<trkpt lat="46.05247830" lon="6.17075330"><ele>780.200012</ele><time>2007-04-09T12:58:12Z</time></trkpt>
<trkpt lat="46.05253670" lon="6.17078170"><ele>781.400024</ele><time>2007-04-09T12:58:14Z</time></trkpt>
<trkpt lat="46.05259500" lon="6.17080330"><ele>782.400024</ele><time>2007-04-09T12:58:16Z</time></trkpt>
<trkpt lat="46.05265170" lon="6.17083330"><ele>782.700012</ele><time>2007-04-09T12:58:18Z</time></trkpt>
<trkpt lat="46.05270670" lon="6.17085830"><ele>783.099976</ele><time>2007-04-09T12:58:20Z</time></trkpt>
<trkpt lat="46.05276830" lon="6.17088500"><ele>784</ele><time>2007-04-09T12:58:22Z</time></trkpt>
<trkpt lat="46.05282830" lon="6.17091000"><ele>785.099976</ele><time>2007-04-09T12:58:24Z</time></trkpt>
<trkpt lat="46.05288500" lon="6.17093500"><ele>785.700012</ele><time>2007-04-09T12:58:26Z</time></trkpt>
<trkpt lat="46.05294330" lon="6.17095830"><ele>786.299988</ele><time>2007-04-09T12:58:28Z</time></trkpt>
<trkpt lat="46.05300000" lon="6.17098670"><ele>787.099976</ele><time>2007-04-09T12:58:30Z</time></trkpt>
<trkpt lat="46.05305500" lon="6.17102330"><ele>787.700012</ele><time>2007-04-09T12:58:32Z</time></trkpt>
<trkpt lat="46.05310330" lon="6.17106670"><ele>788.5</ele><time>2007-04-09T12:58:34Z</time></trkpt>
<trkpt lat="46.05316000" lon="6.17111170"><ele>787.700012</ele><time>2007-04-09T12:58:36Z</time></trkpt>
<trkpt lat="46.05320830" lon="6.17116830"><ele>787.900024</ele><time>2007-04-09T12:58:38Z</time></trkpt>
<trkpt lat="46.05324670" lon="6.17123330"><ele>788.400024</ele><time>2007-04-09T12:58:40Z</time></trkpt>
<trkpt lat="46.05328500" lon="6.17130170"><ele>788.299988</ele><time>2007-04-09T12:58:42Z</time></trkpt>
<trkpt lat="46.05331670" lon="6.17137830"><ele>788.200012</ele><time>2007-04-09T12:58:44Z</time></trkpt>
<trkpt lat="46.05334170" lon="6.17146330"><ele>788.299988</ele><time>2007-04-09T12:58:46Z</time></trkpt>
<trkpt lat="46.05335830" lon="6.17155170"><ele>788.599976</ele><time>2007-04-09T12:58:48Z</time></trkpt>
<trkpt lat="46.05336830" lon="6.17164330"><ele>788.799988</ele><time>2007-04-09T12:58:50Z</time></trkpt>
<trkpt lat="46.05337500" lon="6.17173670"><ele>788.799988</ele><time>2007-04-09T12:58:52Z</time></trkpt>
<trkpt lat="46.05338330" lon="6.17183000"><ele>788.799988</ele><time>2007-04-09T12:58:54Z</time></trkpt>
<trkpt lat="46.05339500" lon="6.17192170"><ele>789.299988</ele><time>2007-04-09T12:58:56Z</time></trkpt>
<trkpt lat="46.05340670" lon="6.17201330"><ele>789.900024</ele><time>2007-04-09T12:58:58Z</time></trkpt>
<trkpt lat="46.05341500" lon="6.17210500"><ele>790.299988</ele><time>2007-04-09T12:59:00Z</time></trkpt>
<trkpt lat="46.05342000" lon="6.17219830"><ele>791</ele><time>2007-04-09T12:59:02Z</time></trkpt>
<trkpt lat="46.05342670" lon="6.17229170"><ele>791.799988</ele><time>2007-04-09T12:59:04Z</time></trkpt>
<trkpt lat="46.05343000" lon="6.17238500"><ele>792.200012</ele><time>2007-04-09T12:59:06Z</time></trkpt>
<trkpt lat="46.05343000" lon="6.17248000"><ele>792.700012</ele><time>2007-04-09T12:59:08Z</time></trkpt>
<trkpt lat="46.05343000" lon="6.17257500"><ele>793.099976</ele><time>2007-04-09T12:59:10Z</time></trkpt>
<trkpt lat="46.05341830" lon="6.17266500"><ele>793.5</ele><time>2007-04-09T12:59:12Z</time></trkpt>
<trkpt lat="46.05339830" lon="6.17275830"><ele>794.099976</ele><time>2007-04-09T12:59:14Z</time></trkpt>
<trkpt lat="46.05337000" lon="6.17284670"><ele>794.299988</ele><time>2007-04-09T12:59:16Z</time></trkpt>
<trkpt lat="46.05334170" lon="6.17292330"><ele>795.099976</ele><time>2007-04-09T12:59:18Z</time></trkpt>
<trkpt lat="46.05328670" lon="6.17300330"><ele>793.200012</ele><time>2007-04-09T12:59:20Z</time></trkpt>
<trkpt lat="46.05324330" lon="6.17307170"><ele>793.799988</ele><time>2007-04-09T12:59:22Z</time></trkpt>
<trkpt lat="46.05318670" lon="6.17312330"><ele>793.900024</ele><time>2007-04-09T12:59:24Z</time></trkpt>
<trkpt lat="46.05313170" lon="6.17317170"><ele>794.5</ele><time>2007-04-09T12:59:26Z</time></trkpt>
<trkpt lat="46.05307500" lon="6.17321500"><ele>795.200012</ele><time>2007-04-09T12:59:28Z</time></trkpt>
<trkpt lat="46.05301500" lon="6.17325500"><ele>795.5</ele><time>2007-04-09T12:59:30Z</time></trkpt>
<trkpt lat="46.05295000" lon="6.17329830"><ele>795.200012</ele><time>2007-04-09T12:59:32Z</time></trkpt>
<trkpt lat="46.05288500" lon="6.17333500"><ele>795.799988</ele><time>2007-04-09T12:59:34Z</time></trkpt>
<trkpt lat="46.05282330" lon="6.17338170"><ele>796</ele><time>2007-04-09T12:59:36Z</time></trkpt>
<trkpt lat="46.05276000" lon="6.17343170"><ele>796.099976</ele><time>2007-04-09T12:59:38Z</time></trkpt>
<trkpt lat="46.05269500" lon="6.17347830"><ele>796.5</ele><time>2007-04-09T12:59:40Z</time></trkpt>
<trkpt lat="46.05262830" lon="6.17352500"><ele>796.400024</ele><time>2007-04-09T12:59:42Z</time></trkpt>
<trkpt lat="46.05256500" lon="6.17357170"><ele>796.900024</ele><time>2007-04-09T12:59:44Z</time></trkpt>
<trkpt lat="46.05250000" lon="6.17361500"><ele>797.900024</ele><time>2007-04-09T12:59:46Z</time></trkpt>
<trkpt lat="46.05242170" lon="6.17366670"><ele>798.400024</ele><time>2007-04-09T12:59:48Z</time></trkpt>
<trkpt lat="46.05233670" lon="6.17372830"><ele>798.799988</ele><time>2007-04-09T12:59:50Z</time></trkpt>
<trkpt lat="46.05224670" lon="6.17379170"><ele>798.900024</ele><time>2007-04-09T12:59:52Z</time></trkpt>
<trkpt lat="46.05215670" lon="6.17386170"><ele>799</ele><time>2007-04-09T12:59:54Z</time></trkpt>
<trkpt lat="46.05206830" lon="6.17393000"><ele>799.400024</ele><time>2007-04-09T12:59:56Z</time></trkpt>
<trkpt lat="46.05197830" lon="6.17400170"><ele>799.700012</ele><time>2007-04-09T12:59:58Z</time></trkpt>
<trkpt lat="46.05189000" lon="6.17407500"><ele>799.799988</ele><time>2007-04-09T13:00:00Z</time></trkpt>
<trkpt lat="46.05180000" lon="6.17414830"><ele>800</ele><time>2007-04-09T13:00:02Z</time></trkpt>
<trkpt lat="46.05171000" lon="6.17422170"><ele>800</ele><time>2007-04-09T13:00:04Z</time></trkpt>
<trkpt lat="46.05162500" lon="6.17429830"><ele>800.299988</ele><time>2007-04-09T13:00:06Z</time></trkpt>
<trkpt lat="46.05154170" lon="6.17438830"><ele>800.5</ele><time>2007-04-09T13:00:08Z</time></trkpt>
<trkpt lat="46.05147000" lon="6.17447830"><ele>802.099976</ele><time>2007-04-09T13:00:10Z</time></trkpt>
<trkpt lat="46.05138500" lon="6.17457500"><ele>802.5</ele><time>2007-04-09T13:00:12Z</time></trkpt>
<trkpt lat="46.05131000" lon="6.17468000"><ele>803.099976</ele><time>2007-04-09T13:00:14Z</time></trkpt>
<trkpt lat="46.05123830" lon="6.17479000"><ele>803.799988</ele><time>2007-04-09T13:00:16Z</time></trkpt>
<trkpt lat="46.05116830" lon="6.17490000"><ele>805.200012</ele><time>2007-04-09T13:00:18Z</time></trkpt>
<trkpt lat="46.05111670" lon="6.17502000"><ele>807.400024</ele><time>2007-04-09T13:00:20Z</time></trkpt>
<trkpt lat="46.05105500" lon="6.17513670"><ele>810.099976</ele><time>2007-04-09T13:00:22Z</time></trkpt>
<trkpt lat="46.05098500" lon="6.17522330"><ele>813.099976</ele><time>2007-04-09T13:00:24Z</time></trkpt>
<trkpt lat="46.05090500" lon="6.17531000"><ele>815.099976</ele><time>2007-04-09T13:00:26Z</time></trkpt>
<trkpt lat="46.05082330" lon="6.17540830"><ele>817.099976</ele><time>2007-04-09T13:00:28Z</time></trkpt>
<trkpt lat="46.05075670" lon="6.17549170"><ele>818</ele><time>2007-04-09T13:00:30Z</time></trkpt>
<trkpt lat="46.05069330" lon="6.17556330"><ele>818.700012</ele><time>2007-04-09T13:00:32Z</time></trkpt>
<trkpt lat="46.05062330" lon="6.17563500"><ele>820.5</ele><time>2007-04-09T13:00:34Z</time></trkpt>
<trkpt lat="46.05055170" lon="6.17573170"><ele>820.900024</ele><time>2007-04-09T13:00:36Z</time></trkpt>
<trkpt lat="46.05049000" lon="6.17583830"><ele>821</ele><time>2007-04-09T13:00:38Z</time></trkpt>
<trkpt lat="46.05043170" lon="6.17595830"><ele>820.5</ele><time>2007-04-09T13:00:40Z</time></trkpt>
<trkpt lat="46.05036830" lon="6.17608330"><ele>820.900024</ele><time>2007-04-09T13:00:42Z</time></trkpt>
<trkpt lat="46.05030500" lon="6.17620330"><ele>820.5</ele><time>2007-04-09T13:00:44Z</time></trkpt>
<trkpt lat="46.05024500" lon="6.17632500"><ele>818.900024</ele><time>2007-04-09T13:00:46Z</time></trkpt>
<trkpt lat="46.05018500" lon="6.17643830"><ele>819.099976</ele><time>2007-04-09T13:00:48Z</time></trkpt>
<trkpt lat="46.05012000" lon="6.17654670"><ele>818.900024</ele><time>2007-04-09T13:00:50Z</time></trkpt>
<trkpt lat="46.05005500" lon="6.17665330"><ele>818</ele><time>2007-04-09T13:00:52Z</time></trkpt>
<trkpt lat="46.04999170" lon="6.17675830"><ele>817.099976</ele><time>2007-04-09T13:00:54Z</time></trkpt>
<trkpt lat="46.04992830" lon="6.17685500"><ele>816.400024</ele><time>2007-04-09T13:00:56Z</time></trkpt>
<trkpt lat="46.04985670" lon="6.17694670"><ele>815.700012</ele><time>2007-04-09T13:00:58Z</time></trkpt>
<trkpt lat="46.04977670" lon="6.17702670"><ele>814.900024</ele><time>2007-04-09T13:01:00Z</time></trkpt>
<trkpt lat="46.04969500" lon="6.17710330"><ele>814.5</ele><time>2007-04-09T13:01:02Z</time></trkpt>
<trkpt lat="46.04961330" lon="6.17718170"><ele>814</ele><time>2007-04-09T13:01:04Z</time></trkpt>
<trkpt lat="46.04953170" lon="6.17726670"><ele>813.5</ele><time>2007-04-09T13:01:06Z</time></trkpt>
<trkpt lat="46.04945000" lon="6.17735330"><ele>813.299988</ele><time>2007-04-09T13:01:08Z</time></trkpt>
<trkpt lat="46.04937500" lon="6.17745170"><ele>813</ele><time>2007-04-09T13:01:10Z</time></trkpt>
<trkpt lat="46.04931500" lon="6.17756500"><ele>812.700012</ele><time>2007-04-09T13:01:12Z</time></trkpt>
<trkpt lat="46.04926830" lon="6.17768670"><ele>812.5</ele><time>2007-04-09T13:01:14Z</time></trkpt>
<trkpt lat="46.04923170" lon="6.17781330"><ele>812.299988</ele><time>2007-04-09T13:01:16Z</time></trkpt>
<trkpt lat="46.04920500" lon="6.17794500"><ele>812.099976</ele><time>2007-04-09T13:01:18Z</time></trkpt>
<trkpt lat="46.04918000" lon="6.17807670"><ele>811.900024</ele><time>2007-04-09T13:01:20Z</time></trkpt>
<trkpt lat="46.04915670" lon="6.17821000"><ele>811.799988</ele><time>2007-04-09T13:01:22Z</time></trkpt>
<trkpt lat="46.04913170" lon="6.17834000"><ele>811.599976</ele><time>2007-04-09T13:01:24Z</time></trkpt>
<trkpt lat="46.04910170" lon="6.17846830"><ele>811.5</ele><time>2007-04-09T13:01:26Z</time></trkpt>
<trkpt lat="46.04906830" lon="6.17859500"><ele>811.400024</ele><time>2007-04-09T13:01:28Z</time></trkpt>
<trkpt lat="46.04903000" lon="6.17871830"><ele>811.200012</ele><time>2007-04-09T13:01:30Z</time></trkpt>
<trkpt lat="46.04898500" lon="6.17883500"><ele>811.099976</ele><time>2007-04-09T13:01:32Z</time></trkpt>
<trkpt lat="46.04894000" lon="6.17894830"><ele>811.099976</ele><time>2007-04-09T13:01:34Z</time></trkpt>
<trkpt lat="46.04889500" lon="6.17905670"><ele>811.099976</ele><time>2007-04-09T13:01:36Z</time></trkpt>
<trkpt lat="46.04884830" lon="6.17916000"><ele>811.200012</ele><time>2007-04-09T13:01:38Z</time></trkpt>
<trkpt lat="46.04880500" lon="6.17926670"><ele>811.299988</ele><time>2007-04-09T13:01:40Z</time></trkpt>
<trkpt lat="46.04876670" lon="6.17937330"><ele>811.700012</ele><time>2007-04-09T13:01:42Z</time></trkpt>
<trkpt lat="46.04873170" lon="6.17948330"><ele>812.299988</ele><time>2007-04-09T13:01:44Z</time></trkpt>
<trkpt lat="46.04870830" lon="6.17960000"><ele>812.700012</ele><time>2007-04-09T13:01:46Z</time></trkpt>
<trkpt lat="46.04870830" lon="6.17972670"><ele>813.099976</ele><time>2007-04-09T13:01:48Z</time></trkpt>
<trkpt lat="46.04873000" lon="6.17985000"><ele>813.700012</ele><time>2007-04-09T13:01:50Z</time></trkpt>
<trkpt lat="46.04877670" lon="6.17995500"><ele>814.400024</ele><time>2007-04-09T13:01:52Z</time></trkpt>
<trkpt lat="46.04883670" lon="6.18004330"><ele>814.900024</ele><time>2007-04-09T13:01:54Z</time></trkpt>
<trkpt lat="46.04890830" lon="6.18012170"><ele>815.400024</ele><time>2007-04-09T13:01:56Z</time></trkpt>
<trkpt lat="46.04898500" lon="6.18019670"><ele>815.700012</ele><time>2007-04-09T13:01:58Z</time></trkpt>
<trkpt lat="46.04906500" lon="6.18027330"><ele>815.599976</ele><time>2007-04-09T13:02:00Z</time></trkpt>
<trkpt lat="46.04914330" lon="6.18035670"><ele>815.400024</ele><time>2007-04-09T13:02:02Z</time></trkpt>
<trkpt lat="46.04920500" lon="6.18046330"><ele>815.400024</ele><time>2007-04-09T13:02:04Z</time></trkpt>
<trkpt lat="46.04924170" lon="6.18059170"><ele>815.599976</ele><time>2007-04-09T13:02:06Z</time></trkpt>
<trkpt lat="46.04924830" lon="6.18072500"><ele>815.799988</ele><time>2007-04-09T13:02:08Z</time></trkpt>
<trkpt lat="46.04922500" lon="6.18085330"><ele>816</ele><time>2007-04-09T13:02:10Z</time></trkpt>
<trkpt lat="46.04917500" lon="6.18096500"><ele>816</ele><time>2007-04-09T13:02:12Z</time></trkpt>
<trkpt lat="46.04909500" lon="6.18103670"><ele>816.099976</ele><time>2007-04-09T13:02:14Z</time></trkpt>
<trkpt lat="46.04900330" lon="6.18108170"><ele>816</ele><time>2007-04-09T13:02:16Z</time></trkpt>
<trkpt lat="46.04890500" lon="6.18111500"><ele>815.799988</ele><time>2007-04-09T13:02:18Z</time></trkpt>
<trkpt lat="46.04880330" lon="6.18115000"><ele>815.700012</ele><time>2007-04-09T13:02:20Z</time></trkpt>
<trkpt lat="46.04869500" lon="6.18118670"><ele>815.5</ele><time>2007-04-09T13:02:22Z</time></trkpt>
<trkpt lat="46.04858500" lon="6.18122670"><ele>815.400024</ele><time>2007-04-09T13:02:24Z</time></trkpt>
<trkpt lat="46.04847830" lon="6.18127670"><ele>815.400024</ele><time>2007-04-09T13:02:26Z</time></trkpt>
<trkpt lat="46.04837830" lon="6.18135000"><ele>815.200012</ele><time>2007-04-09T13:02:28Z</time></trkpt>
<trkpt lat="46.04829000" lon="6.18145170"><ele>815.099976</ele><time>2007-04-09T13:02:30Z</time></trkpt>
<trkpt lat="46.04821330" lon="6.18157330"><ele>815.099976</ele><time>2007-04-09T13:02:32Z</time></trkpt>
<trkpt lat="46.04814170" lon="6.18171000"><ele>815.099976</ele><time>2007-04-09T13:02:34Z</time></trkpt>
<trkpt lat="46.04806670" lon="6.18185170"><ele>815</ele><time>2007-04-09T13:02:36Z</time></trkpt>
<trkpt lat="46.04799330" lon="6.18199670"><ele>815</ele><time>2007-04-09T13:02:38Z</time></trkpt>
<trkpt lat="46.04792000" lon="6.18213830"><ele>814.900024</ele><time>2007-04-09T13:02:40Z</time></trkpt>
<trkpt lat="46.04784500" lon="6.18227830"><ele>814.900024</ele><time>2007-04-09T13:02:42Z</time></trkpt>
<trkpt lat="46.04777000" lon="6.18240830"><ele>814.900024</ele><time>2007-04-09T13:02:44Z</time></trkpt>
<trkpt lat="46.04768670" lon="6.18252170"><ele>815.099976</ele><time>2007-04-09T13:02:46Z</time></trkpt>
<trkpt lat="46.04758330" lon="6.18260500"><ele>815.299988</ele><time>2007-04-09T13:02:48Z</time></trkpt>
<trkpt lat="46.04746670" lon="6.18265170"><ele>815.299988</ele><time>2007-04-09T13:02:50Z</time></trkpt>
<trkpt lat="46.04734330" lon="6.18268000"><ele>815.400024</ele><time>2007-04-09T13:02:52Z</time></trkpt>
<trkpt lat="46.04722000" lon="6.18271330"><ele>815.700012</ele><time>2007-04-09T13:02:54Z</time></trkpt>
<trkpt lat="46.04709830" lon="6.18274830"><ele>815.700012</ele><time>2007-04-09T13:02:56Z</time></trkpt>
<trkpt lat="46.04698670" lon="6.18280670"><ele>815.5</ele><time>2007-04-09T13:02:58Z</time></trkpt>
<trkpt lat="46.04688670" lon="6.18289670"><ele>815.400024</ele><time>2007-04-09T13:03:00Z</time></trkpt>
<trkpt lat="46.04680000" lon="6.18300170"><ele>815.700012</ele><time>2007-04-09T13:03:02Z</time></trkpt>
<trkpt lat="46.04672500" lon="6.18311830"><ele>816.700012</ele><time>2007-04-09T13:03:04Z</time></trkpt>
<trkpt lat="46.04665000" lon="6.18322670"><ele>817</ele><time>2007-04-09T13:03:06Z</time></trkpt>
<trkpt lat="46.04658330" lon="6.18333670"><ele>817.599976</ele><time>2007-04-09T13:03:08Z</time></trkpt>
<trkpt lat="46.04652670" lon="6.18345330"><ele>818.400024</ele><time>2007-04-09T13:03:10Z</time></trkpt>
<trkpt lat="46.04647830" lon="6.18357670"><ele>820</ele><time>2007-04-09T13:03:12Z</time></trkpt>
<trkpt lat="46.04644330" lon="6.18371830"><ele>821</ele><time>2007-04-09T13:03:14Z</time></trkpt>
<trkpt lat="46.04641830" lon="6.18385000"><ele>823.700012</ele><time>2007-04-09T13:03:16Z</time></trkpt>
<trkpt lat="46.04639670" lon="6.18398670"><ele>827</ele><time>2007-04-09T13:03:18Z</time></trkpt>
<trkpt lat="46.04634000" lon="6.18410000"><ele>827.900024</ele><time>2007-04-09T13:03:20Z</time></trkpt>
<trkpt lat="46.04626830" lon="6.18419000"><ele>828.200012</ele><time>2007-04-09T13:03:22Z</time></trkpt>
<trkpt lat="46.04619330" lon="6.18424830"><ele>828.700012</ele><time>2007-04-09T13:03:24Z</time></trkpt>
<trkpt lat="46.04611500" lon="6.18428670"><ele>829.400024</ele><time>2007-04-09T13:03:26Z</time></trkpt>
<trkpt lat="46.04603500" lon="6.18431830"><ele>829.900024</ele><time>2007-04-09T13:03:28Z</time></trkpt>
<trkpt lat="46.04595670" lon="6.18435000"><ele>829.599976</ele><time>2007-04-09T13:03:30Z</time></trkpt>
<trkpt lat="46.04588670" lon="6.18437670"><ele>830.5</ele><time>2007-04-09T13:03:32Z</time></trkpt>
<trkpt lat="46.04583000" lon="6.18440330"><ele>833.299988</ele><time>2007-04-09T13:03:34Z</time></trkpt>
<trkpt lat="46.04576000" lon="6.18444670"><ele>833.5</ele><time>2007-04-09T13:03:36Z</time></trkpt>
<trkpt lat="46.04569830" lon="6.18449170"><ele>835.299988</ele><time>2007-04-09T13:03:38Z</time></trkpt>
<trkpt lat="46.04564170" lon="6.18454330"><ele>836.900024</ele><time>2007-04-09T13:03:40Z</time></trkpt>
<trkpt lat="46.04560170" lon="6.18461830"><ele>838.099976</ele><time>2007-04-09T13:03:42Z</time></trkpt>
<trkpt lat="46.04557000" lon="6.18471330"><ele>838</ele><time>2007-04-09T13:03:44Z</time></trkpt>
<trkpt lat="46.04554500" lon="6.18481500"><ele>838</ele><time>2007-04-09T13:03:46Z</time></trkpt>
<trkpt lat="46.04552670" lon="6.18492170"><ele>838.099976</ele><time>2007-04-09T13:03:48Z</time></trkpt>
<trkpt lat="46.04551670" lon="6.18502670"><ele>838.799988</ele><time>2007-04-09T13:03:50Z</time></trkpt>
<trkpt lat="46.04551830" lon="6.18512500"><ele>841.200012</ele><time>2007-04-09T13:03:52Z</time></trkpt>
<trkpt lat="46.04551670" lon="6.18521830"><ele>842.5</ele><time>2007-04-09T13:03:54Z</time></trkpt>
<trkpt lat="46.04551830" lon="6.18532670"><ele>842.599976</ele><time>2007-04-09T13:03:56Z</time></trkpt>
<trkpt lat="46.04551830" lon="6.18543000"><ele>842.400024</ele><time>2007-04-09T13:03:58Z</time></trkpt>
<trkpt lat="46.04552670" lon="6.18553330"><ele>842.5</ele><time>2007-04-09T13:04:00Z</time></trkpt>
<trkpt lat="46.04555000" lon="6.18562830"><ele>843.400024</ele><time>2007-04-09T13:04:02Z</time></trkpt>
<trkpt lat="46.04557000" lon="6.18573330"><ele>844</ele><time>2007-04-09T13:04:04Z</time></trkpt>
<trkpt lat="46.04559000" lon="6.18584330"><ele>843.799988</ele><time>2007-04-09T13:04:06Z</time></trkpt>
<trkpt lat="46.04561170" lon="6.18595170"><ele>843.599976</ele><time>2007-04-09T13:04:08Z</time></trkpt>
<trkpt lat="46.04563000" lon="6.18605670"><ele>843.400024</ele><time>2007-04-09T13:04:10Z</time></trkpt>
<trkpt lat="46.04564330" lon="6.18616330"><ele>842.599976</ele><time>2007-04-09T13:04:12Z</time></trkpt>
<trkpt lat="46.04565170" lon="6.18627170"><ele>841.5</ele><time>2007-04-09T13:04:14Z</time></trkpt>
<trkpt lat="46.04565670" lon="6.18637500"><ele>840.200012</ele><time>2007-04-09T13:04:16Z</time></trkpt>
<trkpt lat="46.04566670" lon="6.18647330"><ele>839.400024</ele><time>2007-04-09T13:04:18Z</time></trkpt>
<trkpt lat="46.04568000" lon="6.18657000"><ele>839</ele><time>2007-04-09T13:04:20Z</time></trkpt>
<trkpt lat="46.04569330" lon="6.18666500"><ele>838.700012</ele><time>2007-04-09T13:04:22Z</time></trkpt>
<trkpt lat="46.04570670" lon="6.18676000"><ele>838.400024</ele><time>2007-04-09T13:04:24Z</time></trkpt>
<trkpt lat="46.04572000" lon="6.18685500"><ele>838.200012</ele><time>2007-04-09T13:04:26Z</time></trkpt>
<trkpt lat="46.04573330" lon="6.18695000"><ele>838.099976</ele><time>2007-04-09T13:04:28Z</time></trkpt>
<trkpt lat="46.04574670" lon="6.18704330"><ele>838.099976</ele><time>2007-04-09T13:04:30Z</time></trkpt>
<trkpt lat="46.04576170" lon="6.18713670"><ele>838.200012</ele><time>2007-04-09T13:04:32Z</time></trkpt>
<trkpt lat="46.04577830" lon="6.18723170"><ele>838.299988</ele><time>2007-04-09T13:04:34Z</time></trkpt>
<trkpt lat="46.04579330" lon="6.18732500"><ele>838.5</ele><time>2007-04-09T13:04:36Z</time></trkpt>
<trkpt lat="46.04581170" lon="6.18741830"><ele>838.700012</ele><time>2007-04-09T13:04:38Z</time></trkpt>
<trkpt lat="46.04583500" lon="6.18751000"><ele>838.799988</ele><time>2007-04-09T13:04:40Z</time></trkpt>
<trkpt lat="46.04586000" lon="6.18759830"><ele>839.200012</ele><time>2007-04-09T13:04:42Z</time></trkpt>
<trkpt lat="46.04588830" lon="6.18768500"><ele>839.400024</ele><time>2007-04-09T13:04:44Z</time></trkpt>
<trkpt lat="46.04591670" lon="6.18777000"><ele>839.700012</ele><time>2007-04-09T13:04:46Z</time></trkpt>
<trkpt lat="46.04595000" lon="6.18785330"><ele>840</ele><time>2007-04-09T13:04:48Z</time></trkpt>
<trkpt lat="46.04598500" lon="6.18793500"><ele>840.200012</ele><time>2007-04-09T13:04:50Z</time></trkpt>
<trkpt lat="46.04602000" lon="6.18801670"><ele>840.400024</ele><time>2007-04-09T13:04:52Z</time></trkpt>
<trkpt lat="46.04605670" lon="6.18809330"><ele>840.900024</ele><time>2007-04-09T13:04:54Z</time></trkpt>
<trkpt lat="46.04609330" lon="6.18816830"><ele>841.400024</ele><time>2007-04-09T13:04:56Z</time></trkpt>
<trkpt lat="46.04613000" lon="6.18824830"><ele>841.799988</ele><time>2007-04-09T13:04:58Z</time></trkpt>
<trkpt lat="46.04617000" lon="6.18833170"><ele>842</ele><time>2007-04-09T13:05:00Z</time></trkpt>
<trkpt lat="46.04620830" lon="6.18841330"><ele>842.400024</ele><time>2007-04-09T13:05:02Z</time></trkpt>
<trkpt lat="46.04624500" lon="6.18849330"><ele>843</ele><time>2007-04-09T13:05:04Z</time></trkpt>
<trkpt lat="46.04628170" lon="6.18857000"><ele>843.700012</ele><time>2007-04-09T13:05:06Z</time></trkpt>
<trkpt lat="46.04631830" lon="6.18864500"><ele>844.599976</ele><time>2007-04-09T13:05:08Z</time></trkpt>
<trkpt lat="46.04635170" lon="6.18872670"><ele>845</ele><time>2007-04-09T13:05:10Z</time></trkpt>
<trkpt lat="46.04638000" lon="6.18881670"><ele>845.200012</ele><time>2007-04-09T13:05:12Z</time></trkpt>
<trkpt lat="46.04640170" lon="6.18891000"><ele>845.5</ele><time>2007-04-09T13:05:14Z</time></trkpt>
<trkpt lat="46.04641500" lon="6.18900670"><ele>845.700012</ele><time>2007-04-09T13:05:16Z</time></trkpt>
<trkpt lat="46.04641830" lon="6.18910330"><ele>845.900024</ele><time>2007-04-09T13:05:18Z</time></trkpt>
<trkpt lat="46.04641170" lon="6.18919830"><ele>846.200012</ele><time>2007-04-09T13:05:20Z</time></trkpt>
<trkpt lat="46.04639170" lon="6.18928670"><ele>846.799988</ele><time>2007-04-09T13:05:22Z</time></trkpt>
<trkpt lat="46.04637170" lon="6.18937830"><ele>846.5</ele><time>2007-04-09T13:05:24Z</time></trkpt>
<trkpt lat="46.04635330" lon="6.18945670"><ele>848.5</ele><time>2007-04-09T13:05:26Z</time></trkpt>
<trkpt lat="46.04632830" lon="6.18953670"><ele>850.099976</ele><time>2007-04-09T13:05:28Z</time></trkpt>
<trkpt lat="46.04631000" lon="6.18960670"><ele>853.299988</ele><time>2007-04-09T13:05:30Z</time></trkpt>
<trkpt lat="46.04629330" lon="6.18969330"><ele>854.599976</ele><time>2007-04-09T13:05:32Z</time></trkpt>
<trkpt lat="46.04628670" lon="6.18978670"><ele>855.200012</ele><time>2007-04-09T13:05:34Z</time></trkpt>
<trkpt lat="46.04627170" lon="6.18988000"><ele>856.799988</ele><time>2007-04-09T13:05:36Z</time></trkpt>
<trkpt lat="46.04625670" lon="6.18998330"><ele>857.200012</ele><time>2007-04-09T13:05:38Z</time></trkpt>
<trkpt lat="46.04624830" lon="6.19008670"><ele>857.700012</ele><time>2007-04-09T13:05:40Z</time></trkpt>
<trkpt lat="46.04624330" lon="6.19019170"><ele>858</ele><time>2007-04-09T13:05:42Z</time></trkpt>
<trkpt lat="46.04625000" lon="6.19029330"><ele>858.200012</ele><time>2007-04-09T13:05:44Z</time></trkpt>
<trkpt lat="46.04626170" lon="6.19039500"><ele>858.099976</ele><time>2007-04-09T13:05:46Z</time></trkpt>
<trkpt lat="46.04627670" lon="6.19049500"><ele>857.900024</ele><time>2007-04-09T13:05:48Z</time></trkpt>
<trkpt lat="46.04629170" lon="6.19059000"><ele>858.200012</ele><time>2007-04-09T13:05:50Z</time></trkpt>
<trkpt lat="46.04630830" lon="6.19068830"><ele>858.400024</ele><time>2007-04-09T13:05:52Z</time></trkpt>
<trkpt lat="46.04632670" lon="6.19078500"><ele>858.299988</ele><time>2007-04-09T13:05:54Z</time></trkpt>
<trkpt lat="46.04634330" lon="6.19088500"><ele>858.099976</ele><time>2007-04-09T13:05:56Z</time></trkpt>
<trkpt lat="46.04636000" lon="6.19098330"><ele>857.900024</ele><time>2007-04-09T13:05:58Z</time></trkpt>
<trkpt lat="46.04637830" lon="6.19107670"><ele>857.799988</ele><time>2007-04-09T13:06:00Z</time></trkpt>
<trkpt lat="46.04639500" lon="6.19117000"><ele>857.700012</ele><time>2007-04-09T13:06:02Z</time></trkpt>
<trkpt lat="46.04641170" lon="6.19126670"><ele>857.700012</ele><time>2007-04-09T13:06:04Z</time></trkpt>
<trkpt lat="46.04642670" lon="6.19136330"><ele>857.5</ele><time>2007-04-09T13:06:06Z</time></trkpt>
<trkpt lat="46.04644500" lon="6.19146170"><ele>857.599976</ele><time>2007-04-09T13:06:08Z</time></trkpt>
<trkpt lat="46.04646170" lon="6.19155830"><ele>857.599976</ele><time>2007-04-09T13:06:10Z</time></trkpt>
<trkpt lat="46.04647830" lon="6.19165170"><ele>857.599976</ele><time>2007-04-09T13:06:12Z</time></trkpt>
<trkpt lat="46.04649500" lon="6.19174670"><ele>857.5</ele><time>2007-04-09T13:06:14Z</time></trkpt>
<trkpt lat="46.04651330" lon="6.19184170"><ele>857.700012</ele><time>2007-04-09T13:06:16Z</time></trkpt>
<trkpt lat="46.04653170" lon="6.19193670"><ele>857.900024</ele><time>2007-04-09T13:06:18Z</time></trkpt>
<trkpt lat="46.04654830" lon="6.19203000"><ele>857.900024</ele><time>2007-04-09T13:06:20Z</time></trkpt>
<trkpt lat="46.04656500" lon="6.19212500"><ele>857.799988</ele><time>2007-04-09T13:06:22Z</time></trkpt>
<trkpt lat="46.04658170" lon="6.19222170"><ele>858.099976</ele><time>2007-04-09T13:06:24Z</time></trkpt>
<trkpt lat="46.04659830" lon="6.19231500"><ele>858.299988</ele><time>2007-04-09T13:06:26Z</time></trkpt>
<trkpt lat="46.04661830" lon="6.19240670"><ele>858.599976</ele><time>2007-04-09T13:06:28Z</time></trkpt>
<trkpt lat="46.04663500" lon="6.19250000"><ele>858.799988</ele><time>2007-04-09T13:06:30Z</time></trkpt>
<trkpt lat="46.04664830" lon="6.19259170"><ele>858.700012</ele><time>2007-04-09T13:06:32Z</time></trkpt>
<trkpt lat="46.04665670" lon="6.19268830"><ele>858.5</ele><time>2007-04-09T13:06:34Z</time></trkpt>
<trkpt lat="46.04666670" lon="6.19278670"><ele>858.599976</ele><time>2007-04-09T13:06:36Z</time></trkpt>
<trkpt lat="46.04667330" lon="6.19288500"><ele>858.900024</ele><time>2007-04-09T13:06:38Z</time></trkpt>
<trkpt lat="46.04668000" lon="6.19298330"><ele>859.400024</ele><time>2007-04-09T13:06:40Z</time></trkpt>
<trkpt lat="46.04668330" lon="6.19308000"><ele>859.599976</ele><time>2007-04-09T13:06:42Z</time></trkpt>
<trkpt lat="46.04668500" lon="6.19317670"><ele>859.599976</ele><time>2007-04-09T13:06:44Z</time></trkpt>
<trkpt lat="46.04668670" lon="6.19327670"><ele>859.599976</ele><time>2007-04-09T13:06:46Z</time></trkpt>
<trkpt lat="46.04669170" lon="6.19337330"><ele>859.799988</ele><time>2007-04-09T13:06:48Z</time></trkpt>
<trkpt lat="46.04669500" lon="6.19347000"><ele>860</ele><time>2007-04-09T13:06:50Z</time></trkpt>
<trkpt lat="46.04670000" lon="6.19356670"><ele>860.299988</ele><time>2007-04-09T13:06:52Z</time></trkpt>
<trkpt lat="46.04670670" lon="6.19366170"><ele>860.599976</ele><time>2007-04-09T13:06:54Z</time></trkpt>
<trkpt lat="46.04672170" lon="6.19375500"><ele>860.900024</ele><time>2007-04-09T13:06:56Z</time></trkpt>
<trkpt lat="46.04674170" lon="6.19384670"><ele>861.200012</ele><time>2007-04-09T13:06:58Z</time></trkpt>
<trkpt lat="46.04676830" lon="6.19393000"><ele>861.900024</ele><time>2007-04-09T13:07:00Z</time></trkpt>
<trkpt lat="46.04679830" lon="6.19401000"><ele>862.599976</ele><time>2007-04-09T13:07:02Z</time></trkpt>
<trkpt lat="46.04683500" lon="6.19408830"><ele>863.200012</ele><time>2007-04-09T13:07:04Z</time></trkpt>
<trkpt lat="46.04687500" lon="6.19416000"><ele>863.900024</ele><time>2007-04-09T13:07:06Z</time></trkpt>
<trkpt lat="46.04691830" lon="6.19422670"><ele>864.599976</ele><time>2007-04-09T13:07:08Z</time></trkpt>
<trkpt lat="46.04696330" lon="6.19429500"><ele>865.099976</ele><time>2007-04-09T13:07:10Z</time></trkpt>
<trkpt lat="46.04700830" lon="6.19436330"><ele>865.5</ele><time>2007-04-09T13:07:12Z</time></trkpt>
<trkpt lat="46.04705330" lon="6.19442830"><ele>865.799988</ele><time>2007-04-09T13:07:14Z</time></trkpt>
<trkpt lat="46.04710170" lon="6.19448500"><ele>866.700012</ele><time>2007-04-09T13:07:16Z</time></trkpt>
<trkpt lat="46.04715000" lon="6.19454170"><ele>867.200012</ele><time>2007-04-09T13:07:18Z</time></trkpt>
<trkpt lat="46.04720170" lon="6.19459170"><ele>867.700012</ele><time>2007-04-09T13:07:20Z</time></trkpt>
<trkpt lat="46.04726000" lon="6.19463330"><ele>868.200012</ele><time>2007-04-09T13:07:22Z</time></trkpt>
<trkpt lat="46.04732170" lon="6.19465670"><ele>868.599976</ele><time>2007-04-09T13:07:24Z</time></trkpt>
<trkpt lat="46.04739170" lon="6.19465830"><ele>868.599976</ele><time>2007-04-09T13:07:26Z</time></trkpt>
<trkpt lat="46.04746330" lon="6.19463000"><ele>868.700012</ele><time>2007-04-09T13:07:28Z</time></trkpt>
<trkpt lat="46.04753330" lon="6.19457670"><ele>868.599976</ele><time>2007-04-09T13:07:30Z</time></trkpt>
<trkpt lat="46.04759330" lon="6.19449000"><ele>868.400024</ele><time>2007-04-09T13:07:32Z</time></trkpt>
<trkpt lat="46.04764830" lon="6.19438000"><ele>868.200012</ele><time>2007-04-09T13:07:34Z</time></trkpt>
<trkpt lat="46.04769830" lon="6.19425670"><ele>868</ele><time>2007-04-09T13:07:36Z</time></trkpt>
<trkpt lat="46.04775330" lon="6.19412670"><ele>867.700012</ele><time>2007-04-09T13:07:38Z</time></trkpt>
<trkpt lat="46.04781000" lon="6.19399500"><ele>867.700012</ele><time>2007-04-09T13:07:40Z</time></trkpt>
<trkpt lat="46.04786670" lon="6.19385830"><ele>867.5</ele><time>2007-04-09T13:07:42Z</time></trkpt>
<trkpt lat="46.04792500" lon="6.19371830"><ele>867.200012</ele><time>2007-04-09T13:07:44Z</time></trkpt>
<trkpt lat="46.04798500" lon="6.19357500"><ele>867</ele><time>2007-04-09T13:07:46Z</time></trkpt>
<trkpt lat="46.04804670" lon="6.19343330"><ele>866.799988</ele><time>2007-04-09T13:07:48Z</time></trkpt>
<trkpt lat="46.04810670" lon="6.19328830"><ele>867</ele><time>2007-04-09T13:07:50Z</time></trkpt>
<trkpt lat="46.04818170" lon="6.19315670"><ele>867.099976</ele><time>2007-04-09T13:07:52Z</time></trkpt>
<trkpt lat="46.04828670" lon="6.19307330"><ele>867.299988</ele><time>2007-04-09T13:07:54Z</time></trkpt>
<trkpt lat="46.04840830" lon="6.19308000"><ele>867.799988</ele><time>2007-04-09T13:07:56Z</time></trkpt>
<trkpt lat="46.04851670" lon="6.19315830"><ele>868.5</ele><time>2007-04-09T13:07:58Z</time></trkpt>
<trkpt lat="46.04861170" lon="6.19325830"><ele>868.5</ele><time>2007-04-09T13:08:00Z</time></trkpt>
<trkpt lat="46.04869670" lon="6.19335830"><ele>867.700012</ele><time>2007-04-09T13:08:02Z</time></trkpt>
<trkpt lat="46.04877330" lon="6.19345000"><ele>867.200012</ele><time>2007-04-09T13:08:04Z</time></trkpt>
<trkpt lat="46.04884500" lon="6.19353500"><ele>867</ele><time>2007-04-09T13:08:06Z</time></trkpt>
<trkpt lat="46.04891670" lon="6.19362000"><ele>867.099976</ele><time>2007-04-09T13:08:08Z</time></trkpt>
<trkpt lat="46.04898500" lon="6.19371000"><ele>867.299988</ele><time>2007-04-09T13:08:10Z</time></trkpt>
<trkpt lat="46.04905170" lon="6.19379830"><ele>867.5</ele><time>2007-04-09T13:08:12Z</time></trkpt>
<trkpt lat="46.04911830" lon="6.19388830"><ele>867.700012</ele><time>2007-04-09T13:08:14Z</time></trkpt>
<trkpt lat="46.04918830" lon="6.19397500"><ele>868</ele><time>2007-04-09T13:08:16Z</time></trkpt>
<trkpt lat="46.04926170" lon="6.19406670"><ele>868.099976</ele><time>2007-04-09T13:08:18Z</time></trkpt>
<trkpt lat="46.04933500" lon="6.19415830"><ele>868.400024</ele><time>2007-04-09T13:08:20Z</time></trkpt>
<trkpt lat="46.04940830" lon="6.19425170"><ele>868.599976</ele><time>2007-04-09T13:08:22Z</time></trkpt>
<trkpt lat="46.04948170" lon="6.19434170"><ele>869</ele><time>2007-04-09T13:08:24Z</time></trkpt>
<trkpt lat="46.04955330" lon="6.19443330"><ele>869.299988</ele><time>2007-04-09T13:08:26Z</time></trkpt>
<trkpt lat="46.04962500" lon="6.19452000"><ele>869.700012</ele><time>2007-04-09T13:08:28Z</time></trkpt>
<trkpt lat="46.04969330" lon="6.19460830"><ele>870.299988</ele><time>2007-04-09T13:08:30Z</time></trkpt>
<trkpt lat="46.04976000" lon="6.19469670"><ele>870.900024</ele><time>2007-04-09T13:08:32Z</time></trkpt>
<trkpt lat="46.04982170" lon="6.19478670"><ele>871.5</ele><time>2007-04-09T13:08:34Z</time></trkpt>
<trkpt lat="46.04988000" lon="6.19488000"><ele>872.200012</ele><time>2007-04-09T13:08:36Z</time></trkpt>
<trkpt lat="46.04993500" lon="6.19497670"><ele>872.900024</ele><time>2007-04-09T13:08:38Z</time></trkpt>
<trkpt lat="46.04998500" lon="6.19507670"><ele>873.599976</ele><time>2007-04-09T13:08:40Z</time></trkpt>
<trkpt lat="46.05003000" lon="6.19518170"><ele>874.099976</ele><time>2007-04-09T13:08:42Z</time></trkpt>
<trkpt lat="46.05007170" lon="6.19528830"><ele>874.900024</ele><time>2007-04-09T13:08:44Z</time></trkpt>
<trkpt lat="46.05010830" lon="6.19539000"><ele>875.599976</ele><time>2007-04-09T13:08:46Z</time></trkpt>
<trkpt lat="46.05014500" lon="6.19549170"><ele>876.200012</ele><time>2007-04-09T13:08:48Z</time></trkpt>
<trkpt lat="46.05018000" lon="6.19559170"><ele>876.900024</ele><time>2007-04-09T13:08:50Z</time></trkpt>
<trkpt lat="46.05021330" lon="6.19569330"><ele>877.599976</ele><time>2007-04-09T13:08:52Z</time></trkpt>
<trkpt lat="46.05024830" lon="6.19579670"><ele>878.299988</ele><time>2007-04-09T13:08:54Z</time></trkpt>
<trkpt lat="46.05028170" lon="6.19590330"><ele>878.900024</ele><time>2007-04-09T13:08:56Z</time></trkpt>
<trkpt lat="46.05031330" lon="6.19601500"><ele>879.599976</ele><time>2007-04-09T13:08:58Z</time></trkpt>
<trkpt lat="46.05034330" lon="6.19612830"><ele>880</ele><time>2007-04-09T13:09:00Z</time></trkpt>
<trkpt lat="46.05037000" lon="6.19624670"><ele>880.5</ele><time>2007-04-09T13:09:02Z</time></trkpt>
<trkpt lat="46.05039500" lon="6.19636500"><ele>881.200012</ele><time>2007-04-09T13:09:04Z</time></trkpt>
<trkpt lat="46.05041500" lon="6.19648170"><ele>881.900024</ele><time>2007-04-09T13:09:06Z</time></trkpt>
<trkpt lat="46.05042830" lon="6.19659500"><ele>882.799988</ele><time>2007-04-09T13:09:08Z</time></trkpt>
<trkpt lat="46.05044330" lon="6.19669830"><ele>884.599976</ele><time>2007-04-09T13:09:10Z</time></trkpt>
<trkpt lat="46.05045830" lon="6.19681330"><ele>884.599976</ele><time>2007-04-09T13:09:12Z</time></trkpt>
<trkpt lat="46.05047170" lon="6.19693000"><ele>885.200012</ele><time>2007-04-09T13:09:14Z</time></trkpt>
<trkpt lat="46.05048830" lon="6.19704330"><ele>885.700012</ele><time>2007-04-09T13:09:16Z</time></trkpt>
<trkpt lat="46.05050500" lon="6.19715830"><ele>886.099976</ele><time>2007-04-09T13:09:18Z</time></trkpt>
<trkpt lat="46.05052000" lon="6.19727500"><ele>886.299988</ele><time>2007-04-09T13:09:20Z</time></trkpt>
<trkpt lat="46.05054000" lon="6.19739170"><ele>886.799988</ele><time>2007-04-09T13:09:22Z</time></trkpt>
<trkpt lat="46.05056670" lon="6.19750500"><ele>887.299988</ele><time>2007-04-09T13:09:24Z</time></trkpt>
<trkpt lat="46.05059670" lon="6.19761830"><ele>887.700012</ele><time>2007-04-09T13:09:26Z</time></trkpt>
<trkpt lat="46.05063670" lon="6.19772330"><ele>887.900024</ele><time>2007-04-09T13:09:28Z</time></trkpt>
<trkpt lat="46.05068500" lon="6.19782830"><ele>887.900024</ele><time>2007-04-09T13:09:30Z</time></trkpt>
<trkpt lat="46.05073000" lon="6.19793330"><ele>888.200012</ele><time>2007-04-09T13:09:32Z</time></trkpt>
<trkpt lat="46.05077500" lon="6.19803830"><ele>888.599976</ele><time>2007-04-09T13:09:34Z</time></trkpt>
<trkpt lat="46.05082500" lon="6.19814170"><ele>888.900024</ele><time>2007-04-09T13:09:36Z</time></trkpt>
<trkpt lat="46.05087500" lon="6.19824830"><ele>889.200012</ele><time>2007-04-09T13:09:38Z</time></trkpt>
<trkpt lat="46.05093000" lon="6.19835000"><ele>890</ele><time>2007-04-09T13:09:40Z</time></trkpt>
<trkpt lat="46.05098000" lon="6.19846000"><ele>889.400024</ele><time>2007-04-09T13:09:42Z</time></trkpt>
<trkpt lat="46.05102830" lon="6.19857000"><ele>889.099976</ele><time>2007-04-09T13:09:44Z</time></trkpt>
<trkpt lat="46.05107500" lon="6.19868000"><ele>888.900024</ele><time>2007-04-09T13:09:46Z</time></trkpt>
<trkpt lat="46.05111670" lon="6.19879000"><ele>888.799988</ele><time>2007-04-09T13:09:48Z</time></trkpt>
<trkpt lat="46.05115830" lon="6.19890330"><ele>888.700012</ele><time>2007-04-09T13:09:50Z</time></trkpt>
<trkpt lat="46.05120000" lon="6.19901830"><ele>888.700012</ele><time>2007-04-09T13:09:52Z</time></trkpt>
<trkpt lat="46.05123670" lon="6.19913500"><ele>888.700012</ele><time>2007-04-09T13:09:54Z</time></trkpt>
<trkpt lat="46.05126830" lon="6.19925500"><ele>888.700012</ele><time>2007-04-09T13:09:56Z</time></trkpt>
<trkpt lat="46.05130000" lon="6.19937830"><ele>888.599976</ele><time>2007-04-09T13:09:58Z</time></trkpt>
<trkpt lat="46.05133000" lon="6.19950670"><ele>888.599976</ele><time>2007-04-09T13:10:00Z</time></trkpt>
<trkpt lat="46.05135670" lon="6.19963830"><ele>888.599976</ele><time>2007-04-09T13:10:02Z</time></trkpt>
<trkpt lat="46.05138500" lon="6.19977170"><ele>888.700012</ele><time>2007-04-09T13:10:04Z</time></trkpt>
<trkpt lat="46.05140670" lon="6.19990500"><ele>888.700012</ele><time>2007-04-09T13:10:06Z</time></trkpt>
<trkpt lat="46.05142500" lon="6.20003670"><ele>888.900024</ele><time>2007-04-09T13:10:08Z</time></trkpt>
<trkpt lat="46.05143500" lon="6.20016830"><ele>889</ele><time>2007-04-09T13:10:10Z</time></trkpt>
<trkpt lat="46.05143330" lon="6.20029670"><ele>889.200012</ele><time>2007-04-09T13:10:12Z</time></trkpt>
<trkpt lat="46.05142330" lon="6.20042670"><ele>889.400024</ele><time>2007-04-09T13:10:14Z</time></trkpt>
<trkpt lat="46.05140330" lon="6.20055670"><ele>889.599976</ele><time>2007-04-09T13:10:16Z</time></trkpt>
<trkpt lat="46.05138000" lon="6.20068670"><ele>890.099976</ele><time>2007-04-09T13:10:18Z</time></trkpt>
<trkpt lat="46.05135170" lon="6.20081830"><ele>890.599976</ele><time>2007-04-09T13:10:20Z</time></trkpt>
<trkpt lat="46.05132330" lon="6.20095000"><ele>891.299988</ele><time>2007-04-09T13:10:22Z</time></trkpt>
<trkpt lat="46.05129830" lon="6.20108500"><ele>891.900024</ele><time>2007-04-09T13:10:24Z</time></trkpt>
<trkpt lat="46.05127330" lon="6.20122000"><ele>893</ele><time>2007-04-09T13:10:26Z</time></trkpt>
<trkpt lat="46.05125170" lon="6.20135500"><ele>894.400024</ele><time>2007-04-09T13:10:28Z</time></trkpt>
<trkpt lat="46.05123500" lon="6.20149830"><ele>895.5</ele><time>2007-04-09T13:10:30Z</time></trkpt>
<trkpt lat="46.05123330" lon="6.20165500"><ele>896.400024</ele><time>2007-04-09T13:10:32Z</time></trkpt>
<trkpt lat="46.05125000" lon="6.20181830"><ele>896.900024</ele><time>2007-04-09T13:10:34Z</time></trkpt>
<trkpt lat="46.05126500" lon="6.20198500"><ele>897.099976</ele><time>2007-04-09T13:10:36Z</time></trkpt>
<trkpt lat="46.05128170" lon="6.20215500"><ele>897.099976</ele><time>2007-04-09T13:10:38Z</time></trkpt>
<trkpt lat="46.05130000" lon="6.20232330"><ele>897.200012</ele><time>2007-04-09T13:10:40Z</time></trkpt>
<trkpt lat="46.05131830" lon="6.20249000"><ele>897.400024</ele><time>2007-04-09T13:10:42Z</time></trkpt>
<trkpt lat="46.05133670" lon="6.20265830"><ele>897.799988</ele><time>2007-04-09T13:10:44Z</time></trkpt>
<trkpt lat="46.05135000" lon="6.20282500"><ele>898</ele><time>2007-04-09T13:10:46Z</time></trkpt>
<trkpt lat="46.05136500" lon="6.20299830"><ele>898.5</ele><time>2007-04-09T13:10:48Z</time></trkpt>
<trkpt lat="46.05138500" lon="6.20317830"><ele>898.200012</ele><time>2007-04-09T13:10:50Z</time></trkpt>
<trkpt lat="46.05140500" lon="6.20336000"><ele>898.099976</ele><time>2007-04-09T13:10:52Z</time></trkpt>
<trkpt lat="46.05142500" lon="6.20354170"><ele>898</ele><time>2007-04-09T13:10:54Z</time></trkpt>
<trkpt lat="46.05144670" lon="6.20372000"><ele>898.299988</ele><time>2007-04-09T13:10:56Z</time></trkpt>
<trkpt lat="46.05146670" lon="6.20389670"><ele>898.200012</ele><time>2007-04-09T13:10:58Z</time></trkpt>
<trkpt lat="46.05148670" lon="6.20407000"><ele>898</ele><time>2007-04-09T13:11:00Z</time></trkpt>
<trkpt lat="46.05150830" lon="6.20424330"><ele>897.799988</ele><time>2007-04-09T13:11:02Z</time></trkpt>
<trkpt lat="46.05153330" lon="6.20441000"><ele>897.799988</ele><time>2007-04-09T13:11:04Z</time></trkpt>
<trkpt lat="46.05156330" lon="6.20457000"><ele>896.900024</ele><time>2007-04-09T13:11:06Z</time></trkpt>
<trkpt lat="46.05159830" lon="6.20472330"><ele>896</ele><time>2007-04-09T13:11:08Z</time></trkpt>
<trkpt lat="46.05163670" lon="6.20487500"><ele>895.299988</ele><time>2007-04-09T13:11:10Z</time></trkpt>
<trkpt lat="46.05168500" lon="6.20503000"><ele>894.299988</ele><time>2007-04-09T13:11:12Z</time></trkpt>
<trkpt lat="46.05173670" lon="6.20518500"><ele>893.400024</ele><time>2007-04-09T13:11:14Z</time></trkpt>
<trkpt lat="46.05178830" lon="6.20534170"><ele>892.799988</ele><time>2007-04-09T13:11:16Z</time></trkpt>
<trkpt lat="46.05184170" lon="6.20550170"><ele>892.200012</ele><time>2007-04-09T13:11:18Z</time></trkpt>
<trkpt lat="46.05190000" lon="6.20566170"><ele>891.400024</ele><time>2007-04-09T13:11:20Z</time></trkpt>
<trkpt lat="46.05196170" lon="6.20582670"><ele>890.599976</ele><time>2007-04-09T13:11:22Z</time></trkpt>
<trkpt lat="46.05202500" lon="6.20599670"><ele>889.700012</ele><time>2007-04-09T13:11:24Z</time></trkpt>
<trkpt lat="46.05208830" lon="6.20617170"><ele>889.200012</ele><time>2007-04-09T13:11:26Z</time></trkpt>
<trkpt lat="46.05215000" lon="6.20634830"><ele>888.900024</ele><time>2007-04-09T13:11:28Z</time></trkpt>
<trkpt lat="46.05221170" lon="6.20652000"><ele>888.5</ele><time>2007-04-09T13:11:30Z</time></trkpt>
<trkpt lat="46.05227170" lon="6.20669330"><ele>888.200012</ele><time>2007-04-09T13:11:32Z</time></trkpt>
<trkpt lat="46.05233170" lon="6.20687170"><ele>888</ele><time>2007-04-09T13:11:34Z</time></trkpt>
<trkpt lat="46.05239670" lon="6.20704670"><ele>887.900024</ele><time>2007-04-09T13:11:36Z</time></trkpt>
<trkpt lat="46.05246170" lon="6.20723000"><ele>888.099976</ele><time>2007-04-09T13:11:38Z</time></trkpt>
<trkpt lat="46.05252500" lon="6.20741830"><ele>888.099976</ele><time>2007-04-09T13:11:40Z</time></trkpt>
<trkpt lat="46.05259670" lon="6.20761000"><ele>887.900024</ele><time>2007-04-09T13:11:42Z</time></trkpt>
<trkpt lat="46.05267330" lon="6.20780330"><ele>887.700012</ele><time>2007-04-09T13:11:44Z</time></trkpt>
<trkpt lat="46.05275830" lon="6.20799500"><ele>887.5</ele><time>2007-04-09T13:11:46Z</time></trkpt>
<trkpt lat="46.05285330" lon="6.20818330"><ele>887.299988</ele><time>2007-04-09T13:11:48Z</time></trkpt>
<trkpt lat="46.05295670" lon="6.20836170"><ele>887.200012</ele><time>2007-04-09T13:11:50Z</time></trkpt>
<trkpt lat="46.05306670" lon="6.20853500"><ele>887</ele><time>2007-04-09T13:11:52Z</time></trkpt>
<trkpt lat="46.05318330" lon="6.20869170"><ele>886.599976</ele><time>2007-04-09T13:11:54Z</time></trkpt>
<trkpt lat="46.05329500" lon="6.20883830"><ele>887</ele><time>2007-04-09T13:11:56Z</time></trkpt>
<trkpt lat="46.05337670" lon="6.20902830"><ele>886.400024</ele><time>2007-04-09T13:11:58Z</time></trkpt>
<trkpt lat="46.05342330" lon="6.20925500"><ele>886.299988</ele><time>2007-04-09T13:12:00Z</time></trkpt>
<trkpt lat="46.05340000" lon="6.20948170"><ele>886</ele><time>2007-04-09T13:12:02Z</time></trkpt>
<trkpt lat="46.05330330" lon="6.20966670"><ele>886.099976</ele><time>2007-04-09T13:12:04Z</time></trkpt>
<trkpt lat="46.05317500" lon="6.20981170"><ele>886</ele><time>2007-04-09T13:12:06Z</time></trkpt>
<trkpt lat="46.05304330" lon="6.20996000"><ele>886.299988</ele><time>2007-04-09T13:12:08Z</time></trkpt>
<trkpt lat="46.05291330" lon="6.21011830"><ele>886.099976</ele><time>2007-04-09T13:12:10Z</time></trkpt>
<trkpt lat="46.05278830" lon="6.21029330"><ele>885.299988</ele><time>2007-04-09T13:12:12Z</time></trkpt>
<trkpt lat="46.05266000" lon="6.21047500"><ele>884.200012</ele><time>2007-04-09T13:12:14Z</time></trkpt>
<trkpt lat="46.05252500" lon="6.21066670"><ele>883.599976</ele><time>2007-04-09T13:12:16Z</time></trkpt>
<trkpt lat="46.05238330" lon="6.21086170"><ele>882.5</ele><time>2007-04-09T13:12:18Z</time></trkpt>
<trkpt lat="46.05224170" lon="6.21106000"><ele>881.799988</ele><time>2007-04-09T13:12:20Z</time></trkpt>
<trkpt lat="46.05210330" lon="6.21127830"><ele>880.400024</ele><time>2007-04-09T13:12:22Z</time></trkpt>
<trkpt lat="46.05199330" lon="6.21153170"><ele>878.799988</ele><time>2007-04-09T13:12:24Z</time></trkpt>
<trkpt lat="46.05196000" lon="6.21183500"><ele>876.5</ele><time>2007-04-09T13:12:26Z</time></trkpt>
<trkpt lat="46.05198500" lon="6.21213170"><ele>875.200012</ele><time>2007-04-09T13:12:28Z</time></trkpt>
<trkpt lat="46.05202500" lon="6.21241670"><ele>874.599976</ele><time>2007-04-09T13:12:30Z</time></trkpt>
<trkpt lat="46.05206830" lon="6.21269000"><ele>874.299988</ele><time>2007-04-09T13:12:32Z</time></trkpt>
<trkpt lat="46.05211000" lon="6.21295830"><ele>874.099976</ele><time>2007-04-09T13:12:34Z</time></trkpt>
<trkpt lat="46.05214330" lon="6.21322000"><ele>873.799988</ele><time>2007-04-09T13:12:36Z</time></trkpt>
<trkpt lat="46.05216670" lon="6.21347830"><ele>873.400024</ele><time>2007-04-09T13:12:38Z</time></trkpt>
<trkpt lat="46.05218170" lon="6.21373500"><ele>873.299988</ele><time>2007-04-09T13:12:40Z</time></trkpt>
<trkpt lat="46.05219500" lon="6.21398670"><ele>873.099976</ele><time>2007-04-09T13:12:42Z</time></trkpt>
<trkpt lat="46.05220670" lon="6.21423500"><ele>872.900024</ele><time>2007-04-09T13:12:44Z</time></trkpt>
<trkpt lat="46.05222170" lon="6.21447670"><ele>872.700012</ele><time>2007-04-09T13:12:46Z</time></trkpt>
<trkpt lat="46.05223830" lon="6.21472000"><ele>872.599976</ele><time>2007-04-09T13:12:48Z</time></trkpt>
<trkpt lat="46.05225830" lon="6.21495500"><ele>873.700012</ele><time>2007-04-09T13:12:50Z</time></trkpt>
<trkpt lat="46.05226830" lon="6.21519670"><ele>873.799988</ele><time>2007-04-09T13:12:52Z</time></trkpt>
<trkpt lat="46.05228000" lon="6.21544170"><ele>873.299988</ele><time>2007-04-09T13:12:54Z</time></trkpt>
<trkpt lat="46.05229500" lon="6.21569170"><ele>872.599976</ele><time>2007-04-09T13:12:56Z</time></trkpt>
<trkpt lat="46.05231170" lon="6.21595000"><ele>871.700012</ele><time>2007-04-09T13:12:58Z</time></trkpt>
<trkpt lat="46.05232500" lon="6.21621500"><ele>870.900024</ele><time>2007-04-09T13:13:00Z</time></trkpt>
<trkpt lat="46.05233830" lon="6.21648170"><ele>869.900024</ele><time>2007-04-09T13:13:02Z</time></trkpt>
<trkpt lat="46.05235330" lon="6.21675670"><ele>869.099976</ele><time>2007-04-09T13:13:04Z</time></trkpt>
<trkpt lat="46.05237000" lon="6.21703500"><ele>868.400024</ele><time>2007-04-09T13:13:06Z</time></trkpt>
<trkpt lat="46.05239000" lon="6.21731330"><ele>867.900024</ele><time>2007-04-09T13:13:08Z</time></trkpt>
<trkpt lat="46.05243000" lon="6.21759170"><ele>867</ele><time>2007-04-09T13:13:10Z</time></trkpt>
<trkpt lat="46.05250330" lon="6.21786170"><ele>866.200012</ele><time>2007-04-09T13:13:12Z</time></trkpt>
<trkpt lat="46.05260330" lon="6.21812330"><ele>865.200012</ele><time>2007-04-09T13:13:14Z</time></trkpt>
<trkpt lat="46.05271170" lon="6.21839330"><ele>864</ele><time>2007-04-09T13:13:16Z</time></trkpt>
<trkpt lat="46.05281830" lon="6.21867000"><ele>862.700012</ele><time>2007-04-09T13:13:18Z</time></trkpt>
<trkpt lat="46.05292670" lon="6.21895500"><ele>861.299988</ele><time>2007-04-09T13:13:20Z</time></trkpt>
<trkpt lat="46.05301830" lon="6.21926000"><ele>859.900024</ele><time>2007-04-09T13:13:22Z</time></trkpt>
<trkpt lat="46.05305000" lon="6.21958670"><ele>859.099976</ele><time>2007-04-09T13:13:24Z</time></trkpt>
<trkpt lat="46.05299830" lon="6.21990170"><ele>858.700012</ele><time>2007-04-09T13:13:26Z</time></trkpt>
<trkpt lat="46.05287670" lon="6.22019500"><ele>858.5</ele><time>2007-04-09T13:13:28Z</time></trkpt>
<trkpt lat="46.05275170" lon="6.22047670"><ele>858.099976</ele><time>2007-04-09T13:13:30Z</time></trkpt>
<trkpt lat="46.05265170" lon="6.22076500"><ele>857.5</ele><time>2007-04-09T13:13:32Z</time></trkpt>
<trkpt lat="46.05258500" lon="6.22106500"><ele>856.700012</ele><time>2007-04-09T13:13:34Z</time></trkpt>
<trkpt lat="46.05255670" lon="6.22137000"><ele>856.099976</ele><time>2007-04-09T13:13:36Z</time></trkpt>
<trkpt lat="46.05254170" lon="6.22166830"><ele>855.400024</ele><time>2007-04-09T13:13:38Z</time></trkpt>
<trkpt lat="46.05252830" lon="6.22196000"><ele>854.700012</ele><time>2007-04-09T13:13:40Z</time></trkpt>
<trkpt lat="46.05251670" lon="6.22225000"><ele>853.900024</ele><time>2007-04-09T13:13:42Z</time></trkpt>
<trkpt lat="46.05250330" lon="6.22253830"><ele>853.200012</ele><time>2007-04-09T13:13:44Z</time></trkpt>
<trkpt lat="46.05249330" lon="6.22282330"><ele>852.400024</ele><time>2007-04-09T13:13:46Z</time></trkpt>
<trkpt lat="46.05248170" lon="6.22310670"><ele>851.700012</ele><time>2007-04-09T13:13:48Z</time></trkpt>
<trkpt lat="46.05247000" lon="6.22338500"><ele>851</ele><time>2007-04-09T13:13:50Z</time></trkpt>
<trkpt lat="46.05246000" lon="6.22366170"><ele>850.5</ele><time>2007-04-09T13:13:52Z</time></trkpt>
<trkpt lat="46.05245000" lon="6.22394000"><ele>849.900024</ele><time>2007-04-09T13:13:54Z</time></trkpt>
<trkpt lat="46.05244000" lon="6.22422170"><ele>849.700012</ele><time>2007-04-09T13:13:56Z</time></trkpt>
<trkpt lat="46.05243000" lon="6.22449670"><ele>849.799988</ele><time>2007-04-09T13:13:58Z</time></trkpt>
<trkpt lat="46.05241830" lon="6.22475500"><ele>850.299988</ele><time>2007-04-09T13:14:00Z</time></trkpt>
<trkpt lat="46.05242000" lon="6.22501670"><ele>853.299988</ele><time>2007-04-09T13:14:02Z</time></trkpt>
<trkpt lat="46.05240830" lon="6.22530170"><ele>853.200012</ele><time>2007-04-09T13:14:04Z</time></trkpt>
<trkpt lat="46.05240000" lon="6.22558830"><ele>853.099976</ele><time>2007-04-09T13:14:06Z</time></trkpt>
<trkpt lat="46.05239170" lon="6.22586330"><ele>852.799988</ele><time>2007-04-09T13:14:08Z</time></trkpt>
<trkpt lat="46.05238830" lon="6.22613500"><ele>852.599976</ele><time>2007-04-09T13:14:10Z</time></trkpt>
<trkpt lat="46.05238170" lon="6.22639670"><ele>852.099976</ele><time>2007-04-09T13:14:12Z</time></trkpt>
<trkpt lat="46.05236500" lon="6.22665330"><ele>851.799988</ele><time>2007-04-09T13:14:14Z</time></trkpt>
<trkpt lat="46.05233830" lon="6.22690830"><ele>851.400024</ele><time>2007-04-09T13:14:16Z</time></trkpt>
<trkpt lat="46.05232170" lon="6.22716830"><ele>851.099976</ele><time>2007-04-09T13:14:18Z</time></trkpt>
<trkpt lat="46.05231000" lon="6.22743830"><ele>850</ele><time>2007-04-09T13:14:20Z</time></trkpt>
<trkpt lat="46.05231000" lon="6.22771830"><ele>849</ele><time>2007-04-09T13:14:22Z</time></trkpt>
<trkpt lat="46.05232000" lon="6.22800330"><ele>848.099976</ele><time>2007-04-09T13:14:24Z</time></trkpt>
<trkpt lat="46.05233670" lon="6.22828830"><ele>847.599976</ele><time>2007-04-09T13:14:26Z</time></trkpt>
<trkpt lat="46.05235330" lon="6.22857500"><ele>845.599976</ele><time>2007-04-09T13:14:28Z</time></trkpt>
<trkpt lat="46.05236670" lon="6.22886500"><ele>844</ele><time>2007-04-09T13:14:30Z</time></trkpt>
<trkpt lat="46.05237330" lon="6.22916000"><ele>842.299988</ele><time>2007-04-09T13:14:32Z</time></trkpt>
<trkpt lat="46.05235830" lon="6.22946000"><ele>840.700012</ele><time>2007-04-09T13:14:34Z</time></trkpt>
<trkpt lat="46.05233000" lon="6.22976000"><ele>839.599976</ele><time>2007-04-09T13:14:36Z</time></trkpt>
<trkpt lat="46.05228830" lon="6.23005830"><ele>838.5</ele><time>2007-04-09T13:14:38Z</time></trkpt>
<trkpt lat="46.05222330" lon="6.23035000"><ele>837.900024</ele><time>2007-04-09T13:14:40Z</time></trkpt>
<trkpt lat="46.05213670" lon="6.23063330"><ele>837.200012</ele><time>2007-04-09T13:14:42Z</time></trkpt>
<trkpt lat="46.05205170" lon="6.23092000"><ele>836.900024</ele><time>2007-04-09T13:14:44Z</time></trkpt>
<trkpt lat="46.05202670" lon="6.23122670"><ele>836</ele><time>2007-04-09T13:14:46Z</time></trkpt>
<trkpt lat="46.05204500" lon="6.23152670"><ele>835.700012</ele><time>2007-04-09T13:14:48Z</time></trkpt>
<trkpt lat="46.05208000" lon="6.23181830"><ele>835.099976</ele><time>2007-04-09T13:14:50Z</time></trkpt>
<trkpt lat="46.05211500" lon="6.23210500"><ele>834.5</ele><time>2007-04-09T13:14:52Z</time></trkpt>
<trkpt lat="46.05213170" lon="6.23239830"><ele>833.799988</ele><time>2007-04-09T13:14:54Z</time></trkpt>
<trkpt lat="46.05212830" lon="6.23269500"><ele>832.900024</ele><time>2007-04-09T13:14:56Z</time></trkpt>
<trkpt lat="46.05210500" lon="6.23299670"><ele>832.099976</ele><time>2007-04-09T13:14:58Z</time></trkpt>
<trkpt lat="46.05206330" lon="6.23330000"><ele>831.299988</ele><time>2007-04-09T13:15:00Z</time></trkpt>
<trkpt lat="46.05199830" lon="6.23359670"><ele>830.700012</ele><time>2007-04-09T13:15:02Z</time></trkpt>
<trkpt lat="46.05191170" lon="6.23387670"><ele>830.900024</ele><time>2007-04-09T13:15:04Z</time></trkpt>
<trkpt lat="46.05183000" lon="6.23416330"><ele>829.299988</ele><time>2007-04-09T13:15:06Z</time></trkpt>
<trkpt lat="46.05177000" lon="6.23445000"><ele>828.700012</ele><time>2007-04-09T13:15:08Z</time></trkpt>
<trkpt lat="46.05172170" lon="6.23473330"><ele>828.200012</ele><time>2007-04-09T13:15:10Z</time></trkpt>
<trkpt lat="46.05168000" lon="6.23501000"><ele>827.599976</ele><time>2007-04-09T13:15:12Z</time></trkpt>
<trkpt lat="46.05164330" lon="6.23528330"><ele>827.200012</ele><time>2007-04-09T13:15:14Z</time></trkpt>
<trkpt lat="46.05162330" lon="6.23555500"><ele>826.900024</ele><time>2007-04-09T13:15:16Z</time></trkpt>
<trkpt lat="46.05161670" lon="6.23582330"><ele>826.799988</ele><time>2007-04-09T13:15:18Z</time></trkpt>
<trkpt lat="46.05161670" lon="6.23608170"><ele>826.599976</ele><time>2007-04-09T13:15:20Z</time></trkpt>
<trkpt lat="46.05164000" lon="6.23633500"><ele>825.900024</ele><time>2007-04-09T13:15:22Z</time></trkpt>
<trkpt lat="46.05169500" lon="6.23657830"><ele>825.299988</ele><time>2007-04-09T13:15:24Z</time></trkpt>
<trkpt lat="46.05177670" lon="6.23680330"><ele>824.700012</ele><time>2007-04-09T13:15:26Z</time></trkpt>
<trkpt lat="46.05186000" lon="6.23702830"><ele>824.200012</ele><time>2007-04-09T13:15:28Z</time></trkpt>
<trkpt lat="46.05194330" lon="6.23725500"><ele>823.799988</ele><time>2007-04-09T13:15:30Z</time></trkpt>
<trkpt lat="46.05203000" lon="6.23748170"><ele>823.299988</ele><time>2007-04-09T13:15:32Z</time></trkpt>
<trkpt lat="46.05211830" lon="6.23771000"><ele>822.799988</ele><time>2007-04-09T13:15:34Z</time></trkpt>
<trkpt lat="46.05220500" lon="6.23794170"><ele>822.599976</ele><time>2007-04-09T13:15:36Z</time></trkpt>
<trkpt lat="46.05229670" lon="6.23817000"><ele>822.200012</ele><time>2007-04-09T13:15:38Z</time></trkpt>
<trkpt lat="46.05239000" lon="6.23840000"><ele>821.900024</ele><time>2007-04-09T13:15:40Z</time></trkpt>
<trkpt lat="46.05248670" lon="6.23862670"><ele>821.5</ele><time>2007-04-09T13:15:42Z</time></trkpt>
<trkpt lat="46.05258830" lon="6.23884500"><ele>821.200012</ele><time>2007-04-09T13:15:44Z</time></trkpt>
<trkpt lat="46.05270000" lon="6.23905670"><ele>820.799988</ele><time>2007-04-09T13:15:46Z</time></trkpt>
<trkpt lat="46.05281500" lon="6.23926170"><ele>820.599976</ele><time>2007-04-09T13:15:48Z</time></trkpt>
<trkpt lat="46.05293670" lon="6.23946000"><ele>820.599976</ele><time>2007-04-09T13:15:50Z</time></trkpt>
<trkpt lat="46.05306670" lon="6.23965670"><ele>820.400024</ele><time>2007-04-09T13:15:52Z</time></trkpt>
<trkpt lat="46.05320500" lon="6.23985670"><ele>820.299988</ele><time>2007-04-09T13:15:54Z</time></trkpt>
<trkpt lat="46.05335330" lon="6.24006500"><ele>819.900024</ele><time>2007-04-09T13:15:56Z</time></trkpt>
<trkpt lat="46.05350170" lon="6.24029830"><ele>818.700012</ele><time>2007-04-09T13:15:58Z</time></trkpt>
<trkpt lat="46.05360500" lon="6.24059170"><ele>817.599976</ele><time>2007-04-09T13:16:00Z</time></trkpt>
<trkpt lat="46.05363170" lon="6.24092670"><ele>815.900024</ele><time>2007-04-09T13:16:02Z</time></trkpt>
<trkpt lat="46.05362670" lon="6.24126500"><ele>816.200012</ele><time>2007-04-09T13:16:04Z</time></trkpt>
<trkpt lat="46.05360500" lon="6.24159830"><ele>815.5</ele><time>2007-04-09T13:16:06Z</time></trkpt>
<trkpt lat="46.05351670" lon="6.24191000"><ele>816.099976</ele><time>2007-04-09T13:16:08Z</time></trkpt>
<trkpt lat="46.05335670" lon="6.24218170"><ele>815.599976</ele><time>2007-04-09T13:16:10Z</time></trkpt>
<trkpt lat="46.05318170" lon="6.24242330"><ele>813.299988</ele><time>2007-04-09T13:16:12Z</time></trkpt>
<trkpt lat="46.05299170" lon="6.24258830"><ele>812</ele><time>2007-04-09T13:16:14Z</time></trkpt>
<trkpt lat="46.05277170" lon="6.24263830"><ele>812.200012</ele><time>2007-04-09T13:16:16Z</time></trkpt>
<trkpt lat="46.05257000" lon="6.24268670"><ele>812.400024</ele><time>2007-04-09T13:16:18Z</time></trkpt>
<trkpt lat="46.05240330" lon="6.24278830"><ele>812.299988</ele><time>2007-04-09T13:16:20Z</time></trkpt>
<trkpt lat="46.05229170" lon="6.24297500"><ele>812.400024</ele><time>2007-04-09T13:16:22Z</time></trkpt>
<trkpt lat="46.05222670" lon="6.24320670"><ele>812.400024</ele><time>2007-04-09T13:16:24Z</time></trkpt>
<trkpt lat="46.05218330" lon="6.24344170"><ele>812.400024</ele><time>2007-04-09T13:16:26Z</time></trkpt>
<trkpt lat="46.05214330" lon="6.24366670"><ele>812.599976</ele><time>2007-04-09T13:16:28Z</time></trkpt>
<trkpt lat="46.05210000" lon="6.24388500"><ele>813.299988</ele><time>2007-04-09T13:16:30Z</time></trkpt>
<trkpt lat="46.05206000" lon="6.24411000"><ele>813.5</ele><time>2007-04-09T13:16:32Z</time></trkpt>
<trkpt lat="46.05202000" lon="6.24433000"><ele>813.900024</ele><time>2007-04-09T13:16:34Z</time></trkpt>
<trkpt lat="46.05197830" lon="6.24454830"><ele>814.099976</ele><time>2007-04-09T13:16:36Z</time></trkpt>
<trkpt lat="46.05194000" lon="6.24476670"><ele>814.5</ele><time>2007-04-09T13:16:38Z</time></trkpt>
<trkpt lat="46.05190000" lon="6.24497830"><ele>814.900024</ele><time>2007-04-09T13:16:40Z</time></trkpt>
<trkpt lat="46.05186330" lon="6.24518330"><ele>815.400024</ele><time>2007-04-09T13:16:42Z</time></trkpt>
<trkpt lat="46.05183000" lon="6.24538170"><ele>815.900024</ele><time>2007-04-09T13:16:44Z</time></trkpt>
<trkpt lat="46.05179500" lon="6.24558670"><ele>816.5</ele><time>2007-04-09T13:16:46Z</time></trkpt>
<trkpt lat="46.05176330" lon="6.24579330"><ele>816.599976</ele><time>2007-04-09T13:16:48Z</time></trkpt>
<trkpt lat="46.05173670" lon="6.24600500"><ele>816.099976</ele><time>2007-04-09T13:16:50Z</time></trkpt>
<trkpt lat="46.05172000" lon="6.24623170"><ele>815.700012</ele><time>2007-04-09T13:16:52Z</time></trkpt>
<trkpt lat="46.05170330" lon="6.24646830"><ele>815.099976</ele><time>2007-04-09T13:16:54Z</time></trkpt>
<trkpt lat="46.05168830" lon="6.24671170"><ele>814.599976</ele><time>2007-04-09T13:16:56Z</time></trkpt>
<trkpt lat="46.05167170" lon="6.24696170"><ele>814.099976</ele><time>2007-04-09T13:16:58Z</time></trkpt>
<trkpt lat="46.05165500" lon="6.24721330"><ele>813.599976</ele><time>2007-04-09T13:17:00Z</time></trkpt>
<trkpt lat="46.05163830" lon="6.24746500"><ele>813.099976</ele><time>2007-04-09T13:17:02Z</time></trkpt>
<trkpt lat="46.05161670" lon="6.24771000"><ele>812.700012</ele><time>2007-04-09T13:17:04Z</time></trkpt>
<trkpt lat="46.05159830" lon="6.24795500"><ele>812.400024</ele><time>2007-04-09T13:17:06Z</time></trkpt>
<trkpt lat="46.05158330" lon="6.24821670"><ele>811.799988</ele><time>2007-04-09T13:17:08Z</time></trkpt>
<trkpt lat="46.05156830" lon="6.24848500"><ele>811.200012</ele><time>2007-04-09T13:17:10Z</time></trkpt>
<trkpt lat="46.05155170" lon="6.24875330"><ele>810.599976</ele><time>2007-04-09T13:17:12Z</time></trkpt>
<trkpt lat="46.05153670" lon="6.24902000"><ele>810</ele><time>2007-04-09T13:17:14Z</time></trkpt>
<trkpt lat="46.05151670" lon="6.24928500"><ele>809.5</ele><time>2007-04-09T13:17:16Z</time></trkpt>
<trkpt lat="46.05149000" lon="6.24954670"><ele>809.200012</ele><time>2007-04-09T13:17:18Z</time></trkpt>
<trkpt lat="46.05144170" lon="6.24980170"><ele>808.900024</ele><time>2007-04-09T13:17:20Z</time></trkpt>
<trkpt lat="46.05137000" lon="6.25004330"><ele>808.700012</ele><time>2007-04-09T13:17:22Z</time></trkpt>
<trkpt lat="46.05128170" lon="6.25025830"><ele>809</ele><time>2007-04-09T13:17:24Z</time></trkpt>
<trkpt lat="46.05119170" lon="6.25046000"><ele>809.299988</ele><time>2007-04-09T13:17:26Z</time></trkpt>
<trkpt lat="46.05110670" lon="6.25065170"><ele>809.5</ele><time>2007-04-09T13:17:28Z</time></trkpt>
<trkpt lat="46.05103000" lon="6.25083170"><ele>809.700012</ele><time>2007-04-09T13:17:30Z</time></trkpt>
<trkpt lat="46.05095170" lon="6.25100830"><ele>809.799988</ele><time>2007-04-09T13:17:32Z</time></trkpt>
<trkpt lat="46.05087500" lon="6.25118500"><ele>810.099976</ele><time>2007-04-09T13:17:34Z</time></trkpt>
<trkpt lat="46.05080170" lon="6.25135330"><ele>810.299988</ele><time>2007-04-09T13:17:36Z</time></trkpt>
<trkpt lat="46.05073000" lon="6.25152500"><ele>810.599976</ele><time>2007-04-09T13:17:38Z</time></trkpt>
<trkpt lat="46.05065830" lon="6.25169500"><ele>811</ele><time>2007-04-09T13:17:40Z</time></trkpt>
<trkpt lat="46.05058500" lon="6.25186330"><ele>811.400024</ele><time>2007-04-09T13:17:42Z</time></trkpt>
<trkpt lat="46.05051330" lon="6.25202830"><ele>811.900024</ele><time>2007-04-09T13:17:44Z</time></trkpt>
<trkpt lat="46.05044170" lon="6.25219830"><ele>812.299988</ele><time>2007-04-09T13:17:46Z</time></trkpt>
<trkpt lat="46.05037500" lon="6.25236830"><ele>812.799988</ele><time>2007-04-09T13:17:48Z</time></trkpt>
<trkpt lat="46.05030830" lon="6.25253830"><ele>813.099976</ele><time>2007-04-09T13:17:50Z</time></trkpt>
<trkpt lat="46.05024830" lon="6.25271670"><ele>813.5</ele><time>2007-04-09T13:17:52Z</time></trkpt>
<trkpt lat="46.05019000" lon="6.25290670"><ele>813.700012</ele><time>2007-04-09T13:17:54Z</time></trkpt>
<trkpt lat="46.05012830" lon="6.25310170"><ele>813.799988</ele><time>2007-04-09T13:17:56Z</time></trkpt>
<trkpt lat="46.05007330" lon="6.25329830"><ele>814.099976</ele><time>2007-04-09T13:17:58Z</time></trkpt>
<trkpt lat="46.05001830" lon="6.25348830"><ele>814.299988</ele><time>2007-04-09T13:18:00Z</time></trkpt>
<trkpt lat="46.04996170" lon="6.25367670"><ele>814.400024</ele><time>2007-04-09T13:18:02Z</time></trkpt>
<trkpt lat="46.04990830" lon="6.25386670"><ele>814.5</ele><time>2007-04-09T13:18:04Z</time></trkpt>
<trkpt lat="46.04985500" lon="6.25405670"><ele>814.700012</ele><time>2007-04-09T13:18:06Z</time></trkpt>
<trkpt lat="46.04980330" lon="6.25424170"><ele>815.099976</ele><time>2007-04-09T13:18:08Z</time></trkpt>
<trkpt lat="46.04974500" lon="6.25442670"><ele>815.299988</ele><time>2007-04-09T13:18:10Z</time></trkpt>
<trkpt lat="46.04969170" lon="6.25461500"><ele>815.5</ele><time>2007-04-09T13:18:12Z</time></trkpt>
<trkpt lat="46.04963670" lon="6.25480000"><ele>815.700012</ele><time>2007-04-09T13:18:14Z</time></trkpt>
<trkpt lat="46.04958170" lon="6.25498330"><ele>815.799988</ele><time>2007-04-09T13:18:16Z</time></trkpt>
<trkpt lat="46.04953000" lon="6.25517330"><ele>815.900024</ele><time>2007-04-09T13:18:18Z</time></trkpt>
<trkpt lat="46.04948670" lon="6.25536830"><ele>816.200012</ele><time>2007-04-09T13:18:20Z</time></trkpt>
<trkpt lat="46.04945330" lon="6.25556670"><ele>816.400024</ele><time>2007-04-09T13:18:22Z</time></trkpt>
<trkpt lat="46.04943330" lon="6.25577500"><ele>816.400024</ele><time>2007-04-09T13:18:24Z</time></trkpt>
<trkpt lat="46.04942000" lon="6.25598170"><ele>816.200012</ele><time>2007-04-09T13:18:26Z</time></trkpt>
<trkpt lat="46.04940830" lon="6.25619500"><ele>815.900024</ele><time>2007-04-09T13:18:28Z</time></trkpt>
<trkpt lat="46.04940170" lon="6.25641330"><ele>815.700012</ele><time>2007-04-09T13:18:30Z</time></trkpt>
<trkpt lat="46.04939500" lon="6.25663330"><ele>815.700012</ele><time>2007-04-09T13:18:32Z</time></trkpt>
<trkpt lat="46.04938670" lon="6.25685500"><ele>815.799988</ele><time>2007-04-09T13:18:34Z</time></trkpt>
<trkpt lat="46.04938000" lon="6.25708500"><ele>815.700012</ele><time>2007-04-09T13:18:36Z</time></trkpt>
<trkpt lat="46.04937500" lon="6.25732670"><ele>815.5</ele><time>2007-04-09T13:18:38Z</time></trkpt>
<trkpt lat="46.04936830" lon="6.25758000"><ele>815.299988</ele><time>2007-04-09T13:18:40Z</time></trkpt>
<trkpt lat="46.04936000" lon="6.25784330"><ele>814.700012</ele><time>2007-04-09T13:18:42Z</time></trkpt>
<trkpt lat="46.04934330" lon="6.25812000"><ele>813.900024</ele><time>2007-04-09T13:18:44Z</time></trkpt>
<trkpt lat="46.04931500" lon="6.25840330"><ele>812.799988</ele><time>2007-04-09T13:18:46Z</time></trkpt>
<trkpt lat="46.04925830" lon="6.25868830"><ele>811.599976</ele><time>2007-04-09T13:18:48Z</time></trkpt>
<trkpt lat="46.04918830" lon="6.25896830"><ele>810.400024</ele><time>2007-04-09T13:18:50Z</time></trkpt>
<trkpt lat="46.04910330" lon="6.25923830"><ele>809</ele><time>2007-04-09T13:18:52Z</time></trkpt>
<trkpt lat="46.04901500" lon="6.25950830"><ele>808</ele><time>2007-04-09T13:18:54Z</time></trkpt>
<trkpt lat="46.04892830" lon="6.25978830"><ele>806.700012</ele><time>2007-04-09T13:18:56Z</time></trkpt>
<trkpt lat="46.04884670" lon="6.26006670"><ele>805.400024</ele><time>2007-04-09T13:18:58Z</time></trkpt>
<trkpt lat="46.04876500" lon="6.26029330"><ele>804.200012</ele><time>2007-04-09T13:19:00Z</time></trkpt>
<trkpt lat="46.04869670" lon="6.26046330"><ele>802.900024</ele><time>2007-04-09T13:19:02Z</time></trkpt>
<trkpt lat="46.04863670" lon="6.26057330"><ele>801.700012</ele><time>2007-04-09T13:19:04Z</time></trkpt>
<trkpt lat="46.04861170" lon="6.26066000"><ele>800.700012</ele><time>2007-04-09T13:19:06Z</time></trkpt>
<trkpt lat="46.04864330" lon="6.26066500"><ele>801.099976</ele><time>2007-04-09T13:19:08Z</time></trkpt>
<trkpt lat="46.04866500" lon="6.26061670"><ele>801.5</ele><time>2007-04-09T13:19:10Z</time></trkpt>
<trkpt lat="46.04867670" lon="6.26055500"><ele>801.799988</ele><time>2007-04-09T13:19:12Z</time></trkpt>
<trkpt lat="46.04870670" lon="6.26048170"><ele>802</ele><time>2007-04-09T13:19:14Z</time></trkpt>
<trkpt lat="46.04874330" lon="6.26038830"><ele>802.299988</ele><time>2007-04-09T13:19:16Z</time></trkpt>
<trkpt lat="46.04878170" lon="6.26028670"><ele>802.599976</ele><time>2007-04-09T13:19:18Z</time></trkpt>
<trkpt lat="46.04882170" lon="6.26017670"><ele>802.900024</ele><time>2007-04-09T13:19:20Z</time></trkpt>
<trkpt lat="46.04885830" lon="6.26006500"><ele>803.299988</ele><time>2007-04-09T13:19:22Z</time></trkpt>
<trkpt lat="46.04889170" lon="6.25995330"><ele>803.900024</ele><time>2007-04-09T13:19:24Z</time></trkpt>
<trkpt lat="46.04892500" lon="6.25984000"><ele>804.5</ele><time>2007-04-09T13:19:26Z</time></trkpt>
<trkpt lat="46.04895670" lon="6.25972170"><ele>805.099976</ele><time>2007-04-09T13:19:28Z</time></trkpt>
<trkpt lat="46.04899330" lon="6.25960330"><ele>805.700012</ele><time>2007-04-09T13:19:30Z</time></trkpt>
<trkpt lat="46.04902830" lon="6.25948670"><ele>806.200012</ele><time>2007-04-09T13:19:32Z</time></trkpt>
<trkpt lat="46.04906170" lon="6.25937330"><ele>806.799988</ele><time>2007-04-09T13:19:34Z</time></trkpt>
<trkpt lat="46.04909170" lon="6.25926000"><ele>807.299988</ele><time>2007-04-09T13:19:36Z</time></trkpt>
<trkpt lat="46.04912500" lon="6.25914670"><ele>807.700012</ele><time>2007-04-09T13:19:38Z</time></trkpt>
<trkpt lat="46.04916170" lon="6.25903330"><ele>808.200012</ele><time>2007-04-09T13:19:40Z</time></trkpt>
<trkpt lat="46.04919500" lon="6.25892000"><ele>808.599976</ele><time>2007-04-09T13:19:42Z</time></trkpt>
<trkpt lat="46.04922830" lon="6.25880500"><ele>809.099976</ele><time>2007-04-09T13:19:44Z</time></trkpt>
<trkpt lat="46.04926170" lon="6.25869170"><ele>809.5</ele><time>2007-04-09T13:19:46Z</time></trkpt>
<trkpt lat="46.04928830" lon="6.25857500"><ele>809.799988</ele><time>2007-04-09T13:19:48Z</time></trkpt>
<trkpt lat="46.04931000" lon="6.25846000"><ele>810.200012</ele><time>2007-04-09T13:19:50Z</time></trkpt>
<trkpt lat="46.04932670" lon="6.25834330"><ele>810.599976</ele><time>2007-04-09T13:19:52Z</time></trkpt>
<trkpt lat="46.04933830" lon="6.25822500"><ele>811.099976</ele><time>2007-04-09T13:19:54Z</time></trkpt>
<trkpt lat="46.04935330" lon="6.25810670"><ele>811.299988</ele><time>2007-04-09T13:19:56Z</time></trkpt>
<trkpt lat="46.04936170" lon="6.25798830"><ele>811.900024</ele><time>2007-04-09T13:19:58Z</time></trkpt>
<trkpt lat="46.04936670" lon="6.25786830"><ele>812.400024</ele><time>2007-04-09T13:20:00Z</time></trkpt>
<trkpt lat="46.04937170" lon="6.25775000"><ele>813</ele><time>2007-04-09T13:20:02Z</time></trkpt>
<trkpt lat="46.04937670" lon="6.25763500"><ele>813.700012</ele><time>2007-04-09T13:20:04Z</time></trkpt>
<trkpt lat="46.04938170" lon="6.25752170"><ele>814.5</ele><time>2007-04-09T13:20:06Z</time></trkpt>
<trkpt lat="46.04938830" lon="6.25741000"><ele>815.400024</ele><time>2007-04-09T13:20:08Z</time></trkpt>
<trkpt lat="46.04939330" lon="6.25729830"><ele>816.200012</ele><time>2007-04-09T13:20:10Z</time></trkpt>
<trkpt lat="46.04939830" lon="6.25718500"><ele>817</ele><time>2007-04-09T13:20:12Z</time></trkpt>
<trkpt lat="46.04940000" lon="6.25707500"><ele>817.5</ele><time>2007-04-09T13:20:14Z</time></trkpt>
<trkpt lat="46.04940330" lon="6.25696330"><ele>818.099976</ele><time>2007-04-09T13:20:16Z</time></trkpt>
<trkpt lat="46.04941000" lon="6.25685000"><ele>818.5</ele><time>2007-04-09T13:20:18Z</time></trkpt>
<trkpt lat="46.04941500" lon="6.25673330"><ele>819</ele><time>2007-04-09T13:20:20Z</time></trkpt>
<trkpt lat="46.04942000" lon="6.25661000"><ele>819.5</ele><time>2007-04-09T13:20:22Z</time></trkpt>
<trkpt lat="46.04942330" lon="6.25647830"><ele>819.200012</ele><time>2007-04-09T13:20:24Z</time></trkpt>
<trkpt lat="46.04943000" lon="6.25634170"><ele>819.099976</ele><time>2007-04-09T13:20:26Z</time></trkpt>
<trkpt lat="46.04943830" lon="6.25620500"><ele>819.200012</ele><time>2007-04-09T13:20:28Z</time></trkpt>
<trkpt lat="46.04944330" lon="6.25606670"><ele>819.400024</ele><time>2007-04-09T13:20:30Z</time></trkpt>
<trkpt lat="46.04945330" lon="6.25592500"><ele>819.400024</ele><time>2007-04-09T13:20:32Z</time></trkpt>
<trkpt lat="46.04946170" lon="6.25577830"><ele>819.400024</ele><time>2007-04-09T13:20:34Z</time></trkpt>
<trkpt lat="46.04947170" lon="6.25562330"><ele>819.299988</ele><time>2007-04-09T13:20:36Z</time></trkpt>
<trkpt lat="46.04949330" lon="6.25546170"><ele>819.200012</ele><time>2007-04-09T13:20:38Z</time></trkpt>
<trkpt lat="46.04952500" lon="6.25529830"><ele>819</ele><time>2007-04-09T13:20:40Z</time></trkpt>
<trkpt lat="46.04956500" lon="6.25513500"><ele>818.799988</ele><time>2007-04-09T13:20:42Z</time></trkpt>
<trkpt lat="46.04961000" lon="6.25496830"><ele>818.599976</ele><time>2007-04-09T13:20:44Z</time></trkpt>
<trkpt lat="46.04965830" lon="6.25480000"><ele>818.400024</ele><time>2007-04-09T13:20:46Z</time></trkpt>
<trkpt lat="46.04970830" lon="6.25462670"><ele>818.200012</ele><time>2007-04-09T13:20:48Z</time></trkpt>
<trkpt lat="46.04976000" lon="6.25445000"><ele>818</ele><time>2007-04-09T13:20:50Z</time></trkpt>
<trkpt lat="46.04981330" lon="6.25427000"><ele>817.700012</ele><time>2007-04-09T13:20:52Z</time></trkpt>
<trkpt lat="46.04986670" lon="6.25408830"><ele>817.299988</ele><time>2007-04-09T13:20:54Z</time></trkpt>
<trkpt lat="46.04992170" lon="6.25390330"><ele>817.099976</ele><time>2007-04-09T13:20:56Z</time></trkpt>
<trkpt lat="46.04997330" lon="6.25371830"><ele>816.900024</ele><time>2007-04-09T13:20:58Z</time></trkpt>
<trkpt lat="46.05002830" lon="6.25353170"><ele>816.799988</ele><time>2007-04-09T13:21:00Z</time></trkpt>
<trkpt lat="46.05008330" lon="6.25334330"><ele>816.5</ele><time>2007-04-09T13:21:02Z</time></trkpt>
<trkpt lat="46.05014000" lon="6.25315170"><ele>816.5</ele><time>2007-04-09T13:21:04Z</time></trkpt>
<trkpt lat="46.05019500" lon="6.25295670"><ele>816.400024</ele><time>2007-04-09T13:21:06Z</time></trkpt>
<trkpt lat="46.05025330" lon="6.25276170"><ele>816.099976</ele><time>2007-04-09T13:21:08Z</time></trkpt>
<trkpt lat="46.05031830" lon="6.25256500"><ele>816</ele><time>2007-04-09T13:21:10Z</time></trkpt>
<trkpt lat="46.05038830" lon="6.25237170"><ele>815.700012</ele><time>2007-04-09T13:21:12Z</time></trkpt>
<trkpt lat="46.05046500" lon="6.25218000"><ele>815.400024</ele><time>2007-04-09T13:21:14Z</time></trkpt>
<trkpt lat="46.05054830" lon="6.25198830"><ele>815</ele><time>2007-04-09T13:21:16Z</time></trkpt>
<trkpt lat="46.05063170" lon="6.25179000"><ele>814.599976</ele><time>2007-04-09T13:21:18Z</time></trkpt>
<trkpt lat="46.05071830" lon="6.25158830"><ele>814.099976</ele><time>2007-04-09T13:21:20Z</time></trkpt>
<trkpt lat="46.05080830" lon="6.25138170"><ele>813.599976</ele><time>2007-04-09T13:21:22Z</time></trkpt>
<trkpt lat="46.05089670" lon="6.25117000"><ele>813.099976</ele><time>2007-04-09T13:21:24Z</time></trkpt>
<trkpt lat="46.05098500" lon="6.25095830"><ele>812.599976</ele><time>2007-04-09T13:21:26Z</time></trkpt>
<trkpt lat="46.05107500" lon="6.25074170"><ele>812.099976</ele><time>2007-04-09T13:21:28Z</time></trkpt>
<trkpt lat="46.05117000" lon="6.25052330"><ele>811.599976</ele><time>2007-04-09T13:21:30Z</time></trkpt>
<trkpt lat="46.05126330" lon="6.25030000"><ele>811</ele><time>2007-04-09T13:21:32Z</time></trkpt>
<trkpt lat="46.05136000" lon="6.25007670"><ele>810.5</ele><time>2007-04-09T13:21:34Z</time></trkpt>
<trkpt lat="46.05144670" lon="6.24984330"><ele>810.200012</ele><time>2007-04-09T13:21:36Z</time></trkpt>
<trkpt lat="46.05150500" lon="6.24959830"><ele>810.200012</ele><time>2007-04-09T13:21:38Z</time></trkpt>
<trkpt lat="46.05153830" lon="6.24935000"><ele>810.700012</ele><time>2007-04-09T13:21:40Z</time></trkpt>
<trkpt lat="46.05155670" lon="6.24910170"><ele>811</ele><time>2007-04-09T13:21:42Z</time></trkpt>
<trkpt lat="46.05157330" lon="6.24885830"><ele>811.400024</ele><time>2007-04-09T13:21:44Z</time></trkpt>
<trkpt lat="46.05158830" lon="6.24862000"><ele>811.900024</ele><time>2007-04-09T13:21:46Z</time></trkpt>
<trkpt lat="46.05160170" lon="6.24838830"><ele>812.400024</ele><time>2007-04-09T13:21:48Z</time></trkpt>
<trkpt lat="46.05161500" lon="6.24816330"><ele>812.900024</ele><time>2007-04-09T13:21:50Z</time></trkpt>
<trkpt lat="46.05163000" lon="6.24794500"><ele>813.400024</ele><time>2007-04-09T13:21:52Z</time></trkpt>
<trkpt lat="46.05164500" lon="6.24773000"><ele>813.900024</ele><time>2007-04-09T13:21:54Z</time></trkpt>
<trkpt lat="46.05165830" lon="6.24751670"><ele>814.099976</ele><time>2007-04-09T13:21:56Z</time></trkpt>
<trkpt lat="46.05167330" lon="6.24730170"><ele>814.599976</ele><time>2007-04-09T13:21:58Z</time></trkpt>
<trkpt lat="46.05168830" lon="6.24708670"><ele>815</ele><time>2007-04-09T13:22:00Z</time></trkpt>
<trkpt lat="46.05170000" lon="6.24687330"><ele>815.400024</ele><time>2007-04-09T13:22:02Z</time></trkpt>
<trkpt lat="46.05171330" lon="6.24665830"><ele>815.700012</ele><time>2007-04-09T13:22:04Z</time></trkpt>
<trkpt lat="46.05172670" lon="6.24644330"><ele>816.200012</ele><time>2007-04-09T13:22:06Z</time></trkpt>
<trkpt lat="46.05174000" lon="6.24623000"><ele>816.599976</ele><time>2007-04-09T13:22:08Z</time></trkpt>
<trkpt lat="46.05175500" lon="6.24601830"><ele>817.099976</ele><time>2007-04-09T13:22:10Z</time></trkpt>
<trkpt lat="46.05177670" lon="6.24580830"><ele>817.599976</ele><time>2007-04-09T13:22:12Z</time></trkpt>
<trkpt lat="46.05180830" lon="6.24559830"><ele>817.900024</ele><time>2007-04-09T13:22:14Z</time></trkpt>
<trkpt lat="46.05184000" lon="6.24538500"><ele>818</ele><time>2007-04-09T13:22:16Z</time></trkpt>
<trkpt lat="46.05187330" lon="6.24516330"><ele>818</ele><time>2007-04-09T13:22:18Z</time></trkpt>
<trkpt lat="46.05191500" lon="6.24494000"><ele>817.799988</ele><time>2007-04-09T13:22:20Z</time></trkpt>
<trkpt lat="46.05195830" lon="6.24470830"><ele>817.400024</ele><time>2007-04-09T13:22:22Z</time></trkpt>
<trkpt lat="46.05200330" lon="6.24446830"><ele>817</ele><time>2007-04-09T13:22:24Z</time></trkpt>
<trkpt lat="46.05204670" lon="6.24422330"><ele>816.799988</ele><time>2007-04-09T13:22:26Z</time></trkpt>
<trkpt lat="46.05209000" lon="6.24397670"><ele>816.5</ele><time>2007-04-09T13:22:28Z</time></trkpt>
<trkpt lat="46.05213500" lon="6.24373170"><ele>816</ele><time>2007-04-09T13:22:30Z</time></trkpt>
<trkpt lat="46.05218330" lon="6.24348670"><ele>815.5</ele><time>2007-04-09T13:22:32Z</time></trkpt>
<trkpt lat="46.05222670" lon="6.24324330"><ele>815.400024</ele><time>2007-04-09T13:22:34Z</time></trkpt>
<trkpt lat="46.05228500" lon="6.24300670"><ele>815.099976</ele><time>2007-04-09T13:22:36Z</time></trkpt>
<trkpt lat="46.05238830" lon="6.24280000"><ele>814.599976</ele><time>2007-04-09T13:22:38Z</time></trkpt>
<trkpt lat="46.05253670" lon="6.24266000"><ele>814.299988</ele><time>2007-04-09T13:22:40Z</time></trkpt>
<trkpt lat="46.05271500" lon="6.24258830"><ele>814.200012</ele><time>2007-04-09T13:22:42Z</time></trkpt>
<trkpt lat="46.05288000" lon="6.24254670"><ele>815.200012</ele><time>2007-04-09T13:22:44Z</time></trkpt>
<trkpt lat="46.05304330" lon="6.24248000"><ele>815.5</ele><time>2007-04-09T13:22:46Z</time></trkpt>
<trkpt lat="46.05316830" lon="6.24235830"><ele>815.799988</ele><time>2007-04-09T13:22:48Z</time></trkpt>
<trkpt lat="46.05326670" lon="6.24216500"><ele>817</ele><time>2007-04-09T13:22:50Z</time></trkpt>
<trkpt lat="46.05336670" lon="6.24197670"><ele>818</ele><time>2007-04-09T13:22:52Z</time></trkpt>
<trkpt lat="46.05346170" lon="6.24180000"><ele>818.299988</ele><time>2007-04-09T13:22:54Z</time></trkpt>
<trkpt lat="46.05353830" lon="6.24162670"><ele>818.700012</ele><time>2007-04-09T13:22:56Z</time></trkpt>
<trkpt lat="46.05358670" lon="6.24144000"><ele>819.5</ele><time>2007-04-09T13:22:58Z</time></trkpt>
<trkpt lat="46.05361000" lon="6.24123500"><ele>819</ele><time>2007-04-09T13:23:00Z</time></trkpt>
<trkpt lat="46.05361670" lon="6.24102830"><ele>819.200012</ele><time>2007-04-09T13:23:02Z</time></trkpt>
<trkpt lat="46.05362330" lon="6.24083830"><ele>819.900024</ele><time>2007-04-09T13:23:04Z</time></trkpt>
<trkpt lat="46.05361830" lon="6.24066830"><ele>821</ele><time>2007-04-09T13:23:06Z</time></trkpt>
<trkpt lat="46.05359330" lon="6.24049830"><ele>821.5</ele><time>2007-04-09T13:23:08Z</time></trkpt>
<trkpt lat="46.05354000" lon="6.24035170"><ele>823.200012</ele><time>2007-04-09T13:23:10Z</time></trkpt>
<trkpt lat="46.05346330" lon="6.24022830"><ele>825.700012</ele><time>2007-04-09T13:23:12Z</time></trkpt>
<trkpt lat="46.05339000" lon="6.24011170"><ele>826.400024</ele><time>2007-04-09T13:23:14Z</time></trkpt>
<trkpt lat="46.05331330" lon="6.24000830"><ele>827.200012</ele><time>2007-04-09T13:23:16Z</time></trkpt>
<trkpt lat="46.05323830" lon="6.23991000"><ele>827.700012</ele><time>2007-04-09T13:23:18Z</time></trkpt>
<trkpt lat="46.05316170" lon="6.23980670"><ele>828.200012</ele><time>2007-04-09T13:23:20Z</time></trkpt>
<trkpt lat="46.05308830" lon="6.23970170"><ele>828.5</ele><time>2007-04-09T13:23:22Z</time></trkpt>
<trkpt lat="46.05301330" lon="6.23959330"><ele>828.599976</ele><time>2007-04-09T13:23:24Z</time></trkpt>
<trkpt lat="46.05294170" lon="6.23948170"><ele>828.299988</ele><time>2007-04-09T13:23:26Z</time></trkpt>
<trkpt lat="46.05286500" lon="6.23936830"><ele>828.400024</ele><time>2007-04-09T13:23:28Z</time></trkpt>
<trkpt lat="46.05279500" lon="6.23924000"><ele>827.799988</ele><time>2007-04-09T13:23:30Z</time></trkpt>
<trkpt lat="46.05272670" lon="6.23910500"><ele>827.299988</ele><time>2007-04-09T13:23:32Z</time></trkpt>
<trkpt lat="46.05266000" lon="6.23897170"><ele>826.799988</ele><time>2007-04-09T13:23:34Z</time></trkpt>
<trkpt lat="46.05259000" lon="6.23883330"><ele>826.599976</ele><time>2007-04-09T13:23:36Z</time></trkpt>
<trkpt lat="46.05252330" lon="6.23869170"><ele>826.400024</ele><time>2007-04-09T13:23:38Z</time></trkpt>
<trkpt lat="46.05245830" lon="6.23855000"><ele>826.099976</ele><time>2007-04-09T13:23:40Z</time></trkpt>
<trkpt lat="46.05239670" lon="6.23840000"><ele>826.099976</ele><time>2007-04-09T13:23:42Z</time></trkpt>
<trkpt lat="46.05233670" lon="6.23824830"><ele>826.099976</ele><time>2007-04-09T13:23:44Z</time></trkpt>
<trkpt lat="46.05227500" lon="6.23809330"><ele>826.200012</ele><time>2007-04-09T13:23:46Z</time></trkpt>
<trkpt lat="46.05221830" lon="6.23793330"><ele>826.5</ele><time>2007-04-09T13:23:48Z</time></trkpt>
<trkpt lat="46.05215830" lon="6.23777170"><ele>826.599976</ele><time>2007-04-09T13:23:50Z</time></trkpt>
<trkpt lat="46.05210000" lon="6.23761170"><ele>826.799988</ele><time>2007-04-09T13:23:52Z</time></trkpt>
<trkpt lat="46.05203670" lon="6.23745170"><ele>826.900024</ele><time>2007-04-09T13:23:54Z</time></trkpt>
<trkpt lat="46.05197670" lon="6.23729000"><ele>826.700012</ele><time>2007-04-09T13:23:56Z</time></trkpt>
<trkpt lat="46.05192000" lon="6.23712670"><ele>826.900024</ele><time>2007-04-09T13:23:58Z</time></trkpt>
<trkpt lat="46.05185670" lon="6.23696500"><ele>826.599976</ele><time>2007-04-09T13:24:00Z</time></trkpt>
<trkpt lat="46.05179500" lon="6.23680330"><ele>826.5</ele><time>2007-04-09T13:24:02Z</time></trkpt>
<trkpt lat="46.05174000" lon="6.23664000"><ele>826.400024</ele><time>2007-04-09T13:24:04Z</time></trkpt>
<trkpt lat="46.05169000" lon="6.23647000"><ele>826.200012</ele><time>2007-04-09T13:24:06Z</time></trkpt>
<trkpt lat="46.05164830" lon="6.23629330"><ele>826.299988</ele><time>2007-04-09T13:24:08Z</time></trkpt>
<trkpt lat="46.05162670" lon="6.23611000"><ele>826.400024</ele><time>2007-04-09T13:24:10Z</time></trkpt>
<trkpt lat="46.05162500" lon="6.23592500"><ele>826.599976</ele><time>2007-04-09T13:24:12Z</time></trkpt>
<trkpt lat="46.05162830" lon="6.23574170"><ele>826.5</ele><time>2007-04-09T13:24:14Z</time></trkpt>
<trkpt lat="46.05163500" lon="6.23554830"><ele>826.700012</ele><time>2007-04-09T13:24:16Z</time></trkpt>
<trkpt lat="46.05164670" lon="6.23535170"><ele>826.799988</ele><time>2007-04-09T13:24:18Z</time></trkpt>
<trkpt lat="46.05166330" lon="6.23515670"><ele>826.700012</ele><time>2007-04-09T13:24:20Z</time></trkpt>
<trkpt lat="46.05169000" lon="6.23496500"><ele>826.599976</ele><time>2007-04-09T13:24:22Z</time></trkpt>
<trkpt lat="46.05172000" lon="6.23477330"><ele>826.599976</ele><time>2007-04-09T13:24:24Z</time></trkpt>
<trkpt lat="46.05175330" lon="6.23458170"><ele>826.5</ele><time>2007-04-09T13:24:26Z</time></trkpt>
<trkpt lat="46.05178830" lon="6.23439000"><ele>826.400024</ele><time>2007-04-09T13:24:28Z</time></trkpt>
<trkpt lat="46.05182670" lon="6.23420170"><ele>826.5</ele><time>2007-04-09T13:24:30Z</time></trkpt>
<trkpt lat="46.05187170" lon="6.23402170"><ele>826.700012</ele><time>2007-04-09T13:24:32Z</time></trkpt>
<trkpt lat="46.05192500" lon="6.23385500"><ele>827.299988</ele><time>2007-04-09T13:24:34Z</time></trkpt>
<trkpt lat="46.05197170" lon="6.23369330"><ele>828</ele><time>2007-04-09T13:24:36Z</time></trkpt>
<trkpt lat="46.05201500" lon="6.23352170"><ele>828.599976</ele><time>2007-04-09T13:24:38Z</time></trkpt>
<trkpt lat="46.05205000" lon="6.23334830"><ele>829.5</ele><time>2007-04-09T13:24:40Z</time></trkpt>
<trkpt lat="46.05207670" lon="6.23317500"><ele>830.099976</ele><time>2007-04-09T13:24:42Z</time></trkpt>
<trkpt lat="46.05209830" lon="6.23300670"><ele>830.200012</ele><time>2007-04-09T13:24:44Z</time></trkpt>
<trkpt lat="46.05211500" lon="6.23284170"><ele>830.5</ele><time>2007-04-09T13:24:46Z</time></trkpt>
<trkpt lat="46.05212670" lon="6.23268170"><ele>830.900024</ele><time>2007-04-09T13:24:48Z</time></trkpt>
<trkpt lat="46.05213330" lon="6.23252500"><ele>831.400024</ele><time>2007-04-09T13:24:50Z</time></trkpt>
<trkpt lat="46.05213500" lon="6.23237170"><ele>831.700012</ele><time>2007-04-09T13:24:52Z</time></trkpt>
<trkpt lat="46.05213000" lon="6.23221830"><ele>832</ele><time>2007-04-09T13:24:54Z</time></trkpt>
<trkpt lat="46.05212000" lon="6.23206830"><ele>832.299988</ele><time>2007-04-09T13:24:56Z</time></trkpt>
<trkpt lat="46.05210670" lon="6.23192000"><ele>832.200012</ele><time>2007-04-09T13:24:58Z</time></trkpt>
<trkpt lat="46.05209330" lon="6.23177170"><ele>832</ele><time>2007-04-09T13:25:00Z</time></trkpt>
<trkpt lat="46.05207670" lon="6.23162330"><ele>832</ele><time>2007-04-09T13:25:02Z</time></trkpt>
<trkpt lat="46.05206330" lon="6.23147170"><ele>832</ele><time>2007-04-09T13:25:04Z</time></trkpt>
<trkpt lat="46.05205000" lon="6.23131670"><ele>831.700012</ele><time>2007-04-09T13:25:06Z</time></trkpt>
<trkpt lat="46.05204170" lon="6.23116000"><ele>831.599976</ele><time>2007-04-09T13:25:08Z</time></trkpt>
<trkpt lat="46.05203670" lon="6.23100830"><ele>831.799988</ele><time>2007-04-09T13:25:10Z</time></trkpt>
<trkpt lat="46.05200830" lon="6.23087330"><ele>832.299988</ele><time>2007-04-09T13:25:12Z</time></trkpt>
<trkpt lat="46.05194170" lon="6.23075830"><ele>832</ele><time>2007-04-09T13:25:14Z</time></trkpt>
<trkpt lat="46.05185000" lon="6.23065170"><ele>831.5</ele><time>2007-04-09T13:25:16Z</time></trkpt>
<trkpt lat="46.05174000" lon="6.23055170"><ele>831.099976</ele><time>2007-04-09T13:25:18Z</time></trkpt>
<trkpt lat="46.05162670" lon="6.23045170"><ele>830.599976</ele><time>2007-04-09T13:25:20Z</time></trkpt>
<trkpt lat="46.05151000" lon="6.23035330"><ele>830.200012</ele><time>2007-04-09T13:25:22Z</time></trkpt>
<trkpt lat="46.05139670" lon="6.23024330"><ele>829.900024</ele><time>2007-04-09T13:25:24Z</time></trkpt>
<trkpt lat="46.05129670" lon="6.23010830"><ele>829.700012</ele><time>2007-04-09T13:25:26Z</time></trkpt>
<trkpt lat="46.05120830" lon="6.22995830"><ele>829.400024</ele><time>2007-04-09T13:25:28Z</time></trkpt>
<trkpt lat="46.05112170" lon="6.22980330"><ele>829.200012</ele><time>2007-04-09T13:25:30Z</time></trkpt>
<trkpt lat="46.05103670" lon="6.22964500"><ele>829</ele><time>2007-04-09T13:25:32Z</time></trkpt>
<trkpt lat="46.05095170" lon="6.22948500"><ele>828.700012</ele><time>2007-04-09T13:25:34Z</time></trkpt>
<trkpt lat="46.05086830" lon="6.22932330"><ele>828.599976</ele><time>2007-04-09T13:25:36Z</time></trkpt>
<trkpt lat="46.05078670" lon="6.22915830"><ele>828.5</ele><time>2007-04-09T13:25:38Z</time></trkpt>
<trkpt lat="46.05071170" lon="6.22899170"><ele>828.299988</ele><time>2007-04-09T13:25:40Z</time></trkpt>
<trkpt lat="46.05063670" lon="6.22882830"><ele>828.299988</ele><time>2007-04-09T13:25:42Z</time></trkpt>
<trkpt lat="46.05055830" lon="6.22867330"><ele>828.299988</ele><time>2007-04-09T13:25:44Z</time></trkpt>
<trkpt lat="46.05047000" lon="6.22853000"><ele>828.400024</ele><time>2007-04-09T13:25:46Z</time></trkpt>
<trkpt lat="46.05037170" lon="6.22840500"><ele>828.5</ele><time>2007-04-09T13:25:48Z</time></trkpt>
<trkpt lat="46.05026670" lon="6.22829670"><ele>828.5</ele><time>2007-04-09T13:25:50Z</time></trkpt>
<trkpt lat="46.05015830" lon="6.22819670"><ele>828.5</ele><time>2007-04-09T13:25:52Z</time></trkpt>
<trkpt lat="46.05004830" lon="6.22810670"><ele>828.5</ele><time>2007-04-09T13:25:54Z</time></trkpt>
<trkpt lat="46.04993830" lon="6.22801000"><ele>828.599976</ele><time>2007-04-09T13:25:56Z</time></trkpt>
<trkpt lat="46.04982670" lon="6.22791330"><ele>828.5</ele><time>2007-04-09T13:25:58Z</time></trkpt>
<trkpt lat="46.04970830" lon="6.22782330"><ele>828.700012</ele><time>2007-04-09T13:26:00Z</time></trkpt>
<trkpt lat="46.04958500" lon="6.22771170"><ele>828.200012</ele><time>2007-04-09T13:26:02Z</time></trkpt>
<trkpt lat="46.04945330" lon="6.22760000"><ele>827.299988</ele><time>2007-04-09T13:26:04Z</time></trkpt>
<trkpt lat="46.04930830" lon="6.22749170"><ele>826.299988</ele><time>2007-04-09T13:26:06Z</time></trkpt>
<trkpt lat="46.04914500" lon="6.22738330"><ele>824.5</ele><time>2007-04-09T13:26:08Z</time></trkpt>
<trkpt lat="46.04896330" lon="6.22727330"><ele>823</ele><time>2007-04-09T13:26:10Z</time></trkpt>
<trkpt lat="46.04879830" lon="6.22709670"><ele>821.400024</ele><time>2007-04-09T13:26:12Z</time></trkpt>
<trkpt lat="46.04869670" lon="6.22681170"><ele>819.700012</ele><time>2007-04-09T13:26:14Z</time></trkpt>
<trkpt lat="46.04861830" lon="6.22651500"><ele>818.299988</ele><time>2007-04-09T13:26:16Z</time></trkpt>
<trkpt lat="46.04853330" lon="6.22622670"><ele>816.599976</ele><time>2007-04-09T13:26:18Z</time></trkpt>
<trkpt lat="46.04842000" lon="6.22595830"><ele>815.299988</ele><time>2007-04-09T13:26:20Z</time></trkpt>
<trkpt lat="46.04827500" lon="6.22570330"><ele>813.599976</ele><time>2007-04-09T13:26:22Z</time></trkpt>
<trkpt lat="46.04809830" lon="6.22547170"><ele>811.599976</ele><time>2007-04-09T13:26:24Z</time></trkpt>
<trkpt lat="46.04790500" lon="6.22525170"><ele>810.099976</ele><time>2007-04-09T13:26:26Z</time></trkpt>
<trkpt lat="46.04770830" lon="6.22503830"><ele>809.200012</ele><time>2007-04-09T13:26:28Z</time></trkpt>
<trkpt lat="46.04752000" lon="6.22483330"><ele>808.400024</ele><time>2007-04-09T13:26:30Z</time></trkpt>
<trkpt lat="46.04734330" lon="6.22463330"><ele>808</ele><time>2007-04-09T13:26:32Z</time></trkpt>
<trkpt lat="46.04717330" lon="6.22444500"><ele>808.299988</ele><time>2007-04-09T13:26:34Z</time></trkpt>
<trkpt lat="46.04701000" lon="6.22426500"><ele>808.700012</ele><time>2007-04-09T13:26:36Z</time></trkpt>
<trkpt lat="46.04685330" lon="6.22409330"><ele>809.099976</ele><time>2007-04-09T13:26:38Z</time></trkpt>
<trkpt lat="46.04670500" lon="6.22392330"><ele>809.700012</ele><time>2007-04-09T13:26:40Z</time></trkpt>
<trkpt lat="46.04656330" lon="6.22375170"><ele>810.299988</ele><time>2007-04-09T13:26:42Z</time></trkpt>
<trkpt lat="46.04643170" lon="6.22357170"><ele>810.599976</ele><time>2007-04-09T13:26:44Z</time></trkpt>
<trkpt lat="46.04631330" lon="6.22338000"><ele>810.900024</ele><time>2007-04-09T13:26:46Z</time></trkpt>
<trkpt lat="46.04620330" lon="6.22317830"><ele>811.099976</ele><time>2007-04-09T13:26:48Z</time></trkpt>
<trkpt lat="46.04609170" lon="6.22298000"><ele>811.200012</ele><time>2007-04-09T13:26:50Z</time></trkpt>
<trkpt lat="46.04598500" lon="6.22278500"><ele>811.299988</ele><time>2007-04-09T13:26:52Z</time></trkpt>
<trkpt lat="46.04587670" lon="6.22259330"><ele>811.299988</ele><time>2007-04-09T13:26:54Z</time></trkpt>
<trkpt lat="46.04576500" lon="6.22240170"><ele>811.200012</ele><time>2007-04-09T13:26:56Z</time></trkpt>
<trkpt lat="46.04564830" lon="6.22220830"><ele>810.900024</ele><time>2007-04-09T13:26:58Z</time></trkpt>
<trkpt lat="46.04553000" lon="6.22202170"><ele>810.799988</ele><time>2007-04-09T13:27:00Z</time></trkpt>
<trkpt lat="46.04540670" lon="6.22184000"><ele>810.599976</ele><time>2007-04-09T13:27:02Z</time></trkpt>
<trkpt lat="46.04527500" lon="6.22167500"><ele>810.5</ele><time>2007-04-09T13:27:04Z</time></trkpt>
<trkpt lat="46.04513500" lon="6.22152500"><ele>810.5</ele><time>2007-04-09T13:27:06Z</time></trkpt>
<trkpt lat="46.04499170" lon="6.22138330"><ele>810.200012</ele><time>2007-04-09T13:27:08Z</time></trkpt>
<trkpt lat="46.04485330" lon="6.22123830"><ele>809.900024</ele><time>2007-04-09T13:27:10Z</time></trkpt>
<trkpt lat="46.04471000" lon="6.22109330"><ele>809.5</ele><time>2007-04-09T13:27:12Z</time></trkpt>
<trkpt lat="46.04456330" lon="6.22095000"><ele>809</ele><time>2007-04-09T13:27:14Z</time></trkpt>
<trkpt lat="46.04441670" lon="6.22080500"><ele>808.5</ele><time>2007-04-09T13:27:16Z</time></trkpt>
<trkpt lat="46.04427670" lon="6.22065000"><ele>808.099976</ele><time>2007-04-09T13:27:18Z</time></trkpt>
<trkpt lat="46.04415500" lon="6.22046830"><ele>807.599976</ele><time>2007-04-09T13:27:20Z</time></trkpt>
<trkpt lat="46.04406000" lon="6.22026330"><ele>807.299988</ele><time>2007-04-09T13:27:22Z</time></trkpt>
<trkpt lat="46.04397830" lon="6.22004830"><ele>806.900024</ele><time>2007-04-09T13:27:24Z</time></trkpt>
<trkpt lat="46.04390170" lon="6.21983000"><ele>806.599976</ele><time>2007-04-09T13:27:26Z</time></trkpt>
<trkpt lat="46.04383000" lon="6.21961000"><ele>806.200012</ele><time>2007-04-09T13:27:28Z</time></trkpt>
<trkpt lat="46.04376000" lon="6.21939170"><ele>805.599976</ele><time>2007-04-09T13:27:30Z</time></trkpt>
<trkpt lat="46.04369330" lon="6.21916670"><ele>804.900024</ele><time>2007-04-09T13:27:32Z</time></trkpt>
<trkpt lat="46.04364670" lon="6.21891670"><ele>803.700012</ele><time>2007-04-09T13:27:34Z</time></trkpt>
<trkpt lat="46.04362330" lon="6.21864000"><ele>802.299988</ele><time>2007-04-09T13:27:36Z</time></trkpt>
<trkpt lat="46.04359670" lon="6.21834500"><ele>800.900024</ele><time>2007-04-09T13:27:38Z</time></trkpt>
<trkpt lat="46.04353670" lon="6.21806170"><ele>799.5</ele><time>2007-04-09T13:27:40Z</time></trkpt>
<trkpt lat="46.04341670" lon="6.21784170"><ele>798.200012</ele><time>2007-04-09T13:27:42Z</time></trkpt>
<trkpt lat="46.04321830" lon="6.21770000"><ele>796</ele><time>2007-04-09T13:27:44Z</time></trkpt>
<trkpt lat="46.04303330" lon="6.21754170"><ele>794.599976</ele><time>2007-04-09T13:27:46Z</time></trkpt>
<trkpt lat="46.04285830" lon="6.21737000"><ele>793.099976</ele><time>2007-04-09T13:27:48Z</time></trkpt>
<trkpt lat="46.04268170" lon="6.21718830"><ele>791.900024</ele><time>2007-04-09T13:27:50Z</time></trkpt>
<trkpt lat="46.04250000" lon="6.21700500"><ele>790.5</ele><time>2007-04-09T13:27:52Z</time></trkpt>
<trkpt lat="46.04232000" lon="6.21682000"><ele>789.5</ele><time>2007-04-09T13:27:54Z</time></trkpt>
<trkpt lat="46.04214000" lon="6.21664330"><ele>788.599976</ele><time>2007-04-09T13:27:56Z</time></trkpt>
<trkpt lat="46.04196170" lon="6.21648170"><ele>788.099976</ele><time>2007-04-09T13:27:58Z</time></trkpt>
<trkpt lat="46.04176670" lon="6.21638500"><ele>788.5</ele><time>2007-04-09T13:28:00Z</time></trkpt>
<trkpt lat="46.04158170" lon="6.21630330"><ele>789.099976</ele><time>2007-04-09T13:28:02Z</time></trkpt>
<trkpt lat="46.04140330" lon="6.21622330"><ele>788.5</ele><time>2007-04-09T13:28:04Z</time></trkpt>
<trkpt lat="46.04122330" lon="6.21614670"><ele>788.5</ele><time>2007-04-09T13:28:06Z</time></trkpt>
<trkpt lat="46.04105500" lon="6.21606670"><ele>788.799988</ele><time>2007-04-09T13:28:08Z</time></trkpt>
<trkpt lat="46.04088830" lon="6.21598330"><ele>788.5</ele><time>2007-04-09T13:28:10Z</time></trkpt>
<trkpt lat="46.04070670" lon="6.21591830"><ele>788.099976</ele><time>2007-04-09T13:28:12Z</time></trkpt>
<trkpt lat="46.04052670" lon="6.21585000"><ele>787.700012</ele><time>2007-04-09T13:28:14Z</time></trkpt>
<trkpt lat="46.04035670" lon="6.21577500"><ele>787.700012</ele><time>2007-04-09T13:28:16Z</time></trkpt>
<trkpt lat="46.04019830" lon="6.21568830"><ele>787.5</ele><time>2007-04-09T13:28:18Z</time></trkpt>
<trkpt lat="46.04004830" lon="6.21559670"><ele>787.200012</ele><time>2007-04-09T13:28:20Z</time></trkpt>
<trkpt lat="46.03991000" lon="6.21549330"><ele>787.400024</ele><time>2007-04-09T13:28:22Z</time></trkpt>
<trkpt lat="46.03978000" lon="6.21537670"><ele>788</ele><time>2007-04-09T13:28:24Z</time></trkpt>
<trkpt lat="46.03965670" lon="6.21525670"><ele>788.5</ele><time>2007-04-09T13:28:26Z</time></trkpt>
<trkpt lat="46.03953500" lon="6.21513830"><ele>788.599976</ele><time>2007-04-09T13:28:28Z</time></trkpt>
<trkpt lat="46.03941830" lon="6.21501170"><ele>788.700012</ele><time>2007-04-09T13:28:30Z</time></trkpt>
<trkpt lat="46.03930500" lon="6.21487170"><ele>788.599976</ele><time>2007-04-09T13:28:32Z</time></trkpt>
<trkpt lat="46.03919830" lon="6.21472170"><ele>788.5</ele><time>2007-04-09T13:28:34Z</time></trkpt>
<trkpt lat="46.03910330" lon="6.21455500"><ele>788.700012</ele><time>2007-04-09T13:28:36Z</time></trkpt>
<trkpt lat="46.03902000" lon="6.21437670"><ele>788.400024</ele><time>2007-04-09T13:28:38Z</time></trkpt>
<trkpt lat="46.03893830" lon="6.21420000"><ele>788.299988</ele><time>2007-04-09T13:28:40Z</time></trkpt>
<trkpt lat="46.03885670" lon="6.21402330"><ele>787.799988</ele><time>2007-04-09T13:28:42Z</time></trkpt>
<trkpt lat="46.03876830" lon="6.21384500"><ele>787.200012</ele><time>2007-04-09T13:28:44Z</time></trkpt>
<trkpt lat="46.03867830" lon="6.21366500"><ele>786.599976</ele><time>2007-04-09T13:28:46Z</time></trkpt>
<trkpt lat="46.03857830" lon="6.21349000"><ele>786</ele><time>2007-04-09T13:28:48Z</time></trkpt>
<trkpt lat="46.03846500" lon="6.21331670"><ele>785.299988</ele><time>2007-04-09T13:28:50Z</time></trkpt>
<trkpt lat="46.03833830" lon="6.21314830"><ele>784.599976</ele><time>2007-04-09T13:28:52Z</time></trkpt>
<trkpt lat="46.03820330" lon="6.21298500"><ele>783.799988</ele><time>2007-04-09T13:28:54Z</time></trkpt>
<trkpt lat="46.03806830" lon="6.21281500"><ele>783</ele><time>2007-04-09T13:28:56Z</time></trkpt>
<trkpt lat="46.03793330" lon="6.21263830"><ele>782.099976</ele><time>2007-04-09T13:28:58Z</time></trkpt>
<trkpt lat="46.03780670" lon="6.21245000"><ele>781.5</ele><time>2007-04-09T13:29:00Z</time></trkpt>
<trkpt lat="46.03769170" lon="6.21225000"><ele>780.599976</ele><time>2007-04-09T13:29:02Z</time></trkpt>
<trkpt lat="46.03758500" lon="6.21203500"><ele>779.799988</ele><time>2007-04-09T13:29:04Z</time></trkpt>
<trkpt lat="46.03749330" lon="6.21179670"><ele>778.599976</ele><time>2007-04-09T13:29:06Z</time></trkpt>
<trkpt lat="46.03740500" lon="6.21154000"><ele>777.299988</ele><time>2007-04-09T13:29:08Z</time></trkpt>
<trkpt lat="46.03732000" lon="6.21126330"><ele>776</ele><time>2007-04-09T13:29:10Z</time></trkpt>
<trkpt lat="46.03723170" lon="6.21097500"><ele>775</ele><time>2007-04-09T13:29:12Z</time></trkpt>
<trkpt lat="46.03712500" lon="6.21070330"><ele>774.5</ele><time>2007-04-09T13:29:14Z</time></trkpt>
<trkpt lat="46.03698670" lon="6.21047170"><ele>774.700012</ele><time>2007-04-09T13:29:16Z</time></trkpt>
<trkpt lat="46.03684170" lon="6.21028330"><ele>775.400024</ele><time>2007-04-09T13:29:18Z</time></trkpt>
<trkpt lat="46.03670170" lon="6.21012830"><ele>776.099976</ele><time>2007-04-09T13:29:20Z</time></trkpt>
<trkpt lat="46.03657000" lon="6.21000170"><ele>776.700012</ele><time>2007-04-09T13:29:22Z</time></trkpt>
<trkpt lat="46.03643000" lon="6.20991000"><ele>776.900024</ele><time>2007-04-09T13:29:24Z</time></trkpt>
<trkpt lat="46.03628170" lon="6.20984330"><ele>777.099976</ele><time>2007-04-09T13:29:26Z</time></trkpt>
<trkpt lat="46.03613170" lon="6.20978670"><ele>777.599976</ele><time>2007-04-09T13:29:28Z</time></trkpt>
<trkpt lat="46.03598330" lon="6.20973170"><ele>778</ele><time>2007-04-09T13:29:30Z</time></trkpt>
<trkpt lat="46.03583830" lon="6.20967170"><ele>778.5</ele><time>2007-04-09T13:29:32Z</time></trkpt>
<trkpt lat="46.03568670" lon="6.20961000"><ele>778.299988</ele><time>2007-04-09T13:29:34Z</time></trkpt>
<trkpt lat="46.03552500" lon="6.20954670"><ele>777.700012</ele><time>2007-04-09T13:29:36Z</time></trkpt>
<trkpt lat="46.03536000" lon="6.20948170"><ele>776.799988</ele><time>2007-04-09T13:29:38Z</time></trkpt>
<trkpt lat="46.03519500" lon="6.20942000"><ele>776</ele><time>2007-04-09T13:29:40Z</time></trkpt>
<trkpt lat="46.03503500" lon="6.20935330"><ele>775.299988</ele><time>2007-04-09T13:29:42Z</time></trkpt>
<trkpt lat="46.03487670" lon="6.20928670"><ele>775</ele><time>2007-04-09T13:29:44Z</time></trkpt>
<trkpt lat="46.03470670" lon="6.20921330"><ele>774.299988</ele><time>2007-04-09T13:29:46Z</time></trkpt>
<trkpt lat="46.03453330" lon="6.20914330"><ele>773.299988</ele><time>2007-04-09T13:29:48Z</time></trkpt>
<trkpt lat="46.03436000" lon="6.20907500"><ele>771.900024</ele><time>2007-04-09T13:29:50Z</time></trkpt>
<trkpt lat="46.03418670" lon="6.20900830"><ele>771.099976</ele><time>2007-04-09T13:29:52Z</time></trkpt>
<trkpt lat="46.03401000" lon="6.20892670"><ele>770.700012</ele><time>2007-04-09T13:29:54Z</time></trkpt>
<trkpt lat="46.03383330" lon="6.20883830"><ele>770.400024</ele><time>2007-04-09T13:29:56Z</time></trkpt>
<trkpt lat="46.03365830" lon="6.20874170"><ele>770</ele><time>2007-04-09T13:29:58Z</time></trkpt>
<trkpt lat="46.03348330" lon="6.20864000"><ele>769.700012</ele><time>2007-04-09T13:30:00Z</time></trkpt>
<trkpt lat="46.03331170" lon="6.20853000"><ele>768.900024</ele><time>2007-04-09T13:30:02Z</time></trkpt>
<trkpt lat="46.03313670" lon="6.20841670"><ele>768.400024</ele><time>2007-04-09T13:30:04Z</time></trkpt>
<trkpt lat="46.03296330" lon="6.20829830"><ele>767.700012</ele><time>2007-04-09T13:30:06Z</time></trkpt>
<trkpt lat="46.03279170" lon="6.20818000"><ele>767.200012</ele><time>2007-04-09T13:30:08Z</time></trkpt>
<trkpt lat="46.03261830" lon="6.20806170"><ele>766.900024</ele><time>2007-04-09T13:30:10Z</time></trkpt>
<trkpt lat="46.03245330" lon="6.20793170"><ele>767</ele><time>2007-04-09T13:30:12Z</time></trkpt>
<trkpt lat="46.03229830" lon="6.20779170"><ele>766.799988</ele><time>2007-04-09T13:30:14Z</time></trkpt>
<trkpt lat="46.03214170" lon="6.20765500"><ele>766.400024</ele><time>2007-04-09T13:30:16Z</time></trkpt>
<trkpt lat="46.03198500" lon="6.20751830"><ele>766.299988</ele><time>2007-04-09T13:30:18Z</time></trkpt>
<trkpt lat="46.03183670" lon="6.20738670"><ele>766.599976</ele><time>2007-04-09T13:30:20Z</time></trkpt>
<trkpt lat="46.03169330" lon="6.20725000"><ele>766.5</ele><time>2007-04-09T13:30:22Z</time></trkpt>
<trkpt lat="46.03154670" lon="6.20711670"><ele>766.400024</ele><time>2007-04-09T13:30:24Z</time></trkpt>
<trkpt lat="46.03138830" lon="6.20698500"><ele>765.700012</ele><time>2007-04-09T13:30:26Z</time></trkpt>
<trkpt lat="46.03119830" lon="6.20691670"><ele>765.099976</ele><time>2007-04-09T13:30:28Z</time></trkpt>
<trkpt lat="46.03098830" lon="6.20695170"><ele>763.299988</ele><time>2007-04-09T13:30:30Z</time></trkpt>
<trkpt lat="46.03077670" lon="6.20703000"><ele>762.099976</ele><time>2007-04-09T13:30:32Z</time></trkpt>
<trkpt lat="46.03055330" lon="6.20712000"><ele>760.5</ele><time>2007-04-09T13:30:34Z</time></trkpt>
<trkpt lat="46.03032170" lon="6.20720000"><ele>758.599976</ele><time>2007-04-09T13:30:36Z</time></trkpt>
<trkpt lat="46.03008000" lon="6.20723170"><ele>756.799988</ele><time>2007-04-09T13:30:38Z</time></trkpt>
<trkpt lat="46.02983670" lon="6.20717500"><ele>754.900024</ele><time>2007-04-09T13:30:40Z</time></trkpt>
<trkpt lat="46.02959330" lon="6.20709330"><ele>752</ele><time>2007-04-09T13:30:42Z</time></trkpt>
<trkpt lat="46.02934670" lon="6.20700000"><ele>749.700012</ele><time>2007-04-09T13:30:44Z</time></trkpt>
<trkpt lat="46.02910500" lon="6.20687670"><ele>747.299988</ele><time>2007-04-09T13:30:46Z</time></trkpt>
<trkpt lat="46.02888330" lon="6.20669170"><ele>745</ele><time>2007-04-09T13:30:48Z</time></trkpt>
<trkpt lat="46.02868000" lon="6.20646670"><ele>743</ele><time>2007-04-09T13:30:50Z</time></trkpt>
<trkpt lat="46.02849170" lon="6.20621670"><ele>740.700012</ele><time>2007-04-09T13:30:52Z</time></trkpt>
<trkpt lat="46.02831670" lon="6.20594830"><ele>738.599976</ele><time>2007-04-09T13:30:54Z</time></trkpt>
<trkpt lat="46.02815170" lon="6.20567170"><ele>736.700012</ele><time>2007-04-09T13:30:56Z</time></trkpt>
<trkpt lat="46.02800000" lon="6.20538500"><ele>734.799988</ele><time>2007-04-09T13:30:58Z</time></trkpt>
<trkpt lat="46.02787000" lon="6.20508500"><ele>733.5</ele><time>2007-04-09T13:31:00Z</time></trkpt>
<trkpt lat="46.02775330" lon="6.20478670"><ele>732.299988</ele><time>2007-04-09T13:31:02Z</time></trkpt>
<trkpt lat="46.02762330" lon="6.20452830"><ele>730.700012</ele><time>2007-04-09T13:31:04Z</time></trkpt>
<trkpt lat="46.02746830" lon="6.20433170"><ele>730.400024</ele><time>2007-04-09T13:31:06Z</time></trkpt>
<trkpt lat="46.02730830" lon="6.20415670"><ele>730.400024</ele><time>2007-04-09T13:31:08Z</time></trkpt>
<trkpt lat="46.02715000" lon="6.20398830"><ele>730.700012</ele><time>2007-04-09T13:31:10Z</time></trkpt>
<trkpt lat="46.02699830" lon="6.20381670"><ele>729.799988</ele><time>2007-04-09T13:31:12Z</time></trkpt>
<trkpt lat="46.02683170" lon="6.20365170"><ele>729.200012</ele><time>2007-04-09T13:31:14Z</time></trkpt>
<trkpt lat="46.02665670" lon="6.20350000"><ele>728.400024</ele><time>2007-04-09T13:31:16Z</time></trkpt>
<trkpt lat="46.02647830" lon="6.20336500"><ele>728.099976</ele><time>2007-04-09T13:31:18Z</time></trkpt>
<trkpt lat="46.02629500" lon="6.20323670"><ele>727.700012</ele><time>2007-04-09T13:31:20Z</time></trkpt>
<trkpt lat="46.02611170" lon="6.20311170"><ele>726.799988</ele><time>2007-04-09T13:31:22Z</time></trkpt>
<trkpt lat="46.02592330" lon="6.20298500"><ele>725.799988</ele><time>2007-04-09T13:31:24Z</time></trkpt>
<trkpt lat="46.02573670" lon="6.20285830"><ele>724.700012</ele><time>2007-04-09T13:31:26Z</time></trkpt>
<trkpt lat="46.02554830" lon="6.20273000"><ele>723.5</ele><time>2007-04-09T13:31:28Z</time></trkpt>
<trkpt lat="46.02536170" lon="6.20260330"><ele>722.400024</ele><time>2007-04-09T13:31:30Z</time></trkpt>
<trkpt lat="46.02517500" lon="6.20247170"><ele>721.200012</ele><time>2007-04-09T13:31:32Z</time></trkpt>
<trkpt lat="46.02498830" lon="6.20234500"><ele>720.400024</ele><time>2007-04-09T13:31:34Z</time></trkpt>
<trkpt lat="46.02480330" lon="6.20222330"><ele>719.700012</ele><time>2007-04-09T13:31:36Z</time></trkpt>
<trkpt lat="46.02462000" lon="6.20210330"><ele>719.099976</ele><time>2007-04-09T13:31:38Z</time></trkpt>
<trkpt lat="46.02443830" lon="6.20198500"><ele>718.5</ele><time>2007-04-09T13:31:40Z</time></trkpt>
<trkpt lat="46.02426000" lon="6.20186670"><ele>718.099976</ele><time>2007-04-09T13:31:42Z</time></trkpt>
<trkpt lat="46.02408500" lon="6.20174830"><ele>717.700012</ele><time>2007-04-09T13:31:44Z</time></trkpt>
<trkpt lat="46.02391170" lon="6.20163170"><ele>717.299988</ele><time>2007-04-09T13:31:46Z</time></trkpt>
<trkpt lat="46.02373670" lon="6.20151830"><ele>716.700012</ele><time>2007-04-09T13:31:48Z</time></trkpt>
<trkpt lat="46.02356000" lon="6.20140000"><ele>715.700012</ele><time>2007-04-09T13:31:50Z</time></trkpt>
<trkpt lat="46.02337500" lon="6.20127670"><ele>714.400024</ele><time>2007-04-09T13:31:52Z</time></trkpt>
<trkpt lat="46.02318500" lon="6.20114830"><ele>712.900024</ele><time>2007-04-09T13:31:54Z</time></trkpt>
<trkpt lat="46.02299170" lon="6.20101330"><ele>711.200012</ele><time>2007-04-09T13:31:56Z</time></trkpt>
<trkpt lat="46.02279170" lon="6.20087500"><ele>709.5</ele><time>2007-04-09T13:31:58Z</time></trkpt>
<trkpt lat="46.02259000" lon="6.20073000"><ele>708</ele><time>2007-04-09T13:32:00Z</time></trkpt>
<trkpt lat="46.02238670" lon="6.20058830"><ele>706.700012</ele><time>2007-04-09T13:32:02Z</time></trkpt>
<trkpt lat="46.02218170" lon="6.20044500"><ele>705.5</ele><time>2007-04-09T13:32:04Z</time></trkpt>
<trkpt lat="46.02197670" lon="6.20030000"><ele>704.400024</ele><time>2007-04-09T13:32:06Z</time></trkpt>
<trkpt lat="46.02177330" lon="6.20015670"><ele>703.400024</ele><time>2007-04-09T13:32:08Z</time></trkpt>
<trkpt lat="46.02157330" lon="6.20001830"><ele>702.599976</ele><time>2007-04-09T13:32:10Z</time></trkpt>
<trkpt lat="46.02137330" lon="6.19988330"><ele>701.799988</ele><time>2007-04-09T13:32:12Z</time></trkpt>
<trkpt lat="46.02117830" lon="6.19975330"><ele>701.099976</ele><time>2007-04-09T13:32:14Z</time></trkpt>
<trkpt lat="46.02099000" lon="6.19961500"><ele>700.700012</ele><time>2007-04-09T13:32:16Z</time></trkpt>
<trkpt lat="46.02081330" lon="6.19945500"><ele>700.299988</ele><time>2007-04-09T13:32:18Z</time></trkpt>
<trkpt lat="46.02064330" lon="6.19928670"><ele>699.900024</ele><time>2007-04-09T13:32:20Z</time></trkpt>
<trkpt lat="46.02046500" lon="6.19913330"><ele>698.900024</ele><time>2007-04-09T13:32:22Z</time></trkpt>
<trkpt lat="46.02026830" lon="6.19901670"><ele>697.299988</ele><time>2007-04-09T13:32:24Z</time></trkpt>
<trkpt lat="46.02006330" lon="6.19888500"><ele>695.400024</ele><time>2007-04-09T13:32:26Z</time></trkpt>
<trkpt lat="46.01986330" lon="6.19871330"><ele>694</ele><time>2007-04-09T13:32:28Z</time></trkpt>
<trkpt lat="46.01966500" lon="6.19852670"><ele>692.299988</ele><time>2007-04-09T13:32:30Z</time></trkpt>
<trkpt lat="46.01946170" lon="6.19834500"><ele>691.099976</ele><time>2007-04-09T13:32:32Z</time></trkpt>
<trkpt lat="46.01925670" lon="6.19816670"><ele>690</ele><time>2007-04-09T13:32:34Z</time></trkpt>
<trkpt lat="46.01905670" lon="6.19799330"><ele>689</ele><time>2007-04-09T13:32:36Z</time></trkpt>
<trkpt lat="46.01887170" lon="6.19781330"><ele>688.400024</ele><time>2007-04-09T13:32:38Z</time></trkpt>
<trkpt lat="46.01873000" lon="6.19758170"><ele>687.700012</ele><time>2007-04-09T13:32:40Z</time></trkpt>
<trkpt lat="46.01864330" lon="6.19729170"><ele>686.5</ele><time>2007-04-09T13:32:42Z</time></trkpt>
<trkpt lat="46.01856830" lon="6.19699500"><ele>685.900024</ele><time>2007-04-09T13:32:44Z</time></trkpt>
<trkpt lat="46.01850000" lon="6.19670670"><ele>685.700012</ele><time>2007-04-09T13:32:46Z</time></trkpt>
<trkpt lat="46.01847000" lon="6.19642000"><ele>685.799988</ele><time>2007-04-09T13:32:48Z</time></trkpt>
<trkpt lat="46.01846670" lon="6.19615330"><ele>685.799988</ele><time>2007-04-09T13:32:50Z</time></trkpt>
<trkpt lat="46.01839500" lon="6.19595830"><ele>685.5</ele><time>2007-04-09T13:32:52Z</time></trkpt>
<trkpt lat="46.01822330" lon="6.19590670"><ele>685.299988</ele><time>2007-04-09T13:32:54Z</time></trkpt>
<trkpt lat="46.01803500" lon="6.19586670"><ele>684.599976</ele><time>2007-04-09T13:32:56Z</time></trkpt>
<trkpt lat="46.01784330" lon="6.19580670"><ele>683.200012</ele><time>2007-04-09T13:32:58Z</time></trkpt>
<trkpt lat="46.01763830" lon="6.19573170"><ele>681.700012</ele><time>2007-04-09T13:33:00Z</time></trkpt>
<trkpt lat="46.01743000" lon="6.19565170"><ele>680.299988</ele><time>2007-04-09T13:33:02Z</time></trkpt>
<trkpt lat="46.01721330" lon="6.19556830"><ele>678.799988</ele><time>2007-04-09T13:33:04Z</time></trkpt>
<trkpt lat="46.01699500" lon="6.19547830"><ele>677.200012</ele><time>2007-04-09T13:33:06Z</time></trkpt>
<trkpt lat="46.01678500" lon="6.19535330"><ele>675.700012</ele><time>2007-04-09T13:33:08Z</time></trkpt>
<trkpt lat="46.01660500" lon="6.19516500"><ele>674.400024</ele><time>2007-04-09T13:33:10Z</time></trkpt>
<trkpt lat="46.01646330" lon="6.19491830"><ele>672.599976</ele><time>2007-04-09T13:33:12Z</time></trkpt>
<trkpt lat="46.01639500" lon="6.19461170"><ele>671.200012</ele><time>2007-04-09T13:33:14Z</time></trkpt>
<trkpt lat="46.01637170" lon="6.19429330"><ele>670</ele><time>2007-04-09T13:33:16Z</time></trkpt>
<trkpt lat="46.01640830" lon="6.19397670"><ele>669</ele><time>2007-04-09T13:33:18Z</time></trkpt>
<trkpt lat="46.01651170" lon="6.19369670"><ele>668</ele><time>2007-04-09T13:33:20Z</time></trkpt>
<trkpt lat="46.01666670" lon="6.19347000"><ele>666.700012</ele><time>2007-04-09T13:33:22Z</time></trkpt>
<trkpt lat="46.01686670" lon="6.19330670"><ele>665.299988</ele><time>2007-04-09T13:33:24Z</time></trkpt>
<trkpt lat="46.01708170" lon="6.19320670"><ele>664</ele><time>2007-04-09T13:33:26Z</time></trkpt>
<trkpt lat="46.01730500" lon="6.19320000"><ele>662.5</ele><time>2007-04-09T13:33:28Z</time></trkpt>
<trkpt lat="46.01752670" lon="6.19326670"><ele>661</ele><time>2007-04-09T13:33:30Z</time></trkpt>
<trkpt lat="46.01774670" lon="6.19334500"><ele>659.5</ele><time>2007-04-09T13:33:32Z</time></trkpt>
<trkpt lat="46.01796330" lon="6.19338000"><ele>657.799988</ele><time>2007-04-09T13:33:34Z</time></trkpt>
<trkpt lat="46.01817330" lon="6.19331670"><ele>656.599976</ele><time>2007-04-09T13:33:36Z</time></trkpt>
<trkpt lat="46.01836170" lon="6.19315670"><ele>656.400024</ele><time>2007-04-09T13:33:38Z</time></trkpt>
<trkpt lat="46.01849830" lon="6.19291830"><ele>655.799988</ele><time>2007-04-09T13:33:40Z</time></trkpt>
<trkpt lat="46.01857170" lon="6.19261670"><ele>655.5</ele><time>2007-04-09T13:33:42Z</time></trkpt>
<trkpt lat="46.01858000" lon="6.19228830"><ele>654.700012</ele><time>2007-04-09T13:33:44Z</time></trkpt>
<trkpt lat="46.01851170" lon="6.19199500"><ele>654.5</ele><time>2007-04-09T13:33:46Z</time></trkpt>
<trkpt lat="46.01840170" lon="6.19175330"><ele>654.799988</ele><time>2007-04-09T13:33:48Z</time></trkpt>
<trkpt lat="46.01828330" lon="6.19154670"><ele>656.200012</ele><time>2007-04-09T13:33:50Z</time></trkpt>
<trkpt lat="46.01816000" lon="6.19137830"><ele>657</ele><time>2007-04-09T13:33:52Z</time></trkpt>
<trkpt lat="46.01803170" lon="6.19124170"><ele>658</ele><time>2007-04-09T13:33:54Z</time></trkpt>
<trkpt lat="46.01790670" lon="6.19111500"><ele>659.5</ele><time>2007-04-09T13:33:56Z</time></trkpt>
<trkpt lat="46.01779670" lon="6.19100170"><ele>660.5</ele><time>2007-04-09T13:33:58Z</time></trkpt>
<trkpt lat="46.01769500" lon="6.19089500"><ele>661.299988</ele><time>2007-04-09T13:34:00Z</time></trkpt>
<trkpt lat="46.01759830" lon="6.19078500"><ele>662.200012</ele><time>2007-04-09T13:34:02Z</time></trkpt>
<trkpt lat="46.01750670" lon="6.19066330"><ele>662.900024</ele><time>2007-04-09T13:34:04Z</time></trkpt>
<trkpt lat="46.01742170" lon="6.19053500"><ele>663.5</ele><time>2007-04-09T13:34:06Z</time></trkpt>
<trkpt lat="46.01733670" lon="6.19039670"><ele>663.799988</ele><time>2007-04-09T13:34:08Z</time></trkpt>
<trkpt lat="46.01724670" lon="6.19024500"><ele>663.599976</ele><time>2007-04-09T13:34:10Z</time></trkpt>
<trkpt lat="46.01715330" lon="6.19007670"><ele>662.900024</ele><time>2007-04-09T13:34:12Z</time></trkpt>
<trkpt lat="46.01704670" lon="6.18989330"><ele>662.200012</ele><time>2007-04-09T13:34:14Z</time></trkpt>
<trkpt lat="46.01693330" lon="6.18969170"><ele>661.200012</ele><time>2007-04-09T13:34:16Z</time></trkpt>
<trkpt lat="46.01681830" lon="6.18948170"><ele>660.200012</ele><time>2007-04-09T13:34:18Z</time></trkpt>
<trkpt lat="46.01670000" lon="6.18926830"><ele>659.200012</ele><time>2007-04-09T13:34:20Z</time></trkpt>
<trkpt lat="46.01658000" lon="6.18906000"><ele>658.400024</ele><time>2007-04-09T13:34:22Z</time></trkpt>
<trkpt lat="46.01646170" lon="6.18885170"><ele>657.400024</ele><time>2007-04-09T13:34:24Z</time></trkpt>
<trkpt lat="46.01634670" lon="6.18864500"><ele>656.5</ele><time>2007-04-09T13:34:26Z</time></trkpt>
<trkpt lat="46.01623670" lon="6.18843670"><ele>655.5</ele><time>2007-04-09T13:34:28Z</time></trkpt>
<trkpt lat="46.01614170" lon="6.18821500"><ele>654.400024</ele><time>2007-04-09T13:34:30Z</time></trkpt>
<trkpt lat="46.01605170" lon="6.18799330"><ele>653.400024</ele><time>2007-04-09T13:34:32Z</time></trkpt>
<trkpt lat="46.01597330" lon="6.18776170"><ele>652.700012</ele><time>2007-04-09T13:34:34Z</time></trkpt>
<trkpt lat="46.01591000" lon="6.18752330"><ele>652</ele><time>2007-04-09T13:34:36Z</time></trkpt>
<trkpt lat="46.01584170" lon="6.18728830"><ele>651</ele><time>2007-04-09T13:34:38Z</time></trkpt>
<trkpt lat="46.01576000" lon="6.18705000"><ele>650</ele><time>2007-04-09T13:34:40Z</time></trkpt>
<trkpt lat="46.01567170" lon="6.18681170"><ele>649.200012</ele><time>2007-04-09T13:34:42Z</time></trkpt>
<trkpt lat="46.01558170" lon="6.18657500"><ele>648.799988</ele><time>2007-04-09T13:34:44Z</time></trkpt>
<trkpt lat="46.01549330" lon="6.18633830"><ele>648</ele><time>2007-04-09T13:34:46Z</time></trkpt>
<trkpt lat="46.01540670" lon="6.18609670"><ele>647.400024</ele><time>2007-04-09T13:34:48Z</time></trkpt>
<trkpt lat="46.01532000" lon="6.18585500"><ele>646.599976</ele><time>2007-04-09T13:34:50Z</time></trkpt>
<trkpt lat="46.01523830" lon="6.18561170"><ele>645.799988</ele><time>2007-04-09T13:34:52Z</time></trkpt>
<trkpt lat="46.01515000" lon="6.18536830"><ele>644.700012</ele><time>2007-04-09T13:34:54Z</time></trkpt>
<trkpt lat="46.01505670" lon="6.18512500"><ele>643.799988</ele><time>2007-04-09T13:34:56Z</time></trkpt>
<trkpt lat="46.01497330" lon="6.18487500"><ele>643</ele><time>2007-04-09T13:34:58Z</time></trkpt>
<trkpt lat="46.01491830" lon="6.18462330"><ele>642.700012</ele><time>2007-04-09T13:35:00Z</time></trkpt>
<trkpt lat="46.01491670" lon="6.18436500"><ele>642.5</ele><time>2007-04-09T13:35:02Z</time></trkpt>
<trkpt lat="46.01494000" lon="6.18411170"><ele>642.099976</ele><time>2007-04-09T13:35:04Z</time></trkpt>
<trkpt lat="46.01497170" lon="6.18386170"><ele>641.799988</ele><time>2007-04-09T13:35:06Z</time></trkpt>
<trkpt lat="46.01502670" lon="6.18361670"><ele>641.700012</ele><time>2007-04-09T13:35:08Z</time></trkpt>
<trkpt lat="46.01509500" lon="6.18336670"><ele>641.099976</ele><time>2007-04-09T13:35:10Z</time></trkpt>
<trkpt lat="46.01515330" lon="6.18309330"><ele>640</ele><time>2007-04-09T13:35:12Z</time></trkpt>
<trkpt lat="46.01513830" lon="6.18281000"><ele>639.5</ele><time>2007-04-09T13:35:14Z</time></trkpt>
<trkpt lat="46.01499830" lon="6.18262670"><ele>639.200012</ele><time>2007-04-09T13:35:16Z</time></trkpt>
<trkpt lat="46.01480330" lon="6.18253830"><ele>639.5</ele><time>2007-04-09T13:35:18Z</time></trkpt>
<trkpt lat="46.01462670" lon="6.18245330"><ele>639.200012</ele><time>2007-04-09T13:35:20Z</time></trkpt>
<trkpt lat="46.01446330" lon="6.18236830"><ele>639</ele><time>2007-04-09T13:35:22Z</time></trkpt>
<trkpt lat="46.01431000" lon="6.18228500"><ele>638.700012</ele><time>2007-04-09T13:35:24Z</time></trkpt>
<trkpt lat="46.01416830" lon="6.18220170"><ele>638.599976</ele><time>2007-04-09T13:35:26Z</time></trkpt>
<trkpt lat="46.01404000" lon="6.18207500"><ele>638.299988</ele><time>2007-04-09T13:35:28Z</time></trkpt>
<trkpt lat="46.01393000" lon="6.18191830"><ele>638.299988</ele><time>2007-04-09T13:35:30Z</time></trkpt>
<trkpt lat="46.01383170" lon="6.18175000"><ele>638.200012</ele><time>2007-04-09T13:35:32Z</time></trkpt>
<trkpt lat="46.01373500" lon="6.18157330"><ele>637.900024</ele><time>2007-04-09T13:35:34Z</time></trkpt>
<trkpt lat="46.01363670" lon="6.18139670"><ele>637.799988</ele><time>2007-04-09T13:35:36Z</time></trkpt>
<trkpt lat="46.01353330" lon="6.18122330"><ele>637.700012</ele><time>2007-04-09T13:35:38Z</time></trkpt>
<trkpt lat="46.01342500" lon="6.18105170"><ele>637.700012</ele><time>2007-04-09T13:35:40Z</time></trkpt>
<trkpt lat="46.01331670" lon="6.18087830"><ele>637.900024</ele><time>2007-04-09T13:35:42Z</time></trkpt>
<trkpt lat="46.01321000" lon="6.18070330"><ele>638</ele><time>2007-04-09T13:35:44Z</time></trkpt>
<trkpt lat="46.01310500" lon="6.18052170"><ele>638</ele><time>2007-04-09T13:35:46Z</time></trkpt>
<trkpt lat="46.01300330" lon="6.18033830"><ele>638.099976</ele><time>2007-04-09T13:35:48Z</time></trkpt>
<trkpt lat="46.01291330" lon="6.18014500"><ele>638.299988</ele><time>2007-04-09T13:35:50Z</time></trkpt>
<trkpt lat="46.01284670" lon="6.17993670"><ele>638.200012</ele><time>2007-04-09T13:35:52Z</time></trkpt>
<trkpt lat="46.01280000" lon="6.17972670"><ele>638.099976</ele><time>2007-04-09T13:35:54Z</time></trkpt>
<trkpt lat="46.01275500" lon="6.17951830"><ele>638.200012</ele><time>2007-04-09T13:35:56Z</time></trkpt>
<trkpt lat="46.01271170" lon="6.17931670"><ele>638.200012</ele><time>2007-04-09T13:35:58Z</time></trkpt>
<trkpt lat="46.01267000" lon="6.17911670"><ele>638.099976</ele><time>2007-04-09T13:36:00Z</time></trkpt>
<trkpt lat="46.01263170" lon="6.17892170"><ele>638.299988</ele><time>2007-04-09T13:36:02Z</time></trkpt>
<trkpt lat="46.01259000" lon="6.17873500"><ele>638.700012</ele><time>2007-04-09T13:36:04Z</time></trkpt>
<trkpt lat="46.01255170" lon="6.17855330"><ele>639</ele><time>2007-04-09T13:36:06Z</time></trkpt>
<trkpt lat="46.01251170" lon="6.17837330"><ele>639.299988</ele><time>2007-04-09T13:36:08Z</time></trkpt>
<trkpt lat="46.01247170" lon="6.17819670"><ele>639.599976</ele><time>2007-04-09T13:36:10Z</time></trkpt>
<trkpt lat="46.01243000" lon="6.17802500"><ele>639.900024</ele><time>2007-04-09T13:36:12Z</time></trkpt>
<trkpt lat="46.01239330" lon="6.17785330"><ele>640.099976</ele><time>2007-04-09T13:36:14Z</time></trkpt>
<trkpt lat="46.01235670" lon="6.17768830"><ele>640.400024</ele><time>2007-04-09T13:36:16Z</time></trkpt>
<trkpt lat="46.01231500" lon="6.17753000"><ele>640.599976</ele><time>2007-04-09T13:36:18Z</time></trkpt>
<trkpt lat="46.01226670" lon="6.17738000"><ele>641.099976</ele><time>2007-04-09T13:36:20Z</time></trkpt>
<trkpt lat="46.01221000" lon="6.17724170"><ele>641.5</ele><time>2007-04-09T13:36:22Z</time></trkpt>
<trkpt lat="46.01215170" lon="6.17711000"><ele>642.700012</ele><time>2007-04-09T13:36:24Z</time></trkpt>
<trkpt lat="46.01209670" lon="6.17698830"><ele>643.599976</ele><time>2007-04-09T13:36:26Z</time></trkpt>
<trkpt lat="46.01204670" lon="6.17688170"><ele>644.599976</ele><time>2007-04-09T13:36:28Z</time></trkpt>
<trkpt lat="46.01200170" lon="6.17678170"><ele>645.5</ele><time>2007-04-09T13:36:30Z</time></trkpt>
<trkpt lat="46.01196000" lon="6.17669330"><ele>646.5</ele><time>2007-04-09T13:36:32Z</time></trkpt>
<trkpt lat="46.01191830" lon="6.17660670"><ele>647.299988</ele><time>2007-04-09T13:36:34Z</time></trkpt>
<trkpt lat="46.01187670" lon="6.17652170"><ele>648</ele><time>2007-04-09T13:36:36Z</time></trkpt>
<trkpt lat="46.01183830" lon="6.17643670"><ele>648.799988</ele><time>2007-04-09T13:36:38Z</time></trkpt>
<trkpt lat="46.01180500" lon="6.17635170"><ele>649.599976</ele><time>2007-04-09T13:36:40Z</time></trkpt>
<trkpt lat="46.01177500" lon="6.17627330"><ele>650.599976</ele><time>2007-04-09T13:36:42Z</time></trkpt>
<trkpt lat="46.01177330" lon="6.17618330"><ele>651.400024</ele><time>2007-04-09T13:36:44Z</time></trkpt>
<trkpt lat="46.01180500" lon="6.17609170"><ele>651.799988</ele><time>2007-04-09T13:36:46Z</time></trkpt>
<trkpt lat="46.01183170" lon="6.17599000"><ele>652.400024</ele><time>2007-04-09T13:36:48Z</time></trkpt>
<trkpt lat="46.01186330" lon="6.17589330"><ele>652.400024</ele><time>2007-04-09T13:36:50Z</time></trkpt>
<trkpt lat="46.01189170" lon="6.17579830"><ele>652.400024</ele><time>2007-04-09T13:36:52Z</time></trkpt>
<trkpt lat="46.01193330" lon="6.17571670"><ele>652.799988</ele><time>2007-04-09T13:36:54Z</time></trkpt>
<trkpt lat="46.01200330" lon="6.17571330"><ele>653.400024</ele><time>2007-04-09T13:36:56Z</time></trkpt>
<trkpt lat="46.01207000" lon="6.17574170"><ele>654.099976</ele><time>2007-04-09T13:36:58Z</time></trkpt>
<trkpt lat="46.01212500" lon="6.17576000"><ele>655</ele><time>2007-04-09T13:37:00Z</time></trkpt>
<trkpt lat="46.01217670" lon="6.17577170"><ele>655.799988</ele><time>2007-04-09T13:37:02Z</time></trkpt>
<trkpt lat="46.01222500" lon="6.17579170"><ele>656.400024</ele><time>2007-04-09T13:37:04Z</time></trkpt>
<trkpt lat="46.01226670" lon="6.17582000"><ele>657.299988</ele><time>2007-04-09T13:37:06Z</time></trkpt>
<trkpt lat="46.01230000" lon="6.17585830"><ele>658.099976</ele><time>2007-04-09T13:37:08Z</time></trkpt>
<trkpt lat="46.01232830" lon="6.17586330"><ele>658.5</ele><time>2007-04-09T13:37:10Z</time></trkpt>
<trkpt lat="46.01232830" lon="6.17584330"><ele>658.599976</ele><time>2007-04-09T13:37:12Z</time></trkpt>
<trkpt lat="46.01231000" lon="6.17584000"><ele>658.299988</ele><time>2007-04-09T13:37:14Z</time></trkpt>
<trkpt lat="46.01229000" lon="6.17586000"><ele>659</ele><time>2007-04-09T13:37:16Z</time></trkpt>
<trkpt lat="46.01229330" lon="6.17587170"><ele>659.599976</ele><time>2007-04-09T13:37:18Z</time></trkpt>
<trkpt lat="46.01229330" lon="6.17587170"><ele>659.599976</ele><time>2007-04-09T13:37:20Z</time></trkpt>
<trkpt lat="46.01229330" lon="6.17587170"><ele>659.599976</ele><time>2007-04-09T13:37:22Z</time></trkpt>
<trkpt lat="46.01229330" lon="6.17587170"><ele>659.599976</ele><time>2007-04-09T13:37:23Z</time></trkpt>
<trkpt lat="46.01229330" lon="6.17587170"><ele>659.599976</ele><time>2007-04-09T13:37:26Z</time></trkpt>
<trkpt lat="46.01229330" lon="6.17587170"><ele>659.599976</ele><time>2007-04-09T13:37:28Z</time></trkpt>
<trkpt lat="46.01229330" lon="6.17587170"><ele>659.599976</ele><time>2007-04-09T13:37:30Z</time></trkpt>
<trkpt lat="46.01229330" lon="6.17587170"><ele>659.599976</ele><time>2007-04-09T13:37:32Z</time></trkpt>
<trkpt lat="46.01229330" lon="6.17587170"><ele>659.599976</ele><time>2007-04-09T13:37:34Z</time></trkpt>
<trkpt lat="46.01229330" lon="6.17587170"><ele>659.599976</ele><time>2007-04-09T13:37:36Z</time></trkpt>
<trkpt lat="46.01229330" lon="6.17587170"><ele>659.599976</ele><time>2007-04-09T13:37:38Z</time></trkpt>
<trkpt lat="46.01229330" lon="6.17587170"><ele>659.599976</ele><time>2007-04-09T13:37:40Z</time></trkpt>
<trkpt lat="46.01229330" lon="6.17587170"><ele>659.599976</ele><time>2007-04-09T13:37:42Z</time></trkpt>
<trkpt lat="46.01229330" lon="6.17587170"><ele>659.599976</ele><time>2007-04-09T13:37:44Z</time></trkpt>
<trkpt lat="46.01229330" lon="6.17587170"><ele>659.599976</ele><time>2007-04-09T13:37:46Z</time></trkpt>
<trkpt lat="46.01229330" lon="6.17587170"><ele>659.599976</ele><time>2007-04-09T13:37:48Z</time></trkpt>
<trkpt lat="46.01229330" lon="6.17587170"><ele>659.599976</ele><time>2007-04-09T13:37:50Z</time></trkpt>
<trkpt lat="46.01229330" lon="6.17587170"><ele>659.599976</ele><time>2007-04-09T13:37:52Z</time></trkpt>
<trkpt lat="46.01229330" lon="6.17587170"><ele>659.599976</ele><time>2007-04-09T13:37:54Z</time></trkpt>
<trkpt lat="46.01229330" lon="6.17587170"><ele>659.599976</ele><time>2007-04-09T13:37:56Z</time></trkpt>
<trkpt lat="46.01229330" lon="6.17587170"><ele>659.599976</ele><time>2007-04-09T13:37:58Z</time></trkpt>
<trkpt lat="46.01229330" lon="6.17587170"><ele>659.599976</ele><time>2007-04-09T13:38:00Z</time></trkpt>
<trkpt lat="46.01229330" lon="6.17587170"><ele>659.599976</ele><time>2007-04-09T13:38:02Z</time></trkpt>
<trkpt lat="46.01229330" lon="6.17587170"><ele>659.599976</ele><time>2007-04-09T13:38:04Z</time></trkpt>
<trkpt lat="46.01229330" lon="6.17587170"><ele>659.599976</ele><time>2007-04-09T13:38:06Z</time></trkpt>
<trkpt lat="46.01229330" lon="6.17587170"><ele>659.599976</ele><time>2007-04-09T13:38:08Z</time></trkpt>
<trkpt lat="46.01229330" lon="6.17587170"><ele>659.599976</ele><time>2007-04-09T13:38:10Z</time></trkpt>
<trkpt lat="46.01229330" lon="6.17587170"><ele>659.599976</ele><time>2007-04-09T13:38:12Z</time></trkpt>
<trkpt lat="46.01229330" lon="6.17587170"><ele>659.599976</ele><time>2007-04-09T13:38:14Z</time></trkpt>
<trkpt lat="46.01229330" lon="6.17587170"><ele>659.599976</ele><time>2007-04-09T13:38:16Z</time></trkpt>
<trkpt lat="46.01229330" lon="6.17587170"><ele>659.599976</ele><time>2007-04-09T13:38:18Z</time></trkpt>
<trkpt lat="46.01229330" lon="6.17587170"><ele>659.599976</ele><time>2007-04-09T13:38:20Z</time></trkpt>
<trkpt lat="46.01229330" lon="6.17587170"><ele>659.599976</ele><time>2007-04-09T13:38:22Z</time></trkpt>
<trkpt lat="46.01229330" lon="6.17587170"><ele>659.599976</ele><time>2007-04-09T13:38:24Z</time></trkpt>
<trkpt lat="46.01229330" lon="6.17587170"><ele>659.599976</ele><time>2007-04-09T13:38:26Z</time></trkpt>
<trkpt lat="46.01229330" lon="6.17587170"><ele>659.599976</ele><time>2007-04-09T13:38:28Z</time></trkpt>
<trkpt lat="46.01229330" lon="6.17587170"><ele>659.599976</ele><time>2007-04-09T13:38:30Z</time></trkpt>
<trkpt lat="46.01229330" lon="6.17587170"><ele>659.599976</ele><time>2007-04-09T13:38:32Z</time></trkpt>
<trkpt lat="46.01229330" lon="6.17587170"><ele>659.599976</ele><time>2007-04-09T13:38:34Z</time></trkpt>
<trkpt lat="46.01229330" lon="6.17587170"><ele>659.599976</ele><time>2007-04-09T13:38:36Z</time></trkpt>
<trkpt lat="46.01229330" lon="6.17587170"><ele>659.599976</ele><time>2007-04-09T13:38:38Z</time></trkpt>
<trkpt lat="46.01229330" lon="6.17587170"><ele>659.599976</ele><time>2007-04-09T13:38:40Z</time></trkpt>
<trkpt lat="46.01229330" lon="6.17587170"><ele>659.599976</ele><time>2007-04-09T13:38:42Z</time></trkpt>
<trkpt lat="46.01229330" lon="6.17587170"><ele>659.599976</ele><time>2007-04-09T13:38:44Z</time></trkpt>
<trkpt lat="46.01229330" lon="6.17587170"><ele>659.599976</ele><time>2007-04-09T13:38:46Z</time></trkpt>
<trkpt lat="46.01229330" lon="6.17587170"><ele>659.599976</ele><time>2007-04-09T13:38:48Z</time></trkpt>
<trkpt lat="46.01229330" lon="6.17587170"><ele>659.599976</ele><time>2007-04-09T13:38:50Z</time></trkpt>
<trkpt lat="46.01229330" lon="6.17587170"><ele>659.599976</ele><time>2007-04-09T13:38:52Z</time></trkpt>
<trkpt lat="46.01229330" lon="6.17587170"><ele>659.599976</ele><time>2007-04-09T13:38:54Z</time></trkpt>
<trkpt lat="46.01229330" lon="6.17587170"><ele>659.599976</ele><time>2007-04-09T13:38:56Z</time></trkpt>
<trkpt lat="46.01229330" lon="6.17587170"><ele>659.599976</ele><time>2007-04-09T13:38:58Z</time></trkpt>
<trkpt lat="46.01229330" lon="6.17587170"><ele>659.599976</ele><time>2007-04-09T13:39:00Z</time></trkpt>
<trkpt lat="46.01229330" lon="6.17587170"><ele>659.599976</ele><time>2007-04-09T13:39:02Z</time></trkpt>
<trkpt lat="46.01229330" lon="6.17587170"><ele>659.599976</ele><time>2007-04-09T13:39:04Z</time></trkpt>
<trkpt lat="46.01229330" lon="6.17587170"><ele>659.599976</ele><time>2007-04-09T13:39:06Z</time></trkpt>
<trkpt lat="46.01229330" lon="6.17587170"><ele>659.599976</ele><time>2007-04-09T13:39:08Z</time></trkpt>
<trkpt lat="46.01229330" lon="6.17587170"><ele>659.599976</ele><time>2007-04-09T13:39:10Z</time></trkpt>
<trkpt lat="46.01229330" lon="6.17587170"><ele>659.599976</ele><time>2007-04-09T13:39:12Z</time></trkpt>
<trkpt lat="46.01229330" lon="6.17587170"><ele>659.599976</ele><time>2007-04-09T13:39:14Z</time></trkpt>
<trkpt lat="46.01229330" lon="6.17587170"><ele>659.599976</ele><time>2007-04-09T13:39:16Z</time></trkpt>
<trkpt lat="46.01229330" lon="6.17587170"><ele>659.599976</ele><time>2007-04-09T13:39:18Z</time></trkpt>
<trkpt lat="46.01229330" lon="6.17587170"><ele>659.599976</ele><time>2007-04-09T13:39:20Z</time></trkpt>
<trkpt lat="46.01229330" lon="6.17587170"><ele>659.599976</ele><time>2007-04-09T13:39:22Z</time></trkpt>
<trkpt lat="46.01229330" lon="6.17587170"><ele>659.599976</ele><time>2007-04-09T13:39:24Z</time></trkpt>
<trkpt lat="46.01229330" lon="6.17587170"><ele>659.599976</ele><time>2007-04-09T13:39:26Z</time></trkpt>
<trkpt lat="46.01229330" lon="6.17587170"><ele>659.599976</ele><time>2007-04-09T13:39:28Z</time></trkpt>
<trkpt lat="46.01229330" lon="6.17587170"><ele>659.599976</ele><time>2007-04-09T13:39:30Z</time></trkpt>
<trkpt lat="46.01229330" lon="6.17587170"><ele>659.599976</ele><time>2007-04-09T13:39:32Z</time></trkpt>
<trkpt lat="46.01229330" lon="6.17587170"><ele>659.599976</ele><time>2007-04-09T13:39:34Z</time></trkpt>
<trkpt lat="46.01229330" lon="6.17587170"><ele>659.599976</ele><time>2007-04-09T13:39:36Z</time></trkpt>
<trkpt lat="46.01229330" lon="6.17587170"><ele>659.599976</ele><time>2007-04-09T13:39:38Z</time></trkpt>
<trkpt lat="46.01229330" lon="6.17587170"><ele>659.599976</ele><time>2007-04-09T13:39:40Z</time></trkpt>
<trkpt lat="46.01229330" lon="6.17587170"><ele>659.599976</ele><time>2007-04-09T13:39:42Z</time></trkpt>
<trkpt lat="46.01229330" lon="6.17587170"><ele>659.599976</ele><time>2007-04-09T13:39:44Z</time></trkpt>
<trkpt lat="46.01229330" lon="6.17587170"><ele>659.599976</ele><time>2007-04-09T13:39:46Z</time></trkpt>
<trkpt lat="46.01229330" lon="6.17587170"><ele>659.599976</ele><time>2007-04-09T13:39:48Z</time></trkpt>
<trkpt lat="46.01229330" lon="6.17587170"><ele>659.599976</ele><time>2007-04-09T13:39:50Z</time></trkpt>
<trkpt lat="46.01229330" lon="6.17587170"><ele>659.599976</ele><time>2007-04-09T13:39:52Z</time></trkpt>
<trkpt lat="46.01229330" lon="6.17587170"><ele>659.599976</ele><time>2007-04-09T13:39:54Z</time></trkpt>
<trkpt lat="46.01229330" lon="6.17587170"><ele>659.599976</ele><time>2007-04-09T13:39:56Z</time></trkpt>
<trkpt lat="46.01229330" lon="6.17587170"><ele>659.599976</ele><time>2007-04-09T13:39:58Z</time></trkpt>
<trkpt lat="46.01229330" lon="6.17587170"><ele>659.599976</ele><time>2007-04-09T13:40:00Z</time></trkpt>
<trkpt lat="46.01229330" lon="6.17587170"><ele>659.599976</ele><time>2007-04-09T13:40:02Z</time></trkpt>
<trkpt lat="46.01229330" lon="6.17587170"><ele>659.599976</ele><time>2007-04-09T13:40:04Z</time></trkpt>
<trkpt lat="46.01229330" lon="6.17587170"><ele>659.599976</ele><time>2007-04-09T13:40:06Z</time></trkpt>
<trkpt lat="46.01229330" lon="6.17587170"><ele>659.599976</ele><time>2007-04-09T13:40:08Z</time></trkpt>
<trkpt lat="46.01229330" lon="6.17587170"><ele>659.599976</ele><time>2007-04-09T13:40:10Z</time></trkpt>
<trkpt lat="46.01229330" lon="6.17587170"><ele>659.599976</ele><time>2007-04-09T13:40:12Z</time></trkpt>
<trkpt lat="46.01229330" lon="6.17587170"><ele>659.599976</ele><time>2007-04-09T13:40:14Z</time></trkpt>
<trkpt lat="46.01229330" lon="6.17587170"><ele>659.599976</ele><time>2007-04-09T13:40:16Z</time></trkpt>
<trkpt lat="46.01229330" lon="6.17587170"><ele>659.599976</ele><time>2007-04-09T13:40:18Z</time></trkpt>
<trkpt lat="46.01229330" lon="6.17587170"><ele>659.599976</ele><time>2007-04-09T13:40:20Z</time></trkpt>
<trkpt lat="46.01229330" lon="6.17587170"><ele>659.599976</ele><time>2007-04-09T13:40:22Z</time></trkpt>
<trkpt lat="46.01229330" lon="6.17587170"><ele>659.599976</ele><time>2007-04-09T13:40:24Z</time></trkpt>
<trkpt lat="46.01229330" lon="6.17587170"><ele>659.599976</ele><time>2007-04-09T13:40:26Z</time></trkpt>
<trkpt lat="46.01229330" lon="6.17587170"><ele>659.599976</ele><time>2007-04-09T13:40:28Z</time></trkpt>
<trkpt lat="46.01229330" lon="6.17587170"><ele>659.599976</ele><time>2007-04-09T13:40:30Z</time></trkpt>
<trkpt lat="46.01229330" lon="6.17587170"><ele>659.599976</ele><time>2007-04-09T13:40:32Z</time></trkpt>
<trkpt lat="46.01229330" lon="6.17587170"><ele>659.599976</ele><time>2007-04-09T13:40:34Z</time></trkpt>
<trkpt lat="46.01229330" lon="6.17587170"><ele>659.599976</ele><time>2007-04-09T13:40:36Z</time></trkpt>
<trkpt lat="46.01229330" lon="6.17587170"><ele>659.599976</ele><time>2007-04-09T13:40:38Z</time></trkpt>
<trkpt lat="46.01229330" lon="6.17587170"><ele>659.599976</ele><time>2007-04-09T13:40:40Z</time></trkpt>
<trkpt lat="46.01229330" lon="6.17587170"><ele>659.599976</ele><time>2007-04-09T13:40:42Z</time></trkpt>
<trkpt lat="46.01229330" lon="6.17587170"><ele>659.599976</ele><time>2007-04-09T13:40:44Z</time></trkpt>
<trkpt lat="46.01229330" lon="6.17587170"><ele>659.599976</ele><time>2007-04-09T13:40:46Z</time></trkpt>
<trkpt lat="46.01229330" lon="6.17587170"><ele>659.599976</ele><time>2007-04-09T13:40:48Z</time></trkpt>
<trkpt lat="46.01242170" lon="6.17585500"><ele>643.900024</ele><time>2007-04-09T13:40:50Z</time></trkpt>
<trkpt lat="46.01238000" lon="6.17582500"><ele>644.700012</ele><time>2007-04-09T13:40:52Z</time></trkpt>
<trkpt lat="46.01230000" lon="6.17580170"><ele>645.200012</ele><time>2007-04-09T13:40:54Z</time></trkpt>
<trkpt lat="46.01219170" lon="6.17575670"><ele>645.299988</ele><time>2007-04-09T13:40:56Z</time></trkpt>
<trkpt lat="46.01207170" lon="6.17563670"><ele>645</ele><time>2007-04-09T13:40:58Z</time></trkpt>
<trkpt lat="46.01196670" lon="6.17549830"><ele>645.599976</ele><time>2007-04-09T13:41:00Z</time></trkpt>
<trkpt lat="46.01186670" lon="6.17537670"><ele>645.700012</ele><time>2007-04-09T13:41:02Z</time></trkpt>
<trkpt lat="46.01177670" lon="6.17526330"><ele>646.099976</ele><time>2007-04-09T13:41:04Z</time></trkpt>
<trkpt lat="46.01168330" lon="6.17515830"><ele>647.599976</ele><time>2007-04-09T13:41:06Z</time></trkpt>
<trkpt lat="46.01159670" lon="6.17506000"><ele>648.900024</ele><time>2007-04-09T13:41:08Z</time></trkpt>
<trkpt lat="46.01151500" lon="6.17496830"><ele>649.900024</ele><time>2007-04-09T13:41:10Z</time></trkpt>
<trkpt lat="46.01144000" lon="6.17487500"><ele>650.299988</ele><time>2007-04-09T13:41:12Z</time></trkpt>
<trkpt lat="46.01136670" lon="6.17478670"><ele>650.599976</ele><time>2007-04-09T13:41:14Z</time></trkpt>
<trkpt lat="46.01130330" lon="6.17469500"><ele>651.900024</ele><time>2007-04-09T13:41:16Z</time></trkpt>
<trkpt lat="46.01124330" lon="6.17460670"><ele>653.299988</ele><time>2007-04-09T13:41:18Z</time></trkpt>
<trkpt lat="46.01117830" lon="6.17452000"><ele>655</ele><time>2007-04-09T13:41:20Z</time></trkpt>
<trkpt lat="46.01111670" lon="6.17443170"><ele>656.700012</ele><time>2007-04-09T13:41:22Z</time></trkpt>
<trkpt lat="46.01105670" lon="6.17434500"><ele>657.900024</ele><time>2007-04-09T13:41:24Z</time></trkpt>
<trkpt lat="46.01099000" lon="6.17425830"><ele>658.5</ele><time>2007-04-09T13:41:26Z</time></trkpt>
<trkpt lat="46.01092000" lon="6.17417330"><ele>658</ele><time>2007-04-09T13:41:28Z</time></trkpt>
<trkpt lat="46.01085170" lon="6.17408500"><ele>658.599976</ele><time>2007-04-09T13:41:30Z</time></trkpt>
<trkpt lat="46.01079000" lon="6.17400170"><ele>660.099976</ele><time>2007-04-09T13:41:32Z</time></trkpt>
<trkpt lat="46.01072500" lon="6.17391000"><ele>661.5</ele><time>2007-04-09T13:41:34Z</time></trkpt>
<trkpt lat="46.01065500" lon="6.17382330"><ele>662.099976</ele><time>2007-04-09T13:41:36Z</time></trkpt>
<trkpt lat="46.01058830" lon="6.17374330"><ele>662</ele><time>2007-04-09T13:41:38Z</time></trkpt>
<trkpt lat="46.01052830" lon="6.17366000"><ele>661.799988</ele><time>2007-04-09T13:41:40Z</time></trkpt>
<trkpt lat="46.01046170" lon="6.17357830"><ele>662.700012</ele><time>2007-04-09T13:41:42Z</time></trkpt>
<trkpt lat="46.01040170" lon="6.17350330"><ele>662.599976</ele><time>2007-04-09T13:41:44Z</time></trkpt>
<trkpt lat="46.01034330" lon="6.17342670"><ele>662.599976</ele><time>2007-04-09T13:41:46Z</time></trkpt>
<trkpt lat="46.01028670" lon="6.17335170"><ele>662.5</ele><time>2007-04-09T13:41:48Z</time></trkpt>
<trkpt lat="46.01023000" lon="6.17327830"><ele>662.599976</ele><time>2007-04-09T13:41:50Z</time></trkpt>
<trkpt lat="46.01017670" lon="6.17320000"><ele>662.599976</ele><time>2007-04-09T13:41:52Z</time></trkpt>
<trkpt lat="46.01012670" lon="6.17312170"><ele>662.700012</ele><time>2007-04-09T13:41:54Z</time></trkpt>
<trkpt lat="46.01007830" lon="6.17303670"><ele>662.799988</ele><time>2007-04-09T13:41:56Z</time></trkpt>
<trkpt lat="46.01003000" lon="6.17295170"><ele>663.099976</ele><time>2007-04-09T13:41:58Z</time></trkpt>
<trkpt lat="46.00998330" lon="6.17286670"><ele>663.5</ele><time>2007-04-09T13:42:00Z</time></trkpt>
<trkpt lat="46.00993500" lon="6.17277830"><ele>664.700012</ele><time>2007-04-09T13:42:02Z</time></trkpt>
<trkpt lat="46.00989500" lon="6.17268330"><ele>665.700012</ele><time>2007-04-09T13:42:04Z</time></trkpt>
<trkpt lat="46.00986330" lon="6.17258830"><ele>666.299988</ele><time>2007-04-09T13:42:06Z</time></trkpt>
<trkpt lat="46.00983330" lon="6.17249330"><ele>666.700012</ele><time>2007-04-09T13:42:08Z</time></trkpt>
<trkpt lat="46.00980330" lon="6.17239670"><ele>667.400024</ele><time>2007-04-09T13:42:10Z</time></trkpt>
<trkpt lat="46.00977500" lon="6.17229830"><ele>668.299988</ele><time>2007-04-09T13:42:12Z</time></trkpt>
<trkpt lat="46.00974830" lon="6.17220000"><ele>669.099976</ele><time>2007-04-09T13:42:14Z</time></trkpt>
<trkpt lat="46.00972330" lon="6.17209830"><ele>669.599976</ele><time>2007-04-09T13:42:16Z</time></trkpt>
<trkpt lat="46.00969830" lon="6.17199500"><ele>669.5</ele><time>2007-04-09T13:42:18Z</time></trkpt>
<trkpt lat="46.00967830" lon="6.17188830"><ele>669.900024</ele><time>2007-04-09T13:42:20Z</time></trkpt>
<trkpt lat="46.00966170" lon="6.17177170"><ele>670.299988</ele><time>2007-04-09T13:42:22Z</time></trkpt>
<trkpt lat="46.00965170" lon="6.17165000"><ele>670.599976</ele><time>2007-04-09T13:42:24Z</time></trkpt>
<trkpt lat="46.00964170" lon="6.17152330"><ele>670.5</ele><time>2007-04-09T13:42:26Z</time></trkpt>
<trkpt lat="46.00963330" lon="6.17139330"><ele>670.900024</ele><time>2007-04-09T13:42:28Z</time></trkpt>
<trkpt lat="46.00962670" lon="6.17126170"><ele>671.200012</ele><time>2007-04-09T13:42:30Z</time></trkpt>
<trkpt lat="46.00962330" lon="6.17112830"><ele>671</ele><time>2007-04-09T13:42:32Z</time></trkpt>
<trkpt lat="46.00961330" lon="6.17099000"><ele>670.799988</ele><time>2007-04-09T13:42:34Z</time></trkpt>
<trkpt lat="46.00960000" lon="6.17084500"><ele>670.400024</ele><time>2007-04-09T13:42:36Z</time></trkpt>
<trkpt lat="46.00959330" lon="6.17069500"><ele>669.5</ele><time>2007-04-09T13:42:38Z</time></trkpt>
<trkpt lat="46.00960670" lon="6.17054170"><ele>668.299988</ele><time>2007-04-09T13:42:40Z</time></trkpt>
<trkpt lat="46.00968330" lon="6.17044000"><ele>667.400024</ele><time>2007-04-09T13:42:42Z</time></trkpt>
<trkpt lat="46.00978670" lon="6.17042000"><ele>667</ele><time>2007-04-09T13:42:44Z</time></trkpt>
<trkpt lat="46.00989000" lon="6.17040500"><ele>667.200012</ele><time>2007-04-09T13:42:46Z</time></trkpt>
<trkpt lat="46.00998170" lon="6.17039000"><ele>667.299988</ele><time>2007-04-09T13:42:48Z</time></trkpt>
<trkpt lat="46.01006830" lon="6.17037670"><ele>667.599976</ele><time>2007-04-09T13:42:50Z</time></trkpt>
<trkpt lat="46.01014830" lon="6.17036330"><ele>668.400024</ele><time>2007-04-09T13:42:52Z</time></trkpt>
<trkpt lat="46.01022330" lon="6.17035330"><ele>669.400024</ele><time>2007-04-09T13:42:54Z</time></trkpt>
<trkpt lat="46.01029500" lon="6.17034330"><ele>669.900024</ele><time>2007-04-09T13:42:56Z</time></trkpt>
<trkpt lat="46.01036830" lon="6.17033670"><ele>670.299988</ele><time>2007-04-09T13:42:58Z</time></trkpt>
<trkpt lat="46.01044500" lon="6.17032670"><ele>670.900024</ele><time>2007-04-09T13:43:00Z</time></trkpt>
<trkpt lat="46.01052000" lon="6.17031330"><ele>671.599976</ele><time>2007-04-09T13:43:02Z</time></trkpt>
<trkpt lat="46.01059330" lon="6.17030170"><ele>672.200012</ele><time>2007-04-09T13:43:04Z</time></trkpt>
<trkpt lat="46.01066670" lon="6.17028830"><ele>673</ele><time>2007-04-09T13:43:06Z</time></trkpt>
<trkpt lat="46.01073830" lon="6.17027670"><ele>673.700012</ele><time>2007-04-09T13:43:08Z</time></trkpt>
<trkpt lat="46.01081170" lon="6.17026170"><ele>674.599976</ele><time>2007-04-09T13:43:10Z</time></trkpt>
<trkpt lat="46.01088330" lon="6.17025000"><ele>675.5</ele><time>2007-04-09T13:43:12Z</time></trkpt>
<trkpt lat="46.01095500" lon="6.17023830"><ele>676.200012</ele><time>2007-04-09T13:43:14Z</time></trkpt>
<trkpt lat="46.01102670" lon="6.17022830"><ele>676.799988</ele><time>2007-04-09T13:43:16Z</time></trkpt>
<trkpt lat="46.01110000" lon="6.17021670"><ele>677.299988</ele><time>2007-04-09T13:43:18Z</time></trkpt>
<trkpt lat="46.01117500" lon="6.17020670"><ele>677.799988</ele><time>2007-04-09T13:43:20Z</time></trkpt>
<trkpt lat="46.01124830" lon="6.17019330"><ele>678.299988</ele><time>2007-04-09T13:43:22Z</time></trkpt>
<trkpt lat="46.01132170" lon="6.17017830"><ele>678.900024</ele><time>2007-04-09T13:43:24Z</time></trkpt>
<trkpt lat="46.01139500" lon="6.17016670"><ele>679.299988</ele><time>2007-04-09T13:43:26Z</time></trkpt>
<trkpt lat="46.01147170" lon="6.17015670"><ele>679.700012</ele><time>2007-04-09T13:43:28Z</time></trkpt>
<trkpt lat="46.01155000" lon="6.17014500"><ele>680</ele><time>2007-04-09T13:43:30Z</time></trkpt>
<trkpt lat="46.01163000" lon="6.17012830"><ele>680.299988</ele><time>2007-04-09T13:43:32Z</time></trkpt>
<trkpt lat="46.01171330" lon="6.17011330"><ele>680.700012</ele><time>2007-04-09T13:43:34Z</time></trkpt>
<trkpt lat="46.01180000" lon="6.17009670"><ele>681.200012</ele><time>2007-04-09T13:43:36Z</time></trkpt>
<trkpt lat="46.01189000" lon="6.17008170"><ele>681.5</ele><time>2007-04-09T13:43:38Z</time></trkpt>
<trkpt lat="46.01198500" lon="6.17006670"><ele>681.700012</ele><time>2007-04-09T13:43:40Z</time></trkpt>
<trkpt lat="46.01208500" lon="6.17006000"><ele>681.700012</ele><time>2007-04-09T13:43:42Z</time></trkpt>
<trkpt lat="46.01218830" lon="6.17005670"><ele>682</ele><time>2007-04-09T13:43:44Z</time></trkpt>
<trkpt lat="46.01229500" lon="6.17005830"><ele>682</ele><time>2007-04-09T13:43:46Z</time></trkpt>
<trkpt lat="46.01240170" lon="6.17006500"><ele>682.400024</ele><time>2007-04-09T13:43:48Z</time></trkpt>
<trkpt lat="46.01250830" lon="6.17007830"><ele>682.700012</ele><time>2007-04-09T13:43:50Z</time></trkpt>
<trkpt lat="46.01261000" lon="6.17009830"><ele>683.099976</ele><time>2007-04-09T13:43:52Z</time></trkpt>
<trkpt lat="46.01271000" lon="6.17012670"><ele>683.700012</ele><time>2007-04-09T13:43:54Z</time></trkpt>
<trkpt lat="46.01280500" lon="6.17016170"><ele>684.299988</ele><time>2007-04-09T13:43:56Z</time></trkpt>
<trkpt lat="46.01289830" lon="6.17019830"><ele>685.099976</ele><time>2007-04-09T13:43:58Z</time></trkpt>
<trkpt lat="46.01298330" lon="6.17024330"><ele>686.099976</ele><time>2007-04-09T13:44:00Z</time></trkpt>
<trkpt lat="46.01306330" lon="6.17029670"><ele>687.200012</ele><time>2007-04-09T13:44:02Z</time></trkpt>
<trkpt lat="46.01314330" lon="6.17034670"><ele>688.299988</ele><time>2007-04-09T13:44:04Z</time></trkpt>
<trkpt lat="46.01322170" lon="6.17040170"><ele>689.200012</ele><time>2007-04-09T13:44:06Z</time></trkpt>
<trkpt lat="46.01330170" lon="6.17045670"><ele>689.799988</ele><time>2007-04-09T13:44:08Z</time></trkpt>
<trkpt lat="46.01338000" lon="6.17051170"><ele>690.599976</ele><time>2007-04-09T13:44:10Z</time></trkpt>
<trkpt lat="46.01345670" lon="6.17056170"><ele>691.5</ele><time>2007-04-09T13:44:12Z</time></trkpt>
<trkpt lat="46.01353000" lon="6.17061170"><ele>692.299988</ele><time>2007-04-09T13:44:14Z</time></trkpt>
<trkpt lat="46.01360000" lon="6.17065830"><ele>693</ele><time>2007-04-09T13:44:16Z</time></trkpt>
<trkpt lat="46.01366670" lon="6.17070830"><ele>693.799988</ele><time>2007-04-09T13:44:18Z</time></trkpt>
<trkpt lat="46.01373670" lon="6.17075500"><ele>694.5</ele><time>2007-04-09T13:44:20Z</time></trkpt>
<trkpt lat="46.01380330" lon="6.17079670"><ele>695</ele><time>2007-04-09T13:44:22Z</time></trkpt>
<trkpt lat="46.01386830" lon="6.17084000"><ele>695.5</ele><time>2007-04-09T13:44:24Z</time></trkpt>
<trkpt lat="46.01393330" lon="6.17088670"><ele>696.099976</ele><time>2007-04-09T13:44:26Z</time></trkpt>
<trkpt lat="46.01399830" lon="6.17093170"><ele>696.700012</ele><time>2007-04-09T13:44:28Z</time></trkpt>
<trkpt lat="46.01406670" lon="6.17097500"><ele>697.200012</ele><time>2007-04-09T13:44:30Z</time></trkpt>
<trkpt lat="46.01413330" lon="6.17101670"><ele>697.799988</ele><time>2007-04-09T13:44:32Z</time></trkpt>
<trkpt lat="46.01419830" lon="6.17106170"><ele>698.400024</ele><time>2007-04-09T13:44:34Z</time></trkpt>
<trkpt lat="46.01426170" lon="6.17110670"><ele>699</ele><time>2007-04-09T13:44:36Z</time></trkpt>
<trkpt lat="46.01432670" lon="6.17115000"><ele>699.5</ele><time>2007-04-09T13:44:38Z</time></trkpt>
<trkpt lat="46.01439170" lon="6.17119330"><ele>700</ele><time>2007-04-09T13:44:40Z</time></trkpt>
<trkpt lat="46.01445500" lon="6.17123500"><ele>700.5</ele><time>2007-04-09T13:44:42Z</time></trkpt>
<trkpt lat="46.01451830" lon="6.17127670"><ele>701</ele><time>2007-04-09T13:44:44Z</time></trkpt>
<trkpt lat="46.01458170" lon="6.17132000"><ele>701.5</ele><time>2007-04-09T13:44:46Z</time></trkpt>
<trkpt lat="46.01464500" lon="6.17136330"><ele>702</ele><time>2007-04-09T13:44:48Z</time></trkpt>
<trkpt lat="46.01470500" lon="6.17140670"><ele>702.599976</ele><time>2007-04-09T13:44:50Z</time></trkpt>
<trkpt lat="46.01476670" lon="6.17144830"><ele>703.200012</ele><time>2007-04-09T13:44:52Z</time></trkpt>
<trkpt lat="46.01482830" lon="6.17148830"><ele>703.700012</ele><time>2007-04-09T13:44:54Z</time></trkpt>
<trkpt lat="46.01489000" lon="6.17153170"><ele>704.299988</ele><time>2007-04-09T13:44:56Z</time></trkpt>
<trkpt lat="46.01494830" lon="6.17157170"><ele>704.799988</ele><time>2007-04-09T13:44:58Z</time></trkpt>
<trkpt lat="46.01500830" lon="6.17161670"><ele>705</ele><time>2007-04-09T13:45:00Z</time></trkpt>
<trkpt lat="46.01507170" lon="6.17165670"><ele>705.5</ele><time>2007-04-09T13:45:02Z</time></trkpt>
<trkpt lat="46.01513170" lon="6.17169670"><ele>705.799988</ele><time>2007-04-09T13:45:04Z</time></trkpt>
<trkpt lat="46.01519000" lon="6.17174000"><ele>706</ele><time>2007-04-09T13:45:06Z</time></trkpt>
<trkpt lat="46.01525330" lon="6.17178170"><ele>706</ele><time>2007-04-09T13:45:08Z</time></trkpt>
<trkpt lat="46.01531670" lon="6.17182170"><ele>706.5</ele><time>2007-04-09T13:45:10Z</time></trkpt>
<trkpt lat="46.01538170" lon="6.17185670"><ele>706.900024</ele><time>2007-04-09T13:45:12Z</time></trkpt>
<trkpt lat="46.01545000" lon="6.17188500"><ele>707.5</ele><time>2007-04-09T13:45:14Z</time></trkpt>
<trkpt lat="46.01551500" lon="6.17190670"><ele>708.099976</ele><time>2007-04-09T13:45:16Z</time></trkpt>
<trkpt lat="46.01558170" lon="6.17192000"><ele>708.700012</ele><time>2007-04-09T13:45:18Z</time></trkpt>
<trkpt lat="46.01565000" lon="6.17193170"><ele>709.5</ele><time>2007-04-09T13:45:20Z</time></trkpt>
<trkpt lat="46.01571830" lon="6.17193670"><ele>709.900024</ele><time>2007-04-09T13:45:22Z</time></trkpt>
<trkpt lat="46.01578830" lon="6.17194000"><ele>710.5</ele><time>2007-04-09T13:45:24Z</time></trkpt>
<trkpt lat="46.01585670" lon="6.17193170"><ele>711</ele><time>2007-04-09T13:45:26Z</time></trkpt>
<trkpt lat="46.01592500" lon="6.17191330"><ele>711.400024</ele><time>2007-04-09T13:45:28Z</time></trkpt>
<trkpt lat="46.01599170" lon="6.17188830"><ele>711.799988</ele><time>2007-04-09T13:45:30Z</time></trkpt>
<trkpt lat="46.01605500" lon="6.17185830"><ele>712.099976</ele><time>2007-04-09T13:45:32Z</time></trkpt>
<trkpt lat="46.01611830" lon="6.17182000"><ele>712.299988</ele><time>2007-04-09T13:45:34Z</time></trkpt>
<trkpt lat="46.01618000" lon="6.17177670"><ele>712.599976</ele><time>2007-04-09T13:45:36Z</time></trkpt>
<trkpt lat="46.01624170" lon="6.17172830"><ele>712.799988</ele><time>2007-04-09T13:45:38Z</time></trkpt>
<trkpt lat="46.01630000" lon="6.17167500"><ele>713.099976</ele><time>2007-04-09T13:45:40Z</time></trkpt>
<trkpt lat="46.01635330" lon="6.17162000"><ele>713.400024</ele><time>2007-04-09T13:45:42Z</time></trkpt>
<trkpt lat="46.01639830" lon="6.17156670"><ele>713.700012</ele><time>2007-04-09T13:45:44Z</time></trkpt>
<trkpt lat="46.01644330" lon="6.17151170"><ele>714.200012</ele><time>2007-04-09T13:45:46Z</time></trkpt>
<trkpt lat="46.01648670" lon="6.17144670"><ele>715</ele><time>2007-04-09T13:45:48Z</time></trkpt>
<trkpt lat="46.01653000" lon="6.17137830"><ele>716.299988</ele><time>2007-04-09T13:45:50Z</time></trkpt>
<trkpt lat="46.01657000" lon="6.17130500"><ele>717.900024</ele><time>2007-04-09T13:45:52Z</time></trkpt>
<trkpt lat="46.01659670" lon="6.17122670"><ele>719.599976</ele><time>2007-04-09T13:45:54Z</time></trkpt>
<trkpt lat="46.01661330" lon="6.17114500"><ele>721.599976</ele><time>2007-04-09T13:45:56Z</time></trkpt>
<trkpt lat="46.01663670" lon="6.17105670"><ele>722.700012</ele><time>2007-04-09T13:45:58Z</time></trkpt>
<trkpt lat="46.01665170" lon="6.17097000"><ele>724.400024</ele><time>2007-04-09T13:46:00Z</time></trkpt>
<trkpt lat="46.01666330" lon="6.17088000"><ele>725.799988</ele><time>2007-04-09T13:46:02Z</time></trkpt>
<trkpt lat="46.01666830" lon="6.17079000"><ele>726.700012</ele><time>2007-04-09T13:46:04Z</time></trkpt>
<trkpt lat="46.01667670" lon="6.17070170"><ele>727.5</ele><time>2007-04-09T13:46:06Z</time></trkpt>
<trkpt lat="46.01668170" lon="6.17061170"><ele>728.400024</ele><time>2007-04-09T13:46:08Z</time></trkpt>
<trkpt lat="46.01668170" lon="6.17052330"><ele>729.099976</ele><time>2007-04-09T13:46:10Z</time></trkpt>
<trkpt lat="46.01668000" lon="6.17043830"><ele>730.200012</ele><time>2007-04-09T13:46:12Z</time></trkpt>
<trkpt lat="46.01667500" lon="6.17035500"><ele>731.099976</ele><time>2007-04-09T13:46:14Z</time></trkpt>
<trkpt lat="46.01666500" lon="6.17027000"><ele>732</ele><time>2007-04-09T13:46:16Z</time></trkpt>
<trkpt lat="46.01665670" lon="6.17018670"><ele>732.700012</ele><time>2007-04-09T13:46:18Z</time></trkpt>
<trkpt lat="46.01664670" lon="6.17010500"><ele>733.200012</ele><time>2007-04-09T13:46:20Z</time></trkpt>
<trkpt lat="46.01663330" lon="6.17002170"><ele>733.799988</ele><time>2007-04-09T13:46:22Z</time></trkpt>
<trkpt lat="46.01661830" lon="6.16994000"><ele>734.700012</ele><time>2007-04-09T13:46:24Z</time></trkpt>
<trkpt lat="46.01660330" lon="6.16985830"><ele>735.400024</ele><time>2007-04-09T13:46:26Z</time></trkpt>
<trkpt lat="46.01659000" lon="6.16977330"><ele>736.299988</ele><time>2007-04-09T13:46:28Z</time></trkpt>
<trkpt lat="46.01658000" lon="6.16968830"><ele>737</ele><time>2007-04-09T13:46:30Z</time></trkpt>
<trkpt lat="46.01657170" lon="6.16960330"><ele>737.700012</ele><time>2007-04-09T13:46:32Z</time></trkpt>
<trkpt lat="46.01657330" lon="6.16951670"><ele>738.099976</ele><time>2007-04-09T13:46:34Z</time></trkpt>
<trkpt lat="46.01658830" lon="6.16943170"><ele>738.5</ele><time>2007-04-09T13:46:36Z</time></trkpt>
<trkpt lat="46.01662000" lon="6.16935500"><ele>738.599976</ele><time>2007-04-09T13:46:38Z</time></trkpt>
<trkpt lat="46.01666330" lon="6.16929000"><ele>738.799988</ele><time>2007-04-09T13:46:40Z</time></trkpt>
<trkpt lat="46.01671330" lon="6.16924000"><ele>738.900024</ele><time>2007-04-09T13:46:42Z</time></trkpt>
<trkpt lat="46.01677170" lon="6.16921670"><ele>739</ele><time>2007-04-09T13:46:44Z</time></trkpt>
<trkpt lat="46.01683170" lon="6.16921170"><ele>739.599976</ele><time>2007-04-09T13:46:46Z</time></trkpt>
<trkpt lat="46.01688670" lon="6.16922830"><ele>740.200012</ele><time>2007-04-09T13:46:48Z</time></trkpt>
<trkpt lat="46.01693830" lon="6.16926500"><ele>740.599976</ele><time>2007-04-09T13:46:50Z</time></trkpt>
<trkpt lat="46.01698670" lon="6.16931170"><ele>741.099976</ele><time>2007-04-09T13:46:52Z</time></trkpt>
<trkpt lat="46.01703000" lon="6.16936330"><ele>741.599976</ele><time>2007-04-09T13:46:54Z</time></trkpt>
<trkpt lat="46.01707170" lon="6.16941500"><ele>742.5</ele><time>2007-04-09T13:46:56Z</time></trkpt>
<trkpt lat="46.01711170" lon="6.16946330"><ele>743.200012</ele><time>2007-04-09T13:46:58Z</time></trkpt>
<trkpt lat="46.01715170" lon="6.16951000"><ele>743.799988</ele><time>2007-04-09T13:47:00Z</time></trkpt>
<trkpt lat="46.01718830" lon="6.16955830"><ele>744.400024</ele><time>2007-04-09T13:47:02Z</time></trkpt>
<trkpt lat="46.01722830" lon="6.16960330"><ele>745</ele><time>2007-04-09T13:47:04Z</time></trkpt>
<trkpt lat="46.01727000" lon="6.16964500"><ele>745.700012</ele><time>2007-04-09T13:47:06Z</time></trkpt>
<trkpt lat="46.01731330" lon="6.16969000"><ele>745.900024</ele><time>2007-04-09T13:47:08Z</time></trkpt>
<trkpt lat="46.01735670" lon="6.16972830"><ele>746.5</ele><time>2007-04-09T13:47:10Z</time></trkpt>
<trkpt lat="46.01740000" lon="6.16976830"><ele>747</ele><time>2007-04-09T13:47:12Z</time></trkpt>
<trkpt lat="46.01744000" lon="6.16980830"><ele>747.599976</ele><time>2007-04-09T13:47:14Z</time></trkpt>
<trkpt lat="46.01748170" lon="6.16984830"><ele>748.299988</ele><time>2007-04-09T13:47:16Z</time></trkpt>
<trkpt lat="46.01752330" lon="6.16988670"><ele>748.799988</ele><time>2007-04-09T13:47:18Z</time></trkpt>
<trkpt lat="46.01756670" lon="6.16992170"><ele>749.400024</ele><time>2007-04-09T13:47:20Z</time></trkpt>
<trkpt lat="46.01760830" lon="6.16996170"><ele>750</ele><time>2007-04-09T13:47:22Z</time></trkpt>
<trkpt lat="46.01765000" lon="6.16999830"><ele>750.599976</ele><time>2007-04-09T13:47:24Z</time></trkpt>
<trkpt lat="46.01769330" lon="6.17004330"><ele>750.900024</ele><time>2007-04-09T13:47:26Z</time></trkpt>
<trkpt lat="46.01773830" lon="6.17008330"><ele>751.400024</ele><time>2007-04-09T13:47:28Z</time></trkpt>
<trkpt lat="46.01778330" lon="6.17011830"><ele>751.799988</ele><time>2007-04-09T13:47:30Z</time></trkpt>
<trkpt lat="46.01782830" lon="6.17015670"><ele>752.299988</ele><time>2007-04-09T13:47:32Z</time></trkpt>
<trkpt lat="46.01787170" lon="6.17019500"><ele>752.799988</ele><time>2007-04-09T13:47:34Z</time></trkpt>
<trkpt lat="46.01791500" lon="6.17023670"><ele>753.299988</ele><time>2007-04-09T13:47:36Z</time></trkpt>
<trkpt lat="46.01795670" lon="6.17028170"><ele>753.900024</ele><time>2007-04-09T13:47:38Z</time></trkpt>
<trkpt lat="46.01799500" lon="6.17033170"><ele>754.400024</ele><time>2007-04-09T13:47:40Z</time></trkpt>
<trkpt lat="46.01803330" lon="6.17038330"><ele>754.900024</ele><time>2007-04-09T13:47:42Z</time></trkpt>
<trkpt lat="46.01807500" lon="6.17043830"><ele>755.099976</ele><time>2007-04-09T13:47:44Z</time></trkpt>
<trkpt lat="46.01811830" lon="6.17050500"><ele>754.5</ele><time>2007-04-09T13:47:46Z</time></trkpt>
<trkpt lat="46.01815000" lon="6.17058330"><ele>754.5</ele><time>2007-04-09T13:47:48Z</time></trkpt>
<trkpt lat="46.01816500" lon="6.17068000"><ele>754.599976</ele><time>2007-04-09T13:47:50Z</time></trkpt>
<trkpt lat="46.01817500" lon="6.17078670"><ele>754.599976</ele><time>2007-04-09T13:47:52Z</time></trkpt>
<trkpt lat="46.01817500" lon="6.17089830"><ele>754.599976</ele><time>2007-04-09T13:47:54Z</time></trkpt>
<trkpt lat="46.01816330" lon="6.17100500"><ele>754.5</ele><time>2007-04-09T13:47:56Z</time></trkpt>
<trkpt lat="46.01814170" lon="6.17111000"><ele>753.900024</ele><time>2007-04-09T13:47:58Z</time></trkpt>
<trkpt lat="46.01811500" lon="6.17121670"><ele>753.200012</ele><time>2007-04-09T13:48:00Z</time></trkpt>
<trkpt lat="46.01808500" lon="6.17132170"><ele>753.099976</ele><time>2007-04-09T13:48:02Z</time></trkpt>
<trkpt lat="46.01806000" lon="6.17143330"><ele>754.299988</ele><time>2007-04-09T13:48:04Z</time></trkpt>
<trkpt lat="46.01803000" lon="6.17154500"><ele>754.099976</ele><time>2007-04-09T13:48:06Z</time></trkpt>
<trkpt lat="46.01801170" lon="6.17167170"><ele>754</ele><time>2007-04-09T13:48:08Z</time></trkpt>
<trkpt lat="46.01800000" lon="6.17180330"><ele>753.599976</ele><time>2007-04-09T13:48:10Z</time></trkpt>
<trkpt lat="46.01800000" lon="6.17193170"><ele>753.400024</ele><time>2007-04-09T13:48:12Z</time></trkpt>
<trkpt lat="46.01801000" lon="6.17205670"><ele>753.200012</ele><time>2007-04-09T13:48:14Z</time></trkpt>
<trkpt lat="46.01803500" lon="6.17217670"><ele>752.900024</ele><time>2007-04-09T13:48:16Z</time></trkpt>
<trkpt lat="46.01807170" lon="6.17229330"><ele>752.700012</ele><time>2007-04-09T13:48:18Z</time></trkpt>
<trkpt lat="46.01811170" lon="6.17240830"><ele>752.200012</ele><time>2007-04-09T13:48:20Z</time></trkpt>
<trkpt lat="46.01814670" lon="6.17252330"><ele>752</ele><time>2007-04-09T13:48:22Z</time></trkpt>
<trkpt lat="46.01818000" lon="6.17263830"><ele>752.099976</ele><time>2007-04-09T13:48:24Z</time></trkpt>
<trkpt lat="46.01821000" lon="6.17275670"><ele>752.099976</ele><time>2007-04-09T13:48:26Z</time></trkpt>
<trkpt lat="46.01824000" lon="6.17288170"><ele>752.200012</ele><time>2007-04-09T13:48:28Z</time></trkpt>
<trkpt lat="46.01825830" lon="6.17301170"><ele>752.200012</ele><time>2007-04-09T13:48:30Z</time></trkpt>
<trkpt lat="46.01826500" lon="6.17314330"><ele>752.400024</ele><time>2007-04-09T13:48:32Z</time></trkpt>
<trkpt lat="46.01826830" lon="6.17327170"><ele>752.700012</ele><time>2007-04-09T13:48:34Z</time></trkpt>
<trkpt lat="46.01827000" lon="6.17340170"><ele>752.799988</ele><time>2007-04-09T13:48:36Z</time></trkpt>
<trkpt lat="46.01827500" lon="6.17353000"><ele>753</ele><time>2007-04-09T13:48:38Z</time></trkpt>
<trkpt lat="46.01828670" lon="6.17365170"><ele>753.400024</ele><time>2007-04-09T13:48:40Z</time></trkpt>
<trkpt lat="46.01831000" lon="6.17376830"><ele>753.900024</ele><time>2007-04-09T13:48:42Z</time></trkpt>
<trkpt lat="46.01834830" lon="6.17387670"><ele>754.200012</ele><time>2007-04-09T13:48:44Z</time></trkpt>
<trkpt lat="46.01840330" lon="6.17397170"><ele>754.299988</ele><time>2007-04-09T13:48:46Z</time></trkpt>
<trkpt lat="46.01846670" lon="6.17406170"><ele>753.700012</ele><time>2007-04-09T13:48:48Z</time></trkpt>
<trkpt lat="46.01853170" lon="6.17415670"><ele>753.5</ele><time>2007-04-09T13:48:50Z</time></trkpt>
<trkpt lat="46.01859000" lon="6.17425830"><ele>753.599976</ele><time>2007-04-09T13:48:52Z</time></trkpt>
<trkpt lat="46.01862830" lon="6.17437000"><ele>753.799988</ele><time>2007-04-09T13:48:54Z</time></trkpt>
<trkpt lat="46.01863830" lon="6.17448500"><ele>754</ele><time>2007-04-09T13:48:56Z</time></trkpt>
<trkpt lat="46.01862500" lon="6.17459330"><ele>754.400024</ele><time>2007-04-09T13:48:58Z</time></trkpt>
<trkpt lat="46.01859170" lon="6.17469330"><ele>754.700012</ele><time>2007-04-09T13:49:00Z</time></trkpt>
<trkpt lat="46.01855830" lon="6.17479500"><ele>755.099976</ele><time>2007-04-09T13:49:02Z</time></trkpt>
<trkpt lat="46.01853500" lon="6.17490500"><ele>755.599976</ele><time>2007-04-09T13:49:04Z</time></trkpt>
<trkpt lat="46.01852830" lon="6.17502170"><ele>755.799988</ele><time>2007-04-09T13:49:06Z</time></trkpt>
<trkpt lat="46.01854330" lon="6.17513500"><ele>755.799988</ele><time>2007-04-09T13:49:08Z</time></trkpt>
<trkpt lat="46.01858670" lon="6.17523500"><ele>755.700012</ele><time>2007-04-09T13:49:10Z</time></trkpt>
<trkpt lat="46.01864670" lon="6.17532000"><ele>755.599976</ele><time>2007-04-09T13:49:12Z</time></trkpt>
<trkpt lat="46.01871170" lon="6.17540330"><ele>755.700012</ele><time>2007-04-09T13:49:14Z</time></trkpt>
<trkpt lat="46.01876830" lon="6.17549000"><ele>756</ele><time>2007-04-09T13:49:16Z</time></trkpt>
<trkpt lat="46.01881170" lon="6.17557830"><ele>756</ele><time>2007-04-09T13:49:18Z</time></trkpt>
<trkpt lat="46.01884170" lon="6.17567670"><ele>756.299988</ele><time>2007-04-09T13:49:20Z</time></trkpt>
<trkpt lat="46.01886330" lon="6.17578830"><ele>756.5</ele><time>2007-04-09T13:49:22Z</time></trkpt>
<trkpt lat="46.01887500" lon="6.17590500"><ele>757.200012</ele><time>2007-04-09T13:49:24Z</time></trkpt>
<trkpt lat="46.01889330" lon="6.17602670"><ele>757.599976</ele><time>2007-04-09T13:49:26Z</time></trkpt>
<trkpt lat="46.01892330" lon="6.17614170"><ele>757.700012</ele><time>2007-04-09T13:49:28Z</time></trkpt>
<trkpt lat="46.01896330" lon="6.17624830"><ele>758.099976</ele><time>2007-04-09T13:49:30Z</time></trkpt>
<trkpt lat="46.01901000" lon="6.17634170"><ele>758.599976</ele><time>2007-04-09T13:49:32Z</time></trkpt>
<trkpt lat="46.01905670" lon="6.17643670"><ele>759.099976</ele><time>2007-04-09T13:49:34Z</time></trkpt>
<trkpt lat="46.01910330" lon="6.17653170"><ele>759.200012</ele><time>2007-04-09T13:49:36Z</time></trkpt>
<trkpt lat="46.01915330" lon="6.17662670"><ele>759.400024</ele><time>2007-04-09T13:49:38Z</time></trkpt>
<trkpt lat="46.01920000" lon="6.17672000"><ele>759.599976</ele><time>2007-04-09T13:49:40Z</time></trkpt>
<trkpt lat="46.01924500" lon="6.17681170"><ele>760</ele><time>2007-04-09T13:49:42Z</time></trkpt>
<trkpt lat="46.01928830" lon="6.17690830"><ele>760.299988</ele><time>2007-04-09T13:49:44Z</time></trkpt>
<trkpt lat="46.01933170" lon="6.17699330"><ele>761.099976</ele><time>2007-04-09T13:49:46Z</time></trkpt>
<trkpt lat="46.01937330" lon="6.17707830"><ele>762.299988</ele><time>2007-04-09T13:49:48Z</time></trkpt>
<trkpt lat="46.01942330" lon="6.17718000"><ele>762.900024</ele><time>2007-04-09T13:49:50Z</time></trkpt>
<trkpt lat="46.01948170" lon="6.17728670"><ele>763</ele><time>2007-04-09T13:49:52Z</time></trkpt>
<trkpt lat="46.01954500" lon="6.17738500"><ele>762.799988</ele><time>2007-04-09T13:49:54Z</time></trkpt>
<trkpt lat="46.01960670" lon="6.17748170"><ele>763</ele><time>2007-04-09T13:49:56Z</time></trkpt>
<trkpt lat="46.01967500" lon="6.17757170"><ele>762.900024</ele><time>2007-04-09T13:49:58Z</time></trkpt>
<trkpt lat="46.01975170" lon="6.17765000"><ele>763.200012</ele><time>2007-04-09T13:50:00Z</time></trkpt>
<trkpt lat="46.01982830" lon="6.17772330"><ele>763.400024</ele><time>2007-04-09T13:50:02Z</time></trkpt>
<trkpt lat="46.01990670" lon="6.17779330"><ele>763.5</ele><time>2007-04-09T13:50:04Z</time></trkpt>
<trkpt lat="46.01999670" lon="6.17784330"><ele>763.400024</ele><time>2007-04-09T13:50:06Z</time></trkpt>
<trkpt lat="46.02008830" lon="6.17788170"><ele>763.299988</ele><time>2007-04-09T13:50:08Z</time></trkpt>
<trkpt lat="46.02018500" lon="6.17790670"><ele>763.200012</ele><time>2007-04-09T13:50:10Z</time></trkpt>
<trkpt lat="46.02028000" lon="6.17792830"><ele>762.900024</ele><time>2007-04-09T13:50:12Z</time></trkpt>
<trkpt lat="46.02037670" lon="6.17794500"><ele>762.599976</ele><time>2007-04-09T13:50:14Z</time></trkpt>
<trkpt lat="46.02047330" lon="6.17796170"><ele>762.400024</ele><time>2007-04-09T13:50:16Z</time></trkpt>
<trkpt lat="46.02056670" lon="6.17797670"><ele>762.400024</ele><time>2007-04-09T13:50:18Z</time></trkpt>
<trkpt lat="46.02066000" lon="6.17799500"><ele>762.200012</ele><time>2007-04-09T13:50:20Z</time></trkpt>
<trkpt lat="46.02075000" lon="6.17801170"><ele>762.099976</ele><time>2007-04-09T13:50:22Z</time></trkpt>
<trkpt lat="46.02083830" lon="6.17803000"><ele>762</ele><time>2007-04-09T13:50:24Z</time></trkpt>
<trkpt lat="46.02092670" lon="6.17804830"><ele>762.099976</ele><time>2007-04-09T13:50:26Z</time></trkpt>
<trkpt lat="46.02101670" lon="6.17806830"><ele>762.200012</ele><time>2007-04-09T13:50:28Z</time></trkpt>
<trkpt lat="46.02110500" lon="6.17809500"><ele>762.299988</ele><time>2007-04-09T13:50:30Z</time></trkpt>
<trkpt lat="46.02119000" lon="6.17813170"><ele>762.400024</ele><time>2007-04-09T13:50:32Z</time></trkpt>
<trkpt lat="46.02127000" lon="6.17818830"><ele>762.599976</ele><time>2007-04-09T13:50:34Z</time></trkpt>
<trkpt lat="46.02134500" lon="6.17826000"><ele>763</ele><time>2007-04-09T13:50:36Z</time></trkpt>
<trkpt lat="46.02141830" lon="6.17833500"><ele>763.599976</ele><time>2007-04-09T13:50:38Z</time></trkpt>
<trkpt lat="46.02148830" lon="6.17840500"><ele>763.900024</ele><time>2007-04-09T13:50:40Z</time></trkpt>
<trkpt lat="46.02156170" lon="6.17847330"><ele>763.900024</ele><time>2007-04-09T13:50:42Z</time></trkpt>
<trkpt lat="46.02163830" lon="6.17853500"><ele>763.599976</ele><time>2007-04-09T13:50:44Z</time></trkpt>
<trkpt lat="46.02172000" lon="6.17857830"><ele>763.599976</ele><time>2007-04-09T13:50:46Z</time></trkpt>
<trkpt lat="46.02180500" lon="6.17861000"><ele>763.400024</ele><time>2007-04-09T13:50:48Z</time></trkpt>
<trkpt lat="46.02189500" lon="6.17864000"><ele>763.099976</ele><time>2007-04-09T13:50:50Z</time></trkpt>
<trkpt lat="46.02198000" lon="6.17868170"><ele>763.299988</ele><time>2007-04-09T13:50:52Z</time></trkpt>
<trkpt lat="46.02205500" lon="6.17875330"><ele>763.599976</ele><time>2007-04-09T13:50:54Z</time></trkpt>
<trkpt lat="46.02212330" lon="6.17883670"><ele>763.700012</ele><time>2007-04-09T13:50:56Z</time></trkpt>
<trkpt lat="46.02219000" lon="6.17891670"><ele>763.799988</ele><time>2007-04-09T13:50:58Z</time></trkpt>
<trkpt lat="46.02226670" lon="6.17898500"><ele>763.900024</ele><time>2007-04-09T13:51:00Z</time></trkpt>
<trkpt lat="46.02234830" lon="6.17903830"><ele>764.099976</ele><time>2007-04-09T13:51:02Z</time></trkpt>
<trkpt lat="46.02243170" lon="6.17908830"><ele>764.400024</ele><time>2007-04-09T13:51:04Z</time></trkpt>
<trkpt lat="46.02251500" lon="6.17913330"><ele>764.700012</ele><time>2007-04-09T13:51:06Z</time></trkpt>
<trkpt lat="46.02259830" lon="6.17917830"><ele>765.200012</ele><time>2007-04-09T13:51:08Z</time></trkpt>
<trkpt lat="46.02267500" lon="6.17922670"><ele>765.400024</ele><time>2007-04-09T13:51:10Z</time></trkpt>
<trkpt lat="46.02275170" lon="6.17926670"><ele>765.799988</ele><time>2007-04-09T13:51:12Z</time></trkpt>
<trkpt lat="46.02282500" lon="6.17930330"><ele>766.299988</ele><time>2007-04-09T13:51:14Z</time></trkpt>
<trkpt lat="46.02290000" lon="6.17934830"><ele>766.700012</ele><time>2007-04-09T13:51:16Z</time></trkpt>
<trkpt lat="46.02297000" lon="6.17940830"><ele>767.200012</ele><time>2007-04-09T13:51:18Z</time></trkpt>
<trkpt lat="46.02303170" lon="6.17948000"><ele>768.200012</ele><time>2007-04-09T13:51:20Z</time></trkpt>
<trkpt lat="46.02308330" lon="6.17956170"><ele>769.5</ele><time>2007-04-09T13:51:22Z</time></trkpt>
<trkpt lat="46.02312500" lon="6.17964670"><ele>770.599976</ele><time>2007-04-09T13:51:24Z</time></trkpt>
<trkpt lat="46.02315670" lon="6.17973170"><ele>772.5</ele><time>2007-04-09T13:51:26Z</time></trkpt>
<trkpt lat="46.02320000" lon="6.17981830"><ele>774.200012</ele><time>2007-04-09T13:51:28Z</time></trkpt>
<trkpt lat="46.02325000" lon="6.17989670"><ele>775.900024</ele><time>2007-04-09T13:51:30Z</time></trkpt>
<trkpt lat="46.02331000" lon="6.17997500"><ele>776.299988</ele><time>2007-04-09T13:51:32Z</time></trkpt>
<trkpt lat="46.02337330" lon="6.18004170"><ele>777.099976</ele><time>2007-04-09T13:51:34Z</time></trkpt>
<trkpt lat="46.02344500" lon="6.18009500"><ele>777.599976</ele><time>2007-04-09T13:51:36Z</time></trkpt>
<trkpt lat="46.02352170" lon="6.18013000"><ele>777.900024</ele><time>2007-04-09T13:51:38Z</time></trkpt>
<trkpt lat="46.02360170" lon="6.18015170"><ele>777.799988</ele><time>2007-04-09T13:51:40Z</time></trkpt>
<trkpt lat="46.02368000" lon="6.18017330"><ele>777.900024</ele><time>2007-04-09T13:51:42Z</time></trkpt>
<trkpt lat="46.02375830" lon="6.18020500"><ele>778</ele><time>2007-04-09T13:51:44Z</time></trkpt>
<trkpt lat="46.02382670" lon="6.18026830"><ele>778.200012</ele><time>2007-04-09T13:51:46Z</time></trkpt>
<trkpt lat="46.02387670" lon="6.18037000"><ele>777.799988</ele><time>2007-04-09T13:51:48Z</time></trkpt>
<trkpt lat="46.02390830" lon="6.18048000"><ele>777.599976</ele><time>2007-04-09T13:51:50Z</time></trkpt>
<trkpt lat="46.02393000" lon="6.18059170"><ele>777.5</ele><time>2007-04-09T13:51:52Z</time></trkpt>
<trkpt lat="46.02395830" lon="6.18070330"><ele>777.200012</ele><time>2007-04-09T13:51:54Z</time></trkpt>
<trkpt lat="46.02398330" lon="6.18081500"><ele>777</ele><time>2007-04-09T13:51:56Z</time></trkpt>
<trkpt lat="46.02400670" lon="6.18093000"><ele>776.900024</ele><time>2007-04-09T13:51:58Z</time></trkpt>
<trkpt lat="46.02403170" lon="6.18104500"><ele>777</ele><time>2007-04-09T13:52:00Z</time></trkpt>
<trkpt lat="46.02405830" lon="6.18116000"><ele>776.900024</ele><time>2007-04-09T13:52:02Z</time></trkpt>
<trkpt lat="46.02407670" lon="6.18127500"><ele>777.099976</ele><time>2007-04-09T13:52:04Z</time></trkpt>
<trkpt lat="46.02409330" lon="6.18139000"><ele>777.400024</ele><time>2007-04-09T13:52:06Z</time></trkpt>
<trkpt lat="46.02411170" lon="6.18150830"><ele>777.599976</ele><time>2007-04-09T13:52:08Z</time></trkpt>
<trkpt lat="46.02413330" lon="6.18162170"><ele>778.099976</ele><time>2007-04-09T13:52:10Z</time></trkpt>
<trkpt lat="46.02415830" lon="6.18173670"><ele>778.599976</ele><time>2007-04-09T13:52:12Z</time></trkpt>
<trkpt lat="46.02418670" lon="6.18184670"><ele>778.900024</ele><time>2007-04-09T13:52:14Z</time></trkpt>
<trkpt lat="46.02422000" lon="6.18195000"><ele>779.200012</ele><time>2007-04-09T13:52:16Z</time></trkpt>
<trkpt lat="46.02426170" lon="6.18204830"><ele>779.599976</ele><time>2007-04-09T13:52:18Z</time></trkpt>
<trkpt lat="46.02431000" lon="6.18214330"><ele>780</ele><time>2007-04-09T13:52:20Z</time></trkpt>
<trkpt lat="46.02435830" lon="6.18223830"><ele>780.400024</ele><time>2007-04-09T13:52:22Z</time></trkpt>
<trkpt lat="46.02439670" lon="6.18233670"><ele>781</ele><time>2007-04-09T13:52:24Z</time></trkpt>
<trkpt lat="46.02442170" lon="6.18244170"><ele>781.599976</ele><time>2007-04-09T13:52:26Z</time></trkpt>
<trkpt lat="46.02443670" lon="6.18255170"><ele>782.400024</ele><time>2007-04-09T13:52:28Z</time></trkpt>
<trkpt lat="46.02445170" lon="6.18266500"><ele>782.900024</ele><time>2007-04-09T13:52:30Z</time></trkpt>
<trkpt lat="46.02446330" lon="6.18278170"><ele>783.299988</ele><time>2007-04-09T13:52:32Z</time></trkpt>
<trkpt lat="46.02446830" lon="6.18290000"><ele>783.700012</ele><time>2007-04-09T13:52:34Z</time></trkpt>
<trkpt lat="46.02447170" lon="6.18301670"><ele>783.900024</ele><time>2007-04-09T13:52:36Z</time></trkpt>
<trkpt lat="46.02446330" lon="6.18313170"><ele>784.5</ele><time>2007-04-09T13:52:38Z</time></trkpt>
<trkpt lat="46.02444500" lon="6.18324500"><ele>785</ele><time>2007-04-09T13:52:40Z</time></trkpt>
<trkpt lat="46.02442830" lon="6.18335830"><ele>785.5</ele><time>2007-04-09T13:52:42Z</time></trkpt>
<trkpt lat="46.02441000" lon="6.18347000"><ele>786.299988</ele><time>2007-04-09T13:52:44Z</time></trkpt>
<trkpt lat="46.02439500" lon="6.18358330"><ele>786.799988</ele><time>2007-04-09T13:52:46Z</time></trkpt>
<trkpt lat="46.02438500" lon="6.18369330"><ele>787</ele><time>2007-04-09T13:52:48Z</time></trkpt>
<trkpt lat="46.02438830" lon="6.18380830"><ele>787</ele><time>2007-04-09T13:52:50Z</time></trkpt>
<trkpt lat="46.02440830" lon="6.18391830"><ele>787.799988</ele><time>2007-04-09T13:52:52Z</time></trkpt>
<trkpt lat="46.02443500" lon="6.18402670"><ele>788.200012</ele><time>2007-04-09T13:52:54Z</time></trkpt>
<trkpt lat="46.02446830" lon="6.18413170"><ele>788.799988</ele><time>2007-04-09T13:52:56Z</time></trkpt>
<trkpt lat="46.02450670" lon="6.18423670"><ele>789.299988</ele><time>2007-04-09T13:52:58Z</time></trkpt>
<trkpt lat="46.02455000" lon="6.18433830"><ele>789.799988</ele><time>2007-04-09T13:53:00Z</time></trkpt>
<trkpt lat="46.02459500" lon="6.18443830"><ele>790.299988</ele><time>2007-04-09T13:53:02Z</time></trkpt>
<trkpt lat="46.02464170" lon="6.18453500"><ele>790.599976</ele><time>2007-04-09T13:53:04Z</time></trkpt>
<trkpt lat="46.02469000" lon="6.18463000"><ele>791</ele><time>2007-04-09T13:53:06Z</time></trkpt>
<trkpt lat="46.02473830" lon="6.18472830"><ele>791.299988</ele><time>2007-04-09T13:53:08Z</time></trkpt>
<trkpt lat="46.02478670" lon="6.18482500"><ele>791.599976</ele><time>2007-04-09T13:53:10Z</time></trkpt>
<trkpt lat="46.02483500" lon="6.18492170"><ele>792.099976</ele><time>2007-04-09T13:53:12Z</time></trkpt>
<trkpt lat="46.02488170" lon="6.18501500"><ele>792.700012</ele><time>2007-04-09T13:53:14Z</time></trkpt>
<trkpt lat="46.02492830" lon="6.18510670"><ele>793.099976</ele><time>2007-04-09T13:53:16Z</time></trkpt>
<trkpt lat="46.02497000" lon="6.18519670"><ele>793.5</ele><time>2007-04-09T13:53:18Z</time></trkpt>
<trkpt lat="46.02501330" lon="6.18528330"><ele>794</ele><time>2007-04-09T13:53:20Z</time></trkpt>
<trkpt lat="46.02505670" lon="6.18537500"><ele>794.5</ele><time>2007-04-09T13:53:22Z</time></trkpt>
<trkpt lat="46.02510000" lon="6.18546830"><ele>795.200012</ele><time>2007-04-09T13:53:24Z</time></trkpt>
<trkpt lat="46.02515170" lon="6.18556000"><ele>795.299988</ele><time>2007-04-09T13:53:26Z</time></trkpt>
<trkpt lat="46.02521000" lon="6.18564830"><ele>795.5</ele><time>2007-04-09T13:53:28Z</time></trkpt>
<trkpt lat="46.02527000" lon="6.18574170"><ele>795.5</ele><time>2007-04-09T13:53:30Z</time></trkpt>
<trkpt lat="46.02533670" lon="6.18582830"><ele>795.5</ele><time>2007-04-09T13:53:32Z</time></trkpt>
<trkpt lat="46.02540670" lon="6.18591000"><ele>795.799988</ele><time>2007-04-09T13:53:34Z</time></trkpt>
<trkpt lat="46.02547830" lon="6.18599000"><ele>796</ele><time>2007-04-09T13:53:36Z</time></trkpt>
<trkpt lat="46.02555330" lon="6.18606330"><ele>796.099976</ele><time>2007-04-09T13:53:38Z</time></trkpt>
<trkpt lat="46.02563330" lon="6.18613500"><ele>796.299988</ele><time>2007-04-09T13:53:40Z</time></trkpt>
<trkpt lat="46.02571830" lon="6.18619830"><ele>796.099976</ele><time>2007-04-09T13:53:42Z</time></trkpt>
<trkpt lat="46.02580500" lon="6.18625670"><ele>796</ele><time>2007-04-09T13:53:44Z</time></trkpt>
<trkpt lat="46.02589670" lon="6.18630330"><ele>796</ele><time>2007-04-09T13:53:46Z</time></trkpt>
<trkpt lat="46.02599500" lon="6.18632170"><ele>796.299988</ele><time>2007-04-09T13:53:48Z</time></trkpt>
<trkpt lat="46.02609330" lon="6.18631830"><ele>796.5</ele><time>2007-04-09T13:53:50Z</time></trkpt>
<trkpt lat="46.02619170" lon="6.18630830"><ele>796.5</ele><time>2007-04-09T13:53:52Z</time></trkpt>
<trkpt lat="46.02628830" lon="6.18629330"><ele>796.599976</ele><time>2007-04-09T13:53:54Z</time></trkpt>
<trkpt lat="46.02638170" lon="6.18627500"><ele>796.799988</ele><time>2007-04-09T13:53:56Z</time></trkpt>
<trkpt lat="46.02646830" lon="6.18625500"><ele>797.099976</ele><time>2007-04-09T13:53:58Z</time></trkpt>
<trkpt lat="46.02655830" lon="6.18623830"><ele>797.299988</ele><time>2007-04-09T13:54:00Z</time></trkpt>
<trkpt lat="46.02665170" lon="6.18621500"><ele>797.700012</ele><time>2007-04-09T13:54:02Z</time></trkpt>
<trkpt lat="46.02674000" lon="6.18617830"><ele>798</ele><time>2007-04-09T13:54:04Z</time></trkpt>
<trkpt lat="46.02682500" lon="6.18612170"><ele>798.400024</ele><time>2007-04-09T13:54:06Z</time></trkpt>
<trkpt lat="46.02690500" lon="6.18604500"><ele>798.799988</ele><time>2007-04-09T13:54:08Z</time></trkpt>
<trkpt lat="46.02697500" lon="6.18595000"><ele>799.5</ele><time>2007-04-09T13:54:10Z</time></trkpt>
<trkpt lat="46.02704000" lon="6.18585830"><ele>800.299988</ele><time>2007-04-09T13:54:12Z</time></trkpt>
<trkpt lat="46.02710500" lon="6.18576500"><ele>801.099976</ele><time>2007-04-09T13:54:14Z</time></trkpt>
<trkpt lat="46.02717330" lon="6.18567500"><ele>801.400024</ele><time>2007-04-09T13:54:16Z</time></trkpt>
<trkpt lat="46.02724500" lon="6.18558670"><ele>801.5</ele><time>2007-04-09T13:54:18Z</time></trkpt>
<trkpt lat="46.02732500" lon="6.18550000"><ele>801.599976</ele><time>2007-04-09T13:54:20Z</time></trkpt>
<trkpt lat="46.02741170" lon="6.18540500"><ele>801.700012</ele><time>2007-04-09T13:54:22Z</time></trkpt>
<trkpt lat="46.02750330" lon="6.18529170"><ele>801.5</ele><time>2007-04-09T13:54:24Z</time></trkpt>
<trkpt lat="46.02759170" lon="6.18516170"><ele>801.5</ele><time>2007-04-09T13:54:26Z</time></trkpt>
<trkpt lat="46.02767500" lon="6.18501170"><ele>801.799988</ele><time>2007-04-09T13:54:28Z</time></trkpt>
<trkpt lat="46.02775330" lon="6.18484670"><ele>801.299988</ele><time>2007-04-09T13:54:30Z</time></trkpt>
<trkpt lat="46.02782170" lon="6.18467330"><ele>801.299988</ele><time>2007-04-09T13:54:32Z</time></trkpt>
<trkpt lat="46.02789170" lon="6.18450500"><ele>801.900024</ele><time>2007-04-09T13:54:34Z</time></trkpt>
<trkpt lat="46.02797170" lon="6.18435500"><ele>803.700012</ele><time>2007-04-09T13:54:36Z</time></trkpt>
<trkpt lat="46.02805500" lon="6.18421670"><ele>804.700012</ele><time>2007-04-09T13:54:38Z</time></trkpt>
<trkpt lat="46.02814330" lon="6.18408830"><ele>804.099976</ele><time>2007-04-09T13:54:40Z</time></trkpt>
<trkpt lat="46.02825000" lon="6.18398670"><ele>803.599976</ele><time>2007-04-09T13:54:42Z</time></trkpt>
<trkpt lat="46.02837670" lon="6.18393000"><ele>803</ele><time>2007-04-09T13:54:44Z</time></trkpt>
<trkpt lat="46.02851170" lon="6.18392830"><ele>802.400024</ele><time>2007-04-09T13:54:46Z</time></trkpt>
<trkpt lat="46.02865000" lon="6.18395000"><ele>801.599976</ele><time>2007-04-09T13:54:48Z</time></trkpt>
<trkpt lat="46.02879000" lon="6.18397830"><ele>800.900024</ele><time>2007-04-09T13:54:50Z</time></trkpt>
<trkpt lat="46.02893500" lon="6.18399830"><ele>799.799988</ele><time>2007-04-09T13:54:52Z</time></trkpt>
<trkpt lat="46.02908500" lon="6.18399670"><ele>799.099976</ele><time>2007-04-09T13:54:54Z</time></trkpt>
<trkpt lat="46.02923500" lon="6.18398000"><ele>798.599976</ele><time>2007-04-09T13:54:56Z</time></trkpt>
<trkpt lat="46.02937830" lon="6.18394500"><ele>798.5</ele><time>2007-04-09T13:54:58Z</time></trkpt>
<trkpt lat="46.02950830" lon="6.18388670"><ele>798.5</ele><time>2007-04-09T13:55:00Z</time></trkpt>
<trkpt lat="46.02962170" lon="6.18380670"><ele>798.700012</ele><time>2007-04-09T13:55:02Z</time></trkpt>
<trkpt lat="46.02972170" lon="6.18372170"><ele>799.099976</ele><time>2007-04-09T13:55:04Z</time></trkpt>
<trkpt lat="46.02981500" lon="6.18364330"><ele>799.5</ele><time>2007-04-09T13:55:06Z</time></trkpt>
<trkpt lat="46.02990670" lon="6.18356670"><ele>799.900024</ele><time>2007-04-09T13:55:08Z</time></trkpt>
<trkpt lat="46.02999330" lon="6.18349000"><ele>800.400024</ele><time>2007-04-09T13:55:10Z</time></trkpt>
<trkpt lat="46.03007830" lon="6.18341330"><ele>800.799988</ele><time>2007-04-09T13:55:12Z</time></trkpt>
<trkpt lat="46.03015330" lon="6.18333670"><ele>801.5</ele><time>2007-04-09T13:55:14Z</time></trkpt>
<trkpt lat="46.03022500" lon="6.18326000"><ele>802.5</ele><time>2007-04-09T13:55:16Z</time></trkpt>
<trkpt lat="46.03029670" lon="6.18318330"><ele>803.400024</ele><time>2007-04-09T13:55:18Z</time></trkpt>
<trkpt lat="46.03037330" lon="6.18311830"><ele>804.5</ele><time>2007-04-09T13:55:20Z</time></trkpt>
<trkpt lat="46.03045830" lon="6.18309670"><ele>805.299988</ele><time>2007-04-09T13:55:22Z</time></trkpt>
<trkpt lat="46.03054170" lon="6.18313670"><ele>805.799988</ele><time>2007-04-09T13:55:24Z</time></trkpt>
<trkpt lat="46.03061670" lon="6.18320000"><ele>806.400024</ele><time>2007-04-09T13:55:26Z</time></trkpt>
<trkpt lat="46.03068830" lon="6.18327670"><ele>806.900024</ele><time>2007-04-09T13:55:28Z</time></trkpt>
<trkpt lat="46.03076000" lon="6.18335330"><ele>807.400024</ele><time>2007-04-09T13:55:30Z</time></trkpt>
<trkpt lat="46.03083170" lon="6.18343330"><ele>808</ele><time>2007-04-09T13:55:32Z</time></trkpt>
<trkpt lat="46.03090000" lon="6.18351830"><ele>808.5</ele><time>2007-04-09T13:55:34Z</time></trkpt>
<trkpt lat="46.03096500" lon="6.18361000"><ele>809.200012</ele><time>2007-04-09T13:55:36Z</time></trkpt>
<trkpt lat="46.03103000" lon="6.18370000"><ele>809.900024</ele><time>2007-04-09T13:55:38Z</time></trkpt>
<trkpt lat="46.03109170" lon="6.18379500"><ele>810.299988</ele><time>2007-04-09T13:55:40Z</time></trkpt>
<trkpt lat="46.03115000" lon="6.18389000"><ele>811</ele><time>2007-04-09T13:55:42Z</time></trkpt>
<trkpt lat="46.03120830" lon="6.18398170"><ele>811.599976</ele><time>2007-04-09T13:55:44Z</time></trkpt>
<trkpt lat="46.03126830" lon="6.18407000"><ele>812.299988</ele><time>2007-04-09T13:55:46Z</time></trkpt>
<trkpt lat="46.03133000" lon="6.18415500"><ele>813</ele><time>2007-04-09T13:55:48Z</time></trkpt>
<trkpt lat="46.03139170" lon="6.18423670"><ele>813.400024</ele><time>2007-04-09T13:55:50Z</time></trkpt>
<trkpt lat="46.03145330" lon="6.18432170"><ele>813.900024</ele><time>2007-04-09T13:55:52Z</time></trkpt>
<trkpt lat="46.03151000" lon="6.18441170"><ele>814.599976</ele><time>2007-04-09T13:55:54Z</time></trkpt>
<trkpt lat="46.03157000" lon="6.18449500"><ele>815.200012</ele><time>2007-04-09T13:55:56Z</time></trkpt>
<trkpt lat="46.03163330" lon="6.18457170"><ele>816.200012</ele><time>2007-04-09T13:55:58Z</time></trkpt>
<trkpt lat="46.03170330" lon="6.18463830"><ele>816.799988</ele><time>2007-04-09T13:56:00Z</time></trkpt>
<trkpt lat="46.03177670" lon="6.18469830"><ele>817.400024</ele><time>2007-04-09T13:56:02Z</time></trkpt>
<trkpt lat="46.03185000" lon="6.18474000"><ele>817.799988</ele><time>2007-04-09T13:56:04Z</time></trkpt>
<trkpt lat="46.03192670" lon="6.18476830"><ele>818.200012</ele><time>2007-04-09T13:56:06Z</time></trkpt>
<trkpt lat="46.03200500" lon="6.18479330"><ele>818.5</ele><time>2007-04-09T13:56:08Z</time></trkpt>
<trkpt lat="46.03208330" lon="6.18482000"><ele>818.799988</ele><time>2007-04-09T13:56:10Z</time></trkpt>
<trkpt lat="46.03215830" lon="6.18485830"><ele>819.099976</ele><time>2007-04-09T13:56:12Z</time></trkpt>
<trkpt lat="46.03222170" lon="6.18489000"><ele>820.099976</ele><time>2007-04-09T13:56:14Z</time></trkpt>
<trkpt lat="46.03228670" lon="6.18493000"><ele>820.599976</ele><time>2007-04-09T13:56:16Z</time></trkpt>
<trkpt lat="46.03235000" lon="6.18497000"><ele>821.299988</ele><time>2007-04-09T13:56:18Z</time></trkpt>
<trkpt lat="46.03241000" lon="6.18500670"><ele>821.599976</ele><time>2007-04-09T13:56:20Z</time></trkpt>
<trkpt lat="46.03247330" lon="6.18503500"><ele>822.099976</ele><time>2007-04-09T13:56:22Z</time></trkpt>
<trkpt lat="46.03253830" lon="6.18505330"><ele>822.599976</ele><time>2007-04-09T13:56:24Z</time></trkpt>
<trkpt lat="46.03260170" lon="6.18506830"><ele>823.299988</ele><time>2007-04-09T13:56:26Z</time></trkpt>
<trkpt lat="46.03266000" lon="6.18507330"><ele>824</ele><time>2007-04-09T13:56:28Z</time></trkpt>
<trkpt lat="46.03271500" lon="6.18507000"><ele>824.700012</ele><time>2007-04-09T13:56:30Z</time></trkpt>
<trkpt lat="46.03277000" lon="6.18505330"><ele>825.200012</ele><time>2007-04-09T13:56:32Z</time></trkpt>
<trkpt lat="46.03282670" lon="6.18503830"><ele>825.400024</ele><time>2007-04-09T13:56:34Z</time></trkpt>
<trkpt lat="46.03288330" lon="6.18503000"><ele>826.200012</ele><time>2007-04-09T13:56:36Z</time></trkpt>
<trkpt lat="46.03294170" lon="6.18502670"><ele>826.900024</ele><time>2007-04-09T13:56:38Z</time></trkpt>
<trkpt lat="46.03299670" lon="6.18502330"><ele>827.5</ele><time>2007-04-09T13:56:40Z</time></trkpt>
<trkpt lat="46.03305500" lon="6.18502000"><ele>828</ele><time>2007-04-09T13:56:42Z</time></trkpt>
<trkpt lat="46.03311170" lon="6.18501830"><ele>828.400024</ele><time>2007-04-09T13:56:44Z</time></trkpt>
<trkpt lat="46.03317000" lon="6.18501670"><ele>828.900024</ele><time>2007-04-09T13:56:46Z</time></trkpt>
<trkpt lat="46.03322830" lon="6.18501830"><ele>829.299988</ele><time>2007-04-09T13:56:48Z</time></trkpt>
<trkpt lat="46.03328500" lon="6.18501830"><ele>829.700012</ele><time>2007-04-09T13:56:50Z</time></trkpt>
<trkpt lat="46.03334330" lon="6.18502000"><ele>830.200012</ele><time>2007-04-09T13:56:52Z</time></trkpt>
<trkpt lat="46.03340000" lon="6.18501830"><ele>830.599976</ele><time>2007-04-09T13:56:54Z</time></trkpt>
<trkpt lat="46.03345670" lon="6.18501670"><ele>831.099976</ele><time>2007-04-09T13:56:56Z</time></trkpt>
<trkpt lat="46.03351330" lon="6.18501500"><ele>831.5</ele><time>2007-04-09T13:56:58Z</time></trkpt>
<trkpt lat="46.03357170" lon="6.18501330"><ele>832</ele><time>2007-04-09T13:57:00Z</time></trkpt>
<trkpt lat="46.03363000" lon="6.18501500"><ele>832.5</ele><time>2007-04-09T13:57:02Z</time></trkpt>
<trkpt lat="46.03368670" lon="6.18501330"><ele>832.799988</ele><time>2007-04-09T13:57:04Z</time></trkpt>
<trkpt lat="46.03374330" lon="6.18501670"><ele>833.099976</ele><time>2007-04-09T13:57:06Z</time></trkpt>
<trkpt lat="46.03380170" lon="6.18502170"><ele>833.299988</ele><time>2007-04-09T13:57:08Z</time></trkpt>
<trkpt lat="46.03386170" lon="6.18503000"><ele>833.400024</ele><time>2007-04-09T13:57:10Z</time></trkpt>
<trkpt lat="46.03392000" lon="6.18504330"><ele>833.599976</ele><time>2007-04-09T13:57:12Z</time></trkpt>
<trkpt lat="46.03397830" lon="6.18505830"><ele>833.700012</ele><time>2007-04-09T13:57:14Z</time></trkpt>
<trkpt lat="46.03403500" lon="6.18507500"><ele>833.900024</ele><time>2007-04-09T13:57:16Z</time></trkpt>
<trkpt lat="46.03409330" lon="6.18509500"><ele>834.099976</ele><time>2007-04-09T13:57:18Z</time></trkpt>
<trkpt lat="46.03415170" lon="6.18511500"><ele>834.200012</ele><time>2007-04-09T13:57:20Z</time></trkpt>
<trkpt lat="46.03420830" lon="6.18513830"><ele>834.400024</ele><time>2007-04-09T13:57:22Z</time></trkpt>
<trkpt lat="46.03426500" lon="6.18516000"><ele>834.599976</ele><time>2007-04-09T13:57:24Z</time></trkpt>
<trkpt lat="46.03431830" lon="6.18518000"><ele>834.900024</ele><time>2007-04-09T13:57:26Z</time></trkpt>
<trkpt lat="46.03437330" lon="6.18520170"><ele>835.099976</ele><time>2007-04-09T13:57:28Z</time></trkpt>
<trkpt lat="46.03442830" lon="6.18522500"><ele>835.200012</ele><time>2007-04-09T13:57:30Z</time></trkpt>
<trkpt lat="46.03448330" lon="6.18525170"><ele>835.299988</ele><time>2007-04-09T13:57:32Z</time></trkpt>
<trkpt lat="46.03453830" lon="6.18528000"><ele>835.400024</ele><time>2007-04-09T13:57:34Z</time></trkpt>
<trkpt lat="46.03459330" lon="6.18530670"><ele>835.599976</ele><time>2007-04-09T13:57:36Z</time></trkpt>
<trkpt lat="46.03465000" lon="6.18533500"><ele>835.799988</ele><time>2007-04-09T13:57:38Z</time></trkpt>
<trkpt lat="46.03471000" lon="6.18537170"><ele>835.900024</ele><time>2007-04-09T13:57:40Z</time></trkpt>
<trkpt lat="46.03477170" lon="6.18541170"><ele>836.099976</ele><time>2007-04-09T13:57:42Z</time></trkpt>
<trkpt lat="46.03483170" lon="6.18545170"><ele>836.200012</ele><time>2007-04-09T13:57:44Z</time></trkpt>
<trkpt lat="46.03489500" lon="6.18549000"><ele>836.400024</ele><time>2007-04-09T13:57:46Z</time></trkpt>
<trkpt lat="46.03495830" lon="6.18552830"><ele>836.5</ele><time>2007-04-09T13:57:48Z</time></trkpt>
<trkpt lat="46.03502000" lon="6.18556830"><ele>836.5</ele><time>2007-04-09T13:57:50Z</time></trkpt>
<trkpt lat="46.03508500" lon="6.18560670"><ele>836.599976</ele><time>2007-04-09T13:57:52Z</time></trkpt>
<trkpt lat="46.03515000" lon="6.18564500"><ele>836.700012</ele><time>2007-04-09T13:57:54Z</time></trkpt>
<trkpt lat="46.03521330" lon="6.18568330"><ele>837</ele><time>2007-04-09T13:57:56Z</time></trkpt>
<trkpt lat="46.03527670" lon="6.18571670"><ele>837.400024</ele><time>2007-04-09T13:57:58Z</time></trkpt>
<trkpt lat="46.03534330" lon="6.18575000"><ele>837.700012</ele><time>2007-04-09T13:58:00Z</time></trkpt>
<trkpt lat="46.03541000" lon="6.18577170"><ele>838.200012</ele><time>2007-04-09T13:58:02Z</time></trkpt>
<trkpt lat="46.03547830" lon="6.18578330"><ele>838.599976</ele><time>2007-04-09T13:58:04Z</time></trkpt>
<trkpt lat="46.03554670" lon="6.18578000"><ele>839</ele><time>2007-04-09T13:58:06Z</time></trkpt>
<trkpt lat="46.03561330" lon="6.18577670"><ele>839.299988</ele><time>2007-04-09T13:58:08Z</time></trkpt>
<trkpt lat="46.03568170" lon="6.18576670"><ele>839.700012</ele><time>2007-04-09T13:58:10Z</time></trkpt>
<trkpt lat="46.03574670" lon="6.18574830"><ele>840.099976</ele><time>2007-04-09T13:58:12Z</time></trkpt>
<trkpt lat="46.03581000" lon="6.18572500"><ele>840.700012</ele><time>2007-04-09T13:58:14Z</time></trkpt>
<trkpt lat="46.03587670" lon="6.18570670"><ele>841.200012</ele><time>2007-04-09T13:58:16Z</time></trkpt>
<trkpt lat="46.03594000" lon="6.18568330"><ele>842</ele><time>2007-04-09T13:58:18Z</time></trkpt>
<trkpt lat="46.03600330" lon="6.18566000"><ele>842.700012</ele><time>2007-04-09T13:58:20Z</time></trkpt>
<trkpt lat="46.03606670" lon="6.18563670"><ele>843.799988</ele><time>2007-04-09T13:58:22Z</time></trkpt>
<trkpt lat="46.03613000" lon="6.18561000"><ele>845</ele><time>2007-04-09T13:58:24Z</time></trkpt>
<trkpt lat="46.03619670" lon="6.18558500"><ele>845.700012</ele><time>2007-04-09T13:58:26Z</time></trkpt>
<trkpt lat="46.03626500" lon="6.18556170"><ele>846</ele><time>2007-04-09T13:58:28Z</time></trkpt>
<trkpt lat="46.03633330" lon="6.18554170"><ele>846.400024</ele><time>2007-04-09T13:58:30Z</time></trkpt>
<trkpt lat="46.03639670" lon="6.18551830"><ele>847</ele><time>2007-04-09T13:58:32Z</time></trkpt>
<trkpt lat="46.03646500" lon="6.18549000"><ele>847.599976</ele><time>2007-04-09T13:58:34Z</time></trkpt>
<trkpt lat="46.03654500" lon="6.18546670"><ele>847.299988</ele><time>2007-04-09T13:58:36Z</time></trkpt>
<trkpt lat="46.03662830" lon="6.18545330"><ele>847.299988</ele><time>2007-04-09T13:58:38Z</time></trkpt>
<trkpt lat="46.03672330" lon="6.18547330"><ele>846.900024</ele><time>2007-04-09T13:58:40Z</time></trkpt>
<trkpt lat="46.03682170" lon="6.18552170"><ele>846.5</ele><time>2007-04-09T13:58:42Z</time></trkpt>
<trkpt lat="46.03692330" lon="6.18558170"><ele>846.099976</ele><time>2007-04-09T13:58:44Z</time></trkpt>
<trkpt lat="46.03702500" lon="6.18564670"><ele>845.700012</ele><time>2007-04-09T13:58:46Z</time></trkpt>
<trkpt lat="46.03713000" lon="6.18572500"><ele>845.299988</ele><time>2007-04-09T13:58:48Z</time></trkpt>
<trkpt lat="46.03724000" lon="6.18581330"><ele>844.599976</ele><time>2007-04-09T13:58:50Z</time></trkpt>
<trkpt lat="46.03735670" lon="6.18590830"><ele>843.900024</ele><time>2007-04-09T13:58:52Z</time></trkpt>
<trkpt lat="46.03747000" lon="6.18601000"><ele>843.299988</ele><time>2007-04-09T13:58:54Z</time></trkpt>
<trkpt lat="46.03758330" lon="6.18611670"><ele>842.799988</ele><time>2007-04-09T13:58:56Z</time></trkpt>
<trkpt lat="46.03769670" lon="6.18623000"><ele>842.400024</ele><time>2007-04-09T13:58:58Z</time></trkpt>
<trkpt lat="46.03780500" lon="6.18634830"><ele>842.200012</ele><time>2007-04-09T13:59:00Z</time></trkpt>
<trkpt lat="46.03791500" lon="6.18647000"><ele>841.799988</ele><time>2007-04-09T13:59:02Z</time></trkpt>
<trkpt lat="46.03802670" lon="6.18659330"><ele>841.5</ele><time>2007-04-09T13:59:04Z</time></trkpt>
<trkpt lat="46.03813670" lon="6.18672000"><ele>841.099976</ele><time>2007-04-09T13:59:06Z</time></trkpt>
<trkpt lat="46.03824830" lon="6.18684500"><ele>840.799988</ele><time>2007-04-09T13:59:08Z</time></trkpt>
<trkpt lat="46.03836500" lon="6.18696330"><ele>840.599976</ele><time>2007-04-09T13:59:10Z</time></trkpt>
<trkpt lat="46.03848670" lon="6.18707670"><ele>840</ele><time>2007-04-09T13:59:12Z</time></trkpt>
<trkpt lat="46.03862000" lon="6.18718500"><ele>839.299988</ele><time>2007-04-09T13:59:14Z</time></trkpt>
<trkpt lat="46.03876670" lon="6.18729330"><ele>838.400024</ele><time>2007-04-09T13:59:16Z</time></trkpt>
<trkpt lat="46.03892330" lon="6.18740170"><ele>837.599976</ele><time>2007-04-09T13:59:18Z</time></trkpt>
<trkpt lat="46.03908830" lon="6.18751000"><ele>836.900024</ele><time>2007-04-09T13:59:20Z</time></trkpt>
<trkpt lat="46.03926500" lon="6.18756670"><ele>836.200012</ele><time>2007-04-09T13:59:22Z</time></trkpt>
<trkpt lat="46.03944500" lon="6.18749670"><ele>835.5</ele><time>2007-04-09T13:59:24Z</time></trkpt>
<trkpt lat="46.03960830" lon="6.18733670"><ele>834.799988</ele><time>2007-04-09T13:59:26Z</time></trkpt>
<trkpt lat="46.03977000" lon="6.18716330"><ele>834.099976</ele><time>2007-04-09T13:59:28Z</time></trkpt>
<trkpt lat="46.03993000" lon="6.18698670"><ele>833.400024</ele><time>2007-04-09T13:59:30Z</time></trkpt>
<trkpt lat="46.04008830" lon="6.18681000"><ele>832.900024</ele><time>2007-04-09T13:59:32Z</time></trkpt>
<trkpt lat="46.04024500" lon="6.18663830"><ele>832.700012</ele><time>2007-04-09T13:59:34Z</time></trkpt>
<trkpt lat="46.04039670" lon="6.18647670"><ele>832.700012</ele><time>2007-04-09T13:59:36Z</time></trkpt>
<trkpt lat="46.04053670" lon="6.18632830"><ele>832.900024</ele><time>2007-04-09T13:59:38Z</time></trkpt>
<trkpt lat="46.04067000" lon="6.18619500"><ele>833.099976</ele><time>2007-04-09T13:59:40Z</time></trkpt>
<trkpt lat="46.04080500" lon="6.18608330"><ele>833.400024</ele><time>2007-04-09T13:59:42Z</time></trkpt>
<trkpt lat="46.04094500" lon="6.18599000"><ele>833.200012</ele><time>2007-04-09T13:59:44Z</time></trkpt>
<trkpt lat="46.04109830" lon="6.18591500"><ele>832.799988</ele><time>2007-04-09T13:59:46Z</time></trkpt>
<trkpt lat="46.04125670" lon="6.18585830"><ele>832.400024</ele><time>2007-04-09T13:59:48Z</time></trkpt>
<trkpt lat="46.04142330" lon="6.18581500"><ele>831.799988</ele><time>2007-04-09T13:59:50Z</time></trkpt>
<trkpt lat="46.04159670" lon="6.18579170"><ele>831.200012</ele><time>2007-04-09T13:59:52Z</time></trkpt>
<trkpt lat="46.04177670" lon="6.18577670"><ele>830.700012</ele><time>2007-04-09T13:59:54Z</time></trkpt>
<trkpt lat="46.04195170" lon="6.18576170"><ele>830.299988</ele><time>2007-04-09T13:59:56Z</time></trkpt>
<trkpt lat="46.04212000" lon="6.18574830"><ele>830.200012</ele><time>2007-04-09T13:59:58Z</time></trkpt>
<trkpt lat="46.04228500" lon="6.18573500"><ele>830.299988</ele><time>2007-04-09T14:00:00Z</time></trkpt>
<trkpt lat="46.04244500" lon="6.18572000"><ele>830.400024</ele><time>2007-04-09T14:00:02Z</time></trkpt>
<trkpt lat="46.04260000" lon="6.18570330"><ele>830.799988</ele><time>2007-04-09T14:00:04Z</time></trkpt>
<trkpt lat="46.04275000" lon="6.18567330"><ele>831.099976</ele><time>2007-04-09T14:00:06Z</time></trkpt>
<trkpt lat="46.04289170" lon="6.18562330"><ele>831.900024</ele><time>2007-04-09T14:00:08Z</time></trkpt>
<trkpt lat="46.04302500" lon="6.18556670"><ele>832.700012</ele><time>2007-04-09T14:00:10Z</time></trkpt>
<trkpt lat="46.04316000" lon="6.18551170"><ele>833.599976</ele><time>2007-04-09T14:00:12Z</time></trkpt>
<trkpt lat="46.04329670" lon="6.18545500"><ele>833.400024</ele><time>2007-04-09T14:00:14Z</time></trkpt>
<trkpt lat="46.04343330" lon="6.18539830"><ele>833.799988</ele><time>2007-04-09T14:00:16Z</time></trkpt>
<trkpt lat="46.04357000" lon="6.18533830"><ele>833.900024</ele><time>2007-04-09T14:00:18Z</time></trkpt>
<trkpt lat="46.04370830" lon="6.18528000"><ele>833.799988</ele><time>2007-04-09T14:00:20Z</time></trkpt>
<trkpt lat="46.04385000" lon="6.18522830"><ele>833.900024</ele><time>2007-04-09T14:00:22Z</time></trkpt>
<trkpt lat="46.04399670" lon="6.18519500"><ele>833.799988</ele><time>2007-04-09T14:00:24Z</time></trkpt>
<trkpt lat="46.04414500" lon="6.18519000"><ele>833.799988</ele><time>2007-04-09T14:00:26Z</time></trkpt>
<trkpt lat="46.04428830" lon="6.18522670"><ele>833.799988</ele><time>2007-04-09T14:00:28Z</time></trkpt>
<trkpt lat="46.04442500" lon="6.18529330"><ele>833.599976</ele><time>2007-04-09T14:00:30Z</time></trkpt>
<trkpt lat="46.04455000" lon="6.18539670"><ele>833.299988</ele><time>2007-04-09T14:00:32Z</time></trkpt>
<trkpt lat="46.04465830" lon="6.18553670"><ele>833</ele><time>2007-04-09T14:00:34Z</time></trkpt>
<trkpt lat="46.04474330" lon="6.18571330"><ele>833</ele><time>2007-04-09T14:00:36Z</time></trkpt>
<trkpt lat="46.04481170" lon="6.18592500"><ele>832.400024</ele><time>2007-04-09T14:00:38Z</time></trkpt>
<trkpt lat="46.04487330" lon="6.18615830"><ele>831.700012</ele><time>2007-04-09T14:00:40Z</time></trkpt>
<trkpt lat="46.04494500" lon="6.18642830"><ele>830.400024</ele><time>2007-04-09T14:00:42Z</time></trkpt>
<trkpt lat="46.04501500" lon="6.18671500"><ele>829.200012</ele><time>2007-04-09T14:00:44Z</time></trkpt>
<trkpt lat="46.04510830" lon="6.18695170"><ele>828.799988</ele><time>2007-04-09T14:00:46Z</time></trkpt>
<trkpt lat="46.04527000" lon="6.18701000"><ele>829.5</ele><time>2007-04-09T14:00:48Z</time></trkpt>
<trkpt lat="46.04540830" lon="6.18676500"><ele>830.5</ele><time>2007-04-09T14:00:50Z</time></trkpt>
<trkpt lat="46.04547500" lon="6.18650170"><ele>830.400024</ele><time>2007-04-09T14:00:52Z</time></trkpt>
<trkpt lat="46.04548500" lon="6.18627330"><ele>831.299988</ele><time>2007-04-09T14:00:54Z</time></trkpt>
<trkpt lat="46.04546000" lon="6.18604000"><ele>833.200012</ele><time>2007-04-09T14:00:56Z</time></trkpt>
<trkpt lat="46.04542830" lon="6.18581330"><ele>835.400024</ele><time>2007-04-09T14:00:58Z</time></trkpt>
<trkpt lat="46.04538830" lon="6.18561170"><ele>838.200012</ele><time>2007-04-09T14:01:00Z</time></trkpt>
<trkpt lat="46.04536500" lon="6.18542330"><ele>839.099976</ele><time>2007-04-09T14:01:02Z</time></trkpt>
<trkpt lat="46.04536170" lon="6.18524500"><ele>840</ele><time>2007-04-09T14:01:04Z</time></trkpt>
<trkpt lat="46.04538170" lon="6.18503170"><ele>839.700012</ele><time>2007-04-09T14:01:06Z</time></trkpt>
<trkpt lat="46.04542170" lon="6.18480170"><ele>838.299988</ele><time>2007-04-09T14:01:08Z</time></trkpt>
<trkpt lat="46.04548500" lon="6.18465330"><ele>837.099976</ele><time>2007-04-09T14:01:10Z</time></trkpt>
<trkpt lat="46.04557170" lon="6.18456670"><ele>834.900024</ele><time>2007-04-09T14:01:12Z</time></trkpt>
<trkpt lat="46.04568000" lon="6.18448500"><ele>832.5</ele><time>2007-04-09T14:01:14Z</time></trkpt>
<trkpt lat="46.04581830" lon="6.18440500"><ele>829.599976</ele><time>2007-04-09T14:01:16Z</time></trkpt>
<trkpt lat="46.04595830" lon="6.18432830"><ele>829.799988</ele><time>2007-04-09T14:01:18Z</time></trkpt>
<trkpt lat="46.04610830" lon="6.18425330"><ele>830</ele><time>2007-04-09T14:01:20Z</time></trkpt>
<trkpt lat="46.04626170" lon="6.18414500"><ele>829.799988</ele><time>2007-04-09T14:01:22Z</time></trkpt>
<trkpt lat="46.04638330" lon="6.18395170"><ele>829.200012</ele><time>2007-04-09T14:01:24Z</time></trkpt>
<trkpt lat="46.04645500" lon="6.18370500"><ele>829.599976</ele><time>2007-04-09T14:01:26Z</time></trkpt>
<trkpt lat="46.04651170" lon="6.18345670"><ele>828.900024</ele><time>2007-04-09T14:01:28Z</time></trkpt>
<trkpt lat="46.04663670" lon="6.18330000"><ele>827.900024</ele><time>2007-04-09T14:01:30Z</time></trkpt>
<trkpt lat="46.04681000" lon="6.18330500"><ele>827.799988</ele><time>2007-04-09T14:01:32Z</time></trkpt>
<trkpt lat="46.04694670" lon="6.18343830"><ele>827.599976</ele><time>2007-04-09T14:01:34Z</time></trkpt>
<trkpt lat="46.04705000" lon="6.18361000"><ele>827.700012</ele><time>2007-04-09T14:01:36Z</time></trkpt>
<trkpt lat="46.04714500" lon="6.18376830"><ele>827.299988</ele><time>2007-04-09T14:01:38Z</time></trkpt>
<trkpt lat="46.04724330" lon="6.18391830"><ele>827.5</ele><time>2007-04-09T14:01:40Z</time></trkpt>
<trkpt lat="46.04735330" lon="6.18403500"><ele>828</ele><time>2007-04-09T14:01:42Z</time></trkpt>
<trkpt lat="46.04748000" lon="6.18410330"><ele>828.200012</ele><time>2007-04-09T14:01:44Z</time></trkpt>
<trkpt lat="46.04761500" lon="6.18411830"><ele>828.299988</ele><time>2007-04-09T14:01:46Z</time></trkpt>
<trkpt lat="46.04774500" lon="6.18409670"><ele>828.799988</ele><time>2007-04-09T14:01:48Z</time></trkpt>
<trkpt lat="46.04787330" lon="6.18405830"><ele>829.200012</ele><time>2007-04-09T14:01:50Z</time></trkpt>
<trkpt lat="46.04800500" lon="6.18402500"><ele>829.599976</ele><time>2007-04-09T14:01:52Z</time></trkpt>
<trkpt lat="46.04813500" lon="6.18398830"><ele>830</ele><time>2007-04-09T14:01:54Z</time></trkpt>
<trkpt lat="46.04826330" lon="6.18393670"><ele>830.299988</ele><time>2007-04-09T14:01:56Z</time></trkpt>
<trkpt lat="46.04838500" lon="6.18386830"><ele>830.299988</ele><time>2007-04-09T14:01:58Z</time></trkpt>
<trkpt lat="46.04850170" lon="6.18378670"><ele>830.599976</ele><time>2007-04-09T14:02:00Z</time></trkpt>
<trkpt lat="46.04861670" lon="6.18370500"><ele>830.799988</ele><time>2007-04-09T14:02:02Z</time></trkpt>
<trkpt lat="46.04873500" lon="6.18363170"><ele>830.700012</ele><time>2007-04-09T14:02:04Z</time></trkpt>
<trkpt lat="46.04884830" lon="6.18355670"><ele>830.900024</ele><time>2007-04-09T14:02:06Z</time></trkpt>
<trkpt lat="46.04896330" lon="6.18348670"><ele>830.700012</ele><time>2007-04-09T14:02:08Z</time></trkpt>
<trkpt lat="46.04907830" lon="6.18342500"><ele>831</ele><time>2007-04-09T14:02:10Z</time></trkpt>
<trkpt lat="46.04919330" lon="6.18337670"><ele>831.299988</ele><time>2007-04-09T14:02:12Z</time></trkpt>
<trkpt lat="46.04930670" lon="6.18333000"><ele>831.700012</ele><time>2007-04-09T14:02:14Z</time></trkpt>
<trkpt lat="46.04942000" lon="6.18328330"><ele>831.799988</ele><time>2007-04-09T14:02:16Z</time></trkpt>
<trkpt lat="46.04953500" lon="6.18323830"><ele>831.900024</ele><time>2007-04-09T14:02:18Z</time></trkpt>
<trkpt lat="46.04965000" lon="6.18319330"><ele>832.299988</ele><time>2007-04-09T14:02:20Z</time></trkpt>
<trkpt lat="46.04976670" lon="6.18314500"><ele>832.400024</ele><time>2007-04-09T14:02:22Z</time></trkpt>
<trkpt lat="46.04988170" lon="6.18309670"><ele>832.599976</ele><time>2007-04-09T14:02:24Z</time></trkpt>
<trkpt lat="46.04999830" lon="6.18305170"><ele>832.900024</ele><time>2007-04-09T14:02:26Z</time></trkpt>
<trkpt lat="46.05011500" lon="6.18300670"><ele>833.299988</ele><time>2007-04-09T14:02:28Z</time></trkpt>
<trkpt lat="46.05023170" lon="6.18296830"><ele>833.599976</ele><time>2007-04-09T14:02:30Z</time></trkpt>
<trkpt lat="46.05034670" lon="6.18294500"><ele>834</ele><time>2007-04-09T14:02:32Z</time></trkpt>
<trkpt lat="46.05046000" lon="6.18295000"><ele>834.400024</ele><time>2007-04-09T14:02:34Z</time></trkpt>
<trkpt lat="46.05056670" lon="6.18298500"><ele>834.799988</ele><time>2007-04-09T14:02:36Z</time></trkpt>
<trkpt lat="46.05066330" lon="6.18304170"><ele>835.200012</ele><time>2007-04-09T14:02:38Z</time></trkpt>
<trkpt lat="46.05075330" lon="6.18311170"><ele>835.599976</ele><time>2007-04-09T14:02:40Z</time></trkpt>
<trkpt lat="46.05083500" lon="6.18319670"><ele>836</ele><time>2007-04-09T14:02:42Z</time></trkpt>
<trkpt lat="46.05091830" lon="6.18328170"><ele>836.400024</ele><time>2007-04-09T14:02:44Z</time></trkpt>
<trkpt lat="46.05100830" lon="6.18336500"><ele>836.700012</ele><time>2007-04-09T14:02:46Z</time></trkpt>
<trkpt lat="46.05110170" lon="6.18344330"><ele>836.900024</ele><time>2007-04-09T14:02:48Z</time></trkpt>
<trkpt lat="46.05120000" lon="6.18351330"><ele>837.099976</ele><time>2007-04-09T14:02:50Z</time></trkpt>
<trkpt lat="46.05130330" lon="6.18356830"><ele>837.200012</ele><time>2007-04-09T14:02:52Z</time></trkpt>
<trkpt lat="46.05141000" lon="6.18361330"><ele>837.299988</ele><time>2007-04-09T14:02:54Z</time></trkpt>
<trkpt lat="46.05152000" lon="6.18364500"><ele>837.5</ele><time>2007-04-09T14:02:56Z</time></trkpt>
<trkpt lat="46.05163330" lon="6.18366000"><ele>837.700012</ele><time>2007-04-09T14:02:58Z</time></trkpt>
<trkpt lat="46.05174500" lon="6.18366500"><ele>838.200012</ele><time>2007-04-09T14:03:00Z</time></trkpt>
<trkpt lat="46.05185500" lon="6.18366000"><ele>838.700012</ele><time>2007-04-09T14:03:02Z</time></trkpt>
<trkpt lat="46.05196170" lon="6.18363830"><ele>839.200012</ele><time>2007-04-09T14:03:04Z</time></trkpt>
<trkpt lat="46.05206830" lon="6.18360500"><ele>839.900024</ele><time>2007-04-09T14:03:06Z</time></trkpt>
<trkpt lat="46.05217000" lon="6.18355830"><ele>840.599976</ele><time>2007-04-09T14:03:08Z</time></trkpt>
<trkpt lat="46.05226830" lon="6.18350170"><ele>841.5</ele><time>2007-04-09T14:03:10Z</time></trkpt>
<trkpt lat="46.05236670" lon="6.18343500"><ele>842.700012</ele><time>2007-04-09T14:03:12Z</time></trkpt>
<trkpt lat="46.05246000" lon="6.18335500"><ele>843.700012</ele><time>2007-04-09T14:03:14Z</time></trkpt>
<trkpt lat="46.05255170" lon="6.18327330"><ele>844.700012</ele><time>2007-04-09T14:03:16Z</time></trkpt>
<trkpt lat="46.05265170" lon="6.18320670"><ele>845.400024</ele><time>2007-04-09T14:03:18Z</time></trkpt>
<trkpt lat="46.05275670" lon="6.18315670"><ele>846</ele><time>2007-04-09T14:03:20Z</time></trkpt>
<trkpt lat="46.05286330" lon="6.18312830"><ele>846.5</ele><time>2007-04-09T14:03:22Z</time></trkpt>
<trkpt lat="46.05297170" lon="6.18312000"><ele>846.900024</ele><time>2007-04-09T14:03:24Z</time></trkpt>
<trkpt lat="46.05308000" lon="6.18312170"><ele>847.099976</ele><time>2007-04-09T14:03:26Z</time></trkpt>
<trkpt lat="46.05318830" lon="6.18312000"><ele>847.299988</ele><time>2007-04-09T14:03:28Z</time></trkpt>
<trkpt lat="46.05330000" lon="6.18312170"><ele>847.400024</ele><time>2007-04-09T14:03:30Z</time></trkpt>
<trkpt lat="46.05341170" lon="6.18312330"><ele>847.5</ele><time>2007-04-09T14:03:32Z</time></trkpt>
<trkpt lat="46.05352330" lon="6.18312500"><ele>847.5</ele><time>2007-04-09T14:03:34Z</time></trkpt>
<trkpt lat="46.05363500" lon="6.18312500"><ele>847.700012</ele><time>2007-04-09T14:03:36Z</time></trkpt>
<trkpt lat="46.05374670" lon="6.18312330"><ele>847.900024</ele><time>2007-04-09T14:03:38Z</time></trkpt>
<trkpt lat="46.05385830" lon="6.18311830"><ele>847.900024</ele><time>2007-04-09T14:03:40Z</time></trkpt>
<trkpt lat="46.05396670" lon="6.18310670"><ele>848.5</ele><time>2007-04-09T14:03:42Z</time></trkpt>
<trkpt lat="46.05407670" lon="6.18308330"><ele>848.900024</ele><time>2007-04-09T14:03:44Z</time></trkpt>
<trkpt lat="46.05418670" lon="6.18304830"><ele>849.200012</ele><time>2007-04-09T14:03:46Z</time></trkpt>
<trkpt lat="46.05429670" lon="6.18300500"><ele>849.299988</ele><time>2007-04-09T14:03:48Z</time></trkpt>
<trkpt lat="46.05440500" lon="6.18295170"><ele>849.5</ele><time>2007-04-09T14:03:50Z</time></trkpt>
<trkpt lat="46.05451000" lon="6.18288330"><ele>849.700012</ele><time>2007-04-09T14:03:52Z</time></trkpt>
<trkpt lat="46.05461170" lon="6.18280170"><ele>850.200012</ele><time>2007-04-09T14:03:54Z</time></trkpt>
<trkpt lat="46.05471670" lon="6.18271500"><ele>850.599976</ele><time>2007-04-09T14:03:56Z</time></trkpt>
<trkpt lat="46.05482170" lon="6.18261170"><ele>851.299988</ele><time>2007-04-09T14:03:58Z</time></trkpt>
<trkpt lat="46.05492500" lon="6.18249330"><ele>851.799988</ele><time>2007-04-09T14:04:00Z</time></trkpt>
<trkpt lat="46.05503330" lon="6.18236330"><ele>851.099976</ele><time>2007-04-09T14:04:02Z</time></trkpt>
<trkpt lat="46.05513670" lon="6.18223330"><ele>851.200012</ele><time>2007-04-09T14:04:04Z</time></trkpt>
<trkpt lat="46.05523500" lon="6.18210170"><ele>851.5</ele><time>2007-04-09T14:04:06Z</time></trkpt>
<trkpt lat="46.05533170" lon="6.18197170"><ele>851.799988</ele><time>2007-04-09T14:04:08Z</time></trkpt>
<trkpt lat="46.05542830" lon="6.18183670"><ele>851.400024</ele><time>2007-04-09T14:04:10Z</time></trkpt>
<trkpt lat="46.05552670" lon="6.18169830"><ele>851.200012</ele><time>2007-04-09T14:04:12Z</time></trkpt>
<trkpt lat="46.05562670" lon="6.18155830"><ele>850.900024</ele><time>2007-04-09T14:04:14Z</time></trkpt>
<trkpt lat="46.05573670" lon="6.18142830"><ele>850.400024</ele><time>2007-04-09T14:04:16Z</time></trkpt>
<trkpt lat="46.05586330" lon="6.18133000"><ele>850.5</ele><time>2007-04-09T14:04:18Z</time></trkpt>
<trkpt lat="46.05600500" lon="6.18127500"><ele>850.599976</ele><time>2007-04-09T14:04:20Z</time></trkpt>
<trkpt lat="46.05615500" lon="6.18123830"><ele>850.200012</ele><time>2007-04-09T14:04:22Z</time></trkpt>
<trkpt lat="46.05630170" lon="6.18115670"><ele>849.900024</ele><time>2007-04-09T14:04:24Z</time></trkpt>
<trkpt lat="46.05642330" lon="6.18102170"><ele>850.200012</ele><time>2007-04-09T14:04:26Z</time></trkpt>
<trkpt lat="46.05652830" lon="6.18087330"><ele>849.700012</ele><time>2007-04-09T14:04:28Z</time></trkpt>
<trkpt lat="46.05662170" lon="6.18073330"><ele>850</ele><time>2007-04-09T14:04:30Z</time></trkpt>
<trkpt lat="46.05671670" lon="6.18061000"><ele>850.099976</ele><time>2007-04-09T14:04:32Z</time></trkpt>
<trkpt lat="46.05681170" lon="6.18051500"><ele>850.099976</ele><time>2007-04-09T14:04:34Z</time></trkpt>
<trkpt lat="46.05690670" lon="6.18044830"><ele>850.5</ele><time>2007-04-09T14:04:36Z</time></trkpt>
<trkpt lat="46.05700170" lon="6.18039670"><ele>850.900024</ele><time>2007-04-09T14:04:38Z</time></trkpt>
<trkpt lat="46.05709670" lon="6.18035670"><ele>851.299988</ele><time>2007-04-09T14:04:40Z</time></trkpt>
<trkpt lat="46.05719170" lon="6.18031170"><ele>851.700012</ele><time>2007-04-09T14:04:42Z</time></trkpt>
<trkpt lat="46.05728830" lon="6.18027830"><ele>852.5</ele><time>2007-04-09T14:04:44Z</time></trkpt>
<trkpt lat="46.05739170" lon="6.18027330"><ele>852.900024</ele><time>2007-04-09T14:04:46Z</time></trkpt>
<trkpt lat="46.05748670" lon="6.18032500"><ele>853.200012</ele><time>2007-04-09T14:04:48Z</time></trkpt>
<trkpt lat="46.05756830" lon="6.18040670"><ele>854</ele><time>2007-04-09T14:04:50Z</time></trkpt>
<trkpt lat="46.05764500" lon="6.18049170"><ele>854.400024</ele><time>2007-04-09T14:04:52Z</time></trkpt>
<trkpt lat="46.05771670" lon="6.18059000"><ele>854.900024</ele><time>2007-04-09T14:04:54Z</time></trkpt>
<trkpt lat="46.05779000" lon="6.18069670"><ele>856.299988</ele><time>2007-04-09T14:04:56Z</time></trkpt>
<trkpt lat="46.05787170" lon="6.18082500"><ele>856.599976</ele><time>2007-04-09T14:04:58Z</time></trkpt>
<trkpt lat="46.05796170" lon="6.18094830"><ele>858.599976</ele><time>2007-04-09T14:05:00Z</time></trkpt>
<trkpt lat="46.05808000" lon="6.18102670"><ele>859</ele><time>2007-04-09T14:05:02Z</time></trkpt>
<trkpt lat="46.05821000" lon="6.18096670"><ele>860.299988</ele><time>2007-04-09T14:05:04Z</time></trkpt>
<trkpt lat="46.05827330" lon="6.18075500"><ele>862.299988</ele><time>2007-04-09T14:05:06Z</time></trkpt>
<trkpt lat="46.05824670" lon="6.18054500"><ele>865.599976</ele><time>2007-04-09T14:05:08Z</time></trkpt>
<trkpt lat="46.05819330" lon="6.18030830"><ele>868.900024</ele><time>2007-04-09T14:05:10Z</time></trkpt>
<trkpt lat="46.05816830" lon="6.18007830"><ele>871.299988</ele><time>2007-04-09T14:05:12Z</time></trkpt>
<trkpt lat="46.05817670" lon="6.17986330"><ele>871.5</ele><time>2007-04-09T14:05:14Z</time></trkpt>
<trkpt lat="46.05820830" lon="6.17965330"><ele>868.700012</ele><time>2007-04-09T14:05:16Z</time></trkpt>
<trkpt lat="46.05823330" lon="6.17947170"><ele>866.599976</ele><time>2007-04-09T14:05:18Z</time></trkpt>
<trkpt lat="46.05826000" lon="6.17929330"><ele>865.900024</ele><time>2007-04-09T14:05:20Z</time></trkpt>
<trkpt lat="46.05830170" lon="6.17908330"><ele>863.099976</ele><time>2007-04-09T14:05:22Z</time></trkpt>
<trkpt lat="46.05837670" lon="6.17886000"><ele>860.5</ele><time>2007-04-09T14:05:24Z</time></trkpt>
<trkpt lat="46.05847330" lon="6.17863170"><ele>858.5</ele><time>2007-04-09T14:05:26Z</time></trkpt>
<trkpt lat="46.05854830" lon="6.17836500"><ele>856.900024</ele><time>2007-04-09T14:05:28Z</time></trkpt>
<trkpt lat="46.05858170" lon="6.17806000"><ele>853.700012</ele><time>2007-04-09T14:05:30Z</time></trkpt>
<trkpt lat="46.05860670" lon="6.17773500"><ele>850.900024</ele><time>2007-04-09T14:05:32Z</time></trkpt>
<trkpt lat="46.05863170" lon="6.17740670"><ele>848.400024</ele><time>2007-04-09T14:05:34Z</time></trkpt>
<trkpt lat="46.05863670" lon="6.17707330"><ele>846.200012</ele><time>2007-04-09T14:05:36Z</time></trkpt>
<trkpt lat="46.05861170" lon="6.17674170"><ele>844</ele><time>2007-04-09T14:05:38Z</time></trkpt>
<trkpt lat="46.05856000" lon="6.17642000"><ele>842.099976</ele><time>2007-04-09T14:05:40Z</time></trkpt>
<trkpt lat="46.05850330" lon="6.17612330"><ele>841.099976</ele><time>2007-04-09T14:05:42Z</time></trkpt>
<trkpt lat="46.05846330" lon="6.17583830"><ele>840.5</ele><time>2007-04-09T14:05:44Z</time></trkpt>
<trkpt lat="46.05848670" lon="6.17556830"><ele>838.5</ele><time>2007-04-09T14:05:46Z</time></trkpt>
<trkpt lat="46.05858000" lon="6.17534330"><ele>837.400024</ele><time>2007-04-09T14:05:48Z</time></trkpt>
<trkpt lat="46.05870670" lon="6.17514170"><ele>836.599976</ele><time>2007-04-09T14:05:50Z</time></trkpt>
<trkpt lat="46.05887000" lon="6.17495000"><ele>833.5</ele><time>2007-04-09T14:05:52Z</time></trkpt>
<trkpt lat="46.05904330" lon="6.17476500"><ele>831.799988</ele><time>2007-04-09T14:05:54Z</time></trkpt>
<trkpt lat="46.05922500" lon="6.17459170"><ele>830.700012</ele><time>2007-04-09T14:05:56Z</time></trkpt>
<trkpt lat="46.05940830" lon="6.17443330"><ele>829.900024</ele><time>2007-04-09T14:05:58Z</time></trkpt>
<trkpt lat="46.05958000" lon="6.17428170"><ele>829.5</ele><time>2007-04-09T14:06:00Z</time></trkpt>
<trkpt lat="46.05973830" lon="6.17414000"><ele>829.400024</ele><time>2007-04-09T14:06:02Z</time></trkpt>
<trkpt lat="46.05988830" lon="6.17400500"><ele>829.299988</ele><time>2007-04-09T14:06:04Z</time></trkpt>
<trkpt lat="46.06003000" lon="6.17387330"><ele>829.200012</ele><time>2007-04-09T14:06:06Z</time></trkpt>
<trkpt lat="46.06017000" lon="6.17373500"><ele>829.400024</ele><time>2007-04-09T14:06:08Z</time></trkpt>
<trkpt lat="46.06029830" lon="6.17357500"><ele>829.599976</ele><time>2007-04-09T14:06:10Z</time></trkpt>
<trkpt lat="46.06040670" lon="6.17338830"><ele>829.799988</ele><time>2007-04-09T14:06:12Z</time></trkpt>
<trkpt lat="46.06050500" lon="6.17318500"><ele>829.700012</ele><time>2007-04-09T14:06:14Z</time></trkpt>
<trkpt lat="46.06060670" lon="6.17299000"><ele>830</ele><time>2007-04-09T14:06:16Z</time></trkpt>
<trkpt lat="46.06072670" lon="6.17283000"><ele>830.5</ele><time>2007-04-09T14:06:18Z</time></trkpt>
<trkpt lat="46.06085500" lon="6.17268830"><ele>831.099976</ele><time>2007-04-09T14:06:20Z</time></trkpt>
<trkpt lat="46.06098000" lon="6.17255330"><ele>831.599976</ele><time>2007-04-09T14:06:22Z</time></trkpt>
<trkpt lat="46.06109670" lon="6.17242330"><ele>832.299988</ele><time>2007-04-09T14:06:24Z</time></trkpt>
<trkpt lat="46.06121000" lon="6.17229670"><ele>832.900024</ele><time>2007-04-09T14:06:26Z</time></trkpt>
<trkpt lat="46.06132000" lon="6.17217830"><ele>833.299988</ele><time>2007-04-09T14:06:28Z</time></trkpt>
<trkpt lat="46.06143670" lon="6.17207500"><ele>833.5</ele><time>2007-04-09T14:06:30Z</time></trkpt>
<trkpt lat="46.06156500" lon="6.17200000"><ele>833.5</ele><time>2007-04-09T14:06:32Z</time></trkpt>
<trkpt lat="46.06169830" lon="6.17193330"><ele>833.799988</ele><time>2007-04-09T14:06:34Z</time></trkpt>
<trkpt lat="46.06183830" lon="6.17186670"><ele>833.700012</ele><time>2007-04-09T14:06:36Z</time></trkpt>
<trkpt lat="46.06198170" lon="6.17179670"><ele>833.5</ele><time>2007-04-09T14:06:38Z</time></trkpt>
<trkpt lat="46.06212670" lon="6.17172330"><ele>833.299988</ele><time>2007-04-09T14:06:40Z</time></trkpt>
<trkpt lat="46.06227330" lon="6.17165170"><ele>833.200012</ele><time>2007-04-09T14:06:42Z</time></trkpt>
<trkpt lat="46.06242000" lon="6.17157670"><ele>833</ele><time>2007-04-09T14:06:44Z</time></trkpt>
<trkpt lat="46.06256670" lon="6.17150170"><ele>832.900024</ele><time>2007-04-09T14:06:46Z</time></trkpt>
<trkpt lat="46.06271330" lon="6.17142830"><ele>832.700012</ele><time>2007-04-09T14:06:48Z</time></trkpt>
<trkpt lat="46.06286330" lon="6.17135830"><ele>832.599976</ele><time>2007-04-09T14:06:50Z</time></trkpt>
<trkpt lat="46.06301500" lon="6.17130170"><ele>832.400024</ele><time>2007-04-09T14:06:52Z</time></trkpt>
<trkpt lat="46.06317170" lon="6.17126000"><ele>832.200012</ele><time>2007-04-09T14:06:54Z</time></trkpt>
<trkpt lat="46.06333000" lon="6.17122330"><ele>832.099976</ele><time>2007-04-09T14:06:56Z</time></trkpt>
<trkpt lat="46.06348830" lon="6.17118670"><ele>832.400024</ele><time>2007-04-09T14:06:58Z</time></trkpt>
<trkpt lat="46.06364330" lon="6.17115170"><ele>832.400024</ele><time>2007-04-09T14:07:00Z</time></trkpt>
<trkpt lat="46.06379830" lon="6.17112330"><ele>832.599976</ele><time>2007-04-09T14:07:02Z</time></trkpt>
<trkpt lat="46.06394500" lon="6.17112330"><ele>832.799988</ele><time>2007-04-09T14:07:04Z</time></trkpt>
<trkpt lat="46.06408500" lon="6.17115500"><ele>833.200012</ele><time>2007-04-09T14:07:06Z</time></trkpt>
<trkpt lat="46.06422000" lon="6.17120670"><ele>833.400024</ele><time>2007-04-09T14:07:08Z</time></trkpt>
<trkpt lat="46.06435000" lon="6.17128170"><ele>833.700012</ele><time>2007-04-09T14:07:10Z</time></trkpt>
<trkpt lat="46.06446670" lon="6.17139670"><ele>833.599976</ele><time>2007-04-09T14:07:12Z</time></trkpt>
<trkpt lat="46.06456330" lon="6.17155500"><ele>833.400024</ele><time>2007-04-09T14:07:14Z</time></trkpt>
<trkpt lat="46.06464830" lon="6.17173330"><ele>833.099976</ele><time>2007-04-09T14:07:16Z</time></trkpt>
<trkpt lat="46.06472830" lon="6.17191670"><ele>833</ele><time>2007-04-09T14:07:18Z</time></trkpt>
<trkpt lat="46.06481170" lon="6.17210330"><ele>832.700012</ele><time>2007-04-09T14:07:20Z</time></trkpt>
<trkpt lat="46.06489830" lon="6.17229830"><ele>832.5</ele><time>2007-04-09T14:07:22Z</time></trkpt>
<trkpt lat="46.06499170" lon="6.17249000"><ele>832.400024</ele><time>2007-04-09T14:07:24Z</time></trkpt>
<trkpt lat="46.06510330" lon="6.17265670"><ele>832.5</ele><time>2007-04-09T14:07:26Z</time></trkpt>
<trkpt lat="46.06524500" lon="6.17276500"><ele>832.5</ele><time>2007-04-09T14:07:28Z</time></trkpt>
<trkpt lat="46.06539330" lon="6.17283330"><ele>832.900024</ele><time>2007-04-09T14:07:30Z</time></trkpt>
<trkpt lat="46.06554170" lon="6.17288330"><ele>833.099976</ele><time>2007-04-09T14:07:32Z</time></trkpt>
<trkpt lat="46.06568670" lon="6.17293670"><ele>833.400024</ele><time>2007-04-09T14:07:34Z</time></trkpt>
<trkpt lat="46.06582670" lon="6.17300500"><ele>833.200012</ele><time>2007-04-09T14:07:36Z</time></trkpt>
<trkpt lat="46.06596330" lon="6.17309330"><ele>833.099976</ele><time>2007-04-09T14:07:38Z</time></trkpt>
<trkpt lat="46.06609670" lon="6.17319500"><ele>833.299988</ele><time>2007-04-09T14:07:40Z</time></trkpt>
<trkpt lat="46.06623330" lon="6.17329830"><ele>833.200012</ele><time>2007-04-09T14:07:42Z</time></trkpt>
<trkpt lat="46.06637170" lon="6.17339830"><ele>833</ele><time>2007-04-09T14:07:44Z</time></trkpt>
<trkpt lat="46.06651000" lon="6.17350830"><ele>832.700012</ele><time>2007-04-09T14:07:46Z</time></trkpt>
<trkpt lat="46.06664830" lon="6.17361670"><ele>832.299988</ele><time>2007-04-09T14:07:48Z</time></trkpt>
<trkpt lat="46.06678830" lon="6.17372170"><ele>831.900024</ele><time>2007-04-09T14:07:50Z</time></trkpt>
<trkpt lat="46.06692670" lon="6.17382330"><ele>831.799988</ele><time>2007-04-09T14:07:52Z</time></trkpt>
<trkpt lat="46.06706330" lon="6.17394500"><ele>831</ele><time>2007-04-09T14:07:54Z</time></trkpt>
<trkpt lat="46.06720670" lon="6.17406330"><ele>830.299988</ele><time>2007-04-09T14:07:56Z</time></trkpt>
<trkpt lat="46.06736170" lon="6.17416000"><ele>829.5</ele><time>2007-04-09T14:07:58Z</time></trkpt>
<trkpt lat="46.06752830" lon="6.17421500"><ele>828.799988</ele><time>2007-04-09T14:08:00Z</time></trkpt>
<trkpt lat="46.06770000" lon="6.17421830"><ele>828.099976</ele><time>2007-04-09T14:08:02Z</time></trkpt>
<trkpt lat="46.06787830" lon="6.17419500"><ele>828</ele><time>2007-04-09T14:08:04Z</time></trkpt>
<trkpt lat="46.06805330" lon="6.17416670"><ele>827.799988</ele><time>2007-04-09T14:08:06Z</time></trkpt>
<trkpt lat="46.06823500" lon="6.17414170"><ele>827.099976</ele><time>2007-04-09T14:08:08Z</time></trkpt>
<trkpt lat="46.06842170" lon="6.17411170"><ele>826.400024</ele><time>2007-04-09T14:08:10Z</time></trkpt>
<trkpt lat="46.06861670" lon="6.17408170"><ele>825.900024</ele><time>2007-04-09T14:08:12Z</time></trkpt>
<trkpt lat="46.06881500" lon="6.17404830"><ele>825.299988</ele><time>2007-04-09T14:08:14Z</time></trkpt>
<trkpt lat="46.06902000" lon="6.17401670"><ele>824.799988</ele><time>2007-04-09T14:08:16Z</time></trkpt>
<trkpt lat="46.06922330" lon="6.17399830"><ele>824.5</ele><time>2007-04-09T14:08:18Z</time></trkpt>
<trkpt lat="46.06942830" lon="6.17403000"><ele>823.700012</ele><time>2007-04-09T14:08:20Z</time></trkpt>
<trkpt lat="46.06962670" lon="6.17411500"><ele>823.299988</ele><time>2007-04-09T14:08:22Z</time></trkpt>
<trkpt lat="46.06982000" lon="6.17421830"><ele>822.700012</ele><time>2007-04-09T14:08:24Z</time></trkpt>
<trkpt lat="46.07001330" lon="6.17432330"><ele>822.099976</ele><time>2007-04-09T14:08:26Z</time></trkpt>
<trkpt lat="46.07020830" lon="6.17443000"><ele>821.5</ele><time>2007-04-09T14:08:28Z</time></trkpt>
<trkpt lat="46.07040330" lon="6.17453830"><ele>821.099976</ele><time>2007-04-09T14:08:30Z</time></trkpt>
<trkpt lat="46.07059830" lon="6.17464500"><ele>820.799988</ele><time>2007-04-09T14:08:32Z</time></trkpt>
<trkpt lat="46.07079000" lon="6.17475000"><ele>820.599976</ele><time>2007-04-09T14:08:34Z</time></trkpt>
<trkpt lat="46.07097500" lon="6.17487000"><ele>820.400024</ele><time>2007-04-09T14:08:36Z</time></trkpt>
<trkpt lat="46.07114000" lon="6.17504000"><ele>820</ele><time>2007-04-09T14:08:38Z</time></trkpt>
<trkpt lat="46.07128830" lon="6.17524670"><ele>819.299988</ele><time>2007-04-09T14:08:40Z</time></trkpt>
<trkpt lat="46.07143830" lon="6.17545830"><ele>818.5</ele><time>2007-04-09T14:08:42Z</time></trkpt>
<trkpt lat="46.07159000" lon="6.17567330"><ele>817.599976</ele><time>2007-04-09T14:08:44Z</time></trkpt>
<trkpt lat="46.07174670" lon="6.17588830"><ele>816.799988</ele><time>2007-04-09T14:08:46Z</time></trkpt>
<trkpt lat="46.07190670" lon="6.17610670"><ele>816.099976</ele><time>2007-04-09T14:08:48Z</time></trkpt>
<trkpt lat="46.07206670" lon="6.17632830"><ele>815.299988</ele><time>2007-04-09T14:08:50Z</time></trkpt>
<trkpt lat="46.07223000" lon="6.17654830"><ele>814.700012</ele><time>2007-04-09T14:08:52Z</time></trkpt>
<trkpt lat="46.07239500" lon="6.17677000"><ele>814.200012</ele><time>2007-04-09T14:08:54Z</time></trkpt>
<trkpt lat="46.07255500" lon="6.17699500"><ele>813.400024</ele><time>2007-04-09T14:08:56Z</time></trkpt>
<trkpt lat="46.07272000" lon="6.17720330"><ele>812.700012</ele><time>2007-04-09T14:08:58Z</time></trkpt>
<trkpt lat="46.07291000" lon="6.17732000"><ele>812.299988</ele><time>2007-04-09T14:09:00Z</time></trkpt>
<trkpt lat="46.07312170" lon="6.17732670"><ele>811.799988</ele><time>2007-04-09T14:09:02Z</time></trkpt>
<trkpt lat="46.07333670" lon="6.17728670"><ele>810.900024</ele><time>2007-04-09T14:09:04Z</time></trkpt>
<trkpt lat="46.07356000" lon="6.17727000"><ele>809.400024</ele><time>2007-04-09T14:09:06Z</time></trkpt>
<trkpt lat="46.07378500" lon="6.17731830"><ele>807.799988</ele><time>2007-04-09T14:09:08Z</time></trkpt>
<trkpt lat="46.07400330" lon="6.17743830"><ele>806.299988</ele><time>2007-04-09T14:09:10Z</time></trkpt>
<trkpt lat="46.07421330" lon="6.17758330"><ele>804.799988</ele><time>2007-04-09T14:09:12Z</time></trkpt>
<trkpt lat="46.07442330" lon="6.17773170"><ele>803.099976</ele><time>2007-04-09T14:09:14Z</time></trkpt>
<trkpt lat="46.07463830" lon="6.17788000"><ele>801.200012</ele><time>2007-04-09T14:09:16Z</time></trkpt>
<trkpt lat="46.07486670" lon="6.17799500"><ele>799.400024</ele><time>2007-04-09T14:09:18Z</time></trkpt>
<trkpt lat="46.07509830" lon="6.17796000"><ele>798.200012</ele><time>2007-04-09T14:09:20Z</time></trkpt>
<trkpt lat="46.07530500" lon="6.17770330"><ele>797.299988</ele><time>2007-04-09T14:09:22Z</time></trkpt>
<trkpt lat="46.07548830" lon="6.17741830"><ele>795.599976</ele><time>2007-04-09T14:09:24Z</time></trkpt>
<trkpt lat="46.07570170" lon="6.17721330"><ele>793.900024</ele><time>2007-04-09T14:09:26Z</time></trkpt>
<trkpt lat="46.07592670" lon="6.17717170"><ele>791.200012</ele><time>2007-04-09T14:09:28Z</time></trkpt>
<trkpt lat="46.07608330" lon="6.17730500"><ele>789.700012</ele><time>2007-04-09T14:09:30Z</time></trkpt>
<trkpt lat="46.07610500" lon="6.17763500"><ele>786.900024</ele><time>2007-04-09T14:09:32Z</time></trkpt>
<trkpt lat="46.07603000" lon="6.17789500"><ele>786.299988</ele><time>2007-04-09T14:09:34Z</time></trkpt>
<trkpt lat="46.07590330" lon="6.17812500"><ele>784.299988</ele><time>2007-04-09T14:09:36Z</time></trkpt>
<trkpt lat="46.07574830" lon="6.17838170"><ele>782.900024</ele><time>2007-04-09T14:09:38Z</time></trkpt>
<trkpt lat="46.07565170" lon="6.17868170"><ele>783.200012</ele><time>2007-04-09T14:09:40Z</time></trkpt>
<trkpt lat="46.07570830" lon="6.17887000"><ele>782.799988</ele><time>2007-04-09T14:09:42Z</time></trkpt>
<trkpt lat="46.07591330" lon="6.17884830"><ele>783.400024</ele><time>2007-04-09T14:09:44Z</time></trkpt>
<trkpt lat="46.07606000" lon="6.17879000"><ele>784</ele><time>2007-04-09T14:09:46Z</time></trkpt>
<trkpt lat="46.07616670" lon="6.17875670"><ele>786.200012</ele><time>2007-04-09T14:09:48Z</time></trkpt>
<trkpt lat="46.07629000" lon="6.17873500"><ele>789.599976</ele><time>2007-04-09T14:09:50Z</time></trkpt>
<trkpt lat="46.07643000" lon="6.17871500"><ele>793.099976</ele><time>2007-04-09T14:09:52Z</time></trkpt>
<trkpt lat="46.07651000" lon="6.17868670"><ele>796.200012</ele><time>2007-04-09T14:09:54Z</time></trkpt>
<trkpt lat="46.07660000" lon="6.17863330"><ele>800.299988</ele><time>2007-04-09T14:09:56Z</time></trkpt>
<trkpt lat="46.07666000" lon="6.17856170"><ele>800.200012</ele><time>2007-04-09T14:09:58Z</time></trkpt>
<trkpt lat="46.07671830" lon="6.17849330"><ele>801.799988</ele><time>2007-04-09T14:10:00Z</time></trkpt>
<trkpt lat="46.07678170" lon="6.17841500"><ele>802.400024</ele><time>2007-04-09T14:10:02Z</time></trkpt>
<trkpt lat="46.07683830" lon="6.17835170"><ele>803</ele><time>2007-04-09T14:10:04Z</time></trkpt>
<trkpt lat="46.07691830" lon="6.17831500"><ele>803.799988</ele><time>2007-04-09T14:10:06Z</time></trkpt>
<trkpt lat="46.07703330" lon="6.17829670"><ele>799.700012</ele><time>2007-04-09T14:10:08Z</time></trkpt>
<trkpt lat="46.07712500" lon="6.17832330"><ele>797.700012</ele><time>2007-04-09T14:10:10Z</time></trkpt>
<trkpt lat="46.07720830" lon="6.17837170"><ele>798</ele><time>2007-04-09T14:10:12Z</time></trkpt>
<trkpt lat="46.07727670" lon="6.17842670"><ele>798.900024</ele><time>2007-04-09T14:10:14Z</time></trkpt>
<trkpt lat="46.07733670" lon="6.17848330"><ele>799.599976</ele><time>2007-04-09T14:10:16Z</time></trkpt>
<trkpt lat="46.07739830" lon="6.17854000"><ele>800.700012</ele><time>2007-04-09T14:10:18Z</time></trkpt>
<trkpt lat="46.07746500" lon="6.17860330"><ele>801.799988</ele><time>2007-04-09T14:10:20Z</time></trkpt>
<trkpt lat="46.07753170" lon="6.17866000"><ele>802.599976</ele><time>2007-04-09T14:10:22Z</time></trkpt>
<trkpt lat="46.07759670" lon="6.17870830"><ele>803.200012</ele><time>2007-04-09T14:10:24Z</time></trkpt>
<trkpt lat="46.07765830" lon="6.17876170"><ele>803.799988</ele><time>2007-04-09T14:10:26Z</time></trkpt>
<trkpt lat="46.07772170" lon="6.17882330"><ele>804.299988</ele><time>2007-04-09T14:10:28Z</time></trkpt>
<trkpt lat="46.07779830" lon="6.17888330"><ele>803.400024</ele><time>2007-04-09T14:10:30Z</time></trkpt>
<trkpt lat="46.07788170" lon="6.17894170"><ele>802.200012</ele><time>2007-04-09T14:10:32Z</time></trkpt>
<trkpt lat="46.07796670" lon="6.17901000"><ele>802</ele><time>2007-04-09T14:10:34Z</time></trkpt>
<trkpt lat="46.07805670" lon="6.17908000"><ele>801.900024</ele><time>2007-04-09T14:10:36Z</time></trkpt>
<trkpt lat="46.07814500" lon="6.17915670"><ele>802.299988</ele><time>2007-04-09T14:10:38Z</time></trkpt>
<trkpt lat="46.07823330" lon="6.17923330"><ele>802.900024</ele><time>2007-04-09T14:10:40Z</time></trkpt>
<trkpt lat="46.07832500" lon="6.17931000"><ele>803.5</ele><time>2007-04-09T14:10:42Z</time></trkpt>
<trkpt lat="46.07842000" lon="6.17939170"><ele>803.099976</ele><time>2007-04-09T14:10:44Z</time></trkpt>
<trkpt lat="46.07851830" lon="6.17946670"><ele>802.799988</ele><time>2007-04-09T14:10:46Z</time></trkpt>
<trkpt lat="46.07861670" lon="6.17955330"><ele>803.400024</ele><time>2007-04-09T14:10:48Z</time></trkpt>
<trkpt lat="46.07872500" lon="6.17963830"><ele>803.099976</ele><time>2007-04-09T14:10:50Z</time></trkpt>
<trkpt lat="46.07883170" lon="6.17972330"><ele>802.599976</ele><time>2007-04-09T14:10:52Z</time></trkpt>
<trkpt lat="46.07894330" lon="6.17981500"><ele>802.5</ele><time>2007-04-09T14:10:54Z</time></trkpt>
<trkpt lat="46.07905670" lon="6.17991170"><ele>801.299988</ele><time>2007-04-09T14:10:56Z</time></trkpt>
<trkpt lat="46.07917330" lon="6.18001330"><ele>800.299988</ele><time>2007-04-09T14:10:58Z</time></trkpt>
<trkpt lat="46.07929500" lon="6.18010670"><ele>800.599976</ele><time>2007-04-09T14:11:00Z</time></trkpt>
<trkpt lat="46.07940500" lon="6.18020670"><ele>800.299988</ele><time>2007-04-09T14:11:02Z</time></trkpt>
<trkpt lat="46.07951670" lon="6.18029670"><ele>799.5</ele><time>2007-04-09T14:11:04Z</time></trkpt>
<trkpt lat="46.07963500" lon="6.18038830"><ele>798.200012</ele><time>2007-04-09T14:11:06Z</time></trkpt>
<trkpt lat="46.07976170" lon="6.18048330"><ele>798.299988</ele><time>2007-04-09T14:11:08Z</time></trkpt>
<trkpt lat="46.07989000" lon="6.18056670"><ele>798.599976</ele><time>2007-04-09T14:11:10Z</time></trkpt>
<trkpt lat="46.08001670" lon="6.18065170"><ele>798.5</ele><time>2007-04-09T14:11:12Z</time></trkpt>
<trkpt lat="46.08014670" lon="6.18074670"><ele>798.099976</ele><time>2007-04-09T14:11:14Z</time></trkpt>
<trkpt lat="46.08027170" lon="6.18083330"><ele>797.799988</ele><time>2007-04-09T14:11:16Z</time></trkpt>
<trkpt lat="46.08039500" lon="6.18092500"><ele>797.799988</ele><time>2007-04-09T14:11:18Z</time></trkpt>
<trkpt lat="46.08051670" lon="6.18103000"><ele>797.900024</ele><time>2007-04-09T14:11:20Z</time></trkpt>
<trkpt lat="46.08063670" lon="6.18114500"><ele>797.900024</ele><time>2007-04-09T14:11:22Z</time></trkpt>
<trkpt lat="46.08074670" lon="6.18127330"><ele>797.799988</ele><time>2007-04-09T14:11:24Z</time></trkpt>
<trkpt lat="46.08085330" lon="6.18140170"><ele>798.400024</ele><time>2007-04-09T14:11:26Z</time></trkpt>
<trkpt lat="46.08095500" lon="6.18154170"><ele>799.099976</ele><time>2007-04-09T14:11:28Z</time></trkpt>
<trkpt lat="46.08105330" lon="6.18168830"><ele>799.5</ele><time>2007-04-09T14:11:30Z</time></trkpt>
<trkpt lat="46.08115500" lon="6.18183830"><ele>798.099976</ele><time>2007-04-09T14:11:32Z</time></trkpt>
<trkpt lat="46.08125170" lon="6.18197000"><ele>799</ele><time>2007-04-09T14:11:34Z</time></trkpt>
<trkpt lat="46.08133670" lon="6.18209500"><ele>799.5</ele><time>2007-04-09T14:11:36Z</time></trkpt>
<trkpt lat="46.08142330" lon="6.18221170"><ele>800.099976</ele><time>2007-04-09T14:11:38Z</time></trkpt>
<trkpt lat="46.08151830" lon="6.18231500"><ele>800.900024</ele><time>2007-04-09T14:11:40Z</time></trkpt>
<trkpt lat="46.08161500" lon="6.18239500"><ele>801.299988</ele><time>2007-04-09T14:11:42Z</time></trkpt>
<trkpt lat="46.08171170" lon="6.18245670"><ele>801.299988</ele><time>2007-04-09T14:11:44Z</time></trkpt>
<trkpt lat="46.08180670" lon="6.18251330"><ele>802.099976</ele><time>2007-04-09T14:11:46Z</time></trkpt>
<trkpt lat="46.08189670" lon="6.18256170"><ele>803.299988</ele><time>2007-04-09T14:11:48Z</time></trkpt>
<trkpt lat="46.08199000" lon="6.18260500"><ele>803.900024</ele><time>2007-04-09T14:11:50Z</time></trkpt>
<trkpt lat="46.08208670" lon="6.18266500"><ele>803.799988</ele><time>2007-04-09T14:11:52Z</time></trkpt>
<trkpt lat="46.08218000" lon="6.18273500"><ele>803.099976</ele><time>2007-04-09T14:11:54Z</time></trkpt>
<trkpt lat="46.08227000" lon="6.18281500"><ele>802.400024</ele><time>2007-04-09T14:11:56Z</time></trkpt>
<trkpt lat="46.08235670" lon="6.18289330"><ele>802.200012</ele><time>2007-04-09T14:11:58Z</time></trkpt>
<trkpt lat="46.08244500" lon="6.18297500"><ele>802.299988</ele><time>2007-04-09T14:12:00Z</time></trkpt>
<trkpt lat="46.08253000" lon="6.18304670"><ele>803.400024</ele><time>2007-04-09T14:12:02Z</time></trkpt>
<trkpt lat="46.08261330" lon="6.18312500"><ele>804.299988</ele><time>2007-04-09T14:12:04Z</time></trkpt>
<trkpt lat="46.08269170" lon="6.18320000"><ele>805.799988</ele><time>2007-04-09T14:12:06Z</time></trkpt>
<trkpt lat="46.08277330" lon="6.18327500"><ele>806</ele><time>2007-04-09T14:12:08Z</time></trkpt>
<trkpt lat="46.08285330" lon="6.18335670"><ele>806.599976</ele><time>2007-04-09T14:12:10Z</time></trkpt>
<trkpt lat="46.08292830" lon="6.18343670"><ele>806.900024</ele><time>2007-04-09T14:12:12Z</time></trkpt>
<trkpt lat="46.08300670" lon="6.18350830"><ele>806.900024</ele><time>2007-04-09T14:12:14Z</time></trkpt>
<trkpt lat="46.08308170" lon="6.18358330"><ele>807.700012</ele><time>2007-04-09T14:12:16Z</time></trkpt>
<trkpt lat="46.08315500" lon="6.18366670"><ele>808.099976</ele><time>2007-04-09T14:12:18Z</time></trkpt>
<trkpt lat="46.08322500" lon="6.18375170"><ele>808.400024</ele><time>2007-04-09T14:12:20Z</time></trkpt>
<trkpt lat="46.08329330" lon="6.18384000"><ele>808.599976</ele><time>2007-04-09T14:12:22Z</time></trkpt>
<trkpt lat="46.08336170" lon="6.18392500"><ele>808.799988</ele><time>2007-04-09T14:12:24Z</time></trkpt>
<trkpt lat="46.08343170" lon="6.18401170"><ele>809.299988</ele><time>2007-04-09T14:12:26Z</time></trkpt>
<trkpt lat="46.08349830" lon="6.18409670"><ele>809.799988</ele><time>2007-04-09T14:12:28Z</time></trkpt>
<trkpt lat="46.08356500" lon="6.18418330"><ele>810.099976</ele><time>2007-04-09T14:12:30Z</time></trkpt>
<trkpt lat="46.08362830" lon="6.18427500"><ele>810.400024</ele><time>2007-04-09T14:12:32Z</time></trkpt>
<trkpt lat="46.08368830" lon="6.18437500"><ele>810.5</ele><time>2007-04-09T14:12:34Z</time></trkpt>
<trkpt lat="46.08373830" lon="6.18448170"><ele>810.700012</ele><time>2007-04-09T14:12:36Z</time></trkpt>
<trkpt lat="46.08377830" lon="6.18458500"><ele>811.700012</ele><time>2007-04-09T14:12:38Z</time></trkpt>
<trkpt lat="46.08381500" lon="6.18470170"><ele>812</ele><time>2007-04-09T14:12:40Z</time></trkpt>
<trkpt lat="46.08384830" lon="6.18482000"><ele>812.200012</ele><time>2007-04-09T14:12:42Z</time></trkpt>
<trkpt lat="46.08388330" lon="6.18492500"><ele>813</ele><time>2007-04-09T14:12:44Z</time></trkpt>
<trkpt lat="46.08392330" lon="6.18502330"><ele>813.700012</ele><time>2007-04-09T14:12:46Z</time></trkpt>
<trkpt lat="46.08396670" lon="6.18512670"><ele>813.200012</ele><time>2007-04-09T14:12:48Z</time></trkpt>
<trkpt lat="46.08401670" lon="6.18520500"><ele>813.599976</ele><time>2007-04-09T14:12:50Z</time></trkpt>
<trkpt lat="46.08406830" lon="6.18527170"><ele>813.400024</ele><time>2007-04-09T14:12:52Z</time></trkpt>
<trkpt lat="46.08412830" lon="6.18535170"><ele>813.5</ele><time>2007-04-09T14:12:54Z</time></trkpt>
<trkpt lat="46.08419170" lon="6.18542670"><ele>814.299988</ele><time>2007-04-09T14:12:56Z</time></trkpt>
<trkpt lat="46.08425000" lon="6.18549170"><ele>816</ele><time>2007-04-09T14:12:58Z</time></trkpt>
<trkpt lat="46.08431500" lon="6.18557330"><ele>815.599976</ele><time>2007-04-09T14:13:00Z</time></trkpt>
<trkpt lat="46.08438330" lon="6.18566000"><ele>815.299988</ele><time>2007-04-09T14:13:02Z</time></trkpt>
<trkpt lat="46.08445670" lon="6.18574330"><ele>814.900024</ele><time>2007-04-09T14:13:04Z</time></trkpt>
<trkpt lat="46.08453170" lon="6.18583670"><ele>814.5</ele><time>2007-04-09T14:13:06Z</time></trkpt>
<trkpt lat="46.08460670" lon="6.18593500"><ele>814.299988</ele><time>2007-04-09T14:13:08Z</time></trkpt>
<trkpt lat="46.08468170" lon="6.18602670"><ele>814.099976</ele><time>2007-04-09T14:13:10Z</time></trkpt>
<trkpt lat="46.08476170" lon="6.18611330"><ele>813.700012</ele><time>2007-04-09T14:13:12Z</time></trkpt>
<trkpt lat="46.08484500" lon="6.18620170"><ele>814.299988</ele><time>2007-04-09T14:13:14Z</time></trkpt>
<trkpt lat="46.08492330" lon="6.18629670"><ele>814.900024</ele><time>2007-04-09T14:13:16Z</time></trkpt>
<trkpt lat="46.08498670" lon="6.18639830"><ele>815.400024</ele><time>2007-04-09T14:13:18Z</time></trkpt>
<trkpt lat="46.08501830" lon="6.18650170"><ele>816.200012</ele><time>2007-04-09T14:13:20Z</time></trkpt>
<trkpt lat="46.08503830" lon="6.18658830"><ele>816.400024</ele><time>2007-04-09T14:13:22Z</time></trkpt>
<trkpt lat="46.08507830" lon="6.18666330"><ele>817.299988</ele><time>2007-04-09T14:13:24Z</time></trkpt>
<trkpt lat="46.08515330" lon="6.18672500"><ele>818.200012</ele><time>2007-04-09T14:13:26Z</time></trkpt>
<trkpt lat="46.08525670" lon="6.18677000"><ele>817.299988</ele><time>2007-04-09T14:13:28Z</time></trkpt>
<trkpt lat="46.08537500" lon="6.18682170"><ele>817</ele><time>2007-04-09T14:13:30Z</time></trkpt>
<trkpt lat="46.08550170" lon="6.18687330"><ele>817.099976</ele><time>2007-04-09T14:13:32Z</time></trkpt>
<trkpt lat="46.08563500" lon="6.18693000"><ele>816.099976</ele><time>2007-04-09T14:13:34Z</time></trkpt>
<trkpt lat="46.08578000" lon="6.18698830"><ele>815.099976</ele><time>2007-04-09T14:13:36Z</time></trkpt>
<trkpt lat="46.08594000" lon="6.18701830"><ele>814</ele><time>2007-04-09T14:13:38Z</time></trkpt>
<trkpt lat="46.08611830" lon="6.18701670"><ele>813.299988</ele><time>2007-04-09T14:13:40Z</time></trkpt>
<trkpt lat="46.08629670" lon="6.18699170"><ele>812.700012</ele><time>2007-04-09T14:13:42Z</time></trkpt>
<trkpt lat="46.08646670" lon="6.18691830"><ele>812.599976</ele><time>2007-04-09T14:13:44Z</time></trkpt>
<trkpt lat="46.08660000" lon="6.18676170"><ele>812.5</ele><time>2007-04-09T14:13:46Z</time></trkpt>
<trkpt lat="46.08669670" lon="6.18654330"><ele>813.299988</ele><time>2007-04-09T14:13:48Z</time></trkpt>
<trkpt lat="46.08679000" lon="6.18630670"><ele>812.799988</ele><time>2007-04-09T14:13:50Z</time></trkpt>
<trkpt lat="46.08692330" lon="6.18610830"><ele>812.200012</ele><time>2007-04-09T14:13:52Z</time></trkpt>
<trkpt lat="46.08709500" lon="6.18603500"><ele>810.400024</ele><time>2007-04-09T14:13:54Z</time></trkpt>
<trkpt lat="46.08729330" lon="6.18597830"><ele>808.900024</ele><time>2007-04-09T14:13:56Z</time></trkpt>
<trkpt lat="46.08747830" lon="6.18584500"><ele>809.5</ele><time>2007-04-09T14:13:58Z</time></trkpt>
<trkpt lat="46.08765670" lon="6.18567170"><ele>808.400024</ele><time>2007-04-09T14:14:00Z</time></trkpt>
<trkpt lat="46.08782330" lon="6.18549830"><ele>808.599976</ele><time>2007-04-09T14:14:02Z</time></trkpt>
<trkpt lat="46.08798830" lon="6.18533500"><ele>808.5</ele><time>2007-04-09T14:14:04Z</time></trkpt>
<trkpt lat="46.08814670" lon="6.18517670"><ele>808.200012</ele><time>2007-04-09T14:14:06Z</time></trkpt>
<trkpt lat="46.08830000" lon="6.18502500"><ele>808.099976</ele><time>2007-04-09T14:14:08Z</time></trkpt>
<trkpt lat="46.08844330" lon="6.18487330"><ele>807.900024</ele><time>2007-04-09T14:14:10Z</time></trkpt>
<trkpt lat="46.08858500" lon="6.18473000"><ele>807.599976</ele><time>2007-04-09T14:14:12Z</time></trkpt>
<trkpt lat="46.08872000" lon="6.18458830"><ele>807.5</ele><time>2007-04-09T14:14:14Z</time></trkpt>
<trkpt lat="46.08885170" lon="6.18445000"><ele>807.400024</ele><time>2007-04-09T14:14:16Z</time></trkpt>
<trkpt lat="46.08897670" lon="6.18431500"><ele>807.299988</ele><time>2007-04-09T14:14:18Z</time></trkpt>
<trkpt lat="46.08910000" lon="6.18418500"><ele>807.099976</ele><time>2007-04-09T14:14:20Z</time></trkpt>
<trkpt lat="46.08922170" lon="6.18405830"><ele>807</ele><time>2007-04-09T14:14:22Z</time></trkpt>
<trkpt lat="46.08934170" lon="6.18393000"><ele>806.900024</ele><time>2007-04-09T14:14:24Z</time></trkpt>
<trkpt lat="46.08946330" lon="6.18380330"><ele>806.799988</ele><time>2007-04-09T14:14:26Z</time></trkpt>
<trkpt lat="46.08958670" lon="6.18367830"><ele>806.700012</ele><time>2007-04-09T14:14:28Z</time></trkpt>
<trkpt lat="46.08971670" lon="6.18357170"><ele>806.599976</ele><time>2007-04-09T14:14:30Z</time></trkpt>
<trkpt lat="46.08985500" lon="6.18349830"><ele>806.400024</ele><time>2007-04-09T14:14:32Z</time></trkpt>
<trkpt lat="46.09000170" lon="6.18347500"><ele>806.299988</ele><time>2007-04-09T14:14:34Z</time></trkpt>
<trkpt lat="46.09014500" lon="6.18350170"><ele>806</ele><time>2007-04-09T14:14:36Z</time></trkpt>
<trkpt lat="46.09028330" lon="6.18356000"><ele>806</ele><time>2007-04-09T14:14:38Z</time></trkpt>
<trkpt lat="46.09041670" lon="6.18362670"><ele>806</ele><time>2007-04-09T14:14:40Z</time></trkpt>
<trkpt lat="46.09054830" lon="6.18370000"><ele>805.700012</ele><time>2007-04-09T14:14:42Z</time></trkpt>
<trkpt lat="46.09068000" lon="6.18377170"><ele>805.5</ele><time>2007-04-09T14:14:44Z</time></trkpt>
<trkpt lat="46.09081330" lon="6.18385000"><ele>805.200012</ele><time>2007-04-09T14:14:46Z</time></trkpt>
<trkpt lat="46.09094670" lon="6.18392670"><ele>804.900024</ele><time>2007-04-09T14:14:48Z</time></trkpt>
<trkpt lat="46.09108000" lon="6.18400000"><ele>804.900024</ele><time>2007-04-09T14:14:50Z</time></trkpt>
<trkpt lat="46.09121000" lon="6.18407330"><ele>805</ele><time>2007-04-09T14:14:52Z</time></trkpt>
<trkpt lat="46.09133500" lon="6.18414330"><ele>805.299988</ele><time>2007-04-09T14:14:54Z</time></trkpt>
<trkpt lat="46.09145500" lon="6.18421000"><ele>805.700012</ele><time>2007-04-09T14:14:56Z</time></trkpt>
<trkpt lat="46.09157170" lon="6.18427330"><ele>806.200012</ele><time>2007-04-09T14:14:58Z</time></trkpt>
<trkpt lat="46.09168170" lon="6.18433170"><ele>806.799988</ele><time>2007-04-09T14:15:00Z</time></trkpt>
<trkpt lat="46.09178830" lon="6.18438330"><ele>807.400024</ele><time>2007-04-09T14:15:02Z</time></trkpt>
<trkpt lat="46.09188830" lon="6.18444170"><ele>808</ele><time>2007-04-09T14:15:04Z</time></trkpt>
<trkpt lat="46.09198330" lon="6.18449670"><ele>808.599976</ele><time>2007-04-09T14:15:06Z</time></trkpt>
<trkpt lat="46.09207500" lon="6.18454830"><ele>809.200012</ele><time>2007-04-09T14:15:08Z</time></trkpt>
<trkpt lat="46.09216830" lon="6.18459830"><ele>809.799988</ele><time>2007-04-09T14:15:10Z</time></trkpt>
<trkpt lat="46.09226000" lon="6.18465170"><ele>810.299988</ele><time>2007-04-09T14:15:12Z</time></trkpt>
<trkpt lat="46.09235330" lon="6.18470000"><ele>811</ele><time>2007-04-09T14:15:14Z</time></trkpt>
<trkpt lat="46.09244670" lon="6.18475330"><ele>811.700012</ele><time>2007-04-09T14:15:16Z</time></trkpt>
<trkpt lat="46.09253830" lon="6.18480330"><ele>812.200012</ele><time>2007-04-09T14:15:18Z</time></trkpt>
<trkpt lat="46.09262830" lon="6.18485170"><ele>812.799988</ele><time>2007-04-09T14:15:20Z</time></trkpt>
<trkpt lat="46.09271500" lon="6.18490330"><ele>813.099976</ele><time>2007-04-09T14:15:22Z</time></trkpt>
<trkpt lat="46.09280000" lon="6.18495000"><ele>813.400024</ele><time>2007-04-09T14:15:24Z</time></trkpt>
<trkpt lat="46.09288500" lon="6.18499500"><ele>813.900024</ele><time>2007-04-09T14:15:26Z</time></trkpt>
<trkpt lat="46.09296830" lon="6.18504500"><ele>814.299988</ele><time>2007-04-09T14:15:28Z</time></trkpt>
<trkpt lat="46.09305000" lon="6.18509000"><ele>814.599976</ele><time>2007-04-09T14:15:30Z</time></trkpt>
<trkpt lat="46.09313170" lon="6.18513170"><ele>814.900024</ele><time>2007-04-09T14:15:32Z</time></trkpt>
<trkpt lat="46.09321170" lon="6.18517670"><ele>815.099976</ele><time>2007-04-09T14:15:34Z</time></trkpt>
<trkpt lat="46.09329330" lon="6.18522000"><ele>815.400024</ele><time>2007-04-09T14:15:36Z</time></trkpt>
<trkpt lat="46.09337500" lon="6.18526330"><ele>815.599976</ele><time>2007-04-09T14:15:38Z</time></trkpt>
<trkpt lat="46.09345500" lon="6.18531000"><ele>815.799988</ele><time>2007-04-09T14:15:40Z</time></trkpt>
<trkpt lat="46.09353670" lon="6.18535500"><ele>816</ele><time>2007-04-09T14:15:42Z</time></trkpt>
<trkpt lat="46.09362000" lon="6.18539670"><ele>816.299988</ele><time>2007-04-09T14:15:44Z</time></trkpt>
<trkpt lat="46.09370330" lon="6.18543170"><ele>816.599976</ele><time>2007-04-09T14:15:46Z</time></trkpt>
<trkpt lat="46.09378670" lon="6.18546000"><ele>816.900024</ele><time>2007-04-09T14:15:48Z</time></trkpt>
<trkpt lat="46.09386830" lon="6.18548000"><ele>817.200012</ele><time>2007-04-09T14:15:50Z</time></trkpt>
<trkpt lat="46.09394830" lon="6.18549000"><ele>817.599976</ele><time>2007-04-09T14:15:52Z</time></trkpt>
<trkpt lat="46.09402830" lon="6.18548670"><ele>818</ele><time>2007-04-09T14:15:54Z</time></trkpt>
<trkpt lat="46.09410830" lon="6.18547500"><ele>818.400024</ele><time>2007-04-09T14:15:56Z</time></trkpt>
<trkpt lat="46.09418330" lon="6.18545670"><ele>819</ele><time>2007-04-09T14:15:58Z</time></trkpt>
<trkpt lat="46.09426000" lon="6.18543330"><ele>819.799988</ele><time>2007-04-09T14:16:00Z</time></trkpt>
<trkpt lat="46.09433670" lon="6.18541170"><ele>820.5</ele><time>2007-04-09T14:16:02Z</time></trkpt>
<trkpt lat="46.09441170" lon="6.18538830"><ele>820.799988</ele><time>2007-04-09T14:16:04Z</time></trkpt>
<trkpt lat="46.09448000" lon="6.18536670"><ele>821.299988</ele><time>2007-04-09T14:16:06Z</time></trkpt>
<trkpt lat="46.09454830" lon="6.18534500"><ele>821.799988</ele><time>2007-04-09T14:16:08Z</time></trkpt>
<trkpt lat="46.09461670" lon="6.18533330"><ele>822.299988</ele><time>2007-04-09T14:16:10Z</time></trkpt>
<trkpt lat="46.09468500" lon="6.18532500"><ele>822.599976</ele><time>2007-04-09T14:16:12Z</time></trkpt>
<trkpt lat="46.09475330" lon="6.18531670"><ele>822.700012</ele><time>2007-04-09T14:16:14Z</time></trkpt>
<trkpt lat="46.09482670" lon="6.18531330"><ele>822.700012</ele><time>2007-04-09T14:16:16Z</time></trkpt>
<trkpt lat="46.09489830" lon="6.18530500"><ele>823.099976</ele><time>2007-04-09T14:16:18Z</time></trkpt>
<trkpt lat="46.09497330" lon="6.18529330"><ele>823.400024</ele><time>2007-04-09T14:16:20Z</time></trkpt>
<trkpt lat="46.09504330" lon="6.18528170"><ele>823.400024</ele><time>2007-04-09T14:16:22Z</time></trkpt>
<trkpt lat="46.09511670" lon="6.18526670"><ele>823.5</ele><time>2007-04-09T14:16:24Z</time></trkpt>
<trkpt lat="46.09518830" lon="6.18526000"><ele>824.200012</ele><time>2007-04-09T14:16:26Z</time></trkpt>
<trkpt lat="46.09526000" lon="6.18525330"><ele>825.400024</ele><time>2007-04-09T14:16:28Z</time></trkpt>
<trkpt lat="46.09532330" lon="6.18524330"><ele>827</ele><time>2007-04-09T14:16:30Z</time></trkpt>
<trkpt lat="46.09538830" lon="6.18524670"><ele>827.400024</ele><time>2007-04-09T14:16:32Z</time></trkpt>
<trkpt lat="46.09545330" lon="6.18526330"><ele>827.5</ele><time>2007-04-09T14:16:34Z</time></trkpt>
<trkpt lat="46.09550500" lon="6.18527000"><ele>828.400024</ele><time>2007-04-09T14:16:36Z</time></trkpt>
<trkpt lat="46.09555330" lon="6.18525000"><ele>829.299988</ele><time>2007-04-09T14:16:38Z</time></trkpt>
<trkpt lat="46.09557330" lon="6.18517830"><ele>830.400024</ele><time>2007-04-09T14:16:40Z</time></trkpt>
<trkpt lat="46.09556330" lon="6.18509000"><ele>831.200012</ele><time>2007-04-09T14:16:42Z</time></trkpt>
<trkpt lat="46.09554500" lon="6.18500170"><ele>832.5</ele><time>2007-04-09T14:16:44Z</time></trkpt>
<trkpt lat="46.09552000" lon="6.18491670"><ele>834.099976</ele><time>2007-04-09T14:16:46Z</time></trkpt>
<trkpt lat="46.09549500" lon="6.18483170"><ele>835.200012</ele><time>2007-04-09T14:16:48Z</time></trkpt>
<trkpt lat="46.09546330" lon="6.18474830"><ele>836.200012</ele><time>2007-04-09T14:16:50Z</time></trkpt>
<trkpt lat="46.09542830" lon="6.18466500"><ele>836.400024</ele><time>2007-04-09T14:16:52Z</time></trkpt>
<trkpt lat="46.09537500" lon="6.18458500"><ele>835.900024</ele><time>2007-04-09T14:16:54Z</time></trkpt>
<trkpt lat="46.09531170" lon="6.18450830"><ele>836</ele><time>2007-04-09T14:16:56Z</time></trkpt>
<trkpt lat="46.09525330" lon="6.18443500"><ele>835.900024</ele><time>2007-04-09T14:16:58Z</time></trkpt>
<trkpt lat="46.09520000" lon="6.18436500"><ele>835.900024</ele><time>2007-04-09T14:17:00Z</time></trkpt>
<trkpt lat="46.09514500" lon="6.18429500"><ele>835.799988</ele><time>2007-04-09T14:17:02Z</time></trkpt>
<trkpt lat="46.09508500" lon="6.18422330"><ele>835.799988</ele><time>2007-04-09T14:17:04Z</time></trkpt>
<trkpt lat="46.09503000" lon="6.18415170"><ele>835.900024</ele><time>2007-04-09T14:17:06Z</time></trkpt>
<trkpt lat="46.09497330" lon="6.18408670"><ele>836.200012</ele><time>2007-04-09T14:17:08Z</time></trkpt>
<trkpt lat="46.09492000" lon="6.18402170"><ele>836.299988</ele><time>2007-04-09T14:17:10Z</time></trkpt>
<trkpt lat="46.09486830" lon="6.18395670"><ele>836.5</ele><time>2007-04-09T14:17:12Z</time></trkpt>
<trkpt lat="46.09481830" lon="6.18388830"><ele>836</ele><time>2007-04-09T14:17:14Z</time></trkpt>
<trkpt lat="46.09477000" lon="6.18381830"><ele>835.599976</ele><time>2007-04-09T14:17:16Z</time></trkpt>
<trkpt lat="46.09471830" lon="6.18375330"><ele>835.5</ele><time>2007-04-09T14:17:18Z</time></trkpt>
<trkpt lat="46.09466500" lon="6.18368670"><ele>836</ele><time>2007-04-09T14:17:20Z</time></trkpt>
<trkpt lat="46.09461330" lon="6.18362000"><ele>836.5</ele><time>2007-04-09T14:17:22Z</time></trkpt>
<trkpt lat="46.09456330" lon="6.18354500"><ele>836.599976</ele><time>2007-04-09T14:17:24Z</time></trkpt>
<trkpt lat="46.09451830" lon="6.18346330"><ele>836.799988</ele><time>2007-04-09T14:17:26Z</time></trkpt>
<trkpt lat="46.09447670" lon="6.18337830"><ele>837.099976</ele><time>2007-04-09T14:17:28Z</time></trkpt>
<trkpt lat="46.09444170" lon="6.18328670"><ele>837.5</ele><time>2007-04-09T14:17:30Z</time></trkpt>
<trkpt lat="46.09441670" lon="6.18319000"><ele>838</ele><time>2007-04-09T14:17:32Z</time></trkpt>
<trkpt lat="46.09439500" lon="6.18309170"><ele>838.599976</ele><time>2007-04-09T14:17:34Z</time></trkpt>
<trkpt lat="46.09437670" lon="6.18299330"><ele>839.200012</ele><time>2007-04-09T14:17:36Z</time></trkpt>
<trkpt lat="46.09436330" lon="6.18289170"><ele>839.799988</ele><time>2007-04-09T14:17:38Z</time></trkpt>
<trkpt lat="46.09435000" lon="6.18278670"><ele>840.799988</ele><time>2007-04-09T14:17:40Z</time></trkpt>
<trkpt lat="46.09434000" lon="6.18268330"><ele>841.599976</ele><time>2007-04-09T14:17:42Z</time></trkpt>
<trkpt lat="46.09432670" lon="6.18258000"><ele>843</ele><time>2007-04-09T14:17:44Z</time></trkpt>
<trkpt lat="46.09431830" lon="6.18247330"><ele>843.799988</ele><time>2007-04-09T14:17:46Z</time></trkpt>
<trkpt lat="46.09430500" lon="6.18236330"><ele>844.099976</ele><time>2007-04-09T14:17:48Z</time></trkpt>
<trkpt lat="46.09428670" lon="6.18224830"><ele>844.599976</ele><time>2007-04-09T14:17:50Z</time></trkpt>
<trkpt lat="46.09426170" lon="6.18213170"><ele>845</ele><time>2007-04-09T14:17:52Z</time></trkpt>
<trkpt lat="46.09423170" lon="6.18201000"><ele>845.299988</ele><time>2007-04-09T14:17:54Z</time></trkpt>
<trkpt lat="46.09419500" lon="6.18189670"><ele>845.5</ele><time>2007-04-09T14:17:56Z</time></trkpt>
<trkpt lat="46.09415000" lon="6.18178500"><ele>845.599976</ele><time>2007-04-09T14:17:58Z</time></trkpt>
<trkpt lat="46.09409670" lon="6.18167500"><ele>845.599976</ele><time>2007-04-09T14:18:00Z</time></trkpt>
<trkpt lat="46.09403670" lon="6.18156830"><ele>845.599976</ele><time>2007-04-09T14:18:02Z</time></trkpt>
<trkpt lat="46.09397830" lon="6.18146000"><ele>845.799988</ele><time>2007-04-09T14:18:04Z</time></trkpt>
<trkpt lat="46.09391500" lon="6.18135330"><ele>845.799988</ele><time>2007-04-09T14:18:06Z</time></trkpt>
<trkpt lat="46.09385170" lon="6.18124830"><ele>845.799988</ele><time>2007-04-09T14:18:08Z</time></trkpt>
<trkpt lat="46.09379000" lon="6.18114670"><ele>845.799988</ele><time>2007-04-09T14:18:10Z</time></trkpt>
<trkpt lat="46.09373000" lon="6.18104670"><ele>845.599976</ele><time>2007-04-09T14:18:12Z</time></trkpt>
<trkpt lat="46.09367000" lon="6.18094670"><ele>845.599976</ele><time>2007-04-09T14:18:14Z</time></trkpt>
<trkpt lat="46.09361170" lon="6.18084670"><ele>845.700012</ele><time>2007-04-09T14:18:16Z</time></trkpt>
<trkpt lat="46.09355670" lon="6.18073670"><ele>845.700012</ele><time>2007-04-09T14:18:18Z</time></trkpt>
<trkpt lat="46.09350830" lon="6.18061830"><ele>845.799988</ele><time>2007-04-09T14:18:20Z</time></trkpt>
<trkpt lat="46.09346500" lon="6.18049670"><ele>846</ele><time>2007-04-09T14:18:22Z</time></trkpt>
<trkpt lat="46.09342830" lon="6.18036830"><ele>846.400024</ele><time>2007-04-09T14:18:24Z</time></trkpt>
<trkpt lat="46.09339670" lon="6.18023830"><ele>846.799988</ele><time>2007-04-09T14:18:26Z</time></trkpt>
<trkpt lat="46.09336670" lon="6.18010670"><ele>847.200012</ele><time>2007-04-09T14:18:28Z</time></trkpt>
<trkpt lat="46.09333670" lon="6.17997500"><ele>847.400024</ele><time>2007-04-09T14:18:30Z</time></trkpt>
<trkpt lat="46.09330500" lon="6.17984500"><ele>847.799988</ele><time>2007-04-09T14:18:32Z</time></trkpt>
<trkpt lat="46.09327330" lon="6.17971830"><ele>848.5</ele><time>2007-04-09T14:18:34Z</time></trkpt>
<trkpt lat="46.09324500" lon="6.17959000"><ele>848.599976</ele><time>2007-04-09T14:18:36Z</time></trkpt>
<trkpt lat="46.09321830" lon="6.17946330"><ele>849.099976</ele><time>2007-04-09T14:18:38Z</time></trkpt>
<trkpt lat="46.09319170" lon="6.17933830"><ele>849.400024</ele><time>2007-04-09T14:18:40Z</time></trkpt>
<trkpt lat="46.09316830" lon="6.17921170"><ele>849.599976</ele><time>2007-04-09T14:18:42Z</time></trkpt>
<trkpt lat="46.09315000" lon="6.17908670"><ele>850.200012</ele><time>2007-04-09T14:18:44Z</time></trkpt>
<trkpt lat="46.09314330" lon="6.17895830"><ele>850.799988</ele><time>2007-04-09T14:18:46Z</time></trkpt>
<trkpt lat="46.09315170" lon="6.17883170"><ele>851.299988</ele><time>2007-04-09T14:18:48Z</time></trkpt>
<trkpt lat="46.09317500" lon="6.17870830"><ele>851.799988</ele><time>2007-04-09T14:18:50Z</time></trkpt>
<trkpt lat="46.09320670" lon="6.17858670"><ele>852.299988</ele><time>2007-04-09T14:18:52Z</time></trkpt>
<trkpt lat="46.09324000" lon="6.17846670"><ele>852.799988</ele><time>2007-04-09T14:18:54Z</time></trkpt>
<trkpt lat="46.09327670" lon="6.17834670"><ele>853.299988</ele><time>2007-04-09T14:18:56Z</time></trkpt>
<trkpt lat="46.09331500" lon="6.17821500"><ele>853.599976</ele><time>2007-04-09T14:18:58Z</time></trkpt>
<trkpt lat="46.09335000" lon="6.17807830"><ele>854.099976</ele><time>2007-04-09T14:19:00Z</time></trkpt>
<trkpt lat="46.09337000" lon="6.17793170"><ele>854.799988</ele><time>2007-04-09T14:19:02Z</time></trkpt>
<trkpt lat="46.09338170" lon="6.17777830"><ele>855.5</ele><time>2007-04-09T14:19:04Z</time></trkpt>
<trkpt lat="46.09336830" lon="6.17762170"><ele>855.700012</ele><time>2007-04-09T14:19:06Z</time></trkpt>
<trkpt lat="46.09332500" lon="6.17747000"><ele>855.799988</ele><time>2007-04-09T14:19:08Z</time></trkpt>
<trkpt lat="46.09326000" lon="6.17734000"><ele>855.700012</ele><time>2007-04-09T14:19:10Z</time></trkpt>
<trkpt lat="46.09318000" lon="6.17723500"><ele>855.5</ele><time>2007-04-09T14:19:12Z</time></trkpt>
<trkpt lat="46.09309170" lon="6.17714830"><ele>855.700012</ele><time>2007-04-09T14:19:14Z</time></trkpt>
<trkpt lat="46.09299330" lon="6.17706330"><ele>855.700012</ele><time>2007-04-09T14:19:16Z</time></trkpt>
<trkpt lat="46.09289500" lon="6.17698000"><ele>855.599976</ele><time>2007-04-09T14:19:18Z</time></trkpt>
<trkpt lat="46.09279500" lon="6.17690000"><ele>855.5</ele><time>2007-04-09T14:19:20Z</time></trkpt>
<trkpt lat="46.09269500" lon="6.17682500"><ele>855.5</ele><time>2007-04-09T14:19:22Z</time></trkpt>
<trkpt lat="46.09258670" lon="6.17676000"><ele>855.5</ele><time>2007-04-09T14:19:24Z</time></trkpt>
<trkpt lat="46.09247500" lon="6.17670500"><ele>855.200012</ele><time>2007-04-09T14:19:26Z</time></trkpt>
<trkpt lat="46.09237500" lon="6.17666500"><ele>855.299988</ele><time>2007-04-09T14:19:28Z</time></trkpt>
<trkpt lat="46.09227330" lon="6.17663170"><ele>855.900024</ele><time>2007-04-09T14:19:30Z</time></trkpt>
<trkpt lat="46.09216330" lon="6.17660170"><ele>856.5</ele><time>2007-04-09T14:19:32Z</time></trkpt>
<trkpt lat="46.09205830" lon="6.17658330"><ele>856.400024</ele><time>2007-04-09T14:19:34Z</time></trkpt>
<trkpt lat="46.09194830" lon="6.17656330"><ele>856</ele><time>2007-04-09T14:19:36Z</time></trkpt>
<trkpt lat="46.09183500" lon="6.17653670"><ele>855.599976</ele><time>2007-04-09T14:19:38Z</time></trkpt>
<trkpt lat="46.09172670" lon="6.17651670"><ele>855.599976</ele><time>2007-04-09T14:19:40Z</time></trkpt>
<trkpt lat="46.09161170" lon="6.17649670"><ele>855.200012</ele><time>2007-04-09T14:19:42Z</time></trkpt>
<trkpt lat="46.09149500" lon="6.17648000"><ele>855</ele><time>2007-04-09T14:19:44Z</time></trkpt>
<trkpt lat="46.09137830" lon="6.17646000"><ele>854.799988</ele><time>2007-04-09T14:19:46Z</time></trkpt>
<trkpt lat="46.09126170" lon="6.17643500"><ele>854.599976</ele><time>2007-04-09T14:19:48Z</time></trkpt>
<trkpt lat="46.09114670" lon="6.17639830"><ele>854.599976</ele><time>2007-04-09T14:19:50Z</time></trkpt>
<trkpt lat="46.09103500" lon="6.17632830"><ele>854.599976</ele><time>2007-04-09T14:19:52Z</time></trkpt>
<trkpt lat="46.09093330" lon="6.17622330"><ele>854.400024</ele><time>2007-04-09T14:19:54Z</time></trkpt>
<trkpt lat="46.09085000" lon="6.17608830"><ele>854.200012</ele><time>2007-04-09T14:19:56Z</time></trkpt>
<trkpt lat="46.09078670" lon="6.17592830"><ele>854.400024</ele><time>2007-04-09T14:19:58Z</time></trkpt>
<trkpt lat="46.09075330" lon="6.17575330"><ele>854.799988</ele><time>2007-04-09T14:20:00Z</time></trkpt>
<trkpt lat="46.09074670" lon="6.17556830"><ele>855</ele><time>2007-04-09T14:20:02Z</time></trkpt>
<trkpt lat="46.09076670" lon="6.17538670"><ele>855.5</ele><time>2007-04-09T14:20:04Z</time></trkpt>
<trkpt lat="46.09080330" lon="6.17520670"><ele>855.900024</ele><time>2007-04-09T14:20:06Z</time></trkpt>
<trkpt lat="46.09084330" lon="6.17502830"><ele>856.099976</ele><time>2007-04-09T14:20:08Z</time></trkpt>
<trkpt lat="46.09088670" lon="6.17485000"><ele>856</ele><time>2007-04-09T14:20:10Z</time></trkpt>
<trkpt lat="46.09092500" lon="6.17467330"><ele>856.200012</ele><time>2007-04-09T14:20:12Z</time></trkpt>
<trkpt lat="46.09095830" lon="6.17449830"><ele>856</ele><time>2007-04-09T14:20:14Z</time></trkpt>
<trkpt lat="46.09097330" lon="6.17432170"><ele>855.799988</ele><time>2007-04-09T14:20:16Z</time></trkpt>
<trkpt lat="46.09096330" lon="6.17414670"><ele>855.400024</ele><time>2007-04-09T14:20:18Z</time></trkpt>
<trkpt lat="46.09092170" lon="6.17398670"><ele>855.200012</ele><time>2007-04-09T14:20:20Z</time></trkpt>
<trkpt lat="46.09085670" lon="6.17384330"><ele>854.900024</ele><time>2007-04-09T14:20:22Z</time></trkpt>
<trkpt lat="46.09077170" lon="6.17372500"><ele>854.5</ele><time>2007-04-09T14:20:24Z</time></trkpt>
<trkpt lat="46.09067000" lon="6.17363670"><ele>854.299988</ele><time>2007-04-09T14:20:26Z</time></trkpt>
<trkpt lat="46.09055830" lon="6.17358170"><ele>854.200012</ele><time>2007-04-09T14:20:28Z</time></trkpt>
<trkpt lat="46.09044170" lon="6.17355830"><ele>854.599976</ele><time>2007-04-09T14:20:30Z</time></trkpt>
<trkpt lat="46.09033170" lon="6.17357000"><ele>854.900024</ele><time>2007-04-09T14:20:32Z</time></trkpt>
<trkpt lat="46.09021830" lon="6.17360330"><ele>854.900024</ele><time>2007-04-09T14:20:34Z</time></trkpt>
<trkpt lat="46.09010000" lon="6.17363670"><ele>854.900024</ele><time>2007-04-09T14:20:36Z</time></trkpt>
<trkpt lat="46.08997500" lon="6.17364000"><ele>854.799988</ele><time>2007-04-09T14:20:38Z</time></trkpt>
<trkpt lat="46.08985830" lon="6.17360830"><ele>855</ele><time>2007-04-09T14:20:40Z</time></trkpt>
<trkpt lat="46.08974500" lon="6.17355670"><ele>855.299988</ele><time>2007-04-09T14:20:42Z</time></trkpt>
<trkpt lat="46.08962830" lon="6.17350170"><ele>855.5</ele><time>2007-04-09T14:20:44Z</time></trkpt>
<trkpt lat="46.08950670" lon="6.17344000"><ele>855.5</ele><time>2007-04-09T14:20:46Z</time></trkpt>
<trkpt lat="46.08938330" lon="6.17336170"><ele>855.5</ele><time>2007-04-09T14:20:48Z</time></trkpt>
<trkpt lat="46.08926330" lon="6.17326330"><ele>855.5</ele><time>2007-04-09T14:20:50Z</time></trkpt>
<trkpt lat="46.08915000" lon="6.17313500"><ele>855.299988</ele><time>2007-04-09T14:20:52Z</time></trkpt>
<trkpt lat="46.08904170" lon="6.17299500"><ele>855.200012</ele><time>2007-04-09T14:20:54Z</time></trkpt>
<trkpt lat="46.08894170" lon="6.17283330"><ele>854.900024</ele><time>2007-04-09T14:20:56Z</time></trkpt>
<trkpt lat="46.08884830" lon="6.17266500"><ele>854.700012</ele><time>2007-04-09T14:20:58Z</time></trkpt>
<trkpt lat="46.08876000" lon="6.17247830"><ele>854.400024</ele><time>2007-04-09T14:21:00Z</time></trkpt>
<trkpt lat="46.08867830" lon="6.17228830"><ele>854.200012</ele><time>2007-04-09T14:21:02Z</time></trkpt>
<trkpt lat="46.08858670" lon="6.17210500"><ele>854</ele><time>2007-04-09T14:21:04Z</time></trkpt>
<trkpt lat="46.08847670" lon="6.17194670"><ele>853.799988</ele><time>2007-04-09T14:21:06Z</time></trkpt>
<trkpt lat="46.08834000" lon="6.17183330"><ele>853.5</ele><time>2007-04-09T14:21:08Z</time></trkpt>
<trkpt lat="46.08819500" lon="6.17176500"><ele>853.299988</ele><time>2007-04-09T14:21:10Z</time></trkpt>
<trkpt lat="46.08804330" lon="6.17173830"><ele>853</ele><time>2007-04-09T14:21:12Z</time></trkpt>
<trkpt lat="46.08789330" lon="6.17173000"><ele>852.5</ele><time>2007-04-09T14:21:14Z</time></trkpt>
<trkpt lat="46.08774500" lon="6.17172000"><ele>851.599976</ele><time>2007-04-09T14:21:16Z</time></trkpt>
<trkpt lat="46.08759830" lon="6.17171000"><ele>850.5</ele><time>2007-04-09T14:21:18Z</time></trkpt>
<trkpt lat="46.08745330" lon="6.17169500"><ele>849.400024</ele><time>2007-04-09T14:21:20Z</time></trkpt>
<trkpt lat="46.08730830" lon="6.17168000"><ele>848.799988</ele><time>2007-04-09T14:21:22Z</time></trkpt>
<trkpt lat="46.08716170" lon="6.17164830"><ele>849.099976</ele><time>2007-04-09T14:21:24Z</time></trkpt>
<trkpt lat="46.08702500" lon="6.17158000"><ele>848.799988</ele><time>2007-04-09T14:21:26Z</time></trkpt>
<trkpt lat="46.08689670" lon="6.17147830"><ele>848.700012</ele><time>2007-04-09T14:21:28Z</time></trkpt>
<trkpt lat="46.08678330" lon="6.17134000"><ele>849</ele><time>2007-04-09T14:21:30Z</time></trkpt>
<trkpt lat="46.08668500" lon="6.17117670"><ele>850</ele><time>2007-04-09T14:21:32Z</time></trkpt>
<trkpt lat="46.08660330" lon="6.17099500"><ele>851.700012</ele><time>2007-04-09T14:21:34Z</time></trkpt>
<trkpt lat="46.08654170" lon="6.17080000"><ele>852.799988</ele><time>2007-04-09T14:21:36Z</time></trkpt>
<trkpt lat="46.08648170" lon="6.17060330"><ele>853.700012</ele><time>2007-04-09T14:21:38Z</time></trkpt>
<trkpt lat="46.08641500" lon="6.17041500"><ele>854.700012</ele><time>2007-04-09T14:21:40Z</time></trkpt>
<trkpt lat="46.08633500" lon="6.17023830"><ele>854.700012</ele><time>2007-04-09T14:21:42Z</time></trkpt>
<trkpt lat="46.08624330" lon="6.17007830"><ele>854.700012</ele><time>2007-04-09T14:21:44Z</time></trkpt>
<trkpt lat="46.08614330" lon="6.16992330"><ele>854.700012</ele><time>2007-04-09T14:21:46Z</time></trkpt>
<trkpt lat="46.08604830" lon="6.16976330"><ele>854.799988</ele><time>2007-04-09T14:21:48Z</time></trkpt>
<trkpt lat="46.08596670" lon="6.16958830"><ele>855</ele><time>2007-04-09T14:21:50Z</time></trkpt>
<trkpt lat="46.08590500" lon="6.16939170"><ele>855.099976</ele><time>2007-04-09T14:21:52Z</time></trkpt>
<trkpt lat="46.08587170" lon="6.16918170"><ele>855.099976</ele><time>2007-04-09T14:21:54Z</time></trkpt>
<trkpt lat="46.08586000" lon="6.16896830"><ele>855.299988</ele><time>2007-04-09T14:21:56Z</time></trkpt>
<trkpt lat="46.08586000" lon="6.16875170"><ele>855.400024</ele><time>2007-04-09T14:21:58Z</time></trkpt>
<trkpt lat="46.08586170" lon="6.16853500"><ele>855.5</ele><time>2007-04-09T14:22:00Z</time></trkpt>
<trkpt lat="46.08586000" lon="6.16832170"><ele>855.700012</ele><time>2007-04-09T14:22:02Z</time></trkpt>
<trkpt lat="46.08584330" lon="6.16811330"><ele>856</ele><time>2007-04-09T14:22:04Z</time></trkpt>
<trkpt lat="46.08580000" lon="6.16791330"><ele>856.400024</ele><time>2007-04-09T14:22:06Z</time></trkpt>
<trkpt lat="46.08573830" lon="6.16773500"><ele>856.900024</ele><time>2007-04-09T14:22:08Z</time></trkpt>
<trkpt lat="46.08566170" lon="6.16756500"><ele>857.700012</ele><time>2007-04-09T14:22:10Z</time></trkpt>
<trkpt lat="46.08558330" lon="6.16740000"><ele>858.200012</ele><time>2007-04-09T14:22:12Z</time></trkpt>
<trkpt lat="46.08551170" lon="6.16722830"><ele>858.5</ele><time>2007-04-09T14:22:14Z</time></trkpt>
<trkpt lat="46.08547000" lon="6.16703000"><ele>858.200012</ele><time>2007-04-09T14:22:16Z</time></trkpt>
<trkpt lat="46.08543000" lon="6.16681500"><ele>855.900024</ele><time>2007-04-09T14:22:18Z</time></trkpt>
<trkpt lat="46.08536330" lon="6.16662000"><ele>855.799988</ele><time>2007-04-09T14:22:20Z</time></trkpt>
<trkpt lat="46.08527000" lon="6.16645170"><ele>855.799988</ele><time>2007-04-09T14:22:22Z</time></trkpt>
<trkpt lat="46.08516000" lon="6.16630830"><ele>856</ele><time>2007-04-09T14:22:24Z</time></trkpt>
<trkpt lat="46.08503830" lon="6.16619500"><ele>855.299988</ele><time>2007-04-09T14:22:26Z</time></trkpt>
<trkpt lat="46.08491500" lon="6.16610500"><ele>852.799988</ele><time>2007-04-09T14:22:28Z</time></trkpt>
<trkpt lat="46.08479170" lon="6.16601500"><ele>850.400024</ele><time>2007-04-09T14:22:30Z</time></trkpt>
<trkpt lat="46.08467000" lon="6.16592170"><ele>849.099976</ele><time>2007-04-09T14:22:32Z</time></trkpt>
<trkpt lat="46.08455500" lon="6.16580330"><ele>847.799988</ele><time>2007-04-09T14:22:34Z</time></trkpt>
<trkpt lat="46.08445500" lon="6.16565000"><ele>847.799988</ele><time>2007-04-09T14:22:36Z</time></trkpt>
<trkpt lat="46.08438330" lon="6.16546500"><ele>848</ele><time>2007-04-09T14:22:38Z</time></trkpt>
<trkpt lat="46.08434500" lon="6.16525830"><ele>848.200012</ele><time>2007-04-09T14:22:40Z</time></trkpt>
<trkpt lat="46.08433830" lon="6.16504500"><ele>848.299988</ele><time>2007-04-09T14:22:42Z</time></trkpt>
<trkpt lat="46.08434500" lon="6.16483000"><ele>848.400024</ele><time>2007-04-09T14:22:44Z</time></trkpt>
<trkpt lat="46.08435500" lon="6.16461170"><ele>848.5</ele><time>2007-04-09T14:22:46Z</time></trkpt>
<trkpt lat="46.08436170" lon="6.16439170"><ele>848.5</ele><time>2007-04-09T14:22:48Z</time></trkpt>
<trkpt lat="46.08435170" lon="6.16417170"><ele>848.099976</ele><time>2007-04-09T14:22:50Z</time></trkpt>
<trkpt lat="46.08430670" lon="6.16396170"><ele>847.799988</ele><time>2007-04-09T14:22:52Z</time></trkpt>
<trkpt lat="46.08423330" lon="6.16377170"><ele>847.700012</ele><time>2007-04-09T14:22:54Z</time></trkpt>
<trkpt lat="46.08413830" lon="6.16359670"><ele>847.299988</ele><time>2007-04-09T14:22:56Z</time></trkpt>
<trkpt lat="46.08403830" lon="6.16343000"><ele>847.099976</ele><time>2007-04-09T14:22:58Z</time></trkpt>
<trkpt lat="46.08395830" lon="6.16325170"><ele>847</ele><time>2007-04-09T14:23:00Z</time></trkpt>
<trkpt lat="46.08390830" lon="6.16305330"><ele>847</ele><time>2007-04-09T14:23:02Z</time></trkpt>
<trkpt lat="46.08389500" lon="6.16284670"><ele>847.099976</ele><time>2007-04-09T14:23:04Z</time></trkpt>
<trkpt lat="46.08392000" lon="6.16264500"><ele>847.099976</ele><time>2007-04-09T14:23:06Z</time></trkpt>
<trkpt lat="46.08396000" lon="6.16244830"><ele>847.099976</ele><time>2007-04-09T14:23:08Z</time></trkpt>
<trkpt lat="46.08400330" lon="6.16225170"><ele>846.900024</ele><time>2007-04-09T14:23:10Z</time></trkpt>
<trkpt lat="46.08404330" lon="6.16205330"><ele>847</ele><time>2007-04-09T14:23:12Z</time></trkpt>
<trkpt lat="46.08406670" lon="6.16185000"><ele>847.200012</ele><time>2007-04-09T14:23:14Z</time></trkpt>
<trkpt lat="46.08406670" lon="6.16164500"><ele>847.099976</ele><time>2007-04-09T14:23:16Z</time></trkpt>
<trkpt lat="46.08404170" lon="6.16144170"><ele>847.099976</ele><time>2007-04-09T14:23:18Z</time></trkpt>
<trkpt lat="46.08400500" lon="6.16124330"><ele>846.900024</ele><time>2007-04-09T14:23:20Z</time></trkpt>
<trkpt lat="46.08396000" lon="6.16105000"><ele>847</ele><time>2007-04-09T14:23:22Z</time></trkpt>
<trkpt lat="46.08392670" lon="6.16085500"><ele>847.200012</ele><time>2007-04-09T14:23:24Z</time></trkpt>
<trkpt lat="46.08390670" lon="6.16065330"><ele>847.099976</ele><time>2007-04-09T14:23:26Z</time></trkpt>
<trkpt lat="46.08390500" lon="6.16045330"><ele>846.900024</ele><time>2007-04-09T14:23:28Z</time></trkpt>
<trkpt lat="46.08390330" lon="6.16025330"><ele>846.700012</ele><time>2007-04-09T14:23:30Z</time></trkpt>
<trkpt lat="46.08389500" lon="6.16005670"><ele>846.299988</ele><time>2007-04-09T14:23:32Z</time></trkpt>
<trkpt lat="46.08386500" lon="6.15987170"><ele>846.299988</ele><time>2007-04-09T14:23:34Z</time></trkpt>
<trkpt lat="46.08381500" lon="6.15970000"><ele>846.599976</ele><time>2007-04-09T14:23:36Z</time></trkpt>
<trkpt lat="46.08375830" lon="6.15954330"><ele>847.099976</ele><time>2007-04-09T14:23:38Z</time></trkpt>
<trkpt lat="46.08369830" lon="6.15940000"><ele>847</ele><time>2007-04-09T14:23:40Z</time></trkpt>
<trkpt lat="46.08363170" lon="6.15926000"><ele>847.700012</ele><time>2007-04-09T14:23:42Z</time></trkpt>
<trkpt lat="46.08355830" lon="6.15910830"><ele>847.799988</ele><time>2007-04-09T14:23:44Z</time></trkpt>
<trkpt lat="46.08346670" lon="6.15896830"><ele>848</ele><time>2007-04-09T14:23:46Z</time></trkpt>
<trkpt lat="46.08335500" lon="6.15885170"><ele>848.099976</ele><time>2007-04-09T14:23:48Z</time></trkpt>
<trkpt lat="46.08324330" lon="6.15874000"><ele>848.099976</ele><time>2007-04-09T14:23:50Z</time></trkpt>
<trkpt lat="46.08314000" lon="6.15862000"><ele>848.099976</ele><time>2007-04-09T14:23:52Z</time></trkpt>
<trkpt lat="46.08305670" lon="6.15847830"><ele>848.099976</ele><time>2007-04-09T14:23:54Z</time></trkpt>
<trkpt lat="46.08300000" lon="6.15831000"><ele>847.799988</ele><time>2007-04-09T14:23:56Z</time></trkpt>
<trkpt lat="46.08295000" lon="6.15813830"><ele>847.599976</ele><time>2007-04-09T14:23:58Z</time></trkpt>
<trkpt lat="46.08288830" lon="6.15798000"><ele>847.299988</ele><time>2007-04-09T14:24:00Z</time></trkpt>
<trkpt lat="46.08279830" lon="6.15784830"><ele>846.799988</ele><time>2007-04-09T14:24:02Z</time></trkpt>
<trkpt lat="46.08269670" lon="6.15773330"><ele>846.200012</ele><time>2007-04-09T14:24:04Z</time></trkpt>
<trkpt lat="46.08259170" lon="6.15762000"><ele>845.700012</ele><time>2007-04-09T14:24:06Z</time></trkpt>
<trkpt lat="46.08249670" lon="6.15748670"><ele>845.200012</ele><time>2007-04-09T14:24:08Z</time></trkpt>
<trkpt lat="46.08243830" lon="6.15731670"><ele>844.700012</ele><time>2007-04-09T14:24:10Z</time></trkpt>
<trkpt lat="46.08239330" lon="6.15713830"><ele>844.200012</ele><time>2007-04-09T14:24:12Z</time></trkpt>
<trkpt lat="46.08235000" lon="6.15696170"><ele>843.799988</ele><time>2007-04-09T14:24:14Z</time></trkpt>
<trkpt lat="46.08230500" lon="6.15678330"><ele>843.5</ele><time>2007-04-09T14:24:16Z</time></trkpt>
<trkpt lat="46.08225830" lon="6.15660330"><ele>843.099976</ele><time>2007-04-09T14:24:18Z</time></trkpt>
<trkpt lat="46.08220830" lon="6.15642170"><ele>842.900024</ele><time>2007-04-09T14:24:20Z</time></trkpt>
<trkpt lat="46.08215330" lon="6.15624330"><ele>842.700012</ele><time>2007-04-09T14:24:22Z</time></trkpt>
<trkpt lat="46.08206670" lon="6.15609830"><ele>842.900024</ele><time>2007-04-09T14:24:24Z</time></trkpt>
<trkpt lat="46.08195170" lon="6.15600000"><ele>842.5</ele><time>2007-04-09T14:24:26Z</time></trkpt>
<trkpt lat="46.08182670" lon="6.15593000"><ele>842</ele><time>2007-04-09T14:24:28Z</time></trkpt>
<trkpt lat="46.08169500" lon="6.15587170"><ele>841.700012</ele><time>2007-04-09T14:24:30Z</time></trkpt>
<trkpt lat="46.08156000" lon="6.15581670"><ele>841.799988</ele><time>2007-04-09T14:24:32Z</time></trkpt>
<trkpt lat="46.08141330" lon="6.15578500"><ele>843.5</ele><time>2007-04-09T14:24:34Z</time></trkpt>
<trkpt lat="46.08127170" lon="6.15577830"><ele>844.200012</ele><time>2007-04-09T14:24:36Z</time></trkpt>
<trkpt lat="46.08113670" lon="6.15579500"><ele>844.400024</ele><time>2007-04-09T14:24:38Z</time></trkpt>
<trkpt lat="46.08101670" lon="6.15583670"><ele>844.400024</ele><time>2007-04-09T14:24:40Z</time></trkpt>
<trkpt lat="46.08090670" lon="6.15588330"><ele>844.299988</ele><time>2007-04-09T14:24:42Z</time></trkpt>
<trkpt lat="46.08077000" lon="6.15592170"><ele>844.5</ele><time>2007-04-09T14:24:44Z</time></trkpt>
<trkpt lat="46.08064170" lon="6.15595000"><ele>844.599976</ele><time>2007-04-09T14:24:46Z</time></trkpt>
<trkpt lat="46.08054830" lon="6.15595670"><ele>841.400024</ele><time>2007-04-09T14:24:48Z</time></trkpt>
<trkpt lat="46.08042170" lon="6.15595330"><ele>841.200012</ele><time>2007-04-09T14:24:50Z</time></trkpt>
<trkpt lat="46.08030170" lon="6.15593170"><ele>841.700012</ele><time>2007-04-09T14:24:52Z</time></trkpt>
<trkpt lat="46.08017670" lon="6.15589170"><ele>842.599976</ele><time>2007-04-09T14:24:54Z</time></trkpt>
<trkpt lat="46.08005830" lon="6.15584000"><ele>843</ele><time>2007-04-09T14:24:56Z</time></trkpt>
<trkpt lat="46.07995670" lon="6.15577170"><ele>843.900024</ele><time>2007-04-09T14:24:58Z</time></trkpt>
<trkpt lat="46.07985500" lon="6.15568330"><ele>844.5</ele><time>2007-04-09T14:25:00Z</time></trkpt>
<trkpt lat="46.07974670" lon="6.15559330"><ele>845</ele><time>2007-04-09T14:25:02Z</time></trkpt>
<trkpt lat="46.07964170" lon="6.15550330"><ele>845.599976</ele><time>2007-04-09T14:25:04Z</time></trkpt>
<trkpt lat="46.07953670" lon="6.15541830"><ele>846.200012</ele><time>2007-04-09T14:25:06Z</time></trkpt>
<trkpt lat="46.07943000" lon="6.15534000"><ele>847.099976</ele><time>2007-04-09T14:25:08Z</time></trkpt>
<trkpt lat="46.07931830" lon="6.15527830"><ele>848.599976</ele><time>2007-04-09T14:25:10Z</time></trkpt>
<trkpt lat="46.07920670" lon="6.15523000"><ele>849.900024</ele><time>2007-04-09T14:25:12Z</time></trkpt>
<trkpt lat="46.07909170" lon="6.15519000"><ele>851</ele><time>2007-04-09T14:25:14Z</time></trkpt>
<trkpt lat="46.07897500" lon="6.15516670"><ele>852.200012</ele><time>2007-04-09T14:25:16Z</time></trkpt>
<trkpt lat="46.07887000" lon="6.15514670"><ele>851.5</ele><time>2007-04-09T14:25:18Z</time></trkpt>
<trkpt lat="46.07876330" lon="6.15513670"><ele>851.200012</ele><time>2007-04-09T14:25:20Z</time></trkpt>
<trkpt lat="46.07865830" lon="6.15512170"><ele>851.299988</ele><time>2007-04-09T14:25:22Z</time></trkpt>
<trkpt lat="46.07854500" lon="6.15511170"><ele>852.099976</ele><time>2007-04-09T14:25:24Z</time></trkpt>
<trkpt lat="46.07843500" lon="6.15510000"><ele>852.900024</ele><time>2007-04-09T14:25:26Z</time></trkpt>
<trkpt lat="46.07832500" lon="6.15508830"><ele>853.099976</ele><time>2007-04-09T14:25:28Z</time></trkpt>
<trkpt lat="46.07821330" lon="6.15507670"><ele>853</ele><time>2007-04-09T14:25:30Z</time></trkpt>
<trkpt lat="46.07809830" lon="6.15506170"><ele>853</ele><time>2007-04-09T14:25:32Z</time></trkpt>
<trkpt lat="46.07798330" lon="6.15504670"><ele>853.5</ele><time>2007-04-09T14:25:34Z</time></trkpt>
<trkpt lat="46.07786830" lon="6.15502670"><ele>853.900024</ele><time>2007-04-09T14:25:36Z</time></trkpt>
<trkpt lat="46.07775830" lon="6.15498670"><ele>854</ele><time>2007-04-09T14:25:38Z</time></trkpt>
<trkpt lat="46.07764830" lon="6.15494330"><ele>854</ele><time>2007-04-09T14:25:40Z</time></trkpt>
<trkpt lat="46.07753500" lon="6.15489330"><ele>854.299988</ele><time>2007-04-09T14:25:42Z</time></trkpt>
<trkpt lat="46.07742330" lon="6.15484000"><ele>854.5</ele><time>2007-04-09T14:25:44Z</time></trkpt>
<trkpt lat="46.07731330" lon="6.15478500"><ele>854.700012</ele><time>2007-04-09T14:25:46Z</time></trkpt>
<trkpt lat="46.07720170" lon="6.15473000"><ele>855</ele><time>2007-04-09T14:25:48Z</time></trkpt>
<trkpt lat="46.07708670" lon="6.15467170"><ele>855.299988</ele><time>2007-04-09T14:25:50Z</time></trkpt>
<trkpt lat="46.07697000" lon="6.15461670"><ele>856.099976</ele><time>2007-04-09T14:25:52Z</time></trkpt>
<trkpt lat="46.07685670" lon="6.15455830"><ele>856.599976</ele><time>2007-04-09T14:25:54Z</time></trkpt>
<trkpt lat="46.07674330" lon="6.15449670"><ele>857.299988</ele><time>2007-04-09T14:25:56Z</time></trkpt>
<trkpt lat="46.07663670" lon="6.15442170"><ele>857.200012</ele><time>2007-04-09T14:25:58Z</time></trkpt>
<trkpt lat="46.07652500" lon="6.15434000"><ele>857.599976</ele><time>2007-04-09T14:26:00Z</time></trkpt>
<trkpt lat="46.07642170" lon="6.15425000"><ele>857.700012</ele><time>2007-04-09T14:26:02Z</time></trkpt>
<trkpt lat="46.07632330" lon="6.15414830"><ele>857.799988</ele><time>2007-04-09T14:26:04Z</time></trkpt>
<trkpt lat="46.07623170" lon="6.15403500"><ele>857.799988</ele><time>2007-04-09T14:26:06Z</time></trkpt>
<trkpt lat="46.07614170" lon="6.15391500"><ele>857.700012</ele><time>2007-04-09T14:26:08Z</time></trkpt>
<trkpt lat="46.07605670" lon="6.15378670"><ele>857.599976</ele><time>2007-04-09T14:26:10Z</time></trkpt>
<trkpt lat="46.07597330" lon="6.15366170"><ele>857.599976</ele><time>2007-04-09T14:26:12Z</time></trkpt>
<trkpt lat="46.07589170" lon="6.15353330"><ele>857.599976</ele><time>2007-04-09T14:26:14Z</time></trkpt>
<trkpt lat="46.07581330" lon="6.15340170"><ele>857.900024</ele><time>2007-04-09T14:26:16Z</time></trkpt>
<trkpt lat="46.07573670" lon="6.15326830"><ele>858.099976</ele><time>2007-04-09T14:26:18Z</time></trkpt>
<trkpt lat="46.07566500" lon="6.15312830"><ele>858.400024</ele><time>2007-04-09T14:26:20Z</time></trkpt>
<trkpt lat="46.07559830" lon="6.15298170"><ele>858.599976</ele><time>2007-04-09T14:26:22Z</time></trkpt>
<trkpt lat="46.07554000" lon="6.15282670"><ele>858.400024</ele><time>2007-04-09T14:26:24Z</time></trkpt>
<trkpt lat="46.07548330" lon="6.15267170"><ele>858.400024</ele><time>2007-04-09T14:26:26Z</time></trkpt>
<trkpt lat="46.07542500" lon="6.15251670"><ele>858.599976</ele><time>2007-04-09T14:26:28Z</time></trkpt>
<trkpt lat="46.07536830" lon="6.15236170"><ele>858.700012</ele><time>2007-04-09T14:26:30Z</time></trkpt>
<trkpt lat="46.07531000" lon="6.15221000"><ele>858.799988</ele><time>2007-04-09T14:26:32Z</time></trkpt>
<trkpt lat="46.07525170" lon="6.15206000"><ele>859</ele><time>2007-04-09T14:26:34Z</time></trkpt>
<trkpt lat="46.07519500" lon="6.15190830"><ele>859.200012</ele><time>2007-04-09T14:26:36Z</time></trkpt>
<trkpt lat="46.07513830" lon="6.15175330"><ele>859.400024</ele><time>2007-04-09T14:26:38Z</time></trkpt>
<trkpt lat="46.07508170" lon="6.15159830"><ele>859.5</ele><time>2007-04-09T14:26:40Z</time></trkpt>
<trkpt lat="46.07502670" lon="6.15144000"><ele>859.700012</ele><time>2007-04-09T14:26:42Z</time></trkpt>
<trkpt lat="46.07497670" lon="6.15127500"><ele>859.900024</ele><time>2007-04-09T14:26:44Z</time></trkpt>
<trkpt lat="46.07494830" lon="6.15109830"><ele>860.299988</ele><time>2007-04-09T14:26:46Z</time></trkpt>
<trkpt lat="46.07493500" lon="6.15092000"><ele>860.700012</ele><time>2007-04-09T14:26:48Z</time></trkpt>
<trkpt lat="46.07494000" lon="6.15074170"><ele>860.900024</ele><time>2007-04-09T14:26:50Z</time></trkpt>
<trkpt lat="46.07495330" lon="6.15056670"><ele>861.299988</ele><time>2007-04-09T14:26:52Z</time></trkpt>
<trkpt lat="46.07496830" lon="6.15039000"><ele>861.5</ele><time>2007-04-09T14:26:54Z</time></trkpt>
<trkpt lat="46.07497170" lon="6.15021170"><ele>861.900024</ele><time>2007-04-09T14:26:56Z</time></trkpt>
<trkpt lat="46.07495500" lon="6.15004330"><ele>862.700012</ele><time>2007-04-09T14:26:58Z</time></trkpt>
<trkpt lat="46.07492670" lon="6.14987500"><ele>863.200012</ele><time>2007-04-09T14:27:00Z</time></trkpt>
<trkpt lat="46.07489500" lon="6.14970830"><ele>863.5</ele><time>2007-04-09T14:27:02Z</time></trkpt>
<trkpt lat="46.07485670" lon="6.14954330"><ele>864.5</ele><time>2007-04-09T14:27:04Z</time></trkpt>
<trkpt lat="46.07481670" lon="6.14937500"><ele>866</ele><time>2007-04-09T14:27:06Z</time></trkpt>
<trkpt lat="46.07478330" lon="6.14920170"><ele>866.400024</ele><time>2007-04-09T14:27:08Z</time></trkpt>
<trkpt lat="46.07474670" lon="6.14902670"><ele>866.599976</ele><time>2007-04-09T14:27:10Z</time></trkpt>
<trkpt lat="46.07472000" lon="6.14884670"><ele>866.900024</ele><time>2007-04-09T14:27:12Z</time></trkpt>
<trkpt lat="46.07472500" lon="6.14866170"><ele>867.200012</ele><time>2007-04-09T14:27:14Z</time></trkpt>
<trkpt lat="46.07476500" lon="6.14848330"><ele>867.599976</ele><time>2007-04-09T14:27:16Z</time></trkpt>
<trkpt lat="46.07482330" lon="6.14830830"><ele>868</ele><time>2007-04-09T14:27:18Z</time></trkpt>
<trkpt lat="46.07488330" lon="6.14813330"><ele>868.700012</ele><time>2007-04-09T14:27:20Z</time></trkpt>
<trkpt lat="46.07494670" lon="6.14795000"><ele>869.400024</ele><time>2007-04-09T14:27:22Z</time></trkpt>
<trkpt lat="46.07501000" lon="6.14776170"><ele>870.200012</ele><time>2007-04-09T14:27:24Z</time></trkpt>
<trkpt lat="46.07507500" lon="6.14756670"><ele>870.799988</ele><time>2007-04-09T14:27:26Z</time></trkpt>
<trkpt lat="46.07513330" lon="6.14736170"><ele>870.799988</ele><time>2007-04-09T14:27:28Z</time></trkpt>
<trkpt lat="46.07517500" lon="6.14714330"><ele>870.5</ele><time>2007-04-09T14:27:30Z</time></trkpt>
<trkpt lat="46.07519670" lon="6.14691830"><ele>870.099976</ele><time>2007-04-09T14:27:32Z</time></trkpt>
<trkpt lat="46.07519830" lon="6.14669170"><ele>869.599976</ele><time>2007-04-09T14:27:34Z</time></trkpt>
<trkpt lat="46.07514670" lon="6.14648000"><ele>869</ele><time>2007-04-09T14:27:36Z</time></trkpt>
<trkpt lat="46.07503330" lon="6.14633000"><ele>868</ele><time>2007-04-09T14:27:38Z</time></trkpt>
<trkpt lat="46.07488670" lon="6.14627170"><ele>867.200012</ele><time>2007-04-09T14:27:40Z</time></trkpt>
<trkpt lat="46.07473830" lon="6.14624830"><ele>865.200012</ele><time>2007-04-09T14:27:42Z</time></trkpt>
<trkpt lat="46.07457670" lon="6.14624830"><ele>866.5</ele><time>2007-04-09T14:27:44Z</time></trkpt>
<trkpt lat="46.07442670" lon="6.14623500"><ele>866.200012</ele><time>2007-04-09T14:27:46Z</time></trkpt>
<trkpt lat="46.07429830" lon="6.14620000"><ele>863.099976</ele><time>2007-04-09T14:27:48Z</time></trkpt>
<trkpt lat="46.07414670" lon="6.14619330"><ele>863.299988</ele><time>2007-04-09T14:27:50Z</time></trkpt>
<trkpt lat="46.07400000" lon="6.14618830"><ele>863.900024</ele><time>2007-04-09T14:27:52Z</time></trkpt>
<trkpt lat="46.07385500" lon="6.14619170"><ele>863.799988</ele><time>2007-04-09T14:27:54Z</time></trkpt>
<trkpt lat="46.07370500" lon="6.14624170"><ele>864.5</ele><time>2007-04-09T14:27:56Z</time></trkpt>
<trkpt lat="46.07357170" lon="6.14633830"><ele>864.099976</ele><time>2007-04-09T14:27:58Z</time></trkpt>
<trkpt lat="46.07342500" lon="6.14648670"><ele>869.200012</ele><time>2007-04-09T14:28:00Z</time></trkpt>
<trkpt lat="46.07342330" lon="6.14660670"><ele>871.900024</ele><time>2007-04-09T14:28:02Z</time></trkpt>
<trkpt lat="46.07334330" lon="6.14670670"><ele>871.299988</ele><time>2007-04-09T14:28:04Z</time></trkpt>
<trkpt lat="46.07324000" lon="6.14676330"><ele>871.299988</ele><time>2007-04-09T14:28:06Z</time></trkpt>
<trkpt lat="46.07312670" lon="6.14677170"><ele>872</ele><time>2007-04-09T14:28:08Z</time></trkpt>
<trkpt lat="46.07303330" lon="6.14677000"><ele>872.400024</ele><time>2007-04-09T14:28:10Z</time></trkpt>
<trkpt lat="46.07293830" lon="6.14673670"><ele>873.200012</ele><time>2007-04-09T14:28:12Z</time></trkpt>
<trkpt lat="46.07285500" lon="6.14668670"><ele>873.200012</ele><time>2007-04-09T14:28:14Z</time></trkpt>
<trkpt lat="46.07277330" lon="6.14663830"><ele>872.799988</ele><time>2007-04-09T14:28:16Z</time></trkpt>
<trkpt lat="46.07269330" lon="6.14659330"><ele>872.299988</ele><time>2007-04-09T14:28:18Z</time></trkpt>
<trkpt lat="46.07261500" lon="6.14655330"><ele>871.700012</ele><time>2007-04-09T14:28:20Z</time></trkpt>
<trkpt lat="46.07254330" lon="6.14650330"><ele>871</ele><time>2007-04-09T14:28:22Z</time></trkpt>
<trkpt lat="46.07247000" lon="6.14646000"><ele>870.900024</ele><time>2007-04-09T14:28:24Z</time></trkpt>
<trkpt lat="46.07240500" lon="6.14641670"><ele>870.599976</ele><time>2007-04-09T14:28:26Z</time></trkpt>
<trkpt lat="46.07234170" lon="6.14638170"><ele>870.200012</ele><time>2007-04-09T14:28:28Z</time></trkpt>
<trkpt lat="46.07227170" lon="6.14636330"><ele>869.299988</ele><time>2007-04-09T14:28:30Z</time></trkpt>
<trkpt lat="46.07219830" lon="6.14635670"><ele>868.599976</ele><time>2007-04-09T14:28:32Z</time></trkpt>
<trkpt lat="46.07211670" lon="6.14637670"><ele>870</ele><time>2007-04-09T14:28:34Z</time></trkpt>
<trkpt lat="46.07203330" lon="6.14641330"><ele>871.599976</ele><time>2007-04-09T14:28:36Z</time></trkpt>
<trkpt lat="46.07196170" lon="6.14646170"><ele>872.200012</ele><time>2007-04-09T14:28:38Z</time></trkpt>
<trkpt lat="46.07189000" lon="6.14651170"><ele>872.200012</ele><time>2007-04-09T14:28:40Z</time></trkpt>
<trkpt lat="46.07182330" lon="6.14656670"><ele>872.299988</ele><time>2007-04-09T14:28:42Z</time></trkpt>
<trkpt lat="46.07175500" lon="6.14662170"><ele>872.400024</ele><time>2007-04-09T14:28:44Z</time></trkpt>
<trkpt lat="46.07168500" lon="6.14666670"><ele>872.900024</ele><time>2007-04-09T14:28:46Z</time></trkpt>
<trkpt lat="46.07161330" lon="6.14669830"><ele>873.400024</ele><time>2007-04-09T14:28:48Z</time></trkpt>
<trkpt lat="46.07153170" lon="6.14672170"><ele>873.599976</ele><time>2007-04-09T14:28:50Z</time></trkpt>
<trkpt lat="46.07145330" lon="6.14673170"><ele>873.900024</ele><time>2007-04-09T14:28:52Z</time></trkpt>
<trkpt lat="46.07138000" lon="6.14673500"><ele>874.599976</ele><time>2007-04-09T14:28:54Z</time></trkpt>
<trkpt lat="46.07131170" lon="6.14673170"><ele>875.299988</ele><time>2007-04-09T14:28:56Z</time></trkpt>
<trkpt lat="46.07124500" lon="6.14671500"><ele>876</ele><time>2007-04-09T14:28:58Z</time></trkpt>
<trkpt lat="46.07117830" lon="6.14669500"><ele>876.5</ele><time>2007-04-09T14:29:00Z</time></trkpt>
<trkpt lat="46.07111000" lon="6.14666330"><ele>876.900024</ele><time>2007-04-09T14:29:02Z</time></trkpt>
<trkpt lat="46.07104170" lon="6.14662670"><ele>876.700012</ele><time>2007-04-09T14:29:04Z</time></trkpt>
<trkpt lat="46.07097330" lon="6.14658330"><ele>876.700012</ele><time>2007-04-09T14:29:06Z</time></trkpt>
<trkpt lat="46.07091000" lon="6.14653000"><ele>876.799988</ele><time>2007-04-09T14:29:08Z</time></trkpt>
<trkpt lat="46.07085000" lon="6.14647330"><ele>877</ele><time>2007-04-09T14:29:10Z</time></trkpt>
<trkpt lat="46.07078830" lon="6.14641330"><ele>877.200012</ele><time>2007-04-09T14:29:12Z</time></trkpt>
<trkpt lat="46.07072670" lon="6.14634830"><ele>877.200012</ele><time>2007-04-09T14:29:14Z</time></trkpt>
<trkpt lat="46.07066170" lon="6.14628170"><ele>877.299988</ele><time>2007-04-09T14:29:16Z</time></trkpt>
<trkpt lat="46.07059500" lon="6.14621330"><ele>877.5</ele><time>2007-04-09T14:29:18Z</time></trkpt>
<trkpt lat="46.07052670" lon="6.14614170"><ele>877.5</ele><time>2007-04-09T14:29:20Z</time></trkpt>
<trkpt lat="46.07045170" lon="6.14606670"><ele>877.700012</ele><time>2007-04-09T14:29:22Z</time></trkpt>
<trkpt lat="46.07037670" lon="6.14598830"><ele>877.900024</ele><time>2007-04-09T14:29:24Z</time></trkpt>
<trkpt lat="46.07030000" lon="6.14590670"><ele>877.900024</ele><time>2007-04-09T14:29:26Z</time></trkpt>
<trkpt lat="46.07022000" lon="6.14582500"><ele>877.900024</ele><time>2007-04-09T14:29:28Z</time></trkpt>
<trkpt lat="46.07014000" lon="6.14574170"><ele>877.900024</ele><time>2007-04-09T14:29:30Z</time></trkpt>
<trkpt lat="46.07005830" lon="6.14565670"><ele>877.900024</ele><time>2007-04-09T14:29:32Z</time></trkpt>
<trkpt lat="46.06997170" lon="6.14557170"><ele>878.299988</ele><time>2007-04-09T14:29:34Z</time></trkpt>
<trkpt lat="46.06988670" lon="6.14548170"><ele>878.799988</ele><time>2007-04-09T14:29:36Z</time></trkpt>
<trkpt lat="46.06980000" lon="6.14539170"><ele>879.299988</ele><time>2007-04-09T14:29:38Z</time></trkpt>
<trkpt lat="46.06971830" lon="6.14529830"><ele>879</ele><time>2007-04-09T14:29:40Z</time></trkpt>
<trkpt lat="46.06963000" lon="6.14520000"><ele>879.200012</ele><time>2007-04-09T14:29:42Z</time></trkpt>
<trkpt lat="46.06954000" lon="6.14509670"><ele>879.599976</ele><time>2007-04-09T14:29:44Z</time></trkpt>
<trkpt lat="46.06945000" lon="6.14497830"><ele>879.900024</ele><time>2007-04-09T14:29:46Z</time></trkpt>
<trkpt lat="46.06935830" lon="6.14484830"><ele>880</ele><time>2007-04-09T14:29:48Z</time></trkpt>
<trkpt lat="46.06927000" lon="6.14471330"><ele>880.400024</ele><time>2007-04-09T14:29:50Z</time></trkpt>
<trkpt lat="46.06918170" lon="6.14457330"><ele>880.900024</ele><time>2007-04-09T14:29:52Z</time></trkpt>
<trkpt lat="46.06909330" lon="6.14442830"><ele>881</ele><time>2007-04-09T14:29:54Z</time></trkpt>
<trkpt lat="46.06900500" lon="6.14428000"><ele>880.900024</ele><time>2007-04-09T14:29:56Z</time></trkpt>
<trkpt lat="46.06891330" lon="6.14413170"><ele>880.5</ele><time>2007-04-09T14:29:58Z</time></trkpt>
<trkpt lat="46.06881670" lon="6.14398500"><ele>880.299988</ele><time>2007-04-09T14:30:00Z</time></trkpt>
<trkpt lat="46.06871500" lon="6.14384330"><ele>880.599976</ele><time>2007-04-09T14:30:02Z</time></trkpt>
<trkpt lat="46.06861170" lon="6.14371000"><ele>880.799988</ele><time>2007-04-09T14:30:04Z</time></trkpt>
<trkpt lat="46.06849830" lon="6.14359000"><ele>881.200012</ele><time>2007-04-09T14:30:06Z</time></trkpt>
<trkpt lat="46.06838500" lon="6.14348170"><ele>881.099976</ele><time>2007-04-09T14:30:08Z</time></trkpt>
<trkpt lat="46.06827330" lon="6.14338170"><ele>880.099976</ele><time>2007-04-09T14:30:10Z</time></trkpt>
<trkpt lat="46.06816330" lon="6.14329500"><ele>879</ele><time>2007-04-09T14:30:12Z</time></trkpt>
<trkpt lat="46.06804500" lon="6.14321330"><ele>878.200012</ele><time>2007-04-09T14:30:14Z</time></trkpt>
<trkpt lat="46.06792670" lon="6.14312500"><ele>878.200012</ele><time>2007-04-09T14:30:16Z</time></trkpt>
<trkpt lat="46.06781330" lon="6.14302500"><ele>877.799988</ele><time>2007-04-09T14:30:18Z</time></trkpt>
<trkpt lat="46.06770500" lon="6.14291000"><ele>877.599976</ele><time>2007-04-09T14:30:20Z</time></trkpt>
<trkpt lat="46.06760000" lon="6.14278170"><ele>877.700012</ele><time>2007-04-09T14:30:22Z</time></trkpt>
<trkpt lat="46.06750330" lon="6.14263670"><ele>877.400024</ele><time>2007-04-09T14:30:24Z</time></trkpt>
<trkpt lat="46.06741670" lon="6.14248170"><ele>877.599976</ele><time>2007-04-09T14:30:26Z</time></trkpt>
<trkpt lat="46.06734330" lon="6.14232000"><ele>877.900024</ele><time>2007-04-09T14:30:28Z</time></trkpt>
<trkpt lat="46.06728000" lon="6.14215170"><ele>878.5</ele><time>2007-04-09T14:30:30Z</time></trkpt>
<trkpt lat="46.06722330" lon="6.14197830"><ele>879.400024</ele><time>2007-04-09T14:30:32Z</time></trkpt>
<trkpt lat="46.06717170" lon="6.14180330"><ele>879.900024</ele><time>2007-04-09T14:30:34Z</time></trkpt>
<trkpt lat="46.06712170" lon="6.14162830"><ele>880.700012</ele><time>2007-04-09T14:30:36Z</time></trkpt>
<trkpt lat="46.06708500" lon="6.14144330"><ele>880.799988</ele><time>2007-04-09T14:30:38Z</time></trkpt>
<trkpt lat="46.06707170" lon="6.14124500"><ele>881</ele><time>2007-04-09T14:30:40Z</time></trkpt>
<trkpt lat="46.06706000" lon="6.14104500"><ele>881.200012</ele><time>2007-04-09T14:30:42Z</time></trkpt>
<trkpt lat="46.06702500" lon="6.14085170"><ele>881.299988</ele><time>2007-04-09T14:30:44Z</time></trkpt>
<trkpt lat="46.06696170" lon="6.14067330"><ele>881.400024</ele><time>2007-04-09T14:30:46Z</time></trkpt>
<trkpt lat="46.06687000" lon="6.14051500"><ele>881.400024</ele><time>2007-04-09T14:30:48Z</time></trkpt>
<trkpt lat="46.06675670" lon="6.14039170"><ele>881.400024</ele><time>2007-04-09T14:30:50Z</time></trkpt>
<trkpt lat="46.06662500" lon="6.14030830"><ele>881.099976</ele><time>2007-04-09T14:30:52Z</time></trkpt>
<trkpt lat="46.06648330" lon="6.14026830"><ele>880.700012</ele><time>2007-04-09T14:30:54Z</time></trkpt>
<trkpt lat="46.06634000" lon="6.14024830"><ele>880.400024</ele><time>2007-04-09T14:30:56Z</time></trkpt>
<trkpt lat="46.06619670" lon="6.14023170"><ele>880.400024</ele><time>2007-04-09T14:30:58Z</time></trkpt>
<trkpt lat="46.06606170" lon="6.14021170"><ele>879.5</ele><time>2007-04-09T14:31:00Z</time></trkpt>
<trkpt lat="46.06592830" lon="6.14018170"><ele>878.700012</ele><time>2007-04-09T14:31:02Z</time></trkpt>
<trkpt lat="46.06579500" lon="6.14013000"><ele>878.099976</ele><time>2007-04-09T14:31:04Z</time></trkpt>
<trkpt lat="46.06566670" lon="6.14004830"><ele>877.599976</ele><time>2007-04-09T14:31:06Z</time></trkpt>
<trkpt lat="46.06555000" lon="6.13993830"><ele>877.200012</ele><time>2007-04-09T14:31:08Z</time></trkpt>
<trkpt lat="46.06544670" lon="6.13979830"><ele>877.700012</ele><time>2007-04-09T14:31:10Z</time></trkpt>
<trkpt lat="46.06536000" lon="6.13963830"><ele>877.799988</ele><time>2007-04-09T14:31:12Z</time></trkpt>
<trkpt lat="46.06528670" lon="6.13945670"><ele>878.700012</ele><time>2007-04-09T14:31:14Z</time></trkpt>
<trkpt lat="46.06523500" lon="6.13925330"><ele>879.400024</ele><time>2007-04-09T14:31:16Z</time></trkpt>
<trkpt lat="46.06519500" lon="6.13904500"><ele>880.200012</ele><time>2007-04-09T14:31:18Z</time></trkpt>
<trkpt lat="46.06514330" lon="6.13885000"><ele>880.700012</ele><time>2007-04-09T14:31:20Z</time></trkpt>
<trkpt lat="46.06506500" lon="6.13866330"><ele>881.200012</ele><time>2007-04-09T14:31:22Z</time></trkpt>
<trkpt lat="46.06496670" lon="6.13849000"><ele>881.400024</ele><time>2007-04-09T14:31:24Z</time></trkpt>
<trkpt lat="46.06486170" lon="6.13833000"><ele>880.799988</ele><time>2007-04-09T14:31:26Z</time></trkpt>
<trkpt lat="46.06474670" lon="6.13817170"><ele>880.599976</ele><time>2007-04-09T14:31:28Z</time></trkpt>
<trkpt lat="46.06463330" lon="6.13801000"><ele>879.700012</ele><time>2007-04-09T14:31:30Z</time></trkpt>
<trkpt lat="46.06452000" lon="6.13784830"><ele>879</ele><time>2007-04-09T14:31:32Z</time></trkpt>
<trkpt lat="46.06440670" lon="6.13768500"><ele>878.599976</ele><time>2007-04-09T14:31:34Z</time></trkpt>
<trkpt lat="46.06429500" lon="6.13751500"><ele>878.400024</ele><time>2007-04-09T14:31:36Z</time></trkpt>
<trkpt lat="46.06419500" lon="6.13733000"><ele>878.200012</ele><time>2007-04-09T14:31:38Z</time></trkpt>
<trkpt lat="46.06411830" lon="6.13712500"><ele>878.599976</ele><time>2007-04-09T14:31:40Z</time></trkpt>
<trkpt lat="46.06407830" lon="6.13689330"><ele>879</ele><time>2007-04-09T14:31:42Z</time></trkpt>
<trkpt lat="46.06406500" lon="6.13665670"><ele>878.900024</ele><time>2007-04-09T14:31:44Z</time></trkpt>
<trkpt lat="46.06407830" lon="6.13642500"><ele>879.5</ele><time>2007-04-09T14:31:46Z</time></trkpt>
<trkpt lat="46.06412670" lon="6.13620500"><ele>879.799988</ele><time>2007-04-09T14:31:48Z</time></trkpt>
<trkpt lat="46.06418170" lon="6.13598670"><ele>880.299988</ele><time>2007-04-09T14:31:50Z</time></trkpt>
<trkpt lat="46.06422000" lon="6.13576670"><ele>881</ele><time>2007-04-09T14:31:52Z</time></trkpt>
<trkpt lat="46.06422830" lon="6.13553670"><ele>880.900024</ele><time>2007-04-09T14:31:54Z</time></trkpt>
<trkpt lat="46.06420330" lon="6.13531330"><ele>880.400024</ele><time>2007-04-09T14:31:56Z</time></trkpt>
<trkpt lat="46.06414170" lon="6.13510500"><ele>880.5</ele><time>2007-04-09T14:31:58Z</time></trkpt>
<trkpt lat="46.06404830" lon="6.13492330"><ele>880.599976</ele><time>2007-04-09T14:32:00Z</time></trkpt>
<trkpt lat="46.06393500" lon="6.13477170"><ele>880.5</ele><time>2007-04-09T14:32:02Z</time></trkpt>
<trkpt lat="46.06380830" lon="6.13464830"><ele>880</ele><time>2007-04-09T14:32:04Z</time></trkpt>
<trkpt lat="46.06367500" lon="6.13453670"><ele>879.700012</ele><time>2007-04-09T14:32:06Z</time></trkpt>
<trkpt lat="46.06354670" lon="6.13441830"><ele>879.5</ele><time>2007-04-09T14:32:08Z</time></trkpt>
<trkpt lat="46.06342500" lon="6.13428670"><ele>879.200012</ele><time>2007-04-09T14:32:10Z</time></trkpt>
<trkpt lat="46.06332000" lon="6.13412830"><ele>879</ele><time>2007-04-09T14:32:12Z</time></trkpt>
<trkpt lat="46.06324500" lon="6.13394000"><ele>879.099976</ele><time>2007-04-09T14:32:14Z</time></trkpt>
<trkpt lat="46.06320830" lon="6.13373330"><ele>879.299988</ele><time>2007-04-09T14:32:16Z</time></trkpt>
<trkpt lat="46.06317500" lon="6.13352830"><ele>879.599976</ele><time>2007-04-09T14:32:18Z</time></trkpt>
<trkpt lat="46.06311170" lon="6.13333670"><ele>879.599976</ele><time>2007-04-09T14:32:20Z</time></trkpt>
<trkpt lat="46.06301670" lon="6.13317000"><ele>879.599976</ele><time>2007-04-09T14:32:22Z</time></trkpt>
<trkpt lat="46.06289670" lon="6.13303830"><ele>879.5</ele><time>2007-04-09T14:32:24Z</time></trkpt>
<trkpt lat="46.06276170" lon="6.13294500"><ele>879.200012</ele><time>2007-04-09T14:32:26Z</time></trkpt>
<trkpt lat="46.06261830" lon="6.13288170"><ele>879</ele><time>2007-04-09T14:32:28Z</time></trkpt>
<trkpt lat="46.06247500" lon="6.13282830"><ele>878.599976</ele><time>2007-04-09T14:32:30Z</time></trkpt>
<trkpt lat="46.06233330" lon="6.13276330"><ele>878.400024</ele><time>2007-04-09T14:32:32Z</time></trkpt>
<trkpt lat="46.06219830" lon="6.13267170"><ele>878.299988</ele><time>2007-04-09T14:32:34Z</time></trkpt>
<trkpt lat="46.06208670" lon="6.13253670"><ele>878.099976</ele><time>2007-04-09T14:32:36Z</time></trkpt>
<trkpt lat="46.06200170" lon="6.13236670"><ele>877.799988</ele><time>2007-04-09T14:32:38Z</time></trkpt>
<trkpt lat="46.06194500" lon="6.13217330"><ele>877.700012</ele><time>2007-04-09T14:32:40Z</time></trkpt>
<trkpt lat="46.06189170" lon="6.13197830"><ele>877.700012</ele><time>2007-04-09T14:32:42Z</time></trkpt>
<trkpt lat="46.06181500" lon="6.13180170"><ele>877.799988</ele><time>2007-04-09T14:32:44Z</time></trkpt>
<trkpt lat="46.06170830" lon="6.13165500"><ele>877.799988</ele><time>2007-04-09T14:32:46Z</time></trkpt>
<trkpt lat="46.06157830" lon="6.13155170"><ele>877.900024</ele><time>2007-04-09T14:32:48Z</time></trkpt>
<trkpt lat="46.06143670" lon="6.13148830"><ele>878.099976</ele><time>2007-04-09T14:32:50Z</time></trkpt>
<trkpt lat="46.06129330" lon="6.13146000"><ele>877.400024</ele><time>2007-04-09T14:32:52Z</time></trkpt>
<trkpt lat="46.06114670" lon="6.13145830"><ele>876.900024</ele><time>2007-04-09T14:32:54Z</time></trkpt>
<trkpt lat="46.06099670" lon="6.13148830"><ele>877.400024</ele><time>2007-04-09T14:32:56Z</time></trkpt>
<trkpt lat="46.06085170" lon="6.13154170"><ele>877.799988</ele><time>2007-04-09T14:32:58Z</time></trkpt>
<trkpt lat="46.06071330" lon="6.13162830"><ele>878.099976</ele><time>2007-04-09T14:33:00Z</time></trkpt>
<trkpt lat="46.06057670" lon="6.13173670"><ele>880.900024</ele><time>2007-04-09T14:33:02Z</time></trkpt>
<trkpt lat="46.06044830" lon="6.13181170"><ele>880.700012</ele><time>2007-04-09T14:33:04Z</time></trkpt>
<trkpt lat="46.06030500" lon="6.13187500"><ele>880.200012</ele><time>2007-04-09T14:33:06Z</time></trkpt>
<trkpt lat="46.06015170" lon="6.13189670"><ele>879.599976</ele><time>2007-04-09T14:33:08Z</time></trkpt>
<trkpt lat="46.05998170" lon="6.13186170"><ele>878.799988</ele><time>2007-04-09T14:33:10Z</time></trkpt>
<trkpt lat="46.05981830" lon="6.13180500"><ele>878.400024</ele><time>2007-04-09T14:33:12Z</time></trkpt>
<trkpt lat="46.05966000" lon="6.13173500"><ele>878.299988</ele><time>2007-04-09T14:33:14Z</time></trkpt>
<trkpt lat="46.05950330" lon="6.13164330"><ele>877.900024</ele><time>2007-04-09T14:33:16Z</time></trkpt>
<trkpt lat="46.05934830" lon="6.13155170"><ele>877.400024</ele><time>2007-04-09T14:33:18Z</time></trkpt>
<trkpt lat="46.05918500" lon="6.13148330"><ele>878</ele><time>2007-04-09T14:33:20Z</time></trkpt>
<trkpt lat="46.05902000" lon="6.13146170"><ele>878.400024</ele><time>2007-04-09T14:33:22Z</time></trkpt>
<trkpt lat="46.05886170" lon="6.13149170"><ele>878.099976</ele><time>2007-04-09T14:33:24Z</time></trkpt>
<trkpt lat="46.05870000" lon="6.13153500"><ele>876.799988</ele><time>2007-04-09T14:33:26Z</time></trkpt>
<trkpt lat="46.05852500" lon="6.13152500"><ele>876.200012</ele><time>2007-04-09T14:33:28Z</time></trkpt>
<trkpt lat="46.05835170" lon="6.13144670"><ele>876.200012</ele><time>2007-04-09T14:33:30Z</time></trkpt>
<trkpt lat="46.05819830" lon="6.13131500"><ele>875.799988</ele><time>2007-04-09T14:33:32Z</time></trkpt>
<trkpt lat="46.05807330" lon="6.13114000"><ele>874.5</ele><time>2007-04-09T14:33:34Z</time></trkpt>
<trkpt lat="46.05797670" lon="6.13092000"><ele>873.700012</ele><time>2007-04-09T14:33:36Z</time></trkpt>
<trkpt lat="46.05791000" lon="6.13066830"><ele>872.599976</ele><time>2007-04-09T14:33:38Z</time></trkpt>
<trkpt lat="46.05784670" lon="6.13040830"><ele>871</ele><time>2007-04-09T14:33:40Z</time></trkpt>
<trkpt lat="46.05778000" lon="6.13014830"><ele>869.299988</ele><time>2007-04-09T14:33:42Z</time></trkpt>
<trkpt lat="46.05766330" lon="6.12993170"><ele>868.5</ele><time>2007-04-09T14:33:44Z</time></trkpt>
<trkpt lat="46.05749500" lon="6.12981330"><ele>867.599976</ele><time>2007-04-09T14:33:46Z</time></trkpt>
<trkpt lat="46.05731500" lon="6.12981330"><ele>866.599976</ele><time>2007-04-09T14:33:48Z</time></trkpt>
<trkpt lat="46.05712830" lon="6.12985000"><ele>866</ele><time>2007-04-09T14:33:50Z</time></trkpt>
<trkpt lat="46.05693170" lon="6.12989830"><ele>867.400024</ele><time>2007-04-09T14:33:52Z</time></trkpt>
<trkpt lat="46.05673830" lon="6.12993000"><ele>867.200012</ele><time>2007-04-09T14:33:54Z</time></trkpt>
<trkpt lat="46.05655670" lon="6.12991830"><ele>865.799988</ele><time>2007-04-09T14:33:56Z</time></trkpt>
<trkpt lat="46.05637170" lon="6.12985500"><ele>864.099976</ele><time>2007-04-09T14:33:58Z</time></trkpt>
<trkpt lat="46.05618500" lon="6.12978000"><ele>864</ele><time>2007-04-09T14:34:00Z</time></trkpt>
<trkpt lat="46.05600830" lon="6.12969500"><ele>863.599976</ele><time>2007-04-09T14:34:02Z</time></trkpt>
<trkpt lat="46.05583500" lon="6.12961330"><ele>863.400024</ele><time>2007-04-09T14:34:04Z</time></trkpt>
<trkpt lat="46.05566830" lon="6.12953500"><ele>863.099976</ele><time>2007-04-09T14:34:06Z</time></trkpt>
<trkpt lat="46.05550500" lon="6.12946170"><ele>862.400024</ele><time>2007-04-09T14:34:08Z</time></trkpt>
<trkpt lat="46.05534000" lon="6.12938000"><ele>861.5</ele><time>2007-04-09T14:34:10Z</time></trkpt>
<trkpt lat="46.05517000" lon="6.12929330"><ele>860.599976</ele><time>2007-04-09T14:34:12Z</time></trkpt>
<trkpt lat="46.05499000" lon="6.12921000"><ele>859.799988</ele><time>2007-04-09T14:34:14Z</time></trkpt>
<trkpt lat="46.05481330" lon="6.12909670"><ele>858.700012</ele><time>2007-04-09T14:34:16Z</time></trkpt>
<trkpt lat="46.05465000" lon="6.12893830"><ele>857.700012</ele><time>2007-04-09T14:34:18Z</time></trkpt>
<trkpt lat="46.05449670" lon="6.12874330"><ele>856.400024</ele><time>2007-04-09T14:34:20Z</time></trkpt>
<trkpt lat="46.05435500" lon="6.12851500"><ele>855.299988</ele><time>2007-04-09T14:34:22Z</time></trkpt>
<trkpt lat="46.05421000" lon="6.12827670"><ele>854</ele><time>2007-04-09T14:34:24Z</time></trkpt>
<trkpt lat="46.05404330" lon="6.12806170"><ele>852.799988</ele><time>2007-04-09T14:34:26Z</time></trkpt>
<trkpt lat="46.05385170" lon="6.12788330"><ele>852.200012</ele><time>2007-04-09T14:34:28Z</time></trkpt>
<trkpt lat="46.05365000" lon="6.12773170"><ele>850.900024</ele><time>2007-04-09T14:34:30Z</time></trkpt>
<trkpt lat="46.05344170" lon="6.12760000"><ele>850.599976</ele><time>2007-04-09T14:34:32Z</time></trkpt>
<trkpt lat="46.05323830" lon="6.12746000"><ele>849.299988</ele><time>2007-04-09T14:34:34Z</time></trkpt>
<trkpt lat="46.05303500" lon="6.12732670"><ele>848.799988</ele><time>2007-04-09T14:34:36Z</time></trkpt>
<trkpt lat="46.05283330" lon="6.12718670"><ele>847.5</ele><time>2007-04-09T14:34:38Z</time></trkpt>
<trkpt lat="46.05263000" lon="6.12705670"><ele>847</ele><time>2007-04-09T14:34:40Z</time></trkpt>
<trkpt lat="46.05243330" lon="6.12693000"><ele>846.400024</ele><time>2007-04-09T14:34:42Z</time></trkpt>
<trkpt lat="46.05223830" lon="6.12681500"><ele>846.700012</ele><time>2007-04-09T14:34:44Z</time></trkpt>
<trkpt lat="46.05205170" lon="6.12669170"><ele>846.200012</ele><time>2007-04-09T14:34:46Z</time></trkpt>
<trkpt lat="46.05187500" lon="6.12655830"><ele>845.5</ele><time>2007-04-09T14:34:48Z</time></trkpt>
<trkpt lat="46.05170670" lon="6.12641500"><ele>845.200012</ele><time>2007-04-09T14:34:50Z</time></trkpt>
<trkpt lat="46.05154500" lon="6.12626830"><ele>845.200012</ele><time>2007-04-09T14:34:52Z</time></trkpt>
<trkpt lat="46.05139000" lon="6.12612670"><ele>845.5</ele><time>2007-04-09T14:34:54Z</time></trkpt>
<trkpt lat="46.05124170" lon="6.12597500"><ele>845.700012</ele><time>2007-04-09T14:34:56Z</time></trkpt>
<trkpt lat="46.05109670" lon="6.12582500"><ele>846</ele><time>2007-04-09T14:34:58Z</time></trkpt>
<trkpt lat="46.05095330" lon="6.12568330"><ele>846.299988</ele><time>2007-04-09T14:35:00Z</time></trkpt>
<trkpt lat="46.05081330" lon="6.12554830"><ele>846.599976</ele><time>2007-04-09T14:35:02Z</time></trkpt>
<trkpt lat="46.05067330" lon="6.12542170"><ele>846.400024</ele><time>2007-04-09T14:35:04Z</time></trkpt>
<trkpt lat="46.05052670" lon="6.12531170"><ele>846.200012</ele><time>2007-04-09T14:35:06Z</time></trkpt>
<trkpt lat="46.05036830" lon="6.12524000"><ele>846.099976</ele><time>2007-04-09T14:35:08Z</time></trkpt>
<trkpt lat="46.05019330" lon="6.12519170"><ele>845.299988</ele><time>2007-04-09T14:35:10Z</time></trkpt>
<trkpt lat="46.05001000" lon="6.12516000"><ele>843.799988</ele><time>2007-04-09T14:35:12Z</time></trkpt>
<trkpt lat="46.04982000" lon="6.12516000"><ele>842.400024</ele><time>2007-04-09T14:35:14Z</time></trkpt>
<trkpt lat="46.04961830" lon="6.12520000"><ele>841.5</ele><time>2007-04-09T14:35:16Z</time></trkpt>
<trkpt lat="46.04941330" lon="6.12524500"><ele>840.900024</ele><time>2007-04-09T14:35:18Z</time></trkpt>
<trkpt lat="46.04921170" lon="6.12528830"><ele>839.700012</ele><time>2007-04-09T14:35:20Z</time></trkpt>
<trkpt lat="46.04900830" lon="6.12535000"><ele>838.400024</ele><time>2007-04-09T14:35:22Z</time></trkpt>
<trkpt lat="46.04880000" lon="6.12543000"><ele>836.700012</ele><time>2007-04-09T14:35:24Z</time></trkpt>
<trkpt lat="46.04859330" lon="6.12553330"><ele>835.200012</ele><time>2007-04-09T14:35:26Z</time></trkpt>
<trkpt lat="46.04839170" lon="6.12565830"><ele>833.700012</ele><time>2007-04-09T14:35:28Z</time></trkpt>
<trkpt lat="46.04818670" lon="6.12578670"><ele>832.299988</ele><time>2007-04-09T14:35:30Z</time></trkpt>
<trkpt lat="46.04797670" lon="6.12590830"><ele>831</ele><time>2007-04-09T14:35:32Z</time></trkpt>
<trkpt lat="46.04776170" lon="6.12600170"><ele>829.700012</ele><time>2007-04-09T14:35:34Z</time></trkpt>
<trkpt lat="46.04753500" lon="6.12604330"><ele>828.400024</ele><time>2007-04-09T14:35:36Z</time></trkpt>
<trkpt lat="46.04730170" lon="6.12605170"><ele>827.200012</ele><time>2007-04-09T14:35:38Z</time></trkpt>
<trkpt lat="46.04705830" lon="6.12603330"><ele>825.299988</ele><time>2007-04-09T14:35:40Z</time></trkpt>
<trkpt lat="46.04682330" lon="6.12599500"><ele>823.5</ele><time>2007-04-09T14:35:42Z</time></trkpt>
<trkpt lat="46.04658830" lon="6.12591830"><ele>822.299988</ele><time>2007-04-09T14:35:44Z</time></trkpt>
<trkpt lat="46.04636500" lon="6.12578830"><ele>821.599976</ele><time>2007-04-09T14:35:46Z</time></trkpt>
<trkpt lat="46.04616330" lon="6.12560500"><ele>820</ele><time>2007-04-09T14:35:48Z</time></trkpt>
<trkpt lat="46.04598330" lon="6.12537670"><ele>819.200012</ele><time>2007-04-09T14:35:50Z</time></trkpt>
<trkpt lat="46.04582670" lon="6.12511670"><ele>818.799988</ele><time>2007-04-09T14:35:52Z</time></trkpt>
<trkpt lat="46.04568670" lon="6.12483670"><ele>816.099976</ele><time>2007-04-09T14:35:54Z</time></trkpt>
<trkpt lat="46.04554330" lon="6.12456330"><ele>813.900024</ele><time>2007-04-09T14:35:56Z</time></trkpt>
<trkpt lat="46.04539330" lon="6.12430000"><ele>812.799988</ele><time>2007-04-09T14:35:58Z</time></trkpt>
<trkpt lat="46.04522670" lon="6.12406000"><ele>811.799988</ele><time>2007-04-09T14:36:00Z</time></trkpt>
<trkpt lat="46.04503170" lon="6.12389000"><ele>810.599976</ele><time>2007-04-09T14:36:02Z</time></trkpt>
<trkpt lat="46.04481330" lon="6.12379670"><ele>809.700012</ele><time>2007-04-09T14:36:04Z</time></trkpt>
<trkpt lat="46.04459170" lon="6.12376000"><ele>808.900024</ele><time>2007-04-09T14:36:06Z</time></trkpt>
<trkpt lat="46.04437170" lon="6.12373500"><ele>807.900024</ele><time>2007-04-09T14:36:08Z</time></trkpt>
<trkpt lat="46.04415000" lon="6.12370500"><ele>806.799988</ele><time>2007-04-09T14:36:10Z</time></trkpt>
<trkpt lat="46.04393170" lon="6.12367830"><ele>805.5</ele><time>2007-04-09T14:36:12Z</time></trkpt>
<trkpt lat="46.04371000" lon="6.12365830"><ele>804.5</ele><time>2007-04-09T14:36:14Z</time></trkpt>
<trkpt lat="46.04348670" lon="6.12365670"><ele>803.400024</ele><time>2007-04-09T14:36:16Z</time></trkpt>
<trkpt lat="46.04326330" lon="6.12367170"><ele>802.299988</ele><time>2007-04-09T14:36:18Z</time></trkpt>
<trkpt lat="46.04304000" lon="6.12370830"><ele>801.299988</ele><time>2007-04-09T14:36:20Z</time></trkpt>
<trkpt lat="46.04281830" lon="6.12375500"><ele>800.299988</ele><time>2007-04-09T14:36:22Z</time></trkpt>
<trkpt lat="46.04259670" lon="6.12380170"><ele>799.200012</ele><time>2007-04-09T14:36:24Z</time></trkpt>
<trkpt lat="46.04237500" lon="6.12383330"><ele>798</ele><time>2007-04-09T14:36:26Z</time></trkpt>
<trkpt lat="46.04215500" lon="6.12379830"><ele>797</ele><time>2007-04-09T14:36:28Z</time></trkpt>
<trkpt lat="46.04195170" lon="6.12367670"><ele>796.299988</ele><time>2007-04-09T14:36:30Z</time></trkpt>
<trkpt lat="46.04178170" lon="6.12348330"><ele>795.700012</ele><time>2007-04-09T14:36:32Z</time></trkpt>
<trkpt lat="46.04165830" lon="6.12324000"><ele>795.200012</ele><time>2007-04-09T14:36:34Z</time></trkpt>
<trkpt lat="46.04158500" lon="6.12296670"><ele>794.700012</ele><time>2007-04-09T14:36:36Z</time></trkpt>
<trkpt lat="46.04154330" lon="6.12268000"><ele>794.200012</ele><time>2007-04-09T14:36:38Z</time></trkpt>
<trkpt lat="46.04150330" lon="6.12239170"><ele>793.599976</ele><time>2007-04-09T14:36:40Z</time></trkpt>
<trkpt lat="46.04145000" lon="6.12211000"><ele>792.900024</ele><time>2007-04-09T14:36:42Z</time></trkpt>
<trkpt lat="46.04136000" lon="6.12185170"><ele>792</ele><time>2007-04-09T14:36:44Z</time></trkpt>
<trkpt lat="46.04122830" lon="6.12163500"><ele>790.799988</ele><time>2007-04-09T14:36:46Z</time></trkpt>
<trkpt lat="46.04105830" lon="6.12147170"><ele>790</ele><time>2007-04-09T14:36:48Z</time></trkpt>
<trkpt lat="46.04086830" lon="6.12136330"><ele>788</ele><time>2007-04-09T14:36:50Z</time></trkpt>
<trkpt lat="46.04066500" lon="6.12128500"><ele>786.900024</ele><time>2007-04-09T14:36:52Z</time></trkpt>
<trkpt lat="46.04045830" lon="6.12121500"><ele>785.599976</ele><time>2007-04-09T14:36:54Z</time></trkpt>
<trkpt lat="46.04025000" lon="6.12114330"><ele>785.5</ele><time>2007-04-09T14:36:56Z</time></trkpt>
<trkpt lat="46.04004330" lon="6.12107500"><ele>784.700012</ele><time>2007-04-09T14:36:58Z</time></trkpt>
<trkpt lat="46.03984000" lon="6.12100500"><ele>784</ele><time>2007-04-09T14:37:00Z</time></trkpt>
<trkpt lat="46.03963670" lon="6.12093000"><ele>783.299988</ele><time>2007-04-09T14:37:02Z</time></trkpt>
<trkpt lat="46.03943670" lon="6.12085330"><ele>782.700012</ele><time>2007-04-09T14:37:04Z</time></trkpt>
<trkpt lat="46.03924000" lon="6.12075170"><ele>782.200012</ele><time>2007-04-09T14:37:06Z</time></trkpt>
<trkpt lat="46.03904830" lon="6.12063670"><ele>781.599976</ele><time>2007-04-09T14:37:08Z</time></trkpt>
<trkpt lat="46.03886500" lon="6.12050830"><ele>781.099976</ele><time>2007-04-09T14:37:10Z</time></trkpt>
<trkpt lat="46.03869330" lon="6.12036170"><ele>780.5</ele><time>2007-04-09T14:37:12Z</time></trkpt>
<trkpt lat="46.03852500" lon="6.12020170"><ele>779.900024</ele><time>2007-04-09T14:37:14Z</time></trkpt>
<trkpt lat="46.03836670" lon="6.12003170"><ele>779.400024</ele><time>2007-04-09T14:37:16Z</time></trkpt>
<trkpt lat="46.03821670" lon="6.11985670"><ele>779.099976</ele><time>2007-04-09T14:37:18Z</time></trkpt>
<trkpt lat="46.03807830" lon="6.11967500"><ele>779</ele><time>2007-04-09T14:37:20Z</time></trkpt>
<trkpt lat="46.03794830" lon="6.11948330"><ele>778.599976</ele><time>2007-04-09T14:37:22Z</time></trkpt>
<trkpt lat="46.03781830" lon="6.11929000"><ele>778.200012</ele><time>2007-04-09T14:37:24Z</time></trkpt>
<trkpt lat="46.03770670" lon="6.11908830"><ele>777.900024</ele><time>2007-04-09T14:37:26Z</time></trkpt>
<trkpt lat="46.03760670" lon="6.11888170"><ele>778.099976</ele><time>2007-04-09T14:37:28Z</time></trkpt>
<trkpt lat="46.03751330" lon="6.11867670"><ele>778.099976</ele><time>2007-04-09T14:37:30Z</time></trkpt>
<trkpt lat="46.03742170" lon="6.11847330"><ele>778.099976</ele><time>2007-04-09T14:37:32Z</time></trkpt>
<trkpt lat="46.03733170" lon="6.11826830"><ele>778.200012</ele><time>2007-04-09T14:37:34Z</time></trkpt>
<trkpt lat="46.03724170" lon="6.11806670"><ele>778.099976</ele><time>2007-04-09T14:37:36Z</time></trkpt>
<trkpt lat="46.03715000" lon="6.11787670"><ele>778.299988</ele><time>2007-04-09T14:37:38Z</time></trkpt>
<trkpt lat="46.03706830" lon="6.11768670"><ele>778.599976</ele><time>2007-04-09T14:37:40Z</time></trkpt>
<trkpt lat="46.03696500" lon="6.11752670"><ele>778.799988</ele><time>2007-04-09T14:37:42Z</time></trkpt>
<trkpt lat="46.03687500" lon="6.11736500"><ele>779.099976</ele><time>2007-04-09T14:37:44Z</time></trkpt>
<trkpt lat="46.03681500" lon="6.11717670"><ele>779.200012</ele><time>2007-04-09T14:37:46Z</time></trkpt>
<trkpt lat="46.03675830" lon="6.11698330"><ele>779.400024</ele><time>2007-04-09T14:37:48Z</time></trkpt>
<trkpt lat="46.03670330" lon="6.11678830"><ele>779.700012</ele><time>2007-04-09T14:37:50Z</time></trkpt>
<trkpt lat="46.03664330" lon="6.11659330"><ele>779.900024</ele><time>2007-04-09T14:37:52Z</time></trkpt>
<trkpt lat="46.03658170" lon="6.11640000"><ele>779.900024</ele><time>2007-04-09T14:37:54Z</time></trkpt>
<trkpt lat="46.03652670" lon="6.11620670"><ele>780</ele><time>2007-04-09T14:37:56Z</time></trkpt>
<trkpt lat="46.03647330" lon="6.11601670"><ele>780.200012</ele><time>2007-04-09T14:37:58Z</time></trkpt>
<trkpt lat="46.03642170" lon="6.11582670"><ele>780.299988</ele><time>2007-04-09T14:38:00Z</time></trkpt>
<trkpt lat="46.03637170" lon="6.11563670"><ele>780.400024</ele><time>2007-04-09T14:38:02Z</time></trkpt>
<trkpt lat="46.03632500" lon="6.11544670"><ele>780.5</ele><time>2007-04-09T14:38:04Z</time></trkpt>
<trkpt lat="46.03628170" lon="6.11525500"><ele>779.400024</ele><time>2007-04-09T14:38:06Z</time></trkpt>
<trkpt lat="46.03624000" lon="6.11507000"><ele>778.700012</ele><time>2007-04-09T14:38:08Z</time></trkpt>
<trkpt lat="46.03620000" lon="6.11488670"><ele>778.400024</ele><time>2007-04-09T14:38:10Z</time></trkpt>
<trkpt lat="46.03616170" lon="6.11470500"><ele>778.200012</ele><time>2007-04-09T14:38:12Z</time></trkpt>
<trkpt lat="46.03612500" lon="6.11452170"><ele>778.099976</ele><time>2007-04-09T14:38:14Z</time></trkpt>
<trkpt lat="46.03608000" lon="6.11433830"><ele>778</ele><time>2007-04-09T14:38:16Z</time></trkpt>
<trkpt lat="46.03603830" lon="6.11415830"><ele>777.900024</ele><time>2007-04-09T14:38:18Z</time></trkpt>
<trkpt lat="46.03599670" lon="6.11398170"><ele>777.799988</ele><time>2007-04-09T14:38:20Z</time></trkpt>
<trkpt lat="46.03595170" lon="6.11380670"><ele>777.700012</ele><time>2007-04-09T14:38:22Z</time></trkpt>
<trkpt lat="46.03590670" lon="6.11363330"><ele>777.599976</ele><time>2007-04-09T14:38:24Z</time></trkpt>
<trkpt lat="46.03586170" lon="6.11345830"><ele>777.400024</ele><time>2007-04-09T14:38:26Z</time></trkpt>
<trkpt lat="46.03581670" lon="6.11328170"><ele>776.900024</ele><time>2007-04-09T14:38:28Z</time></trkpt>
<trkpt lat="46.03577170" lon="6.11310670"><ele>776.400024</ele><time>2007-04-09T14:38:30Z</time></trkpt>
<trkpt lat="46.03572670" lon="6.11293330"><ele>776.099976</ele><time>2007-04-09T14:38:32Z</time></trkpt>
<trkpt lat="46.03568170" lon="6.11277000"><ele>775.700012</ele><time>2007-04-09T14:38:34Z</time></trkpt>
<trkpt lat="46.03565670" lon="6.11260000"><ele>775.599976</ele><time>2007-04-09T14:38:36Z</time></trkpt>
<trkpt lat="46.03561830" lon="6.11242830"><ele>775.700012</ele><time>2007-04-09T14:38:38Z</time></trkpt>
<trkpt lat="46.03557170" lon="6.11225170"><ele>775.599976</ele><time>2007-04-09T14:38:40Z</time></trkpt>
<trkpt lat="46.03552500" lon="6.11207000"><ele>775.400024</ele><time>2007-04-09T14:38:42Z</time></trkpt>
<trkpt lat="46.03547500" lon="6.11188670"><ele>775.299988</ele><time>2007-04-09T14:38:44Z</time></trkpt>
<trkpt lat="46.03542170" lon="6.11170500"><ele>775.099976</ele><time>2007-04-09T14:38:46Z</time></trkpt>
<trkpt lat="46.03536670" lon="6.11152830"><ele>775.200012</ele><time>2007-04-09T14:38:48Z</time></trkpt>
<trkpt lat="46.03530500" lon="6.11136000"><ele>775.900024</ele><time>2007-04-09T14:38:50Z</time></trkpt>
<trkpt lat="46.03528830" lon="6.11118330"><ele>778.5</ele><time>2007-04-09T14:38:52Z</time></trkpt>
<trkpt lat="46.03523670" lon="6.11103170"><ele>777.200012</ele><time>2007-04-09T14:38:54Z</time></trkpt>
<trkpt lat="46.03519000" lon="6.11095000"><ele>776.599976</ele><time>2007-04-09T14:38:56Z</time></trkpt>
<trkpt lat="46.03514170" lon="6.11089670"><ele>776.099976</ele><time>2007-04-09T14:38:58Z</time></trkpt>
<trkpt lat="46.03507830" lon="6.11090000"><ele>776.299988</ele><time>2007-04-09T14:39:00Z</time></trkpt>
<trkpt lat="46.03501170" lon="6.11094500"><ele>776.700012</ele><time>2007-04-09T14:39:02Z</time></trkpt>
<trkpt lat="46.03494670" lon="6.11098830"><ele>777.599976</ele><time>2007-04-09T14:39:04Z</time></trkpt>
<trkpt lat="46.03488170" lon="6.11103500"><ele>778.299988</ele><time>2007-04-09T14:39:06Z</time></trkpt>
<trkpt lat="46.03481330" lon="6.11107830"><ele>779.099976</ele><time>2007-04-09T14:39:08Z</time></trkpt>
<trkpt lat="46.03474000" lon="6.11112500"><ele>780</ele><time>2007-04-09T14:39:10Z</time></trkpt>
<trkpt lat="46.03466670" lon="6.11117670"><ele>780.799988</ele><time>2007-04-09T14:39:12Z</time></trkpt>
<trkpt lat="46.03459670" lon="6.11122500"><ele>782.099976</ele><time>2007-04-09T14:39:14Z</time></trkpt>
<trkpt lat="46.03451000" lon="6.11126000"><ele>782.5</ele><time>2007-04-09T14:39:16Z</time></trkpt>
<trkpt lat="46.03442170" lon="6.11128330"><ele>782.599976</ele><time>2007-04-09T14:39:18Z</time></trkpt>
<trkpt lat="46.03434000" lon="6.11128670"><ele>783.299988</ele><time>2007-04-09T14:39:20Z</time></trkpt>
<trkpt lat="46.03425000" lon="6.11127830"><ele>783.299988</ele><time>2007-04-09T14:39:22Z</time></trkpt>
<trkpt lat="46.03415830" lon="6.11125500"><ele>783.099976</ele><time>2007-04-09T14:39:24Z</time></trkpt>
<trkpt lat="46.03408000" lon="6.11121000"><ele>783.400024</ele><time>2007-04-09T14:39:26Z</time></trkpt>
<trkpt lat="46.03401000" lon="6.11114500"><ele>783.799988</ele><time>2007-04-09T14:39:28Z</time></trkpt>
<trkpt lat="46.03394670" lon="6.11107330"><ele>784.5</ele><time>2007-04-09T14:39:30Z</time></trkpt>
<trkpt lat="46.03388500" lon="6.11099500"><ele>784.5</ele><time>2007-04-09T14:39:32Z</time></trkpt>
<trkpt lat="46.03384170" lon="6.11091000"><ele>784.799988</ele><time>2007-04-09T14:39:34Z</time></trkpt>
<trkpt lat="46.03380500" lon="6.11082330"><ele>785.5</ele><time>2007-04-09T14:39:36Z</time></trkpt>
<trkpt lat="46.03376500" lon="6.11073670"><ele>786.099976</ele><time>2007-04-09T14:39:38Z</time></trkpt>
<trkpt lat="46.03372500" lon="6.11065830"><ele>786.700012</ele><time>2007-04-09T14:39:40Z</time></trkpt>
<trkpt lat="46.03368670" lon="6.11058330"><ele>787.200012</ele><time>2007-04-09T14:39:42Z</time></trkpt>
<trkpt lat="46.03366170" lon="6.11050830"><ele>787.799988</ele><time>2007-04-09T14:39:44Z</time></trkpt>
<trkpt lat="46.03368670" lon="6.11046170"><ele>787.900024</ele><time>2007-04-09T14:39:46Z</time></trkpt>
<trkpt lat="46.03373830" lon="6.11051670"><ele>787.200012</ele><time>2007-04-09T14:39:48Z</time></trkpt>
<trkpt lat="46.03381500" lon="6.11063330"><ele>785.900024</ele><time>2007-04-09T14:39:50Z</time></trkpt>
<trkpt lat="46.03393330" lon="6.11071000"><ele>784.5</ele><time>2007-04-09T14:39:52Z</time></trkpt>
<trkpt lat="46.03404670" lon="6.11067330"><ele>782.700012</ele><time>2007-04-09T14:39:54Z</time></trkpt>
<trkpt lat="46.03412830" lon="6.11061170"><ele>781.099976</ele><time>2007-04-09T14:39:56Z</time></trkpt>
<trkpt lat="46.03420170" lon="6.11058330"><ele>780.299988</ele><time>2007-04-09T14:39:58Z</time></trkpt>
<trkpt lat="46.03424500" lon="6.11053170"><ele>781</ele><time>2007-04-09T14:40:00Z</time></trkpt>
<trkpt lat="46.03423830" lon="6.11044500"><ele>780.700012</ele><time>2007-04-09T14:40:02Z</time></trkpt>
<trkpt lat="46.03423500" lon="6.11039670"><ele>781</ele><time>2007-04-09T14:40:04Z</time></trkpt>
<trkpt lat="46.03423000" lon="6.11038330"><ele>781.299988</ele><time>2007-04-09T14:40:06Z</time></trkpt>
<trkpt lat="46.03423500" lon="6.11038000"><ele>780.700012</ele><time>2007-04-09T14:40:08Z</time></trkpt>
<trkpt lat="46.03423500" lon="6.11038000"><ele>780.700012</ele><time>2007-04-09T14:40:10Z</time></trkpt>
<trkpt lat="46.03423500" lon="6.11038000"><ele>780.700012</ele><time>2007-04-09T14:40:12Z</time></trkpt>
<trkpt lat="46.03423500" lon="6.11038000"><ele>780.700012</ele><time>2007-04-09T14:40:14Z</time></trkpt>
<trkpt lat="46.03423500" lon="6.11038000"><ele>780.700012</ele><time>2007-04-09T14:40:16Z</time></trkpt>
<trkpt lat="46.03423500" lon="6.11038000"><ele>780.700012</ele><time>2007-04-09T14:40:18Z</time></trkpt>
<trkpt lat="46.03423500" lon="6.11038000"><ele>780.700012</ele><time>2007-04-09T14:40:20Z</time></trkpt>
<trkpt lat="46.03423500" lon="6.11038000"><ele>780.700012</ele><time>2007-04-09T14:40:22Z</time></trkpt>
<trkpt lat="46.03423500" lon="6.11038000"><ele>780.700012</ele><time>2007-04-09T14:40:24Z</time></trkpt>
<trkpt lat="46.03423500" lon="6.11038000"><ele>780.700012</ele><time>2007-04-09T14:40:26Z</time></trkpt>
<trkpt lat="46.03423500" lon="6.11038000"><ele>780.700012</ele><time>2007-04-09T14:40:28Z</time></trkpt>
<trkpt lat="46.03423500" lon="6.11038000"><ele>780.700012</ele><time>2007-04-09T14:40:30Z</time></trkpt>
<trkpt lat="46.03423500" lon="6.11038000"><ele>780.700012</ele><time>2007-04-09T14:40:32Z</time></trkpt>
<trkpt lat="46.03423500" lon="6.11038000"><ele>780.700012</ele><time>2007-04-09T14:40:34Z</time></trkpt>
<trkpt lat="46.03423500" lon="6.11038000"><ele>780.700012</ele><time>2007-04-09T14:40:36Z</time></trkpt>
<trkpt lat="46.03423500" lon="6.11038000"><ele>780.700012</ele><time>2007-04-09T14:40:38Z</time></trkpt>
<trkpt lat="46.03423500" lon="6.11038000"><ele>780.700012</ele><time>2007-04-09T14:40:40Z</time></trkpt>
<trkpt lat="46.03423500" lon="6.11038000"><ele>780.700012</ele><time>2007-04-09T14:40:42Z</time></trkpt>
<trkpt lat="46.03423500" lon="6.11038000"><ele>780.700012</ele><time>2007-04-09T14:40:44Z</time></trkpt>
</trkseg></trk></gpx>